<?xml version="1.0" encoding="UTF-8"?>
<gpx version="1.1" creator="https://www.youtrack.es" xsi:schemaLocation="http://www.topografix.com/GPX/1/1 http://www.topografix.com/GPX/1/1/gpx.xsd http://www.garmin.com/xmlschemas/GpxExtensions/v3 http://www.garmin.com/xmlschemas/GpxExtensionsv3.xsd http://www.garmin.com/xmlschemas/TrackPointExtension/v1 http://www.garmin.com/xmlschemas/TrackPointExtensionv1.xsd" xmlns:gpxtpx="http://www.garmin.com/xmlschemas/TrackPointExtension/v1" xmlns:gpxx="http://www.garmin.com/xmlschemas/GpxExtensions/v3" xmlns:xsi="http://www.w3.org/2001/XMLSchema-instance">
  <metadata>
    <author>
      <name>Johnny Ducktails</name>
      <email id="lobos967" domain="gmail.com"/>
    </author>
    <link href="https://www.youtrack.es">
      <text>YouTrack.es</text>
    </link>
    <time>2026-05-08T23:19:52Z</time>
  </metadata>
  <trk>
    <src>https://www.youtrack.es</src>
    <link href="https://www.youtrack.es/ruta/15535-corsa-01-09-2020-10-04">
      <text>YouTrack.es</text>
    </link>
    <trkseg>
      <trkpt lat="46.096131" lon="11.045491">
        <ele>508.387551</ele>
        <time>2020-09-01T06:36:25.295Z</time>
      </trkpt>
      <trkpt lat="46.096226" lon="11.045489">
        <ele>508.387551</ele>
        <time>2020-09-01T06:36:51.338Z</time>
      </trkpt>
      <trkpt lat="46.096265" lon="11.045612">
        <ele>508.387551</ele>
        <time>2020-09-01T06:37:01.329Z</time>
      </trkpt>
      <trkpt lat="46.096374" lon="11.045666">
        <ele>508.387551</ele>
        <time>2020-09-01T06:37:05.333Z</time>
      </trkpt>
      <trkpt lat="46.096467" lon="11.045686">
        <ele>508.387551</ele>
        <time>2020-09-01T06:37:08.372Z</time>
      </trkpt>
      <trkpt lat="46.096559" lon="11.045664">
        <ele>508.387551</ele>
        <time>2020-09-01T06:37:14.365Z</time>
      </trkpt>
      <trkpt lat="46.096653" lon="11.045693">
        <ele>508.387551</ele>
        <time>2020-09-01T06:37:17.341Z</time>
      </trkpt>
      <trkpt lat="46.096748" lon="11.045725">
        <ele>508.387551</ele>
        <time>2020-09-01T06:37:21.386Z</time>
      </trkpt>
      <trkpt lat="46.096863" lon="11.045794">
        <ele>508.387551</ele>
        <time>2020-09-01T06:37:25.343Z</time>
      </trkpt>
      <trkpt lat="46.096937" lon="11.045871">
        <ele>508.386908</ele>
        <time>2020-09-01T06:37:27.349Z</time>
      </trkpt>
      <trkpt lat="46.097037" lon="11.045851">
        <ele>508.343860</ele>
        <time>2020-09-01T06:37:30.378Z</time>
      </trkpt>
      <trkpt lat="46.097008" lon="11.045702">
        <ele>508.298100</ele>
        <time>2020-09-01T06:37:33.335Z</time>
      </trkpt>
      <trkpt lat="46.097064" lon="11.045572">
        <ele>508.252849</ele>
        <time>2020-09-01T06:37:36.363Z</time>
      </trkpt>
      <trkpt lat="46.097180" lon="11.045496">
        <ele>508.198520</ele>
        <time>2020-09-01T06:37:39.357Z</time>
      </trkpt>
      <trkpt lat="46.097276" lon="11.045409">
        <ele>508.150174</ele>
        <time>2020-09-01T06:37:42.360Z</time>
      </trkpt>
      <trkpt lat="46.097348" lon="11.045312">
        <ele>508.108160</ele>
        <time>2020-09-01T06:37:45.356Z</time>
      </trkpt>
      <trkpt lat="46.097393" lon="11.045177">
        <ele>508.063871</ele>
        <time>2020-09-01T06:37:48.355Z</time>
      </trkpt>
      <trkpt lat="46.097438" lon="11.045052">
        <ele>508.022226</ele>
        <time>2020-09-01T06:37:51.346Z</time>
      </trkpt>
      <trkpt lat="46.097495" lon="11.044937">
        <ele>507.980430</ele>
        <time>2020-09-01T06:37:54.387Z</time>
      </trkpt>
      <trkpt lat="46.097575" lon="11.044876">
        <ele>507.941843</ele>
        <time>2020-09-01T06:37:57.388Z</time>
      </trkpt>
      <trkpt lat="46.097666" lon="11.044788">
        <ele>507.895123</ele>
        <time>2020-09-01T06:38:00.355Z</time>
      </trkpt>
      <trkpt lat="46.097749" lon="11.044686">
        <ele>507.848625</ele>
        <time>2020-09-01T06:38:03.373Z</time>
      </trkpt>
      <trkpt lat="46.097825" lon="11.044594">
        <ele>507.806314</ele>
        <time>2020-09-01T06:38:06.350Z</time>
      </trkpt>
      <trkpt lat="46.097905" lon="11.044514">
        <ele>507.764803</ele>
        <time>2020-09-01T06:38:09.348Z</time>
      </trkpt>
      <trkpt lat="46.097982" lon="11.044431">
        <ele>507.723812</ele>
        <time>2020-09-01T06:38:12.360Z</time>
      </trkpt>
      <trkpt lat="46.098073" lon="11.044372">
        <ele>507.681268</ele>
        <time>2020-09-01T06:38:15.339Z</time>
      </trkpt>
      <trkpt lat="46.098170" lon="11.044367">
        <ele>507.639881</ele>
        <time>2020-09-01T06:38:21.344Z</time>
      </trkpt>
      <trkpt lat="46.098279" lon="11.044083">
        <ele>508.478351</ele>
        <time>2020-09-01T06:38:23.346Z</time>
      </trkpt>
      <trkpt lat="46.098251" lon="11.043947">
        <ele>508.947443</ele>
        <time>2020-09-01T06:38:26.355Z</time>
      </trkpt>
      <trkpt lat="46.098253" lon="11.043804">
        <ele>509.420375</ele>
        <time>2020-09-01T06:38:30.397Z</time>
      </trkpt>
      <trkpt lat="46.098234" lon="11.043637">
        <ele>509.979950</ele>
        <time>2020-09-01T06:38:38.362Z</time>
      </trkpt>
      <trkpt lat="46.098261" lon="11.043455">
        <ele>510.595359</ele>
        <time>2020-09-01T06:38:41.368Z</time>
      </trkpt>
      <trkpt lat="46.098304" lon="11.043315">
        <ele>511.101653</ele>
        <time>2020-09-01T06:38:44.372Z</time>
      </trkpt>
      <trkpt lat="46.098351" lon="11.043199">
        <ele>511.545888</ele>
        <time>2020-09-01T06:38:47.361Z</time>
      </trkpt>
      <trkpt lat="46.098429" lon="11.043104">
        <ele>512.032724</ele>
        <time>2020-09-01T06:38:50.375Z</time>
      </trkpt>
      <trkpt lat="46.098519" lon="11.042988">
        <ele>512.608304</ele>
        <time>2020-09-01T06:38:54.362Z</time>
      </trkpt>
      <trkpt lat="46.098618" lon="11.042934">
        <ele>513.113017</ele>
        <time>2020-09-01T06:38:57.360Z</time>
      </trkpt>
      <trkpt lat="46.098718" lon="11.042889">
        <ele>513.612536</ele>
        <time>2020-09-01T06:39:00.361Z</time>
      </trkpt>
      <trkpt lat="46.098804" lon="11.042840">
        <ele>514.053466</ele>
        <time>2020-09-01T06:39:03.370Z</time>
      </trkpt>
      <trkpt lat="46.098860" lon="11.042738">
        <ele>514.483644</ele>
        <time>2020-09-01T06:39:06.361Z</time>
      </trkpt>
      <trkpt lat="46.098921" lon="11.042626">
        <ele>514.954548</ele>
        <time>2020-09-01T06:39:09.348Z</time>
      </trkpt>
      <trkpt lat="46.099003" lon="11.042544">
        <ele>515.430366</ele>
        <time>2020-09-01T06:39:12.359Z</time>
      </trkpt>
      <trkpt lat="46.099090" lon="11.042460">
        <ele>515.929611</ele>
        <time>2020-09-01T06:39:15.348Z</time>
      </trkpt>
      <trkpt lat="46.099163" lon="11.042364">
        <ele>516.446194</ele>
        <time>2020-09-01T06:39:18.355Z</time>
      </trkpt>
      <trkpt lat="46.099240" lon="11.042292">
        <ele>516.981658</ele>
        <time>2020-09-01T06:39:21.364Z</time>
      </trkpt>
      <trkpt lat="46.099333" lon="11.042199">
        <ele>517.641998</ele>
        <time>2020-09-01T06:39:25.351Z</time>
      </trkpt>
      <trkpt lat="46.099394" lon="11.042073">
        <ele>518.263750</ele>
        <time>2020-09-01T06:39:29.360Z</time>
      </trkpt>
      <trkpt lat="46.099468" lon="11.041939">
        <ele>518.956840</ele>
        <time>2020-09-01T06:39:33.359Z</time>
      </trkpt>
      <trkpt lat="46.099520" lon="11.041824">
        <ele>519.512315</ele>
        <time>2020-09-01T06:39:36.354Z</time>
      </trkpt>
      <trkpt lat="46.099579" lon="11.041686">
        <ele>520.168259</ele>
        <time>2020-09-01T06:39:40.360Z</time>
      </trkpt>
      <trkpt lat="46.099635" lon="11.041556">
        <ele>520.787467</ele>
        <time>2020-09-01T06:39:44.381Z</time>
      </trkpt>
      <trkpt lat="46.099686" lon="11.041415">
        <ele>521.430897</ele>
        <time>2020-09-01T06:39:48.355Z</time>
      </trkpt>
      <trkpt lat="46.099718" lon="11.041273">
        <ele>522.035002</ele>
        <time>2020-09-01T06:39:52.362Z</time>
      </trkpt>
      <trkpt lat="46.099766" lon="11.041131">
        <ele>522.674159</ele>
        <time>2020-09-01T06:39:56.415Z</time>
      </trkpt>
      <trkpt lat="46.099754" lon="11.040979">
        <ele>523.293116</ele>
        <time>2020-09-01T06:40:02.365Z</time>
      </trkpt>
      <trkpt lat="46.099756" lon="11.040822">
        <ele>523.928438</ele>
        <time>2020-09-01T06:40:06.365Z</time>
      </trkpt>
      <trkpt lat="46.099746" lon="11.040687">
        <ele>524.477749</ele>
        <time>2020-09-01T06:40:10.340Z</time>
      </trkpt>
      <trkpt lat="46.099736" lon="11.040555">
        <ele>525.014993</ele>
        <time>2020-09-01T06:40:14.358Z</time>
      </trkpt>
      <trkpt lat="46.099738" lon="11.040417">
        <ele>525.573457</ele>
        <time>2020-09-01T06:40:18.345Z</time>
      </trkpt>
      <trkpt lat="46.099734" lon="11.040256">
        <ele>526.225273</ele>
        <time>2020-09-01T06:40:22.363Z</time>
      </trkpt>
      <trkpt lat="46.099732" lon="11.040121">
        <ele>526.734967</ele>
        <time>2020-09-01T06:40:25.373Z</time>
      </trkpt>
      <trkpt lat="46.099754" lon="11.039971">
        <ele>527.069019</ele>
        <time>2020-09-01T06:40:28.361Z</time>
      </trkpt>
      <trkpt lat="46.099780" lon="11.039824">
        <ele>527.399558</ele>
        <time>2020-09-01T06:40:31.360Z</time>
      </trkpt>
      <trkpt lat="46.099826" lon="11.039689">
        <ele>527.727292</ele>
        <time>2020-09-01T06:40:34.352Z</time>
      </trkpt>
      <trkpt lat="46.099895" lon="11.039572">
        <ele>528.061942</ele>
        <time>2020-09-01T06:40:37.368Z</time>
      </trkpt>
      <trkpt lat="46.099959" lon="11.039457">
        <ele>528.383224</ele>
        <time>2020-09-01T06:40:40.384Z</time>
      </trkpt>
      <trkpt lat="46.100004" lon="11.039341">
        <ele>528.672829</ele>
        <time>2020-09-01T06:40:43.364Z</time>
      </trkpt>
      <trkpt lat="46.100068" lon="11.039204">
        <ele>529.032746</ele>
        <time>2020-09-01T06:40:47.372Z</time>
      </trkpt>
      <trkpt lat="46.100126" lon="11.039075">
        <ele>529.367725</ele>
        <time>2020-09-01T06:40:51.367Z</time>
      </trkpt>
      <trkpt lat="46.100184" lon="11.038964">
        <ele>529.670550</ele>
        <time>2020-09-01T06:40:55.379Z</time>
      </trkpt>
      <trkpt lat="46.100210" lon="11.038825">
        <ele>529.984227</ele>
        <time>2020-09-01T06:40:59.344Z</time>
      </trkpt>
      <trkpt lat="46.100234" lon="11.038688">
        <ele>530.292099</ele>
        <time>2020-09-01T06:41:03.361Z</time>
      </trkpt>
      <trkpt lat="46.100251" lon="11.038519">
        <ele>530.664168</ele>
        <time>2020-09-01T06:41:07.367Z</time>
      </trkpt>
      <trkpt lat="46.100253" lon="11.038364">
        <ele>531.001938</ele>
        <time>2020-09-01T06:41:11.362Z</time>
      </trkpt>
      <trkpt lat="46.100254" lon="11.038194">
        <ele>531.372345</ele>
        <time>2020-09-01T06:41:15.375Z</time>
      </trkpt>
      <trkpt lat="46.100261" lon="11.038048">
        <ele>531.691207</ele>
        <time>2020-09-01T06:41:18.366Z</time>
      </trkpt>
      <trkpt lat="46.100277" lon="11.037851">
        <ele>532.123362</ele>
        <time>2020-09-01T06:41:20.364Z</time>
      </trkpt>
      <trkpt lat="46.100284" lon="11.037689">
        <ele>532.431715</ele>
        <time>2020-09-01T06:41:22.329Z</time>
      </trkpt>
      <trkpt lat="46.100282" lon="11.037557">
        <ele>532.621511</ele>
        <time>2020-09-01T06:41:24.341Z</time>
      </trkpt>
      <trkpt lat="46.100300" lon="11.037425">
        <ele>532.814895</ele>
        <time>2020-09-01T06:41:29.358Z</time>
      </trkpt>
      <trkpt lat="46.100326" lon="11.037279">
        <ele>533.031582</ele>
        <time>2020-09-01T06:41:34.361Z</time>
      </trkpt>
      <trkpt lat="46.100364" lon="11.037130">
        <ele>533.259797</ele>
        <time>2020-09-01T06:41:39.376Z</time>
      </trkpt>
      <trkpt lat="46.100377" lon="11.036998">
        <ele>533.451451</ele>
        <time>2020-09-01T06:41:43.362Z</time>
      </trkpt>
      <trkpt lat="46.100356" lon="11.036863">
        <ele>533.650337</ele>
        <time>2020-09-01T06:41:47.364Z</time>
      </trkpt>
      <trkpt lat="46.100322" lon="11.036707">
        <ele>533.885404</ele>
        <time>2020-09-01T06:41:51.375Z</time>
      </trkpt>
      <trkpt lat="46.100285" lon="11.036582">
        <ele>534.080779</ele>
        <time>2020-09-01T06:41:54.354Z</time>
      </trkpt>
      <trkpt lat="46.100226" lon="11.036448">
        <ele>534.308957</ele>
        <time>2020-09-01T06:41:58.344Z</time>
      </trkpt>
      <trkpt lat="46.100180" lon="11.036311">
        <ele>534.527769</ele>
        <time>2020-09-01T06:42:03.349Z</time>
      </trkpt>
      <trkpt lat="46.100141" lon="11.036168">
        <ele>534.748661</ele>
        <time>2020-09-01T06:42:08.363Z</time>
      </trkpt>
      <trkpt lat="46.100126" lon="11.035993">
        <ele>535.002139</ele>
        <time>2020-09-01T06:42:12.362Z</time>
      </trkpt>
      <trkpt lat="46.100088" lon="11.035847">
        <ele>535.226313</ele>
        <time>2020-09-01T06:42:15.353Z</time>
      </trkpt>
      <trkpt lat="46.100040" lon="11.035712">
        <ele>535.444402</ele>
        <time>2020-09-01T06:42:18.354Z</time>
      </trkpt>
      <trkpt lat="46.099976" lon="11.035586">
        <ele>535.668925</ele>
        <time>2020-09-01T06:42:21.361Z</time>
      </trkpt>
      <trkpt lat="46.099912" lon="11.035457">
        <ele>535.896942</ele>
        <time>2020-09-01T06:42:24.347Z</time>
      </trkpt>
      <trkpt lat="46.099857" lon="11.035303">
        <ele>536.127741</ele>
        <time>2020-09-01T06:42:27.388Z</time>
      </trkpt>
      <trkpt lat="46.099849" lon="11.035115">
        <ele>536.331179</ele>
        <time>2020-09-01T06:42:30.342Z</time>
      </trkpt>
      <trkpt lat="46.099872" lon="11.034940">
        <ele>536.523560</ele>
        <time>2020-09-01T06:42:33.356Z</time>
      </trkpt>
      <trkpt lat="46.099888" lon="11.034757">
        <ele>536.722781</ele>
        <time>2020-09-01T06:42:36.368Z</time>
      </trkpt>
      <trkpt lat="46.099883" lon="11.034595">
        <ele>536.897929</ele>
        <time>2020-09-01T06:42:39.365Z</time>
      </trkpt>
      <trkpt lat="46.099845" lon="11.034449">
        <ele>537.066364</ele>
        <time>2020-09-01T06:42:42.363Z</time>
      </trkpt>
      <trkpt lat="46.099786" lon="11.034293">
        <ele>537.258292</ele>
        <time>2020-09-01T06:42:45.342Z</time>
      </trkpt>
      <trkpt lat="46.099743" lon="11.034177">
        <ele>537.400362</ele>
        <time>2020-09-01T06:42:47.350Z</time>
      </trkpt>
      <trkpt lat="46.099691" lon="11.034053">
        <ele>537.556881</ele>
        <time>2020-09-01T06:42:49.355Z</time>
      </trkpt>
      <trkpt lat="46.099637" lon="11.033922">
        <ele>537.721487</ele>
        <time>2020-09-01T06:42:52.350Z</time>
      </trkpt>
      <trkpt lat="46.099584" lon="11.033782">
        <ele>537.893769</ele>
        <time>2020-09-01T06:42:55.359Z</time>
      </trkpt>
      <trkpt lat="46.099539" lon="11.033641">
        <ele>538.061419</ele>
        <time>2020-09-01T06:42:59.359Z</time>
      </trkpt>
      <trkpt lat="46.099521" lon="11.033514">
        <ele>538.201427</ele>
        <time>2020-09-01T06:43:02.366Z</time>
      </trkpt>
      <trkpt lat="46.099502" lon="11.033350">
        <ele>538.381018</ele>
        <time>2020-09-01T06:43:05.391Z</time>
      </trkpt>
      <trkpt lat="46.099485" lon="11.033206">
        <ele>538.538790</ele>
        <time>2020-09-01T06:43:07.347Z</time>
      </trkpt>
      <trkpt lat="46.099462" lon="11.033038">
        <ele>538.723748</ele>
        <time>2020-09-01T06:43:10.352Z</time>
      </trkpt>
      <trkpt lat="46.099446" lon="11.032894">
        <ele>538.892614</ele>
        <time>2020-09-01T06:43:13.353Z</time>
      </trkpt>
      <trkpt lat="46.099441" lon="11.032737">
        <ele>539.341702</ele>
        <time>2020-09-01T06:43:16.362Z</time>
      </trkpt>
      <trkpt lat="46.099439" lon="11.032583">
        <ele>539.781821</ele>
        <time>2020-09-01T06:43:19.355Z</time>
      </trkpt>
      <trkpt lat="46.099450" lon="11.032421">
        <ele>540.246936</ele>
        <time>2020-09-01T06:43:22.345Z</time>
      </trkpt>
      <trkpt lat="46.099460" lon="11.032261">
        <ele>540.705976</ele>
        <time>2020-09-01T06:43:25.356Z</time>
      </trkpt>
      <trkpt lat="46.099470" lon="11.032129">
        <ele>541.085399</ele>
        <time>2020-09-01T06:43:28.364Z</time>
      </trkpt>
      <trkpt lat="46.099480" lon="11.031834">
        <ele>541.929343</ele>
        <time>2020-09-01T06:43:30.338Z</time>
      </trkpt>
      <trkpt lat="46.099493" lon="11.031652">
        <ele>542.452145</ele>
        <time>2020-09-01T06:43:33.349Z</time>
      </trkpt>
      <trkpt lat="46.099499" lon="11.031468">
        <ele>542.978490</ele>
        <time>2020-09-01T06:43:36.346Z</time>
      </trkpt>
      <trkpt lat="46.099507" lon="11.031290">
        <ele>543.488176</ele>
        <time>2020-09-01T06:43:39.336Z</time>
      </trkpt>
      <trkpt lat="46.099519" lon="11.031110">
        <ele>544.004882</ele>
        <time>2020-09-01T06:43:42.345Z</time>
      </trkpt>
      <trkpt lat="46.099525" lon="11.030955">
        <ele>544.448471</ele>
        <time>2020-09-01T06:43:45.345Z</time>
      </trkpt>
      <trkpt lat="46.099530" lon="11.030811">
        <ele>544.860454</ele>
        <time>2020-09-01T06:43:48.372Z</time>
      </trkpt>
      <trkpt lat="46.099542" lon="11.030628">
        <ele>545.385693</ele>
        <time>2020-09-01T06:43:51.339Z</time>
      </trkpt>
      <trkpt lat="46.099552" lon="11.030452">
        <ele>545.890283</ele>
        <time>2020-09-01T06:43:55.363Z</time>
      </trkpt>
      <trkpt lat="46.099530" lon="11.030326">
        <ele>546.261555</ele>
        <time>2020-09-01T06:44:00.379Z</time>
      </trkpt>
      <trkpt lat="46.099509" lon="11.030189">
        <ele>547.080852</ele>
        <time>2020-09-01T06:44:05.367Z</time>
      </trkpt>
      <trkpt lat="46.099493" lon="11.030059">
        <ele>547.877683</ele>
        <time>2020-09-01T06:44:09.347Z</time>
      </trkpt>
      <trkpt lat="46.099462" lon="11.029905">
        <ele>548.845466</ele>
        <time>2020-09-01T06:44:13.350Z</time>
      </trkpt>
      <trkpt lat="46.099428" lon="11.029761">
        <ele>549.763527</ele>
        <time>2020-09-01T06:44:17.351Z</time>
      </trkpt>
      <trkpt lat="46.099395" lon="11.029596">
        <ele>550.799921</ele>
        <time>2020-09-01T06:44:21.368Z</time>
      </trkpt>
      <trkpt lat="46.099369" lon="11.029432">
        <ele>551.815225</ele>
        <time>2020-09-01T06:44:24.342Z</time>
      </trkpt>
      <trkpt lat="46.099336" lon="11.029283">
        <ele>552.759218</ele>
        <time>2020-09-01T06:44:27.346Z</time>
      </trkpt>
      <trkpt lat="46.099316" lon="11.029150">
        <ele>553.580552</ele>
        <time>2020-09-01T06:44:30.365Z</time>
      </trkpt>
      <trkpt lat="46.099289" lon="11.028998">
        <ele>554.527518</ele>
        <time>2020-09-01T06:44:34.359Z</time>
      </trkpt>
      <trkpt lat="46.099247" lon="11.028878">
        <ele>555.338765</ele>
        <time>2020-09-01T06:44:40.352Z</time>
      </trkpt>
      <trkpt lat="46.099207" lon="11.028748">
        <ele>556.197110</ele>
        <time>2020-09-01T06:44:46.365Z</time>
      </trkpt>
      <trkpt lat="46.099186" lon="11.028606">
        <ele>557.073379</ele>
        <time>2020-09-01T06:44:52.354Z</time>
      </trkpt>
      <trkpt lat="46.099171" lon="11.028428">
        <ele>558.155544</ele>
        <time>2020-09-01T06:44:56.349Z</time>
      </trkpt>
      <trkpt lat="46.099168" lon="11.028273">
        <ele>559.091360</ele>
        <time>2020-09-01T06:44:59.353Z</time>
      </trkpt>
      <trkpt lat="46.099162" lon="11.028111">
        <ele>560.070452</ele>
        <time>2020-09-01T06:45:02.352Z</time>
      </trkpt>
      <trkpt lat="46.099161" lon="11.027953">
        <ele>561.024049</ele>
        <time>2020-09-01T06:45:05.361Z</time>
      </trkpt>
      <trkpt lat="46.099161" lon="11.027811">
        <ele>561.881044</ele>
        <time>2020-09-01T06:45:08.353Z</time>
      </trkpt>
      <trkpt lat="46.099157" lon="11.027669">
        <ele>562.409642</ele>
        <time>2020-09-01T06:45:12.366Z</time>
      </trkpt>
      <trkpt lat="46.099161" lon="11.027538">
        <ele>562.874576</ele>
        <time>2020-09-01T06:45:15.348Z</time>
      </trkpt>
      <trkpt lat="46.099174" lon="11.027383">
        <ele>563.428162</ele>
        <time>2020-09-01T06:45:19.365Z</time>
      </trkpt>
      <trkpt lat="46.099173" lon="11.027243">
        <ele>563.924584</ele>
        <time>2020-09-01T06:45:23.354Z</time>
      </trkpt>
      <trkpt lat="46.099180" lon="11.027081">
        <ele>564.500098</ele>
        <time>2020-09-01T06:45:28.365Z</time>
      </trkpt>
      <trkpt lat="46.099175" lon="11.026917">
        <ele>565.082152</ele>
        <time>2020-09-01T06:45:33.361Z</time>
      </trkpt>
      <trkpt lat="46.099149" lon="11.026752">
        <ele>565.682105</ele>
        <time>2020-09-01T06:45:37.355Z</time>
      </trkpt>
      <trkpt lat="46.099124" lon="11.026617">
        <ele>566.177548</ele>
        <time>2020-09-01T06:45:40.371Z</time>
      </trkpt>
      <trkpt lat="46.099094" lon="11.026482">
        <ele>566.680196</ele>
        <time>2020-09-01T06:45:43.358Z</time>
      </trkpt>
      <trkpt lat="46.099060" lon="11.026349">
        <ele>567.182799</ele>
        <time>2020-09-01T06:45:46.421Z</time>
      </trkpt>
      <trkpt lat="46.099025" lon="11.026204">
        <ele>567.727183</ele>
        <time>2020-09-01T06:45:49.356Z</time>
      </trkpt>
      <trkpt lat="46.098987" lon="11.026070">
        <ele>568.240503</ele>
        <time>2020-09-01T06:45:52.358Z</time>
      </trkpt>
      <trkpt lat="46.098942" lon="11.025917">
        <ele>568.829777</ele>
        <time>2020-09-01T06:45:56.354Z</time>
      </trkpt>
      <trkpt lat="46.098902" lon="11.025755">
        <ele>569.439509</ele>
        <time>2020-09-01T06:46:00.357Z</time>
      </trkpt>
      <trkpt lat="46.098864" lon="11.025596">
        <ele>570.035821</ele>
        <time>2020-09-01T06:46:04.369Z</time>
      </trkpt>
      <trkpt lat="46.098843" lon="11.025436">
        <ele>570.613207</ele>
        <time>2020-09-01T06:46:08.406Z</time>
      </trkpt>
      <trkpt lat="46.098835" lon="11.025301">
        <ele>571.093621</ele>
        <time>2020-09-01T06:46:11.362Z</time>
      </trkpt>
      <trkpt lat="46.098829" lon="11.025150">
        <ele>571.527603</ele>
        <time>2020-09-01T06:46:14.355Z</time>
      </trkpt>
      <trkpt lat="46.098812" lon="11.025006">
        <ele>571.937807</ele>
        <time>2020-09-01T06:46:17.371Z</time>
      </trkpt>
      <trkpt lat="46.098795" lon="11.024844">
        <ele>572.397921</ele>
        <time>2020-09-01T06:46:20.384Z</time>
      </trkpt>
      <trkpt lat="46.098786" lon="11.024695">
        <ele>572.817932</ele>
        <time>2020-09-01T06:46:23.360Z</time>
      </trkpt>
      <trkpt lat="46.098769" lon="11.024537">
        <ele>573.266943</ele>
        <time>2020-09-01T06:46:26.363Z</time>
      </trkpt>
      <trkpt lat="46.098750" lon="11.024389">
        <ele>573.689625</ele>
        <time>2020-09-01T06:46:29.352Z</time>
      </trkpt>
      <trkpt lat="46.098730" lon="11.024254">
        <ele>574.077292</ele>
        <time>2020-09-01T06:46:35.339Z</time>
      </trkpt>
      <trkpt lat="46.098715" lon="11.024126">
        <ele>574.441844</ele>
        <time>2020-09-01T06:46:38.333Z</time>
      </trkpt>
      <trkpt lat="46.098675" lon="11.023993">
        <ele>574.848957</ele>
        <time>2020-09-01T06:46:45.364Z</time>
      </trkpt>
      <trkpt lat="46.098663" lon="11.023857">
        <ele>575.233957</ele>
        <time>2020-09-01T06:46:49.330Z</time>
      </trkpt>
      <trkpt lat="46.098663" lon="11.023718">
        <ele>575.624302</ele>
        <time>2020-09-01T06:46:53.352Z</time>
      </trkpt>
      <trkpt lat="46.098654" lon="11.023589">
        <ele>575.988394</ele>
        <time>2020-09-01T06:46:58.336Z</time>
      </trkpt>
      <trkpt lat="46.098628" lon="11.023440">
        <ele>576.419868</ele>
        <time>2020-09-01T06:47:03.362Z</time>
      </trkpt>
      <trkpt lat="46.098592" lon="11.023297">
        <ele>576.847093</ele>
        <time>2020-09-01T06:47:07.448Z</time>
      </trkpt>
      <trkpt lat="46.098559" lon="11.023169">
        <ele>577.230589</ele>
        <time>2020-09-01T06:47:10.382Z</time>
      </trkpt>
      <trkpt lat="46.098506" lon="11.023029">
        <ele>577.678519</ele>
        <time>2020-09-01T06:47:12.362Z</time>
      </trkpt>
      <trkpt lat="46.098472" lon="11.022902">
        <ele>578.060825</ele>
        <time>2020-09-01T06:47:14.403Z</time>
      </trkpt>
      <trkpt lat="46.098419" lon="11.022776">
        <ele>578.455130</ele>
        <time>2020-09-01T06:47:18.398Z</time>
      </trkpt>
      <trkpt lat="46.098367" lon="11.022661">
        <ele>578.696815</ele>
        <time>2020-09-01T06:47:24.361Z</time>
      </trkpt>
      <trkpt lat="46.098289" lon="11.022543">
        <ele>578.983803</ele>
        <time>2020-09-01T06:47:29.424Z</time>
      </trkpt>
      <trkpt lat="46.098219" lon="11.022424">
        <ele>579.258514</ele>
        <time>2020-09-01T06:47:32.353Z</time>
      </trkpt>
      <trkpt lat="46.098150" lon="11.022317">
        <ele>579.515740</ele>
        <time>2020-09-01T06:47:35.359Z</time>
      </trkpt>
      <trkpt lat="46.098083" lon="11.022222">
        <ele>579.754278</ele>
        <time>2020-09-01T06:47:38.376Z</time>
      </trkpt>
      <trkpt lat="46.098008" lon="11.022097">
        <ele>580.045269</ele>
        <time>2020-09-01T06:47:42.362Z</time>
      </trkpt>
      <trkpt lat="46.097933" lon="11.021978">
        <ele>580.328358</ele>
        <time>2020-09-01T06:47:46.350Z</time>
      </trkpt>
      <trkpt lat="46.097873" lon="11.021877">
        <ele>580.562485</ele>
        <time>2020-09-01T06:47:50.363Z</time>
      </trkpt>
      <trkpt lat="46.097797" lon="11.021762">
        <ele>580.842148</ele>
        <time>2020-09-01T06:47:54.385Z</time>
      </trkpt>
      <trkpt lat="46.097728" lon="11.021678">
        <ele>581.071390</ele>
        <time>2020-09-01T06:47:58.346Z</time>
      </trkpt>
      <trkpt lat="46.097657" lon="11.021593">
        <ele>581.305655</ele>
        <time>2020-09-01T06:48:02.391Z</time>
      </trkpt>
      <trkpt lat="46.097583" lon="11.021485">
        <ele>581.572939</ele>
        <time>2020-09-01T06:48:07.375Z</time>
      </trkpt>
      <trkpt lat="46.097501" lon="11.021389">
        <ele>581.841077</ele>
        <time>2020-09-01T06:48:19.364Z</time>
      </trkpt>
      <trkpt lat="46.097444" lon="11.021288">
        <ele>582.070323</ele>
        <time>2020-09-01T06:48:21.358Z</time>
      </trkpt>
      <trkpt lat="46.097379" lon="11.021177">
        <ele>582.326085</ele>
        <time>2020-09-01T06:48:23.361Z</time>
      </trkpt>
      <trkpt lat="46.097302" lon="11.021062">
        <ele>582.607508</ele>
        <time>2020-09-01T06:48:25.354Z</time>
      </trkpt>
      <trkpt lat="46.097219" lon="11.020938">
        <ele>582.910908</ele>
        <time>2020-09-01T06:48:27.361Z</time>
      </trkpt>
      <trkpt lat="46.097133" lon="11.020806">
        <ele>582.754266</ele>
        <time>2020-09-01T06:48:29.360Z</time>
      </trkpt>
      <trkpt lat="46.097061" lon="11.020690">
        <ele>582.488130</ele>
        <time>2020-09-01T06:48:31.344Z</time>
      </trkpt>
      <trkpt lat="46.096997" lon="11.020583">
        <ele>582.246570</ele>
        <time>2020-09-01T06:48:33.330Z</time>
      </trkpt>
      <trkpt lat="46.096788" lon="11.020374">
        <ele>581.619578</ele>
        <time>2020-09-01T06:48:35.338Z</time>
      </trkpt>
      <trkpt lat="46.096702" lon="11.020304">
        <ele>581.376128</ele>
        <time>2020-09-01T06:48:37.330Z</time>
      </trkpt>
      <trkpt lat="46.096600" lon="11.020226">
        <ele>581.091507</ele>
        <time>2020-09-01T06:48:39.335Z</time>
      </trkpt>
      <trkpt lat="46.096504" lon="11.020171">
        <ele>580.836851</ele>
        <time>2020-09-01T06:48:42.366Z</time>
      </trkpt>
      <trkpt lat="46.096424" lon="11.020094">
        <ele>580.599738</ele>
        <time>2020-09-01T06:48:46.332Z</time>
      </trkpt>
      <trkpt lat="46.096244" lon="11.020065">
        <ele>580.153235</ele>
        <time>2020-09-01T06:49:32.363Z</time>
      </trkpt>
      <trkpt lat="46.096048" lon="11.019977">
        <ele>579.647171</ele>
        <time>2020-09-01T06:49:35.337Z</time>
      </trkpt>
      <trkpt lat="46.095949" lon="11.019919">
        <ele>579.383740</ele>
        <time>2020-09-01T06:49:37.349Z</time>
      </trkpt>
      <trkpt lat="46.095852" lon="11.019857">
        <ele>579.122175</ele>
        <time>2020-09-01T06:49:39.358Z</time>
      </trkpt>
      <trkpt lat="46.095757" lon="11.019807">
        <ele>578.872867</ele>
        <time>2020-09-01T06:49:41.382Z</time>
      </trkpt>
      <trkpt lat="46.095663" lon="11.019751">
        <ele>578.622138</ele>
        <time>2020-09-01T06:49:43.342Z</time>
      </trkpt>
      <trkpt lat="46.095583" lon="11.019687">
        <ele>578.920204</ele>
        <time>2020-09-01T06:49:45.368Z</time>
      </trkpt>
      <trkpt lat="46.095481" lon="11.019574">
        <ele>579.655016</ele>
        <time>2020-09-01T06:49:48.361Z</time>
      </trkpt>
      <trkpt lat="46.095403" lon="11.019438">
        <ele>580.354188</ele>
        <time>2020-09-01T06:49:51.337Z</time>
      </trkpt>
      <trkpt lat="46.095374" lon="11.019315">
        <ele>580.868860</ele>
        <time>2020-09-01T06:49:56.360Z</time>
      </trkpt>
      <trkpt lat="46.095340" lon="11.019168">
        <ele>581.482755</ele>
        <time>2020-09-01T06:50:00.363Z</time>
      </trkpt>
      <trkpt lat="46.095308" lon="11.019009">
        <ele>582.138643</ele>
        <time>2020-09-01T06:50:04.353Z</time>
      </trkpt>
      <trkpt lat="46.095270" lon="11.018892">
        <ele>582.650471</ele>
        <time>2020-09-01T06:50:07.355Z</time>
      </trkpt>
      <trkpt lat="46.095216" lon="11.018778">
        <ele>583.197401</ele>
        <time>2020-09-01T06:50:10.351Z</time>
      </trkpt>
      <trkpt lat="46.095141" lon="11.018658">
        <ele>583.837385</ele>
        <time>2020-09-01T06:50:13.339Z</time>
      </trkpt>
      <trkpt lat="46.095054" lon="11.018575">
        <ele>584.433324</ele>
        <time>2020-09-01T06:50:16.336Z</time>
      </trkpt>
      <trkpt lat="46.094971" lon="11.018504">
        <ele>584.984639</ele>
        <time>2020-09-01T06:50:19.351Z</time>
      </trkpt>
      <trkpt lat="46.094869" lon="11.018445">
        <ele>585.612477</ele>
        <time>2020-09-01T06:50:22.364Z</time>
      </trkpt>
      <trkpt lat="46.094779" lon="11.018394">
        <ele>586.164904</ele>
        <time>2020-09-01T06:50:25.355Z</time>
      </trkpt>
      <trkpt lat="46.094692" lon="11.018345">
        <ele>586.698484</ele>
        <time>2020-09-01T06:50:28.380Z</time>
      </trkpt>
      <trkpt lat="46.094582" lon="11.018284">
        <ele>587.371759</ele>
        <time>2020-09-01T06:50:32.346Z</time>
      </trkpt>
      <trkpt lat="46.094470" lon="11.018235">
        <ele>588.040394</ele>
        <time>2020-09-01T06:50:36.351Z</time>
      </trkpt>
      <trkpt lat="46.094377" lon="11.018184">
        <ele>588.608808</ele>
        <time>2020-09-01T06:50:40.353Z</time>
      </trkpt>
      <trkpt lat="46.094274" lon="11.018131">
        <ele>589.132745</ele>
        <time>2020-09-01T06:50:45.368Z</time>
      </trkpt>
      <trkpt lat="46.094190" lon="11.018079">
        <ele>589.524582</ele>
        <time>2020-09-01T06:50:49.359Z</time>
      </trkpt>
      <trkpt lat="46.094104" lon="11.018020">
        <ele>589.932808</ele>
        <time>2020-09-01T06:50:53.361Z</time>
      </trkpt>
      <trkpt lat="46.094021" lon="11.017960">
        <ele>590.330783</ele>
        <time>2020-09-01T06:50:57.367Z</time>
      </trkpt>
      <trkpt lat="46.093932" lon="11.017900">
        <ele>590.751908</ele>
        <time>2020-09-01T06:51:01.353Z</time>
      </trkpt>
      <trkpt lat="46.093830" lon="11.017815">
        <ele>591.256882</ele>
        <time>2020-09-01T06:51:05.359Z</time>
      </trkpt>
      <trkpt lat="46.093742" lon="11.017727">
        <ele>591.715914</ele>
        <time>2020-09-01T06:51:09.364Z</time>
      </trkpt>
      <trkpt lat="46.093674" lon="11.017640">
        <ele>592.105580</ele>
        <time>2020-09-01T06:51:12.392Z</time>
      </trkpt>
      <trkpt lat="46.093616" lon="11.017530">
        <ele>592.516342</ele>
        <time>2020-09-01T06:51:15.358Z</time>
      </trkpt>
      <trkpt lat="46.093552" lon="11.017417">
        <ele>592.950032</ele>
        <time>2020-09-01T06:51:19.369Z</time>
      </trkpt>
      <trkpt lat="46.093505" lon="11.017290">
        <ele>593.377940</ele>
        <time>2020-09-01T06:51:23.350Z</time>
      </trkpt>
      <trkpt lat="46.093437" lon="11.017173">
        <ele>593.831722</ele>
        <time>2020-09-01T06:51:28.361Z</time>
      </trkpt>
      <trkpt lat="46.093354" lon="11.017060">
        <ele>594.321011</ele>
        <time>2020-09-01T06:51:31.375Z</time>
      </trkpt>
      <trkpt lat="46.093251" lon="11.016973">
        <ele>594.832681</ele>
        <time>2020-09-01T06:51:34.386Z</time>
      </trkpt>
      <trkpt lat="46.093144" lon="11.016913">
        <ele>595.324788</ele>
        <time>2020-09-01T06:51:37.398Z</time>
      </trkpt>
      <trkpt lat="46.093042" lon="11.016873">
        <ele>595.777883</ele>
        <time>2020-09-01T06:51:40.381Z</time>
      </trkpt>
      <trkpt lat="46.092943" lon="11.016840">
        <ele>596.213431</ele>
        <time>2020-09-01T06:51:43.384Z</time>
      </trkpt>
      <trkpt lat="46.092841" lon="11.016803">
        <ele>596.614167</ele>
        <time>2020-09-01T06:51:46.363Z</time>
      </trkpt>
      <trkpt lat="46.092747" lon="11.016750">
        <ele>596.873041</ele>
        <time>2020-09-01T06:51:49.374Z</time>
      </trkpt>
      <trkpt lat="46.092644" lon="11.016694">
        <ele>597.155377</ele>
        <time>2020-09-01T06:51:52.345Z</time>
      </trkpt>
      <trkpt lat="46.092536" lon="11.016632">
        <ele>597.453528</ele>
        <time>2020-09-01T06:51:55.373Z</time>
      </trkpt>
      <trkpt lat="46.092423" lon="11.016584">
        <ele>597.755672</ele>
        <time>2020-09-01T06:51:58.360Z</time>
      </trkpt>
      <trkpt lat="46.092305" lon="11.016538">
        <ele>598.069192</ele>
        <time>2020-09-01T06:52:01.359Z</time>
      </trkpt>
      <trkpt lat="46.092178" lon="11.016471">
        <ele>598.416047</ele>
        <time>2020-09-01T06:52:04.364Z</time>
      </trkpt>
      <trkpt lat="46.092062" lon="11.016392">
        <ele>598.745087</ele>
        <time>2020-09-01T06:52:07.392Z</time>
      </trkpt>
      <trkpt lat="46.091955" lon="11.016319">
        <ele>599.048696</ele>
        <time>2020-09-01T06:52:10.407Z</time>
      </trkpt>
      <trkpt lat="46.091848" lon="11.016219">
        <ele>599.375739</ele>
        <time>2020-09-01T06:52:13.374Z</time>
      </trkpt>
      <trkpt lat="46.091734" lon="11.016121">
        <ele>599.716153</ele>
        <time>2020-09-01T06:52:16.361Z</time>
      </trkpt>
      <trkpt lat="46.091659" lon="11.016044">
        <ele>599.952296</ele>
        <time>2020-09-01T06:52:18.377Z</time>
      </trkpt>
      <trkpt lat="46.091556" lon="11.015935">
        <ele>600.279990</ele>
        <time>2020-09-01T06:52:21.419Z</time>
      </trkpt>
      <trkpt lat="46.091468" lon="11.015824">
        <ele>600.579869</ele>
        <time>2020-09-01T06:52:24.376Z</time>
      </trkpt>
      <trkpt lat="46.091391" lon="11.015685">
        <ele>600.896312</ele>
        <time>2020-09-01T06:52:27.379Z</time>
      </trkpt>
      <trkpt lat="46.091335" lon="11.015531">
        <ele>601.196524</ele>
        <time>2020-09-01T06:52:30.370Z</time>
      </trkpt>
      <trkpt lat="46.091287" lon="11.015383">
        <ele>601.437119</ele>
        <time>2020-09-01T06:52:33.360Z</time>
      </trkpt>
      <trkpt lat="46.091222" lon="11.015260">
        <ele>601.664837</ele>
        <time>2020-09-01T06:52:36.392Z</time>
      </trkpt>
      <trkpt lat="46.091178" lon="11.015143">
        <ele>601.860829</ele>
        <time>2020-09-01T06:52:39.378Z</time>
      </trkpt>
      <trkpt lat="46.091128" lon="11.014976">
        <ele>602.128687</ele>
        <time>2020-09-01T06:52:44.385Z</time>
      </trkpt>
      <trkpt lat="46.091104" lon="11.014829">
        <ele>602.351072</ele>
        <time>2020-09-01T06:52:47.380Z</time>
      </trkpt>
      <trkpt lat="46.091115" lon="11.014674">
        <ele>602.580513</ele>
        <time>2020-09-01T06:52:50.373Z</time>
      </trkpt>
      <trkpt lat="46.091127" lon="11.014515">
        <ele>602.816035</ele>
        <time>2020-09-01T06:52:53.371Z</time>
      </trkpt>
      <trkpt lat="46.091125" lon="11.014350">
        <ele>603.059046</ele>
        <time>2020-09-01T06:52:56.377Z</time>
      </trkpt>
      <trkpt lat="46.091143" lon="11.014186">
        <ele>603.303554</ele>
        <time>2020-09-01T06:52:59.360Z</time>
      </trkpt>
      <trkpt lat="46.091125" lon="11.014019">
        <ele>603.552426</ele>
        <time>2020-09-01T06:53:02.364Z</time>
      </trkpt>
      <trkpt lat="46.091084" lon="11.013883">
        <ele>603.770799</ele>
        <time>2020-09-01T06:53:05.365Z</time>
      </trkpt>
      <trkpt lat="46.091012" lon="11.013760">
        <ele>604.007821</ele>
        <time>2020-09-01T06:53:08.365Z</time>
      </trkpt>
      <trkpt lat="46.090911" lon="11.013642">
        <ele>604.283840</ele>
        <time>2020-09-01T06:53:11.368Z</time>
      </trkpt>
      <trkpt lat="46.090817" lon="11.013553">
        <ele>604.522618</ele>
        <time>2020-09-01T06:53:14.358Z</time>
      </trkpt>
      <trkpt lat="46.090728" lon="11.013479">
        <ele>604.740763</ele>
        <time>2020-09-01T06:53:17.355Z</time>
      </trkpt>
      <trkpt lat="46.090602" lon="11.013383">
        <ele>604.893571</ele>
        <time>2020-09-01T06:53:21.405Z</time>
      </trkpt>
      <trkpt lat="46.090505" lon="11.013261">
        <ele>604.593495</ele>
        <time>2020-09-01T06:53:24.341Z</time>
      </trkpt>
      <trkpt lat="46.090435" lon="11.013157">
        <ele>604.359176</ele>
        <time>2020-09-01T06:53:26.345Z</time>
      </trkpt>
      <trkpt lat="46.090373" lon="11.013057">
        <ele>604.142305</ele>
        <time>2020-09-01T06:53:28.347Z</time>
      </trkpt>
      <trkpt lat="46.090319" lon="11.012946">
        <ele>603.923087</ele>
        <time>2020-09-01T06:53:30.355Z</time>
      </trkpt>
      <trkpt lat="46.090282" lon="11.012823">
        <ele>603.706317</ele>
        <time>2020-09-01T06:53:32.379Z</time>
      </trkpt>
      <trkpt lat="46.090232" lon="11.012678">
        <ele>603.444499</ele>
        <time>2020-09-01T06:53:34.364Z</time>
      </trkpt>
      <trkpt lat="46.090182" lon="11.012569">
        <ele>603.233204</ele>
        <time>2020-09-01T06:53:36.345Z</time>
      </trkpt>
      <trkpt lat="46.090144" lon="11.012413">
        <ele>602.965874</ele>
        <time>2020-09-01T06:53:38.339Z</time>
      </trkpt>
      <trkpt lat="46.090111" lon="11.012256">
        <ele>602.700631</ele>
        <time>2020-09-01T06:53:40.344Z</time>
      </trkpt>
      <trkpt lat="46.090065" lon="11.012112">
        <ele>602.444298</ele>
        <time>2020-09-01T06:53:42.344Z</time>
      </trkpt>
      <trkpt lat="46.090040" lon="11.011967">
        <ele>602.202722</ele>
        <time>2020-09-01T06:53:44.364Z</time>
      </trkpt>
      <trkpt lat="46.089992" lon="11.011803">
        <ele>601.914918</ele>
        <time>2020-09-01T06:53:46.369Z</time>
      </trkpt>
      <trkpt lat="46.089950" lon="11.011661">
        <ele>601.665321</ele>
        <time>2020-09-01T06:53:48.359Z</time>
      </trkpt>
      <trkpt lat="46.089919" lon="11.011510">
        <ele>601.410708</ele>
        <time>2020-09-01T06:53:50.353Z</time>
      </trkpt>
      <trkpt lat="46.089845" lon="11.011340">
        <ele>601.086192</ele>
        <time>2020-09-01T06:53:52.352Z</time>
      </trkpt>
      <trkpt lat="46.089804" lon="11.011166">
        <ele>600.789069</ele>
        <time>2020-09-01T06:53:54.379Z</time>
      </trkpt>
      <trkpt lat="46.089741" lon="11.010988">
        <ele>600.194974</ele>
        <time>2020-09-01T06:53:56.338Z</time>
      </trkpt>
      <trkpt lat="46.089692" lon="11.010823">
        <ele>599.653361</ele>
        <time>2020-09-01T06:53:58.346Z</time>
      </trkpt>
      <trkpt lat="46.089646" lon="11.010646">
        <ele>599.082994</ele>
        <time>2020-09-01T06:54:00.360Z</time>
      </trkpt>
      <trkpt lat="46.089574" lon="11.010464">
        <ele>598.450743</ele>
        <time>2020-09-01T06:54:02.363Z</time>
      </trkpt>
      <trkpt lat="46.089492" lon="11.010299">
        <ele>597.838221</ele>
        <time>2020-09-01T06:54:04.341Z</time>
      </trkpt>
      <trkpt lat="46.089405" lon="11.010145">
        <ele>597.238864</ele>
        <time>2020-09-01T06:54:06.344Z</time>
      </trkpt>
      <trkpt lat="46.089382" lon="11.009975">
        <ele>596.716216</ele>
        <time>2020-09-01T06:54:08.354Z</time>
      </trkpt>
      <trkpt lat="46.089398" lon="11.009835">
        <ele>596.288066</ele>
        <time>2020-09-01T06:54:10.340Z</time>
      </trkpt>
      <trkpt lat="46.089442" lon="11.009701">
        <ele>595.840689</ele>
        <time>2020-09-01T06:54:12.340Z</time>
      </trkpt>
      <trkpt lat="46.089501" lon="11.009579">
        <ele>595.391888</ele>
        <time>2020-09-01T06:54:14.339Z</time>
      </trkpt>
      <trkpt lat="46.089566" lon="11.009444">
        <ele>594.895978</ele>
        <time>2020-09-01T06:54:16.342Z</time>
      </trkpt>
      <trkpt lat="46.089619" lon="11.009318">
        <ele>594.451307</ele>
        <time>2020-09-01T06:54:18.337Z</time>
      </trkpt>
      <trkpt lat="46.089580" lon="11.009188">
        <ele>594.023903</ele>
        <time>2020-09-01T06:54:20.353Z</time>
      </trkpt>
      <trkpt lat="46.089544" lon="11.009004">
        <ele>593.447010</ele>
        <time>2020-09-01T06:54:22.360Z</time>
      </trkpt>
      <trkpt lat="46.089534" lon="11.008813">
        <ele>592.868601</ele>
        <time>2020-09-01T06:54:24.345Z</time>
      </trkpt>
      <trkpt lat="46.089500" lon="11.008602">
        <ele>592.211637</ele>
        <time>2020-09-01T06:54:26.343Z</time>
      </trkpt>
      <trkpt lat="46.089456" lon="11.008409">
        <ele>591.595495</ele>
        <time>2020-09-01T06:54:28.329Z</time>
      </trkpt>
      <trkpt lat="46.089407" lon="11.008193">
        <ele>590.906258</ele>
        <time>2020-09-01T06:54:30.342Z</time>
      </trkpt>
      <trkpt lat="46.089397" lon="11.008065">
        <ele>590.515605</ele>
        <time>2020-09-01T06:54:31.350Z</time>
      </trkpt>
      <trkpt lat="46.089409" lon="11.007840">
        <ele>589.831212</ele>
        <time>2020-09-01T06:54:33.345Z</time>
      </trkpt>
      <trkpt lat="46.089440" lon="11.007622">
        <ele>589.156309</ele>
        <time>2020-09-01T06:54:35.342Z</time>
      </trkpt>
      <trkpt lat="46.089533" lon="11.007433">
        <ele>588.453495</ele>
        <time>2020-09-01T06:54:37.395Z</time>
      </trkpt>
      <trkpt lat="46.089582" lon="11.007255">
        <ele>587.872689</ele>
        <time>2020-09-01T06:54:39.339Z</time>
      </trkpt>
      <trkpt lat="46.089646" lon="11.007078">
        <ele>587.267310</ele>
        <time>2020-09-01T06:54:41.344Z</time>
      </trkpt>
      <trkpt lat="46.089700" lon="11.006911">
        <ele>586.708492</ele>
        <time>2020-09-01T06:54:43.344Z</time>
      </trkpt>
      <trkpt lat="46.089764" lon="11.006801">
        <ele>586.273039</ele>
        <time>2020-09-01T06:54:45.339Z</time>
      </trkpt>
      <trkpt lat="46.089843" lon="11.006696">
        <ele>585.803199</ele>
        <time>2020-09-01T06:54:47.347Z</time>
      </trkpt>
      <trkpt lat="46.089937" lon="11.006548">
        <ele>585.194566</ele>
        <time>2020-09-01T06:54:50.343Z</time>
      </trkpt>
      <trkpt lat="46.090007" lon="11.006379">
        <ele>585.489511</ele>
        <time>2020-09-01T06:54:53.355Z</time>
      </trkpt>
      <trkpt lat="46.090062" lon="11.006271">
        <ele>585.822747</ele>
        <time>2020-09-01T06:54:55.344Z</time>
      </trkpt>
      <trkpt lat="46.090131" lon="11.006130">
        <ele>586.251926</ele>
        <time>2020-09-01T06:54:58.344Z</time>
      </trkpt>
      <trkpt lat="46.090206" lon="11.006026">
        <ele>586.625069</ele>
        <time>2020-09-01T06:55:02.377Z</time>
      </trkpt>
      <trkpt lat="46.090293" lon="11.005922">
        <ele>587.030328</ele>
        <time>2020-09-01T06:55:05.395Z</time>
      </trkpt>
      <trkpt lat="46.090315" lon="11.005750">
        <ele>587.465308</ele>
        <time>2020-09-01T06:55:09.371Z</time>
      </trkpt>
      <trkpt lat="46.090278" lon="11.005608">
        <ele>587.842566</ele>
        <time>2020-09-01T06:55:12.379Z</time>
      </trkpt>
      <trkpt lat="46.090232" lon="11.005481">
        <ele>588.198899</ele>
        <time>2020-09-01T06:55:15.365Z</time>
      </trkpt>
      <trkpt lat="46.090186" lon="11.005360">
        <ele>588.542074</ele>
        <time>2020-09-01T06:55:18.386Z</time>
      </trkpt>
      <trkpt lat="46.090110" lon="11.005253">
        <ele>588.922985</ele>
        <time>2020-09-01T06:55:21.358Z</time>
      </trkpt>
      <trkpt lat="46.090016" lon="11.005166">
        <ele>589.323541</ele>
        <time>2020-09-01T06:55:24.361Z</time>
      </trkpt>
      <trkpt lat="46.089936" lon="11.005058">
        <ele>589.716539</ele>
        <time>2020-09-01T06:55:27.401Z</time>
      </trkpt>
      <trkpt lat="46.089850" lon="11.004975">
        <ele>590.087647</ele>
        <time>2020-09-01T06:55:30.357Z</time>
      </trkpt>
      <trkpt lat="46.089745" lon="11.004900">
        <ele>590.507851</ele>
        <time>2020-09-01T06:55:34.361Z</time>
      </trkpt>
      <trkpt lat="46.089657" lon="11.004824">
        <ele>590.875700</ele>
        <time>2020-09-01T06:55:37.381Z</time>
      </trkpt>
      <trkpt lat="46.089565" lon="11.004720">
        <ele>591.294920</ele>
        <time>2020-09-01T06:55:40.350Z</time>
      </trkpt>
      <trkpt lat="46.089528" lon="11.004594">
        <ele>591.800900</ele>
        <time>2020-09-01T06:55:43.367Z</time>
      </trkpt>
      <trkpt lat="46.089517" lon="11.004427">
        <ele>592.926615</ele>
        <time>2020-09-01T06:55:48.351Z</time>
      </trkpt>
      <trkpt lat="46.089612" lon="11.004298">
        <ele>594.189288</ele>
        <time>2020-09-01T06:55:51.363Z</time>
      </trkpt>
      <trkpt lat="46.089728" lon="11.004282">
        <ele>595.316824</ele>
        <time>2020-09-01T06:55:54.340Z</time>
      </trkpt>
      <trkpt lat="46.089825" lon="11.004266">
        <ele>596.261515</ele>
        <time>2020-09-01T06:55:58.376Z</time>
      </trkpt>
      <trkpt lat="46.089794" lon="11.004114">
        <ele>597.324712</ele>
        <time>2020-09-01T06:56:02.348Z</time>
      </trkpt>
      <trkpt lat="46.089812" lon="11.003979">
        <ele>598.247231</ele>
        <time>2020-09-01T06:56:07.359Z</time>
      </trkpt>
      <trkpt lat="46.089887" lon="11.003894">
        <ele>599.170265</ele>
        <time>2020-09-01T06:56:12.393Z</time>
      </trkpt>
      <trkpt lat="46.089957" lon="11.003767">
        <ele>600.258877</ele>
        <time>2020-09-01T06:56:17.365Z</time>
      </trkpt>
      <trkpt lat="46.090030" lon="11.003669">
        <ele>601.223971</ele>
        <time>2020-09-01T06:56:22.358Z</time>
      </trkpt>
      <trkpt lat="46.090126" lon="11.003696">
        <ele>602.170370</ele>
        <time>2020-09-01T06:56:29.364Z</time>
      </trkpt>
      <trkpt lat="46.090214" lon="11.003729">
        <ele>603.050181</ele>
        <time>2020-09-01T06:56:37.390Z</time>
      </trkpt>
      <trkpt lat="46.090254" lon="11.003583">
        <ele>604.103596</ele>
        <time>2020-09-01T06:56:42.363Z</time>
      </trkpt>
      <trkpt lat="46.090332" lon="11.003510">
        <ele>605.003363</ele>
        <time>2020-09-01T06:56:47.362Z</time>
      </trkpt>
      <trkpt lat="46.090420" lon="11.003426">
        <ele>606.024522</ele>
        <time>2020-09-01T06:56:53.361Z</time>
      </trkpt>
      <trkpt lat="46.090504" lon="11.003294">
        <ele>607.226700</ele>
        <time>2020-09-01T06:56:58.359Z</time>
      </trkpt>
      <trkpt lat="46.090543" lon="11.003171">
        <ele>608.134263</ele>
        <time>2020-09-01T06:57:02.352Z</time>
      </trkpt>
      <trkpt lat="46.090566" lon="11.002988">
        <ele>608.751968</ele>
        <time>2020-09-01T06:58:06.374Z</time>
      </trkpt>
      <trkpt lat="46.090638" lon="11.002905">
        <ele>608.369071</ele>
        <time>2020-09-01T06:58:24.381Z</time>
      </trkpt>
      <trkpt lat="46.090721" lon="11.002838">
        <ele>607.973963</ele>
        <time>2020-09-01T06:58:38.355Z</time>
      </trkpt>
      <trkpt lat="46.090625" lon="11.002838">
        <ele>607.575204</ele>
        <time>2020-09-01T06:59:46.353Z</time>
      </trkpt>
      <trkpt lat="46.090570" lon="11.002945">
        <ele>607.191538</ele>
        <time>2020-09-01T06:59:54.366Z</time>
      </trkpt>
      <trkpt lat="46.090523" lon="11.003063">
        <ele>606.799542</ele>
        <time>2020-09-01T06:59:59.349Z</time>
      </trkpt>
      <trkpt lat="46.090479" lon="11.003178">
        <ele>606.421191</ele>
        <time>2020-09-01T07:00:04.368Z</time>
      </trkpt>
      <trkpt lat="46.090437" lon="11.003298">
        <ele>606.033980</ele>
        <time>2020-09-01T07:00:10.357Z</time>
      </trkpt>
      <trkpt lat="46.090355" lon="11.003375">
        <ele>605.627514</ele>
        <time>2020-09-01T07:00:15.354Z</time>
      </trkpt>
      <trkpt lat="46.090253" lon="11.003434">
        <ele>605.171014</ele>
        <time>2020-09-01T07:00:50.354Z</time>
      </trkpt>
      <trkpt lat="46.090170" lon="11.003351">
        <ele>604.751458</ele>
        <time>2020-09-01T07:00:57.372Z</time>
      </trkpt>
      <trkpt lat="46.090067" lon="11.003428">
        <ele>604.269540</ele>
        <time>2020-09-01T07:01:01.348Z</time>
      </trkpt>
      <trkpt lat="46.089892" lon="11.003745">
        <ele>603.102362</ele>
        <time>2020-09-01T07:01:04.346Z</time>
      </trkpt>
      <trkpt lat="46.089794" lon="11.003805">
        <ele>602.660121</ele>
        <time>2020-09-01T07:01:06.340Z</time>
      </trkpt>
      <trkpt lat="46.089698" lon="11.003821">
        <ele>602.258707</ele>
        <time>2020-09-01T07:01:08.340Z</time>
      </trkpt>
      <trkpt lat="46.089634" lon="11.003915">
        <ele>601.879237</ele>
        <time>2020-09-01T07:01:10.357Z</time>
      </trkpt>
      <trkpt lat="46.089548" lon="11.004028">
        <ele>601.259870</ele>
        <time>2020-09-01T07:01:14.352Z</time>
      </trkpt>
      <trkpt lat="46.089485" lon="11.004173">
        <ele>599.863744</ele>
        <time>2020-09-01T07:01:18.349Z</time>
      </trkpt>
      <trkpt lat="46.089340" lon="11.004173">
        <ele>598.157804</ele>
        <time>2020-09-01T07:01:20.339Z</time>
      </trkpt>
      <trkpt lat="46.089221" lon="11.004061">
        <ele>596.485893</ele>
        <time>2020-09-01T07:01:22.333Z</time>
      </trkpt>
      <trkpt lat="46.089112" lon="11.003915">
        <ele>594.735545</ele>
        <time>2020-09-01T07:01:24.337Z</time>
      </trkpt>
      <trkpt lat="46.089003" lon="11.003820">
        <ele>593.237075</ele>
        <time>2020-09-01T07:01:26.340Z</time>
      </trkpt>
      <trkpt lat="46.088895" lon="11.003776">
        <ele>591.916696</ele>
        <time>2020-09-01T07:01:28.338Z</time>
      </trkpt>
      <trkpt lat="46.088804" lon="11.003722">
        <ele>590.758948</ele>
        <time>2020-09-01T07:01:32.338Z</time>
      </trkpt>
      <trkpt lat="46.088793" lon="11.003546">
        <ele>589.317039</ele>
        <time>2020-09-01T07:01:36.337Z</time>
      </trkpt>
      <trkpt lat="46.088789" lon="11.003400">
        <ele>588.124808</ele>
        <time>2020-09-01T07:01:41.338Z</time>
      </trkpt>
      <trkpt lat="46.088739" lon="11.003540">
        <ele>586.839897</ele>
        <time>2020-09-01T07:01:56.343Z</time>
      </trkpt>
      <trkpt lat="46.088770" lon="11.003673">
        <ele>585.695022</ele>
        <time>2020-09-01T07:01:59.338Z</time>
      </trkpt>
      <trkpt lat="46.088851" lon="11.003736">
        <ele>584.612243</ele>
        <time>2020-09-01T07:02:04.335Z</time>
      </trkpt>
      <trkpt lat="46.088822" lon="11.003612">
        <ele>583.544475</ele>
        <time>2020-09-01T07:02:16.344Z</time>
      </trkpt>
      <trkpt lat="46.088821" lon="11.003471">
        <ele>582.393912</ele>
        <time>2020-09-01T07:02:20.343Z</time>
      </trkpt>
      <trkpt lat="46.088824" lon="11.003330">
        <ele>581.242868</ele>
        <time>2020-09-01T07:02:23.343Z</time>
      </trkpt>
      <trkpt lat="46.088799" lon="11.003187">
        <ele>580.347339</ele>
        <time>2020-09-01T07:02:26.353Z</time>
      </trkpt>
      <trkpt lat="46.088763" lon="11.003009">
        <ele>580.562725</ele>
        <time>2020-09-01T07:02:30.360Z</time>
      </trkpt>
      <trkpt lat="46.088708" lon="11.002862">
        <ele>580.756753</ele>
        <time>2020-09-01T07:02:33.379Z</time>
      </trkpt>
      <trkpt lat="46.088635" lon="11.002747">
        <ele>580.937851</ele>
        <time>2020-09-01T07:02:36.366Z</time>
      </trkpt>
      <trkpt lat="46.088544" lon="11.002666">
        <ele>581.116976</ele>
        <time>2020-09-01T07:02:39.390Z</time>
      </trkpt>
      <trkpt lat="46.088444" lon="11.002637">
        <ele>581.287826</ele>
        <time>2020-09-01T07:02:42.367Z</time>
      </trkpt>
      <trkpt lat="46.088345" lon="11.002661">
        <ele>581.455974</ele>
        <time>2020-09-01T07:02:45.364Z</time>
      </trkpt>
      <trkpt lat="46.088244" lon="11.002705">
        <ele>581.632697</ele>
        <time>2020-09-01T07:02:48.365Z</time>
      </trkpt>
      <trkpt lat="46.088146" lon="11.002752">
        <ele>581.805685</ele>
        <time>2020-09-01T07:02:51.358Z</time>
      </trkpt>
      <trkpt lat="46.088023" lon="11.002819">
        <ele>582.025916</ele>
        <time>2020-09-01T07:02:54.358Z</time>
      </trkpt>
      <trkpt lat="46.087905" lon="11.002879">
        <ele>582.235490</ele>
        <time>2020-09-01T07:02:57.368Z</time>
      </trkpt>
      <trkpt lat="46.087810" lon="11.002917">
        <ele>582.400620</ele>
        <time>2020-09-01T07:03:00.413Z</time>
      </trkpt>
      <trkpt lat="46.087709" lon="11.002890">
        <ele>582.572674</ele>
        <time>2020-09-01T07:03:03.367Z</time>
      </trkpt>
      <trkpt lat="46.087623" lon="11.002811">
        <ele>582.743470</ele>
        <time>2020-09-01T07:03:06.374Z</time>
      </trkpt>
      <trkpt lat="46.087558" lon="11.002678">
        <ele>582.932479</ele>
        <time>2020-09-01T07:03:09.365Z</time>
      </trkpt>
      <trkpt lat="46.087514" lon="11.002513">
        <ele>583.137836</ele>
        <time>2020-09-01T07:03:12.372Z</time>
      </trkpt>
      <trkpt lat="46.087486" lon="11.002339">
        <ele>583.290855</ele>
        <time>2020-09-01T07:03:15.350Z</time>
      </trkpt>
      <trkpt lat="46.087455" lon="11.002167">
        <ele>583.022981</ele>
        <time>2020-09-01T07:03:18.368Z</time>
      </trkpt>
      <trkpt lat="46.087419" lon="11.001976">
        <ele>582.724636</ele>
        <time>2020-09-01T07:03:21.362Z</time>
      </trkpt>
      <trkpt lat="46.087389" lon="11.001853">
        <ele>582.528102</ele>
        <time>2020-09-01T07:03:23.370Z</time>
      </trkpt>
      <trkpt lat="46.087349" lon="11.001675">
        <ele>582.246063</ele>
        <time>2020-09-01T07:03:26.377Z</time>
      </trkpt>
      <trkpt lat="46.087322" lon="11.001500">
        <ele>581.975829</ele>
        <time>2020-09-01T07:03:29.363Z</time>
      </trkpt>
      <trkpt lat="46.087295" lon="11.001370">
        <ele>581.771277</ele>
        <time>2020-09-01T07:03:31.361Z</time>
      </trkpt>
      <trkpt lat="46.087258" lon="11.001243">
        <ele>581.563640</ele>
        <time>2020-09-01T07:03:33.402Z</time>
      </trkpt>
      <trkpt lat="46.087212" lon="11.001055">
        <ele>581.263141</ele>
        <time>2020-09-01T07:03:36.361Z</time>
      </trkpt>
      <trkpt lat="46.087179" lon="11.000909">
        <ele>581.031676</ele>
        <time>2020-09-01T07:03:38.360Z</time>
      </trkpt>
      <trkpt lat="46.087145" lon="11.000756">
        <ele>580.789502</ele>
        <time>2020-09-01T07:03:40.378Z</time>
      </trkpt>
      <trkpt lat="46.087105" lon="11.000638">
        <ele>580.591527</ele>
        <time>2020-09-01T07:03:42.366Z</time>
      </trkpt>
      <trkpt lat="46.087054" lon="11.000521">
        <ele>580.383227</ele>
        <time>2020-09-01T07:03:45.373Z</time>
      </trkpt>
      <trkpt lat="46.086989" lon="11.000373">
        <ele>580.119173</ele>
        <time>2020-09-01T07:03:48.379Z</time>
      </trkpt>
      <trkpt lat="46.086928" lon="11.000275">
        <ele>579.920685</ele>
        <time>2020-09-01T07:03:50.371Z</time>
      </trkpt>
      <trkpt lat="46.086819" lon="11.000115">
        <ele>579.582624</ele>
        <time>2020-09-01T07:03:53.356Z</time>
      </trkpt>
      <trkpt lat="46.086730" lon="10.999958">
        <ele>579.293488</ele>
        <time>2020-09-01T07:03:55.368Z</time>
      </trkpt>
      <trkpt lat="46.086631" lon="10.999825">
        <ele>579.035218</ele>
        <time>2020-09-01T07:03:57.376Z</time>
      </trkpt>
      <trkpt lat="46.086535" lon="10.999698">
        <ele>578.786544</ele>
        <time>2020-09-01T07:03:59.360Z</time>
      </trkpt>
      <trkpt lat="46.086431" lon="10.999570">
        <ele>578.525557</ele>
        <time>2020-09-01T07:04:01.368Z</time>
      </trkpt>
      <trkpt lat="46.086333" lon="10.999416">
        <ele>578.248883</ele>
        <time>2020-09-01T07:04:03.380Z</time>
      </trkpt>
      <trkpt lat="46.086227" lon="10.999286">
        <ele>577.983273</ele>
        <time>2020-09-01T07:04:05.362Z</time>
      </trkpt>
      <trkpt lat="46.086128" lon="10.999170">
        <ele>577.739786</ele>
        <time>2020-09-01T07:04:07.363Z</time>
      </trkpt>
      <trkpt lat="46.086037" lon="10.999079">
        <ele>577.528410</ele>
        <time>2020-09-01T07:04:09.378Z</time>
      </trkpt>
      <trkpt lat="46.085959" lon="10.998984">
        <ele>577.333525</ele>
        <time>2020-09-01T07:04:11.397Z</time>
      </trkpt>
      <trkpt lat="46.085874" lon="10.998878">
        <ele>577.119023</ele>
        <time>2020-09-01T07:04:13.355Z</time>
      </trkpt>
      <trkpt lat="46.085740" lon="10.998657">
        <ele>576.730428</ele>
        <time>2020-09-01T07:04:17.350Z</time>
      </trkpt>
      <trkpt lat="46.085672" lon="10.998492">
        <ele>576.476348</ele>
        <time>2020-09-01T07:04:19.326Z</time>
      </trkpt>
      <trkpt lat="46.085655" lon="10.998354">
        <ele>576.290803</ele>
        <time>2020-09-01T07:04:21.362Z</time>
      </trkpt>
      <trkpt lat="46.085616" lon="10.998161">
        <ele>576.024683</ele>
        <time>2020-09-01T07:04:23.350Z</time>
      </trkpt>
      <trkpt lat="46.085595" lon="10.997942">
        <ele>575.606464</ele>
        <time>2020-09-01T07:04:25.359Z</time>
      </trkpt>
      <trkpt lat="46.085591" lon="10.997728">
        <ele>575.179332</ele>
        <time>2020-09-01T07:04:27.342Z</time>
      </trkpt>
      <trkpt lat="46.085596" lon="10.997515">
        <ele>574.754107</ele>
        <time>2020-09-01T07:04:29.342Z</time>
      </trkpt>
      <trkpt lat="46.085600" lon="10.997334">
        <ele>574.392789</ele>
        <time>2020-09-01T07:04:31.358Z</time>
      </trkpt>
      <trkpt lat="46.085595" lon="10.997152">
        <ele>574.029374</ele>
        <time>2020-09-01T07:04:33.347Z</time>
      </trkpt>
      <trkpt lat="46.085583" lon="10.996989">
        <ele>573.702327</ele>
        <time>2020-09-01T07:04:35.356Z</time>
      </trkpt>
      <trkpt lat="46.085563" lon="10.996837">
        <ele>573.393644</ele>
        <time>2020-09-01T07:04:37.368Z</time>
      </trkpt>
      <trkpt lat="46.085503" lon="10.996688">
        <ele>573.049884</ele>
        <time>2020-09-01T07:04:39.337Z</time>
      </trkpt>
      <trkpt lat="46.085455" lon="10.996558">
        <ele>572.756041</ele>
        <time>2020-09-01T07:04:41.359Z</time>
      </trkpt>
      <trkpt lat="46.085386" lon="10.996436">
        <ele>572.441953</ele>
        <time>2020-09-01T07:04:43.367Z</time>
      </trkpt>
      <trkpt lat="46.085300" lon="10.996306">
        <ele>572.083510</ele>
        <time>2020-09-01T07:04:45.353Z</time>
      </trkpt>
      <trkpt lat="46.085202" lon="10.996194">
        <ele>571.723769</ele>
        <time>2020-09-01T07:04:47.385Z</time>
      </trkpt>
      <trkpt lat="46.085102" lon="10.996085">
        <ele>571.363144</ele>
        <time>2020-09-01T07:04:49.344Z</time>
      </trkpt>
      <trkpt lat="46.085003" lon="10.995978">
        <ele>571.007216</ele>
        <time>2020-09-01T07:04:51.347Z</time>
      </trkpt>
      <trkpt lat="46.084916" lon="10.995903">
        <ele>570.944702</ele>
        <time>2020-09-01T07:04:53.345Z</time>
      </trkpt>
      <trkpt lat="46.084835" lon="10.995819">
        <ele>571.389840</ele>
        <time>2020-09-01T07:04:55.356Z</time>
      </trkpt>
      <trkpt lat="46.084742" lon="10.995727">
        <ele>571.893018</ele>
        <time>2020-09-01T07:04:57.347Z</time>
      </trkpt>
      <trkpt lat="46.084646" lon="10.995637">
        <ele>572.403888</ele>
        <time>2020-09-01T07:04:59.347Z</time>
      </trkpt>
      <trkpt lat="46.084563" lon="10.995561">
        <ele>572.842546</ele>
        <time>2020-09-01T07:05:01.343Z</time>
      </trkpt>
      <trkpt lat="46.084477" lon="10.995452">
        <ele>573.353396</ele>
        <time>2020-09-01T07:05:03.343Z</time>
      </trkpt>
      <trkpt lat="46.084408" lon="10.995340">
        <ele>573.816937</ele>
        <time>2020-09-01T07:05:05.360Z</time>
      </trkpt>
      <trkpt lat="46.084338" lon="10.995202">
        <ele>574.345970</ele>
        <time>2020-09-01T07:05:07.350Z</time>
      </trkpt>
      <trkpt lat="46.084331" lon="10.995045">
        <ele>574.832790</ele>
        <time>2020-09-01T07:05:10.345Z</time>
      </trkpt>
      <trkpt lat="46.084328" lon="10.994905">
        <ele>575.266209</ele>
        <time>2020-09-01T07:05:12.365Z</time>
      </trkpt>
      <trkpt lat="46.084340" lon="10.994759">
        <ele>575.721148</ele>
        <time>2020-09-01T07:05:14.375Z</time>
      </trkpt>
      <trkpt lat="46.084334" lon="10.994601">
        <ele>576.210792</ele>
        <time>2020-09-01T07:05:16.345Z</time>
      </trkpt>
      <trkpt lat="46.084320" lon="10.994454">
        <ele>576.669933</ele>
        <time>2020-09-01T07:05:18.347Z</time>
      </trkpt>
      <trkpt lat="46.084312" lon="10.994317">
        <ele>577.095362</ele>
        <time>2020-09-01T07:05:20.364Z</time>
      </trkpt>
      <trkpt lat="46.084291" lon="10.994185">
        <ele>577.514427</ele>
        <time>2020-09-01T07:05:22.342Z</time>
      </trkpt>
      <trkpt lat="46.084226" lon="10.994080">
        <ele>577.949925</ele>
        <time>2020-09-01T07:05:24.352Z</time>
      </trkpt>
      <trkpt lat="46.084143" lon="10.993992">
        <ele>578.409561</ele>
        <time>2020-09-01T07:05:26.361Z</time>
      </trkpt>
      <trkpt lat="46.084053" lon="10.993934">
        <ele>578.821792</ele>
        <time>2020-09-01T07:05:28.334Z</time>
      </trkpt>
      <trkpt lat="46.083962" lon="10.993887">
        <ele>578.646247</ele>
        <time>2020-09-01T07:05:30.368Z</time>
      </trkpt>
      <trkpt lat="46.083865" lon="10.993813">
        <ele>578.446948</ele>
        <time>2020-09-01T07:05:32.354Z</time>
      </trkpt>
      <trkpt lat="46.083785" lon="10.993702">
        <ele>578.245313</ele>
        <time>2020-09-01T07:05:34.344Z</time>
      </trkpt>
      <trkpt lat="46.083710" lon="10.993566">
        <ele>578.026456</ele>
        <time>2020-09-01T07:05:36.355Z</time>
      </trkpt>
      <trkpt lat="46.083704" lon="10.993379">
        <ele>577.790654</ele>
        <time>2020-09-01T07:05:39.351Z</time>
      </trkpt>
      <trkpt lat="46.083727" lon="10.993203">
        <ele>577.565059</ele>
        <time>2020-09-01T07:05:41.349Z</time>
      </trkpt>
      <trkpt lat="46.083764" lon="10.993068">
        <ele>577.382215</ele>
        <time>2020-09-01T07:05:43.349Z</time>
      </trkpt>
      <trkpt lat="46.083837" lon="10.992936">
        <ele>577.169562</ele>
        <time>2020-09-01T07:05:45.356Z</time>
      </trkpt>
      <trkpt lat="46.083938" lon="10.992838">
        <ele>576.948470</ele>
        <time>2020-09-01T07:05:47.356Z</time>
      </trkpt>
      <trkpt lat="46.084056" lon="10.992757">
        <ele>576.711126</ele>
        <time>2020-09-01T07:05:49.392Z</time>
      </trkpt>
      <trkpt lat="46.084169" lon="10.992676">
        <ele>576.481948</ele>
        <time>2020-09-01T07:05:51.343Z</time>
      </trkpt>
      <trkpt lat="46.084283" lon="10.992582">
        <ele>576.243451</ele>
        <time>2020-09-01T07:05:53.350Z</time>
      </trkpt>
      <trkpt lat="46.084389" lon="10.992468">
        <ele>576.003291</ele>
        <time>2020-09-01T07:05:55.360Z</time>
      </trkpt>
      <trkpt lat="46.084462" lon="10.992299">
        <ele>575.752511</ele>
        <time>2020-09-01T07:05:57.362Z</time>
      </trkpt>
      <trkpt lat="46.084496" lon="10.992088">
        <ele>575.714290</ele>
        <time>2020-09-01T07:05:59.343Z</time>
      </trkpt>
      <trkpt lat="46.084576" lon="10.991915">
        <ele>576.186747</ele>
        <time>2020-09-01T07:06:01.348Z</time>
      </trkpt>
      <trkpt lat="46.084653" lon="10.991808">
        <ele>576.537097</ele>
        <time>2020-09-01T07:06:03.340Z</time>
      </trkpt>
      <trkpt lat="46.084749" lon="10.991721">
        <ele>576.908568</ele>
        <time>2020-09-01T07:06:06.364Z</time>
      </trkpt>
      <trkpt lat="46.084843" lon="10.991667">
        <ele>577.240061</ele>
        <time>2020-09-01T07:06:10.361Z</time>
      </trkpt>
      <trkpt lat="46.084921" lon="10.991602">
        <ele>577.535205</ele>
        <time>2020-09-01T07:06:15.387Z</time>
      </trkpt>
      <trkpt lat="46.084998" lon="10.991523">
        <ele>577.844811</ele>
        <time>2020-09-01T07:06:18.353Z</time>
      </trkpt>
      <trkpt lat="46.085074" lon="10.991405">
        <ele>578.210708</ele>
        <time>2020-09-01T07:06:21.389Z</time>
      </trkpt>
      <trkpt lat="46.085122" lon="10.991273">
        <ele>578.549365</ele>
        <time>2020-09-01T07:06:24.369Z</time>
      </trkpt>
      <trkpt lat="46.085143" lon="10.991130">
        <ele>578.881497</ele>
        <time>2020-09-01T07:06:27.380Z</time>
      </trkpt>
      <trkpt lat="46.085140" lon="10.990978">
        <ele>579.227015</ele>
        <time>2020-09-01T07:06:30.368Z</time>
      </trkpt>
      <trkpt lat="46.085084" lon="10.990836">
        <ele>579.598182</ele>
        <time>2020-09-01T07:06:33.372Z</time>
      </trkpt>
      <trkpt lat="46.084991" lon="10.990765">
        <ele>579.942931</ele>
        <time>2020-09-01T07:06:36.364Z</time>
      </trkpt>
      <trkpt lat="46.084901" lon="10.990730">
        <ele>580.248312</ele>
        <time>2020-09-01T07:06:39.362Z</time>
      </trkpt>
      <trkpt lat="46.084827" lon="10.990656">
        <ele>580.543344</ele>
        <time>2020-09-01T07:06:42.361Z</time>
      </trkpt>
      <trkpt lat="46.084742" lon="10.990556">
        <ele>580.902751</ele>
        <time>2020-09-01T07:06:46.371Z</time>
      </trkpt>
      <trkpt lat="46.084643" lon="10.990468">
        <ele>581.283766</ele>
        <time>2020-09-01T07:06:50.381Z</time>
      </trkpt>
      <trkpt lat="46.084563" lon="10.990393">
        <ele>581.736758</ele>
        <time>2020-09-01T07:06:54.405Z</time>
      </trkpt>
      <trkpt lat="46.084460" lon="10.990335">
        <ele>582.460660</ele>
        <time>2020-09-01T07:06:59.378Z</time>
      </trkpt>
      <trkpt lat="46.084361" lon="10.990303">
        <ele>583.124859</ele>
        <time>2020-09-01T07:07:03.360Z</time>
      </trkpt>
      <trkpt lat="46.084247" lon="10.990295">
        <ele>583.872051</ele>
        <time>2020-09-01T07:07:07.366Z</time>
      </trkpt>
      <trkpt lat="46.084142" lon="10.990323">
        <ele>584.571100</ele>
        <time>2020-09-01T07:07:11.360Z</time>
      </trkpt>
      <trkpt lat="46.084053" lon="10.990342">
        <ele>585.160097</ele>
        <time>2020-09-01T07:07:14.379Z</time>
      </trkpt>
      <trkpt lat="46.083945" lon="10.990329">
        <ele>585.869587</ele>
        <time>2020-09-01T07:07:18.377Z</time>
      </trkpt>
      <trkpt lat="46.083837" lon="10.990329">
        <ele>586.576616</ele>
        <time>2020-09-01T07:07:22.357Z</time>
      </trkpt>
      <trkpt lat="46.083725" lon="10.990332">
        <ele>587.309958</ele>
        <time>2020-09-01T07:07:26.377Z</time>
      </trkpt>
      <trkpt lat="46.083612" lon="10.990337">
        <ele>588.050069</ele>
        <time>2020-09-01T07:07:29.372Z</time>
      </trkpt>
      <trkpt lat="46.083502" lon="10.990345">
        <ele>588.771107</ele>
        <time>2020-09-01T07:07:32.411Z</time>
      </trkpt>
      <trkpt lat="46.083401" lon="10.990276">
        <ele>589.502787</ele>
        <time>2020-09-01T07:07:36.362Z</time>
      </trkpt>
      <trkpt lat="46.083378" lon="10.990110">
        <ele>590.271446</ele>
        <time>2020-09-01T07:07:40.367Z</time>
      </trkpt>
      <trkpt lat="46.083369" lon="10.989974">
        <ele>590.891796</ele>
        <time>2020-09-01T07:07:43.365Z</time>
      </trkpt>
      <trkpt lat="46.083377" lon="10.989839">
        <ele>591.507033</ele>
        <time>2020-09-01T07:07:46.371Z</time>
      </trkpt>
      <trkpt lat="46.083422" lon="10.989723">
        <ele>592.110548</ele>
        <time>2020-09-01T07:07:49.375Z</time>
      </trkpt>
      <trkpt lat="46.083507" lon="10.989651">
        <ele>592.755941</ele>
        <time>2020-09-01T07:07:52.368Z</time>
      </trkpt>
      <trkpt lat="46.083607" lon="10.989630">
        <ele>593.315830</ele>
        <time>2020-09-01T07:07:55.384Z</time>
      </trkpt>
      <trkpt lat="46.083703" lon="10.989615">
        <ele>593.603879</ele>
        <time>2020-09-01T07:07:58.382Z</time>
      </trkpt>
      <trkpt lat="46.083799" lon="10.989586">
        <ele>593.896469</ele>
        <time>2020-09-01T07:08:01.387Z</time>
      </trkpt>
      <trkpt lat="46.083908" lon="10.989557">
        <ele>594.227111</ele>
        <time>2020-09-01T07:08:05.372Z</time>
      </trkpt>
      <trkpt lat="46.084019" lon="10.989528">
        <ele>594.563621</ele>
        <time>2020-09-01T07:08:09.362Z</time>
      </trkpt>
      <trkpt lat="46.084124" lon="10.989483">
        <ele>594.890386</ele>
        <time>2020-09-01T07:08:13.376Z</time>
      </trkpt>
      <trkpt lat="46.084233" lon="10.989440">
        <ele>595.227490</ele>
        <time>2020-09-01T07:08:17.370Z</time>
      </trkpt>
      <trkpt lat="46.084329" lon="10.989380">
        <ele>595.539613</ele>
        <time>2020-09-01T07:08:21.393Z</time>
      </trkpt>
      <trkpt lat="46.084412" lon="10.989299">
        <ele>595.838593</ele>
        <time>2020-09-01T07:08:25.374Z</time>
      </trkpt>
      <trkpt lat="46.084489" lon="10.989202">
        <ele>596.143615</ele>
        <time>2020-09-01T07:08:29.382Z</time>
      </trkpt>
      <trkpt lat="46.084557" lon="10.989092">
        <ele>596.448484</ele>
        <time>2020-09-01T07:08:33.367Z</time>
      </trkpt>
      <trkpt lat="46.084610" lon="10.988974">
        <ele>596.739350</ele>
        <time>2020-09-01T07:08:37.365Z</time>
      </trkpt>
      <trkpt lat="46.084655" lon="10.988842">
        <ele>597.043667</ele>
        <time>2020-09-01T07:08:41.379Z</time>
      </trkpt>
      <trkpt lat="46.084662" lon="10.988678">
        <ele>597.383629</ele>
        <time>2020-09-01T07:08:45.359Z</time>
      </trkpt>
      <trkpt lat="46.084659" lon="10.988508">
        <ele>597.735477</ele>
        <time>2020-09-01T07:08:49.376Z</time>
      </trkpt>
      <trkpt lat="46.084633" lon="10.988340">
        <ele>598.091620</ele>
        <time>2020-09-01T07:08:53.379Z</time>
      </trkpt>
      <trkpt lat="46.084573" lon="10.988197">
        <ele>598.437415</ele>
        <time>2020-09-01T07:08:57.368Z</time>
      </trkpt>
      <trkpt lat="46.084521" lon="10.988067">
        <ele>598.992495</ele>
        <time>2020-09-01T07:09:01.356Z</time>
      </trkpt>
      <trkpt lat="46.084476" lon="10.987919">
        <ele>599.865664</ele>
        <time>2020-09-01T07:09:06.371Z</time>
      </trkpt>
      <trkpt lat="46.084438" lon="10.987797">
        <ele>600.588300</ele>
        <time>2020-09-01T07:09:10.360Z</time>
      </trkpt>
      <trkpt lat="46.084426" lon="10.987667">
        <ele>601.296937</ele>
        <time>2020-09-01T07:09:14.382Z</time>
      </trkpt>
      <trkpt lat="46.084394" lon="10.987518">
        <ele>602.139758</ele>
        <time>2020-09-01T07:09:18.379Z</time>
      </trkpt>
      <trkpt lat="46.084392" lon="10.987384">
        <ele>602.863984</ele>
        <time>2020-09-01T07:09:22.363Z</time>
      </trkpt>
      <trkpt lat="46.084380" lon="10.987252">
        <ele>603.583335</ele>
        <time>2020-09-01T07:09:26.386Z</time>
      </trkpt>
      <trkpt lat="46.084356" lon="10.987117">
        <ele>604.336377</ele>
        <time>2020-09-01T07:09:31.360Z</time>
      </trkpt>
      <trkpt lat="46.084422" lon="10.986993">
        <ele>605.180947</ele>
        <time>2020-09-01T07:09:36.373Z</time>
      </trkpt>
      <trkpt lat="46.084518" lon="10.986925">
        <ele>606.014212</ele>
        <time>2020-09-01T07:09:40.372Z</time>
      </trkpt>
      <trkpt lat="46.084620" lon="10.986839">
        <ele>606.934735</ele>
        <time>2020-09-01T07:09:44.375Z</time>
      </trkpt>
      <trkpt lat="46.084678" lon="10.986739">
        <ele>607.639100</ele>
        <time>2020-09-01T07:09:47.379Z</time>
      </trkpt>
      <trkpt lat="46.084719" lon="10.986592">
        <ele>608.495213</ele>
        <time>2020-09-01T07:09:51.371Z</time>
      </trkpt>
      <trkpt lat="46.084750" lon="10.986445">
        <ele>609.325413</ele>
        <time>2020-09-01T07:09:55.396Z</time>
      </trkpt>
      <trkpt lat="46.084769" lon="10.986292">
        <ele>610.165276</ele>
        <time>2020-09-01T07:09:59.366Z</time>
      </trkpt>
      <trkpt lat="46.084798" lon="10.986136">
        <ele>611.037954</ele>
        <time>2020-09-01T07:10:03.369Z</time>
      </trkpt>
      <trkpt lat="46.084828" lon="10.985992">
        <ele>611.850382</ele>
        <time>2020-09-01T07:10:07.365Z</time>
      </trkpt>
      <trkpt lat="46.084837" lon="10.985843">
        <ele>612.690854</ele>
        <time>2020-09-01T07:10:11.411Z</time>
      </trkpt>
      <trkpt lat="46.084846" lon="10.985665">
        <ele>614.275980</ele>
        <time>2020-09-01T07:10:15.382Z</time>
      </trkpt>
      <trkpt lat="46.084860" lon="10.985510">
        <ele>615.664256</ele>
        <time>2020-09-01T07:10:19.365Z</time>
      </trkpt>
      <trkpt lat="46.084868" lon="10.985344">
        <ele>617.142161</ele>
        <time>2020-09-01T07:10:23.365Z</time>
      </trkpt>
      <trkpt lat="46.084862" lon="10.985176">
        <ele>618.636251</ele>
        <time>2020-09-01T07:10:27.369Z</time>
      </trkpt>
      <trkpt lat="46.084842" lon="10.985021">
        <ele>620.036523</ele>
        <time>2020-09-01T07:10:31.371Z</time>
      </trkpt>
      <trkpt lat="46.084813" lon="10.984876">
        <ele>621.376832</ele>
        <time>2020-09-01T07:10:35.364Z</time>
      </trkpt>
      <trkpt lat="46.084775" lon="10.984723">
        <ele>622.820218</ele>
        <time>2020-09-01T07:10:39.362Z</time>
      </trkpt>
      <trkpt lat="46.084730" lon="10.984577">
        <ele>624.239208</ele>
        <time>2020-09-01T07:10:43.382Z</time>
      </trkpt>
      <trkpt lat="46.084697" lon="10.984446">
        <ele>625.477066</ele>
        <time>2020-09-01T07:10:47.360Z</time>
      </trkpt>
      <trkpt lat="46.084652" lon="10.984305">
        <ele>626.855593</ele>
        <time>2020-09-01T07:10:52.374Z</time>
      </trkpt>
      <trkpt lat="46.084607" lon="10.984191">
        <ele>628.020593</ele>
        <time>2020-09-01T07:10:56.369Z</time>
      </trkpt>
      <trkpt lat="46.084572" lon="10.984071">
        <ele>629.176794</ele>
        <time>2020-09-01T07:11:00.386Z</time>
      </trkpt>
      <trkpt lat="46.084522" lon="10.983941">
        <ele>630.497052</ele>
        <time>2020-09-01T07:11:04.354Z</time>
      </trkpt>
      <trkpt lat="46.084453" lon="10.983809">
        <ele>631.965100</ele>
        <time>2020-09-01T07:11:08.365Z</time>
      </trkpt>
      <trkpt lat="46.084398" lon="10.983705">
        <ele>633.126667</ele>
        <time>2020-09-01T07:11:12.374Z</time>
      </trkpt>
      <trkpt lat="46.084326" lon="10.983586">
        <ele>634.529212</ele>
        <time>2020-09-01T07:11:16.366Z</time>
      </trkpt>
      <trkpt lat="46.084267" lon="10.983484">
        <ele>635.714142</ele>
        <time>2020-09-01T07:11:19.385Z</time>
      </trkpt>
      <trkpt lat="46.084193" lon="10.983351">
        <ele>637.345946</ele>
        <time>2020-09-01T07:11:23.382Z</time>
      </trkpt>
      <trkpt lat="46.084119" lon="10.983226">
        <ele>638.918758</ele>
        <time>2020-09-01T07:11:27.366Z</time>
      </trkpt>
      <trkpt lat="46.084045" lon="10.983101">
        <ele>640.491571</ele>
        <time>2020-09-01T07:11:31.372Z</time>
      </trkpt>
      <trkpt lat="46.083985" lon="10.982984">
        <ele>641.884138</ele>
        <time>2020-09-01T07:11:35.359Z</time>
      </trkpt>
      <trkpt lat="46.083906" lon="10.982892">
        <ele>643.285383</ele>
        <time>2020-09-01T07:11:39.366Z</time>
      </trkpt>
      <trkpt lat="46.083824" lon="10.982838">
        <ele>644.529281</ele>
        <time>2020-09-01T07:11:42.371Z</time>
      </trkpt>
      <trkpt lat="46.083716" lon="10.982767">
        <ele>646.167101</ele>
        <time>2020-09-01T07:11:46.382Z</time>
      </trkpt>
      <trkpt lat="46.083614" lon="10.982710">
        <ele>647.676546</ele>
        <time>2020-09-01T07:11:50.369Z</time>
      </trkpt>
      <trkpt lat="46.083531" lon="10.982647">
        <ele>648.970821</ele>
        <time>2020-09-01T07:11:53.384Z</time>
      </trkpt>
      <trkpt lat="46.083443" lon="10.982581">
        <ele>650.339537</ele>
        <time>2020-09-01T07:11:56.363Z</time>
      </trkpt>
      <trkpt lat="46.083350" lon="10.982530">
        <ele>651.712466</ele>
        <time>2020-09-01T07:11:59.375Z</time>
      </trkpt>
      <trkpt lat="46.083232" lon="10.982502">
        <ele>653.362563</ele>
        <time>2020-09-01T07:12:03.369Z</time>
      </trkpt>
      <trkpt lat="46.083144" lon="10.982463">
        <ele>654.632882</ele>
        <time>2020-09-01T07:12:06.411Z</time>
      </trkpt>
      <trkpt lat="46.083052" lon="10.982411">
        <ele>655.996388</ele>
        <time>2020-09-01T07:12:09.368Z</time>
      </trkpt>
      <trkpt lat="46.082944" lon="10.982362">
        <ele>657.558646</ele>
        <time>2020-09-01T07:12:13.375Z</time>
      </trkpt>
      <trkpt lat="46.082838" lon="10.982341">
        <ele>659.035004</ele>
        <time>2020-09-01T07:12:17.401Z</time>
      </trkpt>
      <trkpt lat="46.082732" lon="10.982325">
        <ele>660.454352</ele>
        <time>2020-09-01T07:12:21.367Z</time>
      </trkpt>
      <trkpt lat="46.082617" lon="10.982311">
        <ele>660.313726</ele>
        <time>2020-09-01T07:12:25.379Z</time>
      </trkpt>
      <trkpt lat="46.082522" lon="10.982248">
        <ele>660.186310</ele>
        <time>2020-09-01T07:12:29.402Z</time>
      </trkpt>
      <trkpt lat="46.082436" lon="10.982203">
        <ele>660.074830</ele>
        <time>2020-09-01T07:12:35.350Z</time>
      </trkpt>
      <trkpt lat="46.082359" lon="10.982111">
        <ele>659.952973</ele>
        <time>2020-09-01T07:12:39.364Z</time>
      </trkpt>
      <trkpt lat="46.082261" lon="10.982027">
        <ele>659.814049</ele>
        <time>2020-09-01T07:12:43.334Z</time>
      </trkpt>
      <trkpt lat="46.082162" lon="10.981987">
        <ele>659.688770</ele>
        <time>2020-09-01T07:12:47.348Z</time>
      </trkpt>
      <trkpt lat="46.082068" lon="10.981964">
        <ele>659.572593</ele>
        <time>2020-09-01T07:12:50.370Z</time>
      </trkpt>
      <trkpt lat="46.081955" lon="10.981933">
        <ele>659.432431</ele>
        <time>2020-09-01T07:12:54.387Z</time>
      </trkpt>
      <trkpt lat="46.081841" lon="10.981867">
        <ele>659.282740</ele>
        <time>2020-09-01T07:12:58.365Z</time>
      </trkpt>
      <trkpt lat="46.081721" lon="10.981826">
        <ele>659.132470</ele>
        <time>2020-09-01T07:13:11.341Z</time>
      </trkpt>
      <trkpt lat="46.081636" lon="10.981782">
        <ele>659.022423</ele>
        <time>2020-09-01T07:13:13.345Z</time>
      </trkpt>
      <trkpt lat="46.081535" lon="10.981729">
        <ele>658.891456</ele>
        <time>2020-09-01T07:13:16.374Z</time>
      </trkpt>
      <trkpt lat="46.081468" lon="10.981621">
        <ele>658.768993</ele>
        <time>2020-09-01T07:13:22.380Z</time>
      </trkpt>
      <trkpt lat="46.081352" lon="10.981576">
        <ele>658.622619</ele>
        <time>2020-09-01T07:13:25.397Z</time>
      </trkpt>
      <trkpt lat="46.081222" lon="10.981554">
        <ele>658.463126</ele>
        <time>2020-09-01T07:13:28.368Z</time>
      </trkpt>
      <trkpt lat="46.081098" lon="10.981566">
        <ele>658.311692</ele>
        <time>2020-09-01T07:13:31.359Z</time>
      </trkpt>
      <trkpt lat="46.080989" lon="10.981567">
        <ele>658.535812</ele>
        <time>2020-09-01T07:13:34.378Z</time>
      </trkpt>
      <trkpt lat="46.080884" lon="10.981601">
        <ele>658.936622</ele>
        <time>2020-09-01T07:13:37.385Z</time>
      </trkpt>
      <trkpt lat="46.080755" lon="10.981647">
        <ele>659.431555</ele>
        <time>2020-09-01T07:13:40.360Z</time>
      </trkpt>
      <trkpt lat="46.080630" lon="10.981662">
        <ele>659.898721</ele>
        <time>2020-09-01T07:13:43.407Z</time>
      </trkpt>
      <trkpt lat="46.080537" lon="10.981614">
        <ele>660.266623</ele>
        <time>2020-09-01T07:13:46.364Z</time>
      </trkpt>
      <trkpt lat="46.080432" lon="10.981544">
        <ele>660.697480</ele>
        <time>2020-09-01T07:13:50.376Z</time>
      </trkpt>
      <trkpt lat="46.080345" lon="10.981451">
        <ele>661.100864</ele>
        <time>2020-09-01T07:13:54.341Z</time>
      </trkpt>
      <trkpt lat="46.080275" lon="10.981331">
        <ele>661.505932</ele>
        <time>2020-09-01T07:13:58.355Z</time>
      </trkpt>
      <trkpt lat="46.080198" lon="10.981228">
        <ele>661.897151</ele>
        <time>2020-09-01T07:14:02.350Z</time>
      </trkpt>
      <trkpt lat="46.080111" lon="10.981147">
        <ele>662.282876</ele>
        <time>2020-09-01T07:14:06.352Z</time>
      </trkpt>
      <trkpt lat="46.079997" lon="10.981155">
        <ele>662.707965</ele>
        <time>2020-09-01T07:14:09.365Z</time>
      </trkpt>
      <trkpt lat="46.079894" lon="10.981081">
        <ele>663.136582</ele>
        <time>2020-09-01T07:14:13.371Z</time>
      </trkpt>
      <trkpt lat="46.079779" lon="10.981064">
        <ele>663.567139</ele>
        <time>2020-09-01T07:14:17.352Z</time>
      </trkpt>
      <trkpt lat="46.079686" lon="10.981028">
        <ele>663.925782</ele>
        <time>2020-09-01T07:14:20.375Z</time>
      </trkpt>
      <trkpt lat="46.079602" lon="10.980971">
        <ele>664.271560</ele>
        <time>2020-09-01T07:14:23.354Z</time>
      </trkpt>
      <trkpt lat="46.079517" lon="10.980912">
        <ele>664.622923</ele>
        <time>2020-09-01T07:14:26.363Z</time>
      </trkpt>
      <trkpt lat="46.079428" lon="10.980880">
        <ele>664.964553</ele>
        <time>2020-09-01T07:14:29.359Z</time>
      </trkpt>
      <trkpt lat="46.079328" lon="10.980846">
        <ele>666.805253</ele>
        <time>2020-09-01T07:14:33.384Z</time>
      </trkpt>
      <trkpt lat="46.079235" lon="10.980769">
        <ele>668.731676</ele>
        <time>2020-09-01T07:14:37.368Z</time>
      </trkpt>
      <trkpt lat="46.079136" lon="10.980701">
        <ele>670.701499</ele>
        <time>2020-09-01T07:14:41.360Z</time>
      </trkpt>
      <trkpt lat="46.079048" lon="10.980657">
        <ele>672.374577</ele>
        <time>2020-09-01T07:14:44.375Z</time>
      </trkpt>
      <trkpt lat="46.078949" lon="10.980590">
        <ele>674.339074</ele>
        <time>2020-09-01T07:14:48.366Z</time>
      </trkpt>
      <trkpt lat="46.078858" lon="10.980534">
        <ele>676.116365</ele>
        <time>2020-09-01T07:14:52.399Z</time>
      </trkpt>
      <trkpt lat="46.078770" lon="10.980483">
        <ele>677.820019</ele>
        <time>2020-09-01T07:14:56.359Z</time>
      </trkpt>
      <trkpt lat="46.078677" lon="10.980419">
        <ele>679.671112</ele>
        <time>2020-09-01T07:15:00.399Z</time>
      </trkpt>
      <trkpt lat="46.078574" lon="10.980376">
        <ele>681.597272</ele>
        <time>2020-09-01T07:15:04.384Z</time>
      </trkpt>
      <trkpt lat="46.078475" lon="10.980284">
        <ele>683.713022</ele>
        <time>2020-09-01T07:15:08.354Z</time>
      </trkpt>
      <trkpt lat="46.078392" lon="10.980166">
        <ele>685.806948</ele>
        <time>2020-09-01T07:15:12.363Z</time>
      </trkpt>
      <trkpt lat="46.078319" lon="10.980057">
        <ele>687.694806</ele>
        <time>2020-09-01T07:15:16.382Z</time>
      </trkpt>
      <trkpt lat="46.078238" lon="10.979966">
        <ele>689.539420</ele>
        <time>2020-09-01T07:15:20.374Z</time>
      </trkpt>
      <trkpt lat="46.078166" lon="10.979850">
        <ele>691.478946</ele>
        <time>2020-09-01T07:15:24.366Z</time>
      </trkpt>
      <trkpt lat="46.078080" lon="10.979763">
        <ele>693.366135</ele>
        <time>2020-09-01T07:15:28.364Z</time>
      </trkpt>
      <trkpt lat="46.077991" lon="10.979682">
        <ele>695.256737</ele>
        <time>2020-09-01T07:15:32.373Z</time>
      </trkpt>
      <trkpt lat="46.077902" lon="10.979591">
        <ele>697.216692</ele>
        <time>2020-09-01T07:15:36.369Z</time>
      </trkpt>
      <trkpt lat="46.077824" lon="10.979497">
        <ele>698.028819</ele>
        <time>2020-09-01T07:15:40.361Z</time>
      </trkpt>
      <trkpt lat="46.077730" lon="10.979451">
        <ele>698.789702</ele>
        <time>2020-09-01T07:15:45.358Z</time>
      </trkpt>
      <trkpt lat="46.077624" lon="10.979400">
        <ele>699.646239</ele>
        <time>2020-09-01T07:15:50.364Z</time>
      </trkpt>
      <trkpt lat="46.077514" lon="10.979343">
        <ele>700.542195</ele>
        <time>2020-09-01T07:15:54.368Z</time>
      </trkpt>
      <trkpt lat="46.077415" lon="10.979306">
        <ele>701.326108</ele>
        <time>2020-09-01T07:15:57.370Z</time>
      </trkpt>
      <trkpt lat="46.077312" lon="10.979243">
        <ele>702.183719</ele>
        <time>2020-09-01T07:16:01.377Z</time>
      </trkpt>
      <trkpt lat="46.077228" lon="10.979172">
        <ele>702.930083</ele>
        <time>2020-09-01T07:16:06.398Z</time>
      </trkpt>
      <trkpt lat="46.077180" lon="10.979057">
        <ele>703.643699</ele>
        <time>2020-09-01T07:16:09.374Z</time>
      </trkpt>
      <trkpt lat="46.077139" lon="10.978939">
        <ele>704.345417</ele>
        <time>2020-09-01T07:16:12.362Z</time>
      </trkpt>
      <trkpt lat="46.077122" lon="10.978778">
        <ele>705.211325</ele>
        <time>2020-09-01T07:16:16.374Z</time>
      </trkpt>
      <trkpt lat="46.077120" lon="10.978644">
        <ele>705.923977</ele>
        <time>2020-09-01T07:16:19.386Z</time>
      </trkpt>
      <trkpt lat="46.077117" lon="10.978501">
        <ele>706.684666</ele>
        <time>2020-09-01T07:16:22.373Z</time>
      </trkpt>
      <trkpt lat="46.077098" lon="10.978374">
        <ele>707.375459</ele>
        <time>2020-09-01T07:16:25.373Z</time>
      </trkpt>
      <trkpt lat="46.077040" lon="10.978250">
        <ele>708.170655</ele>
        <time>2020-09-01T07:16:29.376Z</time>
      </trkpt>
      <trkpt lat="46.076948" lon="10.978264">
        <ele>708.879745</ele>
        <time>2020-09-01T07:16:42.357Z</time>
      </trkpt>
      <trkpt lat="46.076893" lon="10.978144">
        <ele>709.644486</ele>
        <time>2020-09-01T07:17:46.365Z</time>
      </trkpt>
      <trkpt lat="46.076790" lon="10.978106">
        <ele>710.459417</ele>
        <time>2020-09-01T07:17:50.362Z</time>
      </trkpt>
      <trkpt lat="46.076691" lon="10.978056">
        <ele>711.175346</ele>
        <time>2020-09-01T07:17:53.362Z</time>
      </trkpt>
      <trkpt lat="46.076579" lon="10.977997">
        <ele>711.692576</ele>
        <time>2020-09-01T07:17:57.362Z</time>
      </trkpt>
      <trkpt lat="46.076492" lon="10.977925">
        <ele>712.127711</ele>
        <time>2020-09-01T07:18:00.364Z</time>
      </trkpt>
      <trkpt lat="46.076406" lon="10.977856">
        <ele>712.554628</ele>
        <time>2020-09-01T07:18:03.370Z</time>
      </trkpt>
      <trkpt lat="46.076312" lon="10.977802">
        <ele>712.993543</ele>
        <time>2020-09-01T07:18:06.361Z</time>
      </trkpt>
      <trkpt lat="46.076220" lon="10.977753">
        <ele>713.418967</ele>
        <time>2020-09-01T07:18:09.379Z</time>
      </trkpt>
      <trkpt lat="46.076124" lon="10.977694">
        <ele>713.871639</ele>
        <time>2020-09-01T07:18:12.378Z</time>
      </trkpt>
      <trkpt lat="46.076030" lon="10.977658">
        <ele>714.293515</ele>
        <time>2020-09-01T07:18:15.390Z</time>
      </trkpt>
      <trkpt lat="46.075932" lon="10.977633">
        <ele>714.725202</ele>
        <time>2020-09-01T07:18:18.405Z</time>
      </trkpt>
      <trkpt lat="46.075829" lon="10.977623">
        <ele>715.172985</ele>
        <time>2020-09-01T07:18:21.376Z</time>
      </trkpt>
      <trkpt lat="46.075726" lon="10.977626">
        <ele>715.619846</ele>
        <time>2020-09-01T07:18:24.380Z</time>
      </trkpt>
      <trkpt lat="46.075619" lon="10.977621">
        <ele>716.084211</ele>
        <time>2020-09-01T07:18:27.362Z</time>
      </trkpt>
      <trkpt lat="46.075518" lon="10.977582">
        <ele>716.537751</ele>
        <time>2020-09-01T07:18:30.370Z</time>
      </trkpt>
      <trkpt lat="46.075427" lon="10.977502">
        <ele>717.000082</ele>
        <time>2020-09-01T07:18:33.367Z</time>
      </trkpt>
      <trkpt lat="46.075335" lon="10.977397">
        <ele>717.509071</ele>
        <time>2020-09-01T07:18:36.392Z</time>
      </trkpt>
      <trkpt lat="46.075258" lon="10.977325">
        <ele>717.907178</ele>
        <time>2020-09-01T07:18:38.364Z</time>
      </trkpt>
      <trkpt lat="46.075172" lon="10.977243">
        <ele>718.354429</ele>
        <time>2020-09-01T07:18:40.367Z</time>
      </trkpt>
      <trkpt lat="46.075097" lon="10.977163">
        <ele>718.759126</ele>
        <time>2020-09-01T07:18:42.383Z</time>
      </trkpt>
      <trkpt lat="46.074988" lon="10.977079">
        <ele>719.637864</ele>
        <time>2020-09-01T07:18:45.359Z</time>
      </trkpt>
      <trkpt lat="46.074875" lon="10.977011">
        <ele>720.589260</ele>
        <time>2020-09-01T07:18:48.365Z</time>
      </trkpt>
      <trkpt lat="46.074774" lon="10.976947">
        <ele>721.446461</ele>
        <time>2020-09-01T07:18:51.382Z</time>
      </trkpt>
      <trkpt lat="46.074670" lon="10.976910">
        <ele>722.278745</ele>
        <time>2020-09-01T07:18:55.377Z</time>
      </trkpt>
      <trkpt lat="46.074563" lon="10.976892">
        <ele>723.115734</ele>
        <time>2020-09-01T07:18:59.369Z</time>
      </trkpt>
      <trkpt lat="46.074459" lon="10.976853">
        <ele>723.950667</ele>
        <time>2020-09-01T07:19:03.396Z</time>
      </trkpt>
      <trkpt lat="46.074360" lon="10.976812">
        <ele>724.750973</ele>
        <time>2020-09-01T07:19:07.369Z</time>
      </trkpt>
      <trkpt lat="46.074259" lon="10.976753">
        <ele>725.597690</ele>
        <time>2020-09-01T07:19:11.363Z</time>
      </trkpt>
      <trkpt lat="46.074152" lon="10.976707">
        <ele>726.465222</ele>
        <time>2020-09-01T07:19:15.373Z</time>
      </trkpt>
      <trkpt lat="46.074048" lon="10.976651">
        <ele>727.327795</ele>
        <time>2020-09-01T07:19:19.364Z</time>
      </trkpt>
      <trkpt lat="46.073947" lon="10.976627">
        <ele>728.123115</ele>
        <time>2020-09-01T07:19:23.385Z</time>
      </trkpt>
      <trkpt lat="46.073847" lon="10.976593">
        <ele>728.921395</ele>
        <time>2020-09-01T07:19:27.360Z</time>
      </trkpt>
      <trkpt lat="46.073756" lon="10.976539">
        <ele>729.685995</ele>
        <time>2020-09-01T07:19:31.373Z</time>
      </trkpt>
      <trkpt lat="46.073682" lon="10.976441">
        <ele>730.466755</ele>
        <time>2020-09-01T07:19:35.365Z</time>
      </trkpt>
      <trkpt lat="46.073648" lon="10.976314">
        <ele>731.200492</ele>
        <time>2020-09-01T07:19:39.356Z</time>
      </trkpt>
      <trkpt lat="46.073587" lon="10.976135">
        <ele>732.275430</ele>
        <time>2020-09-01T07:19:43.359Z</time>
      </trkpt>
      <trkpt lat="46.073542" lon="10.975974">
        <ele>733.230423</ele>
        <time>2020-09-01T07:19:46.334Z</time>
      </trkpt>
      <trkpt lat="46.073512" lon="10.975851">
        <ele>733.969649</ele>
        <time>2020-09-01T07:19:51.362Z</time>
      </trkpt>
      <trkpt lat="46.073517" lon="10.975702">
        <ele>734.815431</ele>
        <time>2020-09-01T07:20:00.424Z</time>
      </trkpt>
      <trkpt lat="46.073539" lon="10.975570">
        <ele>735.585135</ele>
        <time>2020-09-01T07:20:05.385Z</time>
      </trkpt>
      <trkpt lat="46.073531" lon="10.975432">
        <ele>736.370289</ele>
        <time>2020-09-01T07:20:10.380Z</time>
      </trkpt>
      <trkpt lat="46.073509" lon="10.975294">
        <ele>737.173109</ele>
        <time>2020-09-01T07:20:15.372Z</time>
      </trkpt>
      <trkpt lat="46.073459" lon="10.975184">
        <ele>737.918734</ele>
        <time>2020-09-01T07:20:19.376Z</time>
      </trkpt>
      <trkpt lat="46.073398" lon="10.975085">
        <ele>738.669473</ele>
        <time>2020-09-01T07:20:23.379Z</time>
      </trkpt>
      <trkpt lat="46.073337" lon="10.974987">
        <ele>739.415983</ele>
        <time>2020-09-01T07:20:27.369Z</time>
      </trkpt>
      <trkpt lat="46.073256" lon="10.974858">
        <ele>740.402487</ele>
        <time>2020-09-01T07:20:31.368Z</time>
      </trkpt>
      <trkpt lat="46.073196" lon="10.974754">
        <ele>741.169402</ele>
        <time>2020-09-01T07:20:34.395Z</time>
      </trkpt>
      <trkpt lat="46.073143" lon="10.974642">
        <ele>741.938085</ele>
        <time>2020-09-01T07:20:37.378Z</time>
      </trkpt>
      <trkpt lat="46.073100" lon="10.974501">
        <ele>742.811361</ele>
        <time>2020-09-01T07:20:41.354Z</time>
      </trkpt>
      <trkpt lat="46.073062" lon="10.974379">
        <ele>743.569598</ele>
        <time>2020-09-01T07:20:44.374Z</time>
      </trkpt>
      <trkpt lat="46.073011" lon="10.974247">
        <ele>744.426253</ele>
        <time>2020-09-01T07:20:48.348Z</time>
      </trkpt>
      <trkpt lat="46.072969" lon="10.974114">
        <ele>745.254788</ele>
        <time>2020-09-01T07:20:52.371Z</time>
      </trkpt>
      <trkpt lat="46.072893" lon="10.974026">
        <ele>746.051502</ele>
        <time>2020-09-01T07:20:56.361Z</time>
      </trkpt>
      <trkpt lat="46.072797" lon="10.973973">
        <ele>746.891669</ele>
        <time>2020-09-01T07:21:00.368Z</time>
      </trkpt>
      <trkpt lat="46.072701" lon="10.973957">
        <ele>747.547823</ele>
        <time>2020-09-01T07:21:04.360Z</time>
      </trkpt>
      <trkpt lat="46.072598" lon="10.973959">
        <ele>747.611301</ele>
        <time>2020-09-01T07:21:08.381Z</time>
      </trkpt>
      <trkpt lat="46.072492" lon="10.973954">
        <ele>747.676656</ele>
        <time>2020-09-01T07:21:12.372Z</time>
      </trkpt>
      <trkpt lat="46.072381" lon="10.973945">
        <ele>747.745166</ele>
        <time>2020-09-01T07:21:16.374Z</time>
      </trkpt>
      <trkpt lat="46.072289" lon="10.973942">
        <ele>747.801873</ele>
        <time>2020-09-01T07:21:19.367Z</time>
      </trkpt>
      <trkpt lat="46.072171" lon="10.973972">
        <ele>747.875711</ele>
        <time>2020-09-01T07:21:23.359Z</time>
      </trkpt>
      <trkpt lat="46.072078" lon="10.974012">
        <ele>747.935517</ele>
        <time>2020-09-01T07:21:26.359Z</time>
      </trkpt>
      <trkpt lat="46.071988" lon="10.974040">
        <ele>747.992255</ele>
        <time>2020-09-01T07:21:29.369Z</time>
      </trkpt>
      <trkpt lat="46.071870" lon="10.974045">
        <ele>748.065001</ele>
        <time>2020-09-01T07:21:33.355Z</time>
      </trkpt>
      <trkpt lat="46.071758" lon="10.974031">
        <ele>748.134278</ele>
        <time>2020-09-01T07:21:37.375Z</time>
      </trkpt>
      <trkpt lat="46.071666" lon="10.973996">
        <ele>748.192912</ele>
        <time>2020-09-01T07:21:41.387Z</time>
      </trkpt>
      <trkpt lat="46.071559" lon="10.973928">
        <ele>748.264973</ele>
        <time>2020-09-01T07:21:46.358Z</time>
      </trkpt>
      <trkpt lat="46.071470" lon="10.973854">
        <ele>748.328288</ele>
        <time>2020-09-01T07:21:50.365Z</time>
      </trkpt>
      <trkpt lat="46.071379" lon="10.973767">
        <ele>748.395578</ele>
        <time>2020-09-01T07:21:55.365Z</time>
      </trkpt>
      <trkpt lat="46.071321" lon="10.973657">
        <ele>748.454646</ele>
        <time>2020-09-01T07:21:59.362Z</time>
      </trkpt>
      <trkpt lat="46.071246" lon="10.973564">
        <ele>748.515611</ele>
        <time>2020-09-01T07:22:03.362Z</time>
      </trkpt>
      <trkpt lat="46.071161" lon="10.973456">
        <ele>748.585436</ele>
        <time>2020-09-01T07:22:07.357Z</time>
      </trkpt>
      <trkpt lat="46.071076" lon="10.973392">
        <ele>748.644531</ele>
        <time>2020-09-01T07:22:10.354Z</time>
      </trkpt>
      <trkpt lat="46.070985" lon="10.973396">
        <ele>750.689240</ele>
        <time>2020-09-01T07:22:13.346Z</time>
      </trkpt>
      <trkpt lat="46.070896" lon="10.973383">
        <ele>752.725477</ele>
        <time>2020-09-01T07:22:17.360Z</time>
      </trkpt>
      <trkpt lat="46.070811" lon="10.973336">
        <ele>754.797767</ele>
        <time>2020-09-01T07:22:23.362Z</time>
      </trkpt>
      <trkpt lat="46.070732" lon="10.973261">
        <ele>756.951008</ele>
        <time>2020-09-01T07:22:30.365Z</time>
      </trkpt>
      <trkpt lat="46.070651" lon="10.973174">
        <ele>759.250367</ele>
        <time>2020-09-01T07:22:34.354Z</time>
      </trkpt>
      <trkpt lat="46.070533" lon="10.973255">
        <ele>762.225377</ele>
        <time>2020-09-01T07:22:36.354Z</time>
      </trkpt>
      <trkpt lat="46.070418" lon="10.973336">
        <ele>765.138882</ele>
        <time>2020-09-01T07:22:39.357Z</time>
      </trkpt>
      <trkpt lat="46.070304" lon="10.973397">
        <ele>767.906843</ele>
        <time>2020-09-01T07:22:42.359Z</time>
      </trkpt>
      <trkpt lat="46.070199" lon="10.973450">
        <ele>770.439219</ele>
        <time>2020-09-01T07:22:45.363Z</time>
      </trkpt>
      <trkpt lat="46.070097" lon="10.973531">
        <ele>773.090046</ele>
        <time>2020-09-01T07:22:48.383Z</time>
      </trkpt>
      <trkpt lat="46.070023" lon="10.973627">
        <ele>775.356249</ele>
        <time>2020-09-01T07:22:50.364Z</time>
      </trkpt>
      <trkpt lat="46.069928" lon="10.973729">
        <ele>778.052692</ele>
        <time>2020-09-01T07:22:53.376Z</time>
      </trkpt>
      <trkpt lat="46.069833" lon="10.973765">
        <ele>780.288613</ele>
        <time>2020-09-01T07:22:56.369Z</time>
      </trkpt>
      <trkpt lat="46.069736" lon="10.973773">
        <ele>782.500187</ele>
        <time>2020-09-01T07:23:00.369Z</time>
      </trkpt>
      <trkpt lat="46.069640" lon="10.973829">
        <ele>784.857557</ele>
        <time>2020-09-01T07:23:04.374Z</time>
      </trkpt>
      <trkpt lat="46.069555" lon="10.973877">
        <ele>786.935562</ele>
        <time>2020-09-01T07:23:08.388Z</time>
      </trkpt>
      <trkpt lat="46.069443" lon="10.973890">
        <ele>789.493214</ele>
        <time>2020-09-01T07:23:12.401Z</time>
      </trkpt>
      <trkpt lat="46.069327" lon="10.973912">
        <ele>789.609500</ele>
        <time>2020-09-01T07:23:16.369Z</time>
      </trkpt>
      <trkpt lat="46.069224" lon="10.973928">
        <ele>789.630239</ele>
        <time>2020-09-01T07:23:20.410Z</time>
      </trkpt>
      <trkpt lat="46.069121" lon="10.973907">
        <ele>789.651064</ele>
        <time>2020-09-01T07:23:25.366Z</time>
      </trkpt>
      <trkpt lat="46.069050" lon="10.973990">
        <ele>789.669365</ele>
        <time>2020-09-01T07:23:28.389Z</time>
      </trkpt>
      <trkpt lat="46.068949" lon="10.973967">
        <ele>789.689835</ele>
        <time>2020-09-01T07:23:33.387Z</time>
      </trkpt>
      <trkpt lat="46.068851" lon="10.973890">
        <ele>789.712179</ele>
        <time>2020-09-01T07:23:37.383Z</time>
      </trkpt>
      <trkpt lat="46.068743" lon="10.973846">
        <ele>789.734647</ele>
        <time>2020-09-01T07:23:41.379Z</time>
      </trkpt>
      <trkpt lat="46.068654" lon="10.973806">
        <ele>789.753310</ele>
        <time>2020-09-01T07:23:45.374Z</time>
      </trkpt>
      <trkpt lat="46.068554" lon="10.973753">
        <ele>789.774640</ele>
        <time>2020-09-01T07:23:50.362Z</time>
      </trkpt>
      <trkpt lat="46.068462" lon="10.973700">
        <ele>789.794474</ele>
        <time>2020-09-01T07:23:54.361Z</time>
      </trkpt>
      <trkpt lat="46.068346" lon="10.973681">
        <ele>789.817846</ele>
        <time>2020-09-01T07:23:58.362Z</time>
      </trkpt>
      <trkpt lat="46.068230" lon="10.973675">
        <ele>789.841083</ele>
        <time>2020-09-01T07:24:02.368Z</time>
      </trkpt>
      <trkpt lat="46.068124" lon="10.973691">
        <ele>789.862419</ele>
        <time>2020-09-01T07:24:06.369Z</time>
      </trkpt>
      <trkpt lat="46.068041" lon="10.973749">
        <ele>789.880885</ele>
        <time>2020-09-01T07:24:10.367Z</time>
      </trkpt>
      <trkpt lat="46.067974" lon="10.973836">
        <ele>789.898938</ele>
        <time>2020-09-01T07:24:13.373Z</time>
      </trkpt>
      <trkpt lat="46.067923" lon="10.973959">
        <ele>789.918841</ele>
        <time>2020-09-01T07:24:17.386Z</time>
      </trkpt>
      <trkpt lat="46.067826" lon="10.973932">
        <ele>789.938618</ele>
        <time>2020-09-01T07:24:21.369Z</time>
      </trkpt>
      <trkpt lat="46.067734" lon="10.973879">
        <ele>790.744695</ele>
        <time>2020-09-01T07:24:24.382Z</time>
      </trkpt>
      <trkpt lat="46.067635" lon="10.973797">
        <ele>792.333386</ele>
        <time>2020-09-01T07:24:27.370Z</time>
      </trkpt>
      <trkpt lat="46.067537" lon="10.973742">
        <ele>793.796637</ele>
        <time>2020-09-01T07:24:30.361Z</time>
      </trkpt>
      <trkpt lat="46.067438" lon="10.973728">
        <ele>795.180694</ele>
        <time>2020-09-01T07:24:33.381Z</time>
      </trkpt>
      <trkpt lat="46.067324" lon="10.973749">
        <ele>796.779742</ele>
        <time>2020-09-01T07:24:37.376Z</time>
      </trkpt>
      <trkpt lat="46.067233" lon="10.973765">
        <ele>798.055263</ele>
        <time>2020-09-01T07:24:41.361Z</time>
      </trkpt>
      <trkpt lat="46.067138" lon="10.973737">
        <ele>799.404405</ele>
        <time>2020-09-01T07:24:45.365Z</time>
      </trkpt>
      <trkpt lat="46.067049" lon="10.973789">
        <ele>800.740590</ele>
        <time>2020-09-01T07:26:01.352Z</time>
      </trkpt>
      <trkpt lat="46.067141" lon="10.973668">
        <ele>802.473478</ele>
        <time>2020-09-01T07:28:39.368Z</time>
      </trkpt>
      <trkpt lat="46.067243" lon="10.973660">
        <ele>803.894762</ele>
        <time>2020-09-01T07:28:44.369Z</time>
      </trkpt>
      <trkpt lat="46.067331" lon="10.973608">
        <ele>805.218061</ele>
        <time>2020-09-01T07:28:48.369Z</time>
      </trkpt>
      <trkpt lat="46.067424" lon="10.973537">
        <ele>806.682335</ele>
        <time>2020-09-01T07:28:52.387Z</time>
      </trkpt>
      <trkpt lat="46.067513" lon="10.973470">
        <ele>808.079377</ele>
        <time>2020-09-01T07:28:56.379Z</time>
      </trkpt>
      <trkpt lat="46.067611" lon="10.973398">
        <ele>809.609833</ele>
        <time>2020-09-01T07:29:00.371Z</time>
      </trkpt>
      <trkpt lat="46.067710" lon="10.973345">
        <ele>811.079224</ele>
        <time>2020-09-01T07:29:04.410Z</time>
      </trkpt>
      <trkpt lat="46.067821" lon="10.973303">
        <ele>812.675962</ele>
        <time>2020-09-01T07:29:08.380Z</time>
      </trkpt>
      <trkpt lat="46.067927" lon="10.973269">
        <ele>814.186879</ele>
        <time>2020-09-01T07:29:12.361Z</time>
      </trkpt>
      <trkpt lat="46.068028" lon="10.973207">
        <ele>815.666172</ele>
        <time>2020-09-01T07:29:16.383Z</time>
      </trkpt>
      <trkpt lat="46.068125" lon="10.973139">
        <ele>817.069598</ele>
        <time>2020-09-01T07:29:20.363Z</time>
      </trkpt>
      <trkpt lat="46.068197" lon="10.973027">
        <ele>818.447914</ele>
        <time>2020-09-01T07:29:24.397Z</time>
      </trkpt>
      <trkpt lat="46.068264" lon="10.972929">
        <ele>819.689898</ele>
        <time>2020-09-01T07:29:28.358Z</time>
      </trkpt>
      <trkpt lat="46.068357" lon="10.972863">
        <ele>821.038641</ele>
        <time>2020-09-01T07:29:34.377Z</time>
      </trkpt>
      <trkpt lat="46.068460" lon="10.972879">
        <ele>822.386531</ele>
        <time>2020-09-01T07:29:39.362Z</time>
      </trkpt>
      <trkpt lat="46.068552" lon="10.972914">
        <ele>823.624535</ele>
        <time>2020-09-01T07:29:43.382Z</time>
      </trkpt>
      <trkpt lat="46.068618" lon="10.972819">
        <ele>824.838133</ele>
        <time>2020-09-01T07:29:48.404Z</time>
      </trkpt>
      <trkpt lat="46.068582" lon="10.972697">
        <ele>826.034892</ele>
        <time>2020-09-01T07:29:52.363Z</time>
      </trkpt>
      <trkpt lat="46.068495" lon="10.972637">
        <ele>827.289751</ele>
        <time>2020-09-01T07:29:55.362Z</time>
      </trkpt>
      <trkpt lat="46.068392" lon="10.972611">
        <ele>828.650278</ele>
        <time>2020-09-01T07:29:59.403Z</time>
      </trkpt>
      <trkpt lat="46.068281" lon="10.972643">
        <ele>830.123101</ele>
        <time>2020-09-01T07:30:03.360Z</time>
      </trkpt>
      <trkpt lat="46.068171" lon="10.972685">
        <ele>831.603674</ele>
        <time>2020-09-01T07:30:07.368Z</time>
      </trkpt>
      <trkpt lat="46.068076" lon="10.972762">
        <ele>833.021750</ele>
        <time>2020-09-01T07:30:11.362Z</time>
      </trkpt>
      <trkpt lat="46.067975" lon="10.972767">
        <ele>834.336633</ele>
        <time>2020-09-01T07:30:16.367Z</time>
      </trkpt>
      <trkpt lat="46.067885" lon="10.972751">
        <ele>835.516495</ele>
        <time>2020-09-01T07:30:21.419Z</time>
      </trkpt>
      <trkpt lat="46.067786" lon="10.972751">
        <ele>836.804581</ele>
        <time>2020-09-01T07:30:27.381Z</time>
      </trkpt>
      <trkpt lat="46.067679" lon="10.972768">
        <ele>838.205187</ele>
        <time>2020-09-01T07:30:32.402Z</time>
      </trkpt>
      <trkpt lat="46.067574" lon="10.972776">
        <ele>839.456141</ele>
        <time>2020-09-01T07:30:37.376Z</time>
      </trkpt>
      <trkpt lat="46.067474" lon="10.972774">
        <ele>840.630235</ele>
        <time>2020-09-01T07:30:43.397Z</time>
      </trkpt>
      <trkpt lat="46.067368" lon="10.972822">
        <ele>841.934627</ele>
        <time>2020-09-01T07:30:49.381Z</time>
      </trkpt>
      <trkpt lat="46.067273" lon="10.972881">
        <ele>843.149041</ele>
        <time>2020-09-01T07:30:54.403Z</time>
      </trkpt>
      <trkpt lat="46.067179" lon="10.972928">
        <ele>844.317100</ele>
        <time>2020-09-01T07:30:59.363Z</time>
      </trkpt>
      <trkpt lat="46.067083" lon="10.972912">
        <ele>845.451632</ele>
        <time>2020-09-01T07:31:04.374Z</time>
      </trkpt>
      <trkpt lat="46.066991" lon="10.972888">
        <ele>846.549243</ele>
        <time>2020-09-01T07:31:10.360Z</time>
      </trkpt>
      <trkpt lat="46.066927" lon="10.972783">
        <ele>847.687656</ele>
        <time>2020-09-01T07:31:16.414Z</time>
      </trkpt>
      <trkpt lat="46.066871" lon="10.972667">
        <ele>848.838726</ele>
        <time>2020-09-01T07:31:21.362Z</time>
      </trkpt>
      <trkpt lat="46.066830" lon="10.972546">
        <ele>849.935563</ele>
        <time>2020-09-01T07:31:26.355Z</time>
      </trkpt>
      <trkpt lat="46.066809" lon="10.972420">
        <ele>850.991067</ele>
        <time>2020-09-01T07:31:31.367Z</time>
      </trkpt>
      <trkpt lat="46.066792" lon="10.972290">
        <ele>852.068601</ele>
        <time>2020-09-01T07:31:36.363Z</time>
      </trkpt>
      <trkpt lat="46.066755" lon="10.972139">
        <ele>853.372992</ele>
        <time>2020-09-01T07:31:42.361Z</time>
      </trkpt>
      <trkpt lat="46.066785" lon="10.971992">
        <ele>854.621076</ele>
        <time>2020-09-01T07:31:47.382Z</time>
      </trkpt>
      <trkpt lat="46.066875" lon="10.971922">
        <ele>855.821686</ele>
        <time>2020-09-01T07:31:52.371Z</time>
      </trkpt>
      <trkpt lat="46.066971" lon="10.971945">
        <ele>856.964172</ele>
        <time>2020-09-01T07:31:56.361Z</time>
      </trkpt>
      <trkpt lat="46.067032" lon="10.972051">
        <ele>858.085911</ele>
        <time>2020-09-01T07:32:00.379Z</time>
      </trkpt>
      <trkpt lat="46.067074" lon="10.972175">
        <ele>859.209854</ele>
        <time>2020-09-01T07:32:04.369Z</time>
      </trkpt>
      <trkpt lat="46.067141" lon="10.972263">
        <ele>860.475945</ele>
        <time>2020-09-01T07:32:08.387Z</time>
      </trkpt>
      <trkpt lat="46.067236" lon="10.972271">
        <ele>861.880973</ele>
        <time>2020-09-01T07:32:12.366Z</time>
      </trkpt>
      <trkpt lat="46.067339" lon="10.972258">
        <ele>863.407545</ele>
        <time>2020-09-01T07:32:17.364Z</time>
      </trkpt>
      <trkpt lat="46.067421" lon="10.972197">
        <ele>864.769989</ele>
        <time>2020-09-01T07:32:22.362Z</time>
      </trkpt>
      <trkpt lat="46.067517" lon="10.972158">
        <ele>866.242617</ele>
        <time>2020-09-01T07:32:27.381Z</time>
      </trkpt>
      <trkpt lat="46.067598" lon="10.972053">
        <ele>867.851085</ele>
        <time>2020-09-01T07:32:32.401Z</time>
      </trkpt>
      <trkpt lat="46.067682" lon="10.971962">
        <ele>869.402577</ele>
        <time>2020-09-01T07:32:37.368Z</time>
      </trkpt>
      <trkpt lat="46.067769" lon="10.971907">
        <ele>870.805224</ele>
        <time>2020-09-01T07:32:42.367Z</time>
      </trkpt>
      <trkpt lat="46.067870" lon="10.971898">
        <ele>872.299294</ele>
        <time>2020-09-01T07:32:48.358Z</time>
      </trkpt>
      <trkpt lat="46.067969" lon="10.971871">
        <ele>873.786926</ele>
        <time>2020-09-01T07:32:54.399Z</time>
      </trkpt>
      <trkpt lat="46.068057" lon="10.971842">
        <ele>875.119738</ele>
        <time>2020-09-01T07:32:59.382Z</time>
      </trkpt>
      <trkpt lat="46.068134" lon="10.971754">
        <ele>876.570630</ele>
        <time>2020-09-01T07:33:04.358Z</time>
      </trkpt>
      <trkpt lat="46.068206" lon="10.971667">
        <ele>877.957827</ele>
        <time>2020-09-01T07:33:08.383Z</time>
      </trkpt>
      <trkpt lat="46.068290" lon="10.971593">
        <ele>879.411365</ele>
        <time>2020-09-01T07:33:13.372Z</time>
      </trkpt>
      <trkpt lat="46.068376" lon="10.971547">
        <ele>880.765734</ele>
        <time>2020-09-01T07:33:18.369Z</time>
      </trkpt>
      <trkpt lat="46.068476" lon="10.971551">
        <ele>882.242761</ele>
        <time>2020-09-01T07:33:25.374Z</time>
      </trkpt>
      <trkpt lat="46.068569" lon="10.971615">
        <ele>883.764347</ele>
        <time>2020-09-01T07:33:31.381Z</time>
      </trkpt>
      <trkpt lat="46.068662" lon="10.971651">
        <ele>885.186111</ele>
        <time>2020-09-01T07:33:37.360Z</time>
      </trkpt>
      <trkpt lat="46.068763" lon="10.971691">
        <ele>886.764068</ele>
        <time>2020-09-01T07:33:43.408Z</time>
      </trkpt>
      <trkpt lat="46.068857" lon="10.971725">
        <ele>888.260600</ele>
        <time>2020-09-01T07:33:48.366Z</time>
      </trkpt>
      <trkpt lat="46.068958" lon="10.971730">
        <ele>889.821138</ele>
        <time>2020-09-01T07:33:53.364Z</time>
      </trkpt>
      <trkpt lat="46.069050" lon="10.971726">
        <ele>891.242427</ele>
        <time>2020-09-01T07:33:57.358Z</time>
      </trkpt>
      <trkpt lat="46.069154" lon="10.971732">
        <ele>892.849656</ele>
        <time>2020-09-01T07:34:02.384Z</time>
      </trkpt>
      <trkpt lat="46.069248" lon="10.971759">
        <ele>894.329723</ele>
        <time>2020-09-01T07:34:06.375Z</time>
      </trkpt>
      <trkpt lat="46.069358" lon="10.971780">
        <ele>896.043152</ele>
        <time>2020-09-01T07:34:11.358Z</time>
      </trkpt>
      <trkpt lat="46.069453" lon="10.971766">
        <ele>897.517767</ele>
        <time>2020-09-01T07:34:16.358Z</time>
      </trkpt>
      <trkpt lat="46.069543" lon="10.971726">
        <ele>898.972094</ele>
        <time>2020-09-01T07:34:22.362Z</time>
      </trkpt>
      <trkpt lat="46.069579" lon="10.971587">
        <ele>900.561615</ele>
        <time>2020-09-01T07:34:28.388Z</time>
      </trkpt>
      <trkpt lat="46.069578" lon="10.971430">
        <ele>902.243666</ele>
        <time>2020-09-01T07:34:33.367Z</time>
      </trkpt>
      <trkpt lat="46.069545" lon="10.971282">
        <ele>903.909102</ele>
        <time>2020-09-01T07:34:38.383Z</time>
      </trkpt>
      <trkpt lat="46.069538" lon="10.971139">
        <ele>905.444907</ele>
        <time>2020-09-01T07:34:43.355Z</time>
      </trkpt>
      <trkpt lat="46.069554" lon="10.971005">
        <ele>906.901590</ele>
        <time>2020-09-01T07:34:48.358Z</time>
      </trkpt>
      <trkpt lat="46.069602" lon="10.970883">
        <ele>908.404147</ele>
        <time>2020-09-01T07:34:54.359Z</time>
      </trkpt>
      <trkpt lat="46.069699" lon="10.970818">
        <ele>910.055957</ele>
        <time>2020-09-01T07:35:00.351Z</time>
      </trkpt>
      <trkpt lat="46.069788" lon="10.970791">
        <ele>911.460384</ele>
        <time>2020-09-01T07:35:05.372Z</time>
      </trkpt>
      <trkpt lat="46.069884" lon="10.970781">
        <ele>912.946660</ele>
        <time>2020-09-01T07:35:10.385Z</time>
      </trkpt>
      <trkpt lat="46.069986" lon="10.970792">
        <ele>914.141186</ele>
        <time>2020-09-01T07:35:15.374Z</time>
      </trkpt>
      <trkpt lat="46.070077" lon="10.970761">
        <ele>914.797080</ele>
        <time>2020-09-01T07:35:21.377Z</time>
      </trkpt>
      <trkpt lat="46.070185" lon="10.970710">
        <ele>915.594254</ele>
        <time>2020-09-01T07:35:26.370Z</time>
      </trkpt>
      <trkpt lat="46.070274" lon="10.970667">
        <ele>916.252672</ele>
        <time>2020-09-01T07:35:31.376Z</time>
      </trkpt>
      <trkpt lat="46.070372" lon="10.970610">
        <ele>916.993937</ele>
        <time>2020-09-01T07:35:36.380Z</time>
      </trkpt>
      <trkpt lat="46.070447" lon="10.970501">
        <ele>917.741014</ele>
        <time>2020-09-01T07:35:42.391Z</time>
      </trkpt>
      <trkpt lat="46.070456" lon="10.970365">
        <ele>918.405848</ele>
        <time>2020-09-01T07:35:48.363Z</time>
      </trkpt>
      <trkpt lat="46.070397" lon="10.970245">
        <ele>919.121591</ele>
        <time>2020-09-01T07:35:54.373Z</time>
      </trkpt>
      <trkpt lat="46.070308" lon="10.970153">
        <ele>919.889816</ele>
        <time>2020-09-01T07:36:00.381Z</time>
      </trkpt>
      <trkpt lat="46.070209" lon="10.970132">
        <ele>920.591720</ele>
        <time>2020-09-01T07:36:05.376Z</time>
      </trkpt>
      <trkpt lat="46.070115" lon="10.970058">
        <ele>921.343005</ele>
        <time>2020-09-01T07:36:10.384Z</time>
      </trkpt>
      <trkpt lat="46.070059" lon="10.969950">
        <ele>921.999149</ele>
        <time>2020-09-01T07:36:14.423Z</time>
      </trkpt>
      <trkpt lat="46.070006" lon="10.969820">
        <ele>922.732931</ele>
        <time>2020-09-01T07:36:18.385Z</time>
      </trkpt>
      <trkpt lat="46.069952" lon="10.969704">
        <ele>923.412739</ele>
        <time>2020-09-01T07:36:22.360Z</time>
      </trkpt>
      <trkpt lat="46.069908" lon="10.969580">
        <ele>924.090524</ele>
        <time>2020-09-01T07:36:26.368Z</time>
      </trkpt>
      <trkpt lat="46.069862" lon="10.969453">
        <ele>924.787720</ele>
        <time>2020-09-01T07:36:31.416Z</time>
      </trkpt>
      <trkpt lat="46.069825" lon="10.969327">
        <ele>925.453557</ele>
        <time>2020-09-01T07:36:38.390Z</time>
      </trkpt>
      <trkpt lat="46.069762" lon="10.969226">
        <ele>926.114514</ele>
        <time>2020-09-01T07:36:44.372Z</time>
      </trkpt>
      <trkpt lat="46.069700" lon="10.969110">
        <ele>927.157309</ele>
        <time>2020-09-01T07:36:50.360Z</time>
      </trkpt>
      <trkpt lat="46.069630" lon="10.969004">
        <ele>928.472520</ele>
        <time>2020-09-01T07:36:56.363Z</time>
      </trkpt>
      <trkpt lat="46.069619" lon="10.968872">
        <ele>929.667363</ele>
        <time>2020-09-01T07:37:00.362Z</time>
      </trkpt>
      <trkpt lat="46.069568" lon="10.968751">
        <ele>930.939772</ele>
        <time>2020-09-01T07:37:05.356Z</time>
      </trkpt>
      <trkpt lat="46.069531" lon="10.968629">
        <ele>932.136399</ele>
        <time>2020-09-01T07:37:10.375Z</time>
      </trkpt>
      <trkpt lat="46.069478" lon="10.968521">
        <ele>933.325296</ele>
        <time>2020-09-01T07:37:14.380Z</time>
      </trkpt>
      <trkpt lat="46.069411" lon="10.968391">
        <ele>934.780736</ele>
        <time>2020-09-01T07:37:19.390Z</time>
      </trkpt>
      <trkpt lat="46.069357" lon="10.968287">
        <ele>935.948187</ele>
        <time>2020-09-01T07:37:24.369Z</time>
      </trkpt>
      <trkpt lat="46.069293" lon="10.968187">
        <ele>937.170906</ele>
        <time>2020-09-01T07:37:29.378Z</time>
      </trkpt>
      <trkpt lat="46.069222" lon="10.968102">
        <ele>938.366514</ele>
        <time>2020-09-01T07:37:34.382Z</time>
      </trkpt>
      <trkpt lat="46.069136" lon="10.968036">
        <ele>939.628627</ele>
        <time>2020-09-01T07:37:39.380Z</time>
      </trkpt>
      <trkpt lat="46.069047" lon="10.967953">
        <ele>941.001806</ele>
        <time>2020-09-01T07:37:43.381Z</time>
      </trkpt>
      <trkpt lat="46.068943" lon="10.967873">
        <ele>942.528869</ele>
        <time>2020-09-01T07:37:47.396Z</time>
      </trkpt>
      <trkpt lat="46.068838" lon="10.967800">
        <ele>944.038997</ele>
        <time>2020-09-01T07:37:51.381Z</time>
      </trkpt>
      <trkpt lat="46.068757" lon="10.967716">
        <ele>945.331631</ele>
        <time>2020-09-01T07:37:54.380Z</time>
      </trkpt>
      <trkpt lat="46.068662" lon="10.967615">
        <ele>946.860816</ele>
        <time>2020-09-01T07:37:58.372Z</time>
      </trkpt>
      <trkpt lat="46.068596" lon="10.967522">
        <ele>948.056461</ele>
        <time>2020-09-01T07:38:01.382Z</time>
      </trkpt>
      <trkpt lat="46.068558" lon="10.967395">
        <ele>949.299485</ele>
        <time>2020-09-01T07:38:04.420Z</time>
      </trkpt>
      <trkpt lat="46.068530" lon="10.967262">
        <ele>949.912557</ele>
        <time>2020-09-01T07:38:08.383Z</time>
      </trkpt>
      <trkpt lat="46.068460" lon="10.967131">
        <ele>950.234409</ele>
        <time>2020-09-01T07:38:12.399Z</time>
      </trkpt>
      <trkpt lat="46.068387" lon="10.967013">
        <ele>950.542144</ele>
        <time>2020-09-01T07:38:15.407Z</time>
      </trkpt>
      <trkpt lat="46.068330" lon="10.966894">
        <ele>950.823616</ele>
        <time>2020-09-01T07:38:18.370Z</time>
      </trkpt>
      <trkpt lat="46.068285" lon="10.966769">
        <ele>951.097732</ele>
        <time>2020-09-01T07:38:21.380Z</time>
      </trkpt>
      <trkpt lat="46.068253" lon="10.966645">
        <ele>951.355254</ele>
        <time>2020-09-01T07:38:24.383Z</time>
      </trkpt>
      <trkpt lat="46.068217" lon="10.966494">
        <ele>951.666044</ele>
        <time>2020-09-01T07:38:28.382Z</time>
      </trkpt>
      <trkpt lat="46.068203" lon="10.966343">
        <ele>951.962577</ele>
        <time>2020-09-01T07:38:34.371Z</time>
      </trkpt>
      <trkpt lat="46.068197" lon="10.966201">
        <ele>952.239492</ele>
        <time>2020-09-01T07:38:39.373Z</time>
      </trkpt>
      <trkpt lat="46.068160" lon="10.966079">
        <ele>952.498662</ele>
        <time>2020-09-01T07:38:51.380Z</time>
      </trkpt>
      <trkpt lat="46.068155" lon="10.965940">
        <ele>952.769588</ele>
        <time>2020-09-01T07:39:21.381Z</time>
      </trkpt>
      <trkpt lat="46.068127" lon="10.965683">
        <ele>953.275969</ele>
        <time>2020-09-01T07:39:29.390Z</time>
      </trkpt>
      <trkpt lat="46.068117" lon="10.965529">
        <ele>953.577040</ele>
        <time>2020-09-01T07:39:33.380Z</time>
      </trkpt>
      <trkpt lat="46.068104" lon="10.965362">
        <ele>953.904145</ele>
        <time>2020-09-01T07:39:37.386Z</time>
      </trkpt>
      <trkpt lat="46.068120" lon="10.965225">
        <ele>954.174568</ele>
        <time>2020-09-01T07:39:40.396Z</time>
      </trkpt>
      <trkpt lat="46.068130" lon="10.965083">
        <ele>954.452391</ele>
        <time>2020-09-01T07:39:43.369Z</time>
      </trkpt>
      <trkpt lat="46.068155" lon="10.964946">
        <ele>954.728131</ele>
        <time>2020-09-01T07:39:46.385Z</time>
      </trkpt>
      <trkpt lat="46.068174" lon="10.964817">
        <ele>955.003671</ele>
        <time>2020-09-01T07:39:49.382Z</time>
      </trkpt>
      <trkpt lat="46.068182" lon="10.964683">
        <ele>955.289899</ele>
        <time>2020-09-01T07:39:52.378Z</time>
      </trkpt>
      <trkpt lat="46.068194" lon="10.964549">
        <ele>955.577439</ele>
        <time>2020-09-01T07:39:55.375Z</time>
      </trkpt>
      <trkpt lat="46.068203" lon="10.964408">
        <ele>955.878778</ele>
        <time>2020-09-01T07:39:58.372Z</time>
      </trkpt>
      <trkpt lat="46.068198" lon="10.964244">
        <ele>956.228134</ele>
        <time>2020-09-01T07:40:01.385Z</time>
      </trkpt>
      <trkpt lat="46.068172" lon="10.964118">
        <ele>956.507892</ele>
        <time>2020-09-01T07:40:18.345Z</time>
      </trkpt>
      <trkpt lat="46.068235" lon="10.963998">
        <ele>956.828146</ele>
        <time>2020-09-01T07:40:31.384Z</time>
      </trkpt>
      <trkpt lat="46.068197" lon="10.963838">
        <ele>957.188051</ele>
        <time>2020-09-01T07:40:36.372Z</time>
      </trkpt>
      <trkpt lat="46.068180" lon="10.963695">
        <ele>957.496814</ele>
        <time>2020-09-01T07:40:39.357Z</time>
      </trkpt>
      <trkpt lat="46.068184" lon="10.963539">
        <ele>957.829035</ele>
        <time>2020-09-01T07:40:43.359Z</time>
      </trkpt>
      <trkpt lat="46.068185" lon="10.963385">
        <ele>958.156787</ele>
        <time>2020-09-01T07:40:48.369Z</time>
      </trkpt>
      <trkpt lat="46.068182" lon="10.963254">
        <ele>958.435729</ele>
        <time>2020-09-01T07:40:54.386Z</time>
      </trkpt>
      <trkpt lat="46.068174" lon="10.963095">
        <ele>958.774996</ele>
        <time>2020-09-01T07:40:58.363Z</time>
      </trkpt>
      <trkpt lat="46.068156" lon="10.962920">
        <ele>959.151496</ele>
        <time>2020-09-01T07:41:03.353Z</time>
      </trkpt>
      <trkpt lat="46.068214" lon="10.962594">
        <ele>959.867726</ele>
        <time>2020-09-01T07:42:01.399Z</time>
      </trkpt>
      <trkpt lat="46.068273" lon="10.962473">
        <ele>960.182469</ele>
        <time>2020-09-01T07:42:06.382Z</time>
      </trkpt>
      <trkpt lat="46.068339" lon="10.962381">
        <ele>959.726529</ele>
        <time>2020-09-01T07:42:11.367Z</time>
      </trkpt>
      <trkpt lat="46.068434" lon="10.962296">
        <ele>958.527410</ele>
        <time>2020-09-01T07:42:15.394Z</time>
      </trkpt>
      <trkpt lat="46.068479" lon="10.962157">
        <ele>957.386154</ele>
        <time>2020-09-01T07:42:19.380Z</time>
      </trkpt>
      <trkpt lat="46.068507" lon="10.962027">
        <ele>956.373376</ele>
        <time>2020-09-01T07:42:22.368Z</time>
      </trkpt>
      <trkpt lat="46.068552" lon="10.961877">
        <ele>955.157463</ele>
        <time>2020-09-01T07:42:26.374Z</time>
      </trkpt>
      <trkpt lat="46.068625" lon="10.961780">
        <ele>954.092697</ele>
        <time>2020-09-01T07:42:30.375Z</time>
      </trkpt>
      <trkpt lat="46.068708" lon="10.961690">
        <ele>952.978843</ele>
        <time>2020-09-01T07:42:33.379Z</time>
      </trkpt>
      <trkpt lat="46.068787" lon="10.961611">
        <ele>951.947711</ele>
        <time>2020-09-01T07:42:36.368Z</time>
      </trkpt>
      <trkpt lat="46.068876" lon="10.961512">
        <ele>950.742092</ele>
        <time>2020-09-01T07:42:40.404Z</time>
      </trkpt>
      <trkpt lat="46.068953" lon="10.961429">
        <ele>949.710965</ele>
        <time>2020-09-01T07:42:44.383Z</time>
      </trkpt>
      <trkpt lat="46.069031" lon="10.961363">
        <ele>948.741003</ele>
        <time>2020-09-01T07:42:49.375Z</time>
      </trkpt>
      <trkpt lat="46.069108" lon="10.961278">
        <ele>947.700897</ele>
        <time>2020-09-01T07:42:54.390Z</time>
      </trkpt>
      <trkpt lat="46.069198" lon="10.961212">
        <ele>946.617995</ele>
        <time>2020-09-01T07:43:01.370Z</time>
      </trkpt>
      <trkpt lat="46.069286" lon="10.961157">
        <ele>945.589378</ele>
        <time>2020-09-01T07:43:07.392Z</time>
      </trkpt>
      <trkpt lat="46.069393" lon="10.961101">
        <ele>944.368603</ele>
        <time>2020-09-01T07:43:11.374Z</time>
      </trkpt>
      <trkpt lat="46.069490" lon="10.961061">
        <ele>943.286636</ele>
        <time>2020-09-01T07:43:17.379Z</time>
      </trkpt>
      <trkpt lat="46.069583" lon="10.961062">
        <ele>942.289273</ele>
        <time>2020-09-01T07:43:21.380Z</time>
      </trkpt>
      <trkpt lat="46.069670" lon="10.961101">
        <ele>941.312201</ele>
        <time>2020-09-01T07:43:26.370Z</time>
      </trkpt>
      <trkpt lat="46.069760" lon="10.961139">
        <ele>937.149518</ele>
        <time>2020-09-01T07:43:32.383Z</time>
      </trkpt>
      <trkpt lat="46.069620" lon="10.961229">
        <ele>928.142675</ele>
        <time>2020-09-01T07:45:31.382Z</time>
      </trkpt>
      <trkpt lat="46.069517" lon="10.961205">
        <ele>922.012275</ele>
        <time>2020-09-01T07:45:35.404Z</time>
      </trkpt>
      <trkpt lat="46.069426" lon="10.961206">
        <ele>916.665356</ele>
        <time>2020-09-01T07:45:39.377Z</time>
      </trkpt>
      <trkpt lat="46.069330" lon="10.961264">
        <ele>910.549339</ele>
        <time>2020-09-01T07:45:44.368Z</time>
      </trkpt>
      <trkpt lat="46.069212" lon="10.961302">
        <ele>903.445234</ele>
        <time>2020-09-01T07:45:48.363Z</time>
      </trkpt>
      <trkpt lat="46.068893" lon="10.961512">
        <ele>882.839807</ele>
        <time>2020-09-01T07:45:58.368Z</time>
      </trkpt>
      <trkpt lat="46.068603" lon="10.961793">
        <ele>862.308261</ele>
        <time>2020-09-01T07:46:06.359Z</time>
      </trkpt>
      <trkpt lat="46.068497" lon="10.962080">
        <ele>849.054375</ele>
        <time>2020-09-01T07:46:12.373Z</time>
      </trkpt>
      <trkpt lat="46.068569" lon="10.962628">
        <ele>841.179051</ele>
        <time>2020-09-01T07:46:27.367Z</time>
      </trkpt>
      <trkpt lat="46.068631" lon="10.962734">
        <ele>844.846410</ele>
        <time>2020-09-01T07:46:32.359Z</time>
      </trkpt>
      <trkpt lat="46.068703" lon="10.962836">
        <ele>848.695460</ele>
        <time>2020-09-01T07:46:38.353Z</time>
      </trkpt>
      <trkpt lat="46.068758" lon="10.962942">
        <ele>852.196743</ele>
        <time>2020-09-01T07:46:43.371Z</time>
      </trkpt>
      <trkpt lat="46.068785" lon="10.963070">
        <ele>855.735600</ele>
        <time>2020-09-01T07:46:47.353Z</time>
      </trkpt>
      <trkpt lat="46.068822" lon="10.963192">
        <ele>859.257569</ele>
        <time>2020-09-01T07:46:51.351Z</time>
      </trkpt>
      <trkpt lat="46.068862" lon="10.963326">
        <ele>863.116261</ele>
        <time>2020-09-01T07:46:55.383Z</time>
      </trkpt>
      <trkpt lat="46.068923" lon="10.963450">
        <ele>867.137128</ele>
        <time>2020-09-01T07:46:59.385Z</time>
      </trkpt>
      <trkpt lat="46.068963" lon="10.963581">
        <ele>870.923049</ele>
        <time>2020-09-01T07:47:03.360Z</time>
      </trkpt>
      <trkpt lat="46.069031" lon="10.963704">
        <ele>875.083232</ele>
        <time>2020-09-01T07:47:07.373Z</time>
      </trkpt>
      <trkpt lat="46.069092" lon="10.963833">
        <ele>879.212689</ele>
        <time>2020-09-01T07:47:12.370Z</time>
      </trkpt>
      <trkpt lat="46.069128" lon="10.963980">
        <ele>883.336212</ele>
        <time>2020-09-01T07:47:17.369Z</time>
      </trkpt>
      <trkpt lat="46.069166" lon="10.964127">
        <ele>887.485737</ele>
        <time>2020-09-01T07:47:22.366Z</time>
      </trkpt>
      <trkpt lat="46.069212" lon="10.964259">
        <ele>891.393059</ele>
        <time>2020-09-01T07:47:26.380Z</time>
      </trkpt>
      <trkpt lat="46.069240" lon="10.964392">
        <ele>895.069520</ele>
        <time>2020-09-01T07:47:29.379Z</time>
      </trkpt>
      <trkpt lat="46.069319" lon="10.964490">
        <ele>899.043403</ele>
        <time>2020-09-01T07:47:33.425Z</time>
      </trkpt>
      <trkpt lat="46.069382" lon="10.964584">
        <ele>902.500537</ele>
        <time>2020-09-01T07:47:36.393Z</time>
      </trkpt>
      <trkpt lat="46.069470" lon="10.964675">
        <ele>904.688895</ele>
        <time>2020-09-01T07:47:39.376Z</time>
      </trkpt>
      <trkpt lat="46.069550" lon="10.964773">
        <ele>905.839002</ele>
        <time>2020-09-01T07:47:42.384Z</time>
      </trkpt>
      <trkpt lat="46.069626" lon="10.964876">
        <ele>906.981768</ele>
        <time>2020-09-01T07:47:45.372Z</time>
      </trkpt>
      <trkpt lat="46.069550" lon="10.964790">
        <ele>908.040223</ele>
        <time>2020-09-01T07:47:49.362Z</time>
      </trkpt>
      <trkpt lat="46.069626" lon="10.964906">
        <ele>909.252807</ele>
        <time>2020-09-01T07:47:53.358Z</time>
      </trkpt>
      <trkpt lat="46.069718" lon="10.964966">
        <ele>910.358985</ele>
        <time>2020-09-01T07:47:56.354Z</time>
      </trkpt>
      <trkpt lat="46.069798" lon="10.965033">
        <ele>911.372541</ele>
        <time>2020-09-01T07:47:59.383Z</time>
      </trkpt>
      <trkpt lat="46.069898" lon="10.965123">
        <ele>912.664002</ele>
        <time>2020-09-01T07:48:02.372Z</time>
      </trkpt>
      <trkpt lat="46.069994" lon="10.965198">
        <ele>913.860177</ele>
        <time>2020-09-01T07:48:05.382Z</time>
      </trkpt>
      <trkpt lat="46.070087" lon="10.965264">
        <ele>914.995736</ele>
        <time>2020-09-01T07:48:08.416Z</time>
      </trkpt>
      <trkpt lat="46.070169" lon="10.965326">
        <ele>916.010091</ele>
        <time>2020-09-01T07:48:11.367Z</time>
      </trkpt>
      <trkpt lat="46.070261" lon="10.965411">
        <ele>917.207173</ele>
        <time>2020-09-01T07:48:15.377Z</time>
      </trkpt>
      <trkpt lat="46.070339" lon="10.965496">
        <ele>918.278341</ele>
        <time>2020-09-01T07:48:19.412Z</time>
      </trkpt>
      <trkpt lat="46.070423" lon="10.965555">
        <ele>919.301956</ele>
        <time>2020-09-01T07:48:23.377Z</time>
      </trkpt>
      <trkpt lat="46.070506" lon="10.965619">
        <ele>920.333106</ele>
        <time>2020-09-01T07:48:27.385Z</time>
      </trkpt>
      <trkpt lat="46.070609" lon="10.965699">
        <ele>921.614805</ele>
        <time>2020-09-01T07:48:31.390Z</time>
      </trkpt>
      <trkpt lat="46.070691" lon="10.965755">
        <ele>922.608797</ele>
        <time>2020-09-01T07:48:34.385Z</time>
      </trkpt>
      <trkpt lat="46.070780" lon="10.965816">
        <ele>923.801182</ele>
        <time>2020-09-01T07:48:37.383Z</time>
      </trkpt>
      <trkpt lat="46.070877" lon="10.965885">
        <ele>926.684877</ele>
        <time>2020-09-01T07:48:40.389Z</time>
      </trkpt>
      <trkpt lat="46.070971" lon="10.965967">
        <ele>929.614032</ele>
        <time>2020-09-01T07:48:43.373Z</time>
      </trkpt>
      <trkpt lat="46.071064" lon="10.966051">
        <ele>932.539883</ele>
        <time>2020-09-01T07:48:46.375Z</time>
      </trkpt>
      <trkpt lat="46.071145" lon="10.966145">
        <ele>935.312160</ele>
        <time>2020-09-01T07:48:49.381Z</time>
      </trkpt>
      <trkpt lat="46.071232" lon="10.966246">
        <ele>938.290219</ele>
        <time>2020-09-01T07:48:53.379Z</time>
      </trkpt>
      <trkpt lat="46.071317" lon="10.966342">
        <ele>941.169004</ele>
        <time>2020-09-01T07:48:58.369Z</time>
      </trkpt>
      <trkpt lat="46.071394" lon="10.966457">
        <ele>944.124958</ele>
        <time>2020-09-01T07:49:03.398Z</time>
      </trkpt>
      <trkpt lat="46.071447" lon="10.966567">
        <ele>946.601934</ele>
        <time>2020-09-01T07:49:08.364Z</time>
      </trkpt>
      <trkpt lat="46.071491" lon="10.966702">
        <ele>949.360579</ele>
        <time>2020-09-01T07:49:13.365Z</time>
      </trkpt>
      <trkpt lat="46.071565" lon="10.966800">
        <ele>952.039583</ele>
        <time>2020-09-01T07:49:17.374Z</time>
      </trkpt>
      <trkpt lat="46.071610" lon="10.966912">
        <ele>954.433338</ele>
        <time>2020-09-01T07:49:21.384Z</time>
      </trkpt>
      <trkpt lat="46.071722" lon="10.966999">
        <ele>957.825129</ele>
        <time>2020-09-01T07:49:24.419Z</time>
      </trkpt>
      <trkpt lat="46.071799" lon="10.967070">
        <ele>960.261961</ele>
        <time>2020-09-01T07:49:27.377Z</time>
      </trkpt>
      <trkpt lat="46.071886" lon="10.967107">
        <ele>962.680153</ele>
        <time>2020-09-01T07:49:30.373Z</time>
      </trkpt>
      <trkpt lat="46.071978" lon="10.967169">
        <ele>965.387613</ele>
        <time>2020-09-01T07:49:34.374Z</time>
      </trkpt>
      <trkpt lat="46.072074" lon="10.967221">
        <ele>968.121628</ele>
        <time>2020-09-01T07:49:39.375Z</time>
      </trkpt>
      <trkpt lat="46.072169" lon="10.967217">
        <ele>970.655328</ele>
        <time>2020-09-01T07:49:44.384Z</time>
      </trkpt>
      <trkpt lat="46.072261" lon="10.967189">
        <ele>972.162411</ele>
        <time>2020-09-01T07:49:49.385Z</time>
      </trkpt>
      <trkpt lat="46.072356" lon="10.967170">
        <ele>973.123900</ele>
        <time>2020-09-01T07:49:55.381Z</time>
      </trkpt>
      <trkpt lat="46.072456" lon="10.967183">
        <ele>974.130458</ele>
        <time>2020-09-01T07:50:00.388Z</time>
      </trkpt>
      <trkpt lat="46.072549" lon="10.967198">
        <ele>975.068592</ele>
        <time>2020-09-01T07:50:05.386Z</time>
      </trkpt>
      <trkpt lat="46.072641" lon="10.967253">
        <ele>976.067058</ele>
        <time>2020-09-01T07:50:09.380Z</time>
      </trkpt>
      <trkpt lat="46.072736" lon="10.967319">
        <ele>977.124267</ele>
        <time>2020-09-01T07:50:13.373Z</time>
      </trkpt>
      <trkpt lat="46.072838" lon="10.967385">
        <ele>978.245106</ele>
        <time>2020-09-01T07:50:17.387Z</time>
      </trkpt>
      <trkpt lat="46.072935" lon="10.967462">
        <ele>979.355224</ele>
        <time>2020-09-01T07:50:21.376Z</time>
      </trkpt>
      <trkpt lat="46.073028" lon="10.967518">
        <ele>980.365617</ele>
        <time>2020-09-01T07:50:25.372Z</time>
      </trkpt>
      <trkpt lat="46.073106" lon="10.967626">
        <ele>981.449864</ele>
        <time>2020-09-01T07:50:31.370Z</time>
      </trkpt>
      <trkpt lat="46.073195" lon="10.967694">
        <ele>982.459666</ele>
        <time>2020-09-01T07:50:38.373Z</time>
      </trkpt>
      <trkpt lat="46.073288" lon="10.967752">
        <ele>983.475501</ele>
        <time>2020-09-01T07:50:44.376Z</time>
      </trkpt>
      <trkpt lat="46.073352" lon="10.967857">
        <ele>984.447555</ele>
        <time>2020-09-01T07:50:50.376Z</time>
      </trkpt>
      <trkpt lat="46.073396" lon="10.967999">
        <ele>985.529145</ele>
        <time>2020-09-01T07:50:54.371Z</time>
      </trkpt>
      <trkpt lat="46.073468" lon="10.968116">
        <ele>986.616839</ele>
        <time>2020-09-01T07:51:00.371Z</time>
      </trkpt>
      <trkpt lat="46.073566" lon="10.968129">
        <ele>987.603431</ele>
        <time>2020-09-01T07:51:04.382Z</time>
      </trkpt>
      <trkpt lat="46.073663" lon="10.968079">
        <ele>988.636149</ele>
        <time>2020-09-01T07:51:08.394Z</time>
      </trkpt>
      <trkpt lat="46.073749" lon="10.968036">
        <ele>989.548682</ele>
        <time>2020-09-01T07:51:11.370Z</time>
      </trkpt>
      <trkpt lat="46.073840" lon="10.967985">
        <ele>988.967920</ele>
        <time>2020-09-01T07:51:14.428Z</time>
      </trkpt>
      <trkpt lat="46.073936" lon="10.967931">
        <ele>988.280240</ele>
        <time>2020-09-01T07:51:18.378Z</time>
      </trkpt>
      <trkpt lat="46.074031" lon="10.967888">
        <ele>987.615761</ele>
        <time>2020-09-01T07:51:23.386Z</time>
      </trkpt>
      <trkpt lat="46.074127" lon="10.967869">
        <ele>986.969119</ele>
        <time>2020-09-01T07:51:27.382Z</time>
      </trkpt>
      <trkpt lat="46.074224" lon="10.967892">
        <ele>986.313114</ele>
        <time>2020-09-01T07:51:32.407Z</time>
      </trkpt>
      <trkpt lat="46.074133" lon="10.967963">
        <ele>985.622601</ele>
        <time>2020-09-01T07:51:40.380Z</time>
      </trkpt>
      <trkpt lat="46.074051" lon="10.968057">
        <ele>984.923456</ele>
        <time>2020-09-01T07:51:46.385Z</time>
      </trkpt>
      <trkpt lat="46.074223" lon="10.967832">
        <ele>983.373484</ele>
        <time>2020-09-01T07:51:49.376Z</time>
      </trkpt>
      <trkpt lat="46.074319" lon="10.967868">
        <ele>982.711528</ele>
        <time>2020-09-01T07:51:52.382Z</time>
      </trkpt>
      <trkpt lat="46.074423" lon="10.967902">
        <ele>981.999885</ele>
        <time>2020-09-01T07:51:56.399Z</time>
      </trkpt>
      <trkpt lat="46.074542" lon="10.967937">
        <ele>981.189407</ele>
        <time>2020-09-01T07:52:03.384Z</time>
      </trkpt>
      <trkpt lat="46.074669" lon="10.967906">
        <ele>980.329839</ele>
        <time>2020-09-01T07:52:07.386Z</time>
      </trkpt>
      <trkpt lat="46.074782" lon="10.967870">
        <ele>979.557564</ele>
        <time>2020-09-01T07:52:10.377Z</time>
      </trkpt>
      <trkpt lat="46.074903" lon="10.967820">
        <ele>978.717579</ele>
        <time>2020-09-01T07:52:13.373Z</time>
      </trkpt>
      <trkpt lat="46.075000" lon="10.967783">
        <ele>978.047995</ele>
        <time>2020-09-01T07:52:16.376Z</time>
      </trkpt>
      <trkpt lat="46.075095" lon="10.967756">
        <ele>977.465695</ele>
        <time>2020-09-01T07:52:18.376Z</time>
      </trkpt>
      <trkpt lat="46.075208" lon="10.967722">
        <ele>976.959090</ele>
        <time>2020-09-01T07:52:22.384Z</time>
      </trkpt>
      <trkpt lat="46.075282" lon="10.967795">
        <ele>976.565564</ele>
        <time>2020-09-01T07:52:29.376Z</time>
      </trkpt>
      <trkpt lat="46.075382" lon="10.967766">
        <ele>976.117905</ele>
        <time>2020-09-01T07:52:37.372Z</time>
      </trkpt>
      <trkpt lat="46.075411" lon="10.967625">
        <ele>975.670167</ele>
        <time>2020-09-01T07:52:45.368Z</time>
      </trkpt>
      <trkpt lat="46.075366" lon="10.967498">
        <ele>975.236004</ele>
        <time>2020-09-01T07:52:52.399Z</time>
      </trkpt>
      <trkpt lat="46.075297" lon="10.967384">
        <ele>974.775401</ele>
        <time>2020-09-01T07:52:59.382Z</time>
      </trkpt>
      <trkpt lat="46.075237" lon="10.967263">
        <ele>974.322586</ele>
        <time>2020-09-01T07:53:06.380Z</time>
      </trkpt>
      <trkpt lat="46.075159" lon="10.967183">
        <ele>973.902467</ele>
        <time>2020-09-01T07:53:12.371Z</time>
      </trkpt>
      <trkpt lat="46.075072" lon="10.967125">
        <ele>973.481799</ele>
        <time>2020-09-01T07:53:17.379Z</time>
      </trkpt>
      <trkpt lat="46.074973" lon="10.967060">
        <ele>973.004378</ele>
        <time>2020-09-01T07:53:22.368Z</time>
      </trkpt>
      <trkpt lat="46.074890" lon="10.966983">
        <ele>972.571205</ele>
        <time>2020-09-01T07:53:26.371Z</time>
      </trkpt>
      <trkpt lat="46.074826" lon="10.966882">
        <ele>972.154740</ele>
        <time>2020-09-01T07:53:29.392Z</time>
      </trkpt>
      <trkpt lat="46.074741" lon="10.966785">
        <ele>971.678960</ele>
        <time>2020-09-01T07:53:34.373Z</time>
      </trkpt>
      <trkpt lat="46.074659" lon="10.966698">
        <ele>971.232123</ele>
        <time>2020-09-01T07:53:39.374Z</time>
      </trkpt>
      <trkpt lat="46.074635" lon="10.966565">
        <ele>970.813730</ele>
        <time>2020-09-01T07:53:43.376Z</time>
      </trkpt>
      <trkpt lat="46.074611" lon="10.966431">
        <ele>970.392389</ele>
        <time>2020-09-01T07:53:46.369Z</time>
      </trkpt>
      <trkpt lat="46.074568" lon="10.966286">
        <ele>969.912292</ele>
        <time>2020-09-01T07:53:51.369Z</time>
      </trkpt>
      <trkpt lat="46.074570" lon="10.966137">
        <ele>970.840032</ele>
        <time>2020-09-01T07:53:56.373Z</time>
      </trkpt>
      <trkpt lat="46.074626" lon="10.965997">
        <ele>973.225917</ele>
        <time>2020-09-01T07:54:01.379Z</time>
      </trkpt>
      <trkpt lat="46.074707" lon="10.965917">
        <ele>975.315544</ele>
        <time>2020-09-01T07:54:05.364Z</time>
      </trkpt>
      <trkpt lat="46.074803" lon="10.965930">
        <ele>977.367590</ele>
        <time>2020-09-01T07:54:11.403Z</time>
      </trkpt>
      <trkpt lat="46.074886" lon="10.966038">
        <ele>979.747178</ele>
        <time>2020-09-01T07:54:17.364Z</time>
      </trkpt>
      <trkpt lat="46.074972" lon="10.966112">
        <ele>981.878683</ele>
        <time>2020-09-01T07:54:22.372Z</time>
      </trkpt>
      <trkpt lat="46.075065" lon="10.966121">
        <ele>983.862344</ele>
        <time>2020-09-01T07:54:27.423Z</time>
      </trkpt>
      <trkpt lat="46.075176" lon="10.966126">
        <ele>986.225775</ele>
        <time>2020-09-01T07:54:33.384Z</time>
      </trkpt>
      <trkpt lat="46.075270" lon="10.966177">
        <ele>988.363264</ele>
        <time>2020-09-01T07:54:36.382Z</time>
      </trkpt>
      <trkpt lat="46.075359" lon="10.966221">
        <ele>990.365638</ele>
        <time>2020-09-01T07:54:39.369Z</time>
      </trkpt>
      <trkpt lat="46.075464" lon="10.966222">
        <ele>992.600274</ele>
        <time>2020-09-01T07:54:43.381Z</time>
      </trkpt>
      <trkpt lat="46.075558" lon="10.966287">
        <ele>994.819017</ele>
        <time>2020-09-01T07:54:48.403Z</time>
      </trkpt>
      <trkpt lat="46.075657" lon="10.966324">
        <ele>996.995573</ele>
        <time>2020-09-01T07:54:52.375Z</time>
      </trkpt>
      <trkpt lat="46.075762" lon="10.966314">
        <ele>999.235031</ele>
        <time>2020-09-01T07:54:55.402Z</time>
      </trkpt>
      <trkpt lat="46.075683" lon="10.966237">
        <ele>1001.264538</ele>
        <time>2020-09-01T07:55:00.375Z</time>
      </trkpt>
      <trkpt lat="46.075588" lon="10.966195">
        <ele>1003.379254</ele>
        <time>2020-09-01T07:55:04.383Z</time>
      </trkpt>
      <trkpt lat="46.075506" lon="10.966112">
        <ele>1005.511601</ele>
        <time>2020-09-01T07:55:09.371Z</time>
      </trkpt>
      <trkpt lat="46.075433" lon="10.966007">
        <ele>1007.706268</ele>
        <time>2020-09-01T07:55:14.372Z</time>
      </trkpt>
      <trkpt lat="46.075391" lon="10.965869">
        <ele>1007.688899</ele>
        <time>2020-09-01T07:55:20.390Z</time>
      </trkpt>
      <trkpt lat="46.075365" lon="10.965722">
        <ele>1007.363834</ele>
        <time>2020-09-01T07:55:26.376Z</time>
      </trkpt>
      <trkpt lat="46.075380" lon="10.965585">
        <ele>1007.066639</ele>
        <time>2020-09-01T07:55:31.386Z</time>
      </trkpt>
      <trkpt lat="46.075387" lon="10.965437">
        <ele>1006.748772</ele>
        <time>2020-09-01T07:55:37.365Z</time>
      </trkpt>
      <trkpt lat="46.075360" lon="10.965304">
        <ele>1006.451831</ele>
        <time>2020-09-01T07:55:41.366Z</time>
      </trkpt>
      <trkpt lat="46.075355" lon="10.965150">
        <ele>1006.121482</ele>
        <time>2020-09-01T07:55:47.367Z</time>
      </trkpt>
      <trkpt lat="46.075342" lon="10.965020">
        <ele>1005.840041</ele>
        <time>2020-09-01T07:55:52.371Z</time>
      </trkpt>
      <trkpt lat="46.075347" lon="10.964888">
        <ele>1005.556773</ele>
        <time>2020-09-01T07:55:58.382Z</time>
      </trkpt>
      <trkpt lat="46.075334" lon="10.964755">
        <ele>1005.268968</ele>
        <time>2020-09-01T07:56:03.373Z</time>
      </trkpt>
      <trkpt lat="46.075292" lon="10.964622">
        <ele>1004.955840</ele>
        <time>2020-09-01T07:56:09.379Z</time>
      </trkpt>
      <trkpt lat="46.075273" lon="10.964472">
        <ele>1004.629109</ele>
        <time>2020-09-01T07:56:13.372Z</time>
      </trkpt>
      <trkpt lat="46.075285" lon="10.964316">
        <ele>1004.292786</ele>
        <time>2020-09-01T07:56:17.382Z</time>
      </trkpt>
      <trkpt lat="46.075266" lon="10.964168">
        <ele>1003.970270</ele>
        <time>2020-09-01T07:56:22.380Z</time>
      </trkpt>
      <trkpt lat="46.075276" lon="10.964038">
        <ele>1003.690001</ele>
        <time>2020-09-01T07:56:26.379Z</time>
      </trkpt>
      <trkpt lat="46.075301" lon="10.963891">
        <ele>1003.365684</ele>
        <time>2020-09-01T07:56:31.396Z</time>
      </trkpt>
      <trkpt lat="46.075305" lon="10.963735">
        <ele>1003.031183</ele>
        <time>2020-09-01T07:56:35.360Z</time>
      </trkpt>
      <trkpt lat="46.075252" lon="10.963610">
        <ele>1002.717267</ele>
        <time>2020-09-01T07:56:42.373Z</time>
      </trkpt>
      <trkpt lat="46.075207" lon="10.963490">
        <ele>1002.424968</ele>
        <time>2020-09-01T07:56:49.378Z</time>
      </trkpt>
      <trkpt lat="46.075215" lon="10.963352">
        <ele>1001.670257</ele>
        <time>2020-09-01T07:56:54.401Z</time>
      </trkpt>
      <trkpt lat="46.075165" lon="10.963222">
        <ele>1000.847167</ele>
        <time>2020-09-01T07:56:59.389Z</time>
      </trkpt>
      <trkpt lat="46.075109" lon="10.963093">
        <ele>1000.004517</ele>
        <time>2020-09-01T07:57:07.367Z</time>
      </trkpt>
      <trkpt lat="46.075028" lon="10.962988">
        <ele>999.134986</ele>
        <time>2020-09-01T07:57:12.380Z</time>
      </trkpt>
      <trkpt lat="46.074979" lon="10.962874">
        <ele>998.392378</ele>
        <time>2020-09-01T07:57:17.389Z</time>
      </trkpt>
      <trkpt lat="46.074921" lon="10.962769">
        <ele>997.649148</ele>
        <time>2020-09-01T07:57:22.365Z</time>
      </trkpt>
      <trkpt lat="46.074868" lon="10.962640">
        <ele>996.818950</ele>
        <time>2020-09-01T07:57:28.371Z</time>
      </trkpt>
      <trkpt lat="46.074825" lon="10.962500">
        <ele>995.971133</ele>
        <time>2020-09-01T07:57:33.396Z</time>
      </trkpt>
      <trkpt lat="46.074821" lon="10.962333">
        <ele>995.045841</ele>
        <time>2020-09-01T07:57:37.379Z</time>
      </trkpt>
      <trkpt lat="46.074840" lon="10.962195">
        <ele>994.266779</ele>
        <time>2020-09-01T07:57:41.379Z</time>
      </trkpt>
      <trkpt lat="46.074868" lon="10.962068">
        <ele>993.528871</ele>
        <time>2020-09-01T07:57:45.382Z</time>
      </trkpt>
      <trkpt lat="46.074877" lon="10.961931">
        <ele>992.766858</ele>
        <time>2020-09-01T07:57:49.391Z</time>
      </trkpt>
      <trkpt lat="46.074846" lon="10.961789">
        <ele>991.942535</ele>
        <time>2020-09-01T07:57:54.368Z</time>
      </trkpt>
      <trkpt lat="46.074855" lon="10.961640">
        <ele>991.114345</ele>
        <time>2020-09-01T07:57:59.366Z</time>
      </trkpt>
      <trkpt lat="46.074829" lon="10.961504">
        <ele>990.333189</ele>
        <time>2020-09-01T07:58:04.366Z</time>
      </trkpt>
      <trkpt lat="46.074733" lon="10.961446">
        <ele>989.502318</ele>
        <time>2020-09-01T07:58:09.401Z</time>
      </trkpt>
      <trkpt lat="46.074656" lon="10.961376">
        <ele>988.775673</ele>
        <time>2020-09-01T07:58:13.374Z</time>
      </trkpt>
      <trkpt lat="46.074597" lon="10.961275">
        <ele>988.023207</ele>
        <time>2020-09-01T07:58:17.381Z</time>
      </trkpt>
      <trkpt lat="46.074552" lon="10.961139">
        <ele>986.058925</ele>
        <time>2020-09-01T07:58:22.390Z</time>
      </trkpt>
      <trkpt lat="46.074531" lon="10.960993">
        <ele>984.115142</ele>
        <time>2020-09-01T07:58:27.364Z</time>
      </trkpt>
      <trkpt lat="46.074464" lon="10.960905">
        <ele>982.411829</ele>
        <time>2020-09-01T07:58:32.373Z</time>
      </trkpt>
      <trkpt lat="46.074422" lon="10.960763">
        <ele>980.399436</ele>
        <time>2020-09-01T07:58:38.375Z</time>
      </trkpt>
      <trkpt lat="46.074386" lon="10.960618">
        <ele>978.391755</ele>
        <time>2020-09-01T07:58:42.407Z</time>
      </trkpt>
      <trkpt lat="46.074362" lon="10.960477">
        <ele>976.499108</ele>
        <time>2020-09-01T07:58:46.385Z</time>
      </trkpt>
      <trkpt lat="46.074322" lon="10.960344">
        <ele>974.609345</ele>
        <time>2020-09-01T07:58:51.371Z</time>
      </trkpt>
      <trkpt lat="46.074299" lon="10.960208">
        <ele>972.784476</ele>
        <time>2020-09-01T07:58:56.371Z</time>
      </trkpt>
      <trkpt lat="46.074276" lon="10.960067">
        <ele>970.896216</ele>
        <time>2020-09-01T07:59:01.380Z</time>
      </trkpt>
      <trkpt lat="46.074271" lon="10.959932">
        <ele>969.133798</ele>
        <time>2020-09-01T07:59:05.371Z</time>
      </trkpt>
      <trkpt lat="46.074239" lon="10.959790">
        <ele>967.187410</ele>
        <time>2020-09-01T07:59:09.382Z</time>
      </trkpt>
      <trkpt lat="46.074178" lon="10.959684">
        <ele>965.391988</ele>
        <time>2020-09-01T07:59:12.372Z</time>
      </trkpt>
      <trkpt lat="46.074118" lon="10.959579">
        <ele>963.618585</ele>
        <time>2020-09-01T07:59:15.413Z</time>
      </trkpt>
      <trkpt lat="46.074042" lon="10.959505">
        <ele>961.895118</ele>
        <time>2020-09-01T07:59:18.373Z</time>
      </trkpt>
      <trkpt lat="46.073969" lon="10.959426">
        <ele>960.179747</ele>
        <time>2020-09-01T07:59:22.373Z</time>
      </trkpt>
      <trkpt lat="46.073865" lon="10.959378">
        <ele>958.127661</ele>
        <time>2020-09-01T07:59:29.380Z</time>
      </trkpt>
      <trkpt lat="46.073797" lon="10.959256">
        <ele>956.087459</ele>
        <time>2020-09-01T07:59:34.380Z</time>
      </trkpt>
      <trkpt lat="46.073797" lon="10.959117">
        <ele>954.275386</ele>
        <time>2020-09-01T07:59:38.377Z</time>
      </trkpt>
      <trkpt lat="46.073787" lon="10.958979">
        <ele>955.370263</ele>
        <time>2020-09-01T07:59:41.385Z</time>
      </trkpt>
      <trkpt lat="46.073733" lon="10.958840">
        <ele>956.655179</ele>
        <time>2020-09-01T07:59:45.383Z</time>
      </trkpt>
      <trkpt lat="46.073631" lon="10.958777">
        <ele>957.945325</ele>
        <time>2020-09-01T07:59:49.377Z</time>
      </trkpt>
      <trkpt lat="46.073603" lon="10.958654">
        <ele>958.989422</ele>
        <time>2020-09-01T07:59:54.370Z</time>
      </trkpt>
      <trkpt lat="46.073617" lon="10.958520">
        <ele>960.082382</ele>
        <time>2020-09-01T07:59:59.383Z</time>
      </trkpt>
      <trkpt lat="46.073561" lon="10.958391">
        <ele>961.309742</ele>
        <time>2020-09-01T08:00:04.410Z</time>
      </trkpt>
      <trkpt lat="46.073535" lon="10.958255">
        <ele>962.447536</ele>
        <time>2020-09-01T08:00:10.382Z</time>
      </trkpt>
      <trkpt lat="46.073517" lon="10.958128">
        <ele>963.493010</ele>
        <time>2020-09-01T08:00:15.417Z</time>
      </trkpt>
      <trkpt lat="46.073486" lon="10.958003">
        <ele>964.563680</ele>
        <time>2020-09-01T08:00:19.384Z</time>
      </trkpt>
      <trkpt lat="46.073430" lon="10.957875">
        <ele>965.784213</ele>
        <time>2020-09-01T08:00:24.371Z</time>
      </trkpt>
      <trkpt lat="46.073378" lon="10.957746">
        <ele>966.987553</ele>
        <time>2020-09-01T08:00:29.373Z</time>
      </trkpt>
      <trkpt lat="46.073336" lon="10.957597">
        <ele>968.284728</ele>
        <time>2020-09-01T08:00:34.372Z</time>
      </trkpt>
      <trkpt lat="46.073303" lon="10.957476">
        <ele>969.333361</ele>
        <time>2020-09-01T08:00:39.373Z</time>
      </trkpt>
      <trkpt lat="46.073257" lon="10.957332">
        <ele>970.612010</ele>
        <time>2020-09-01T08:00:44.378Z</time>
      </trkpt>
      <trkpt lat="46.073224" lon="10.957184">
        <ele>971.865848</ele>
        <time>2020-09-01T08:00:49.390Z</time>
      </trkpt>
      <trkpt lat="46.073170" lon="10.957075">
        <ele>972.946145</ele>
        <time>2020-09-01T08:00:54.377Z</time>
      </trkpt>
      <trkpt lat="46.073111" lon="10.956955">
        <ele>974.132433</ele>
        <time>2020-09-01T08:00:59.412Z</time>
      </trkpt>
      <trkpt lat="46.073048" lon="10.956851">
        <ele>975.332452</ele>
        <time>2020-09-01T08:01:03.381Z</time>
      </trkpt>
      <trkpt lat="46.072986" lon="10.956754">
        <ele>977.634226</ele>
        <time>2020-09-01T08:01:07.381Z</time>
      </trkpt>
      <trkpt lat="46.072927" lon="10.956626">
        <ele>980.316160</ele>
        <time>2020-09-01T08:01:13.374Z</time>
      </trkpt>
      <trkpt lat="46.072860" lon="10.956517">
        <ele>982.857659</ele>
        <time>2020-09-01T08:01:17.380Z</time>
      </trkpt>
      <trkpt lat="46.072774" lon="10.956410">
        <ele>985.715501</ele>
        <time>2020-09-01T08:01:22.388Z</time>
      </trkpt>
      <trkpt lat="46.072692" lon="10.956343">
        <ele>988.086630</ele>
        <time>2020-09-01T08:01:25.373Z</time>
      </trkpt>
      <trkpt lat="46.072662" lon="10.956219">
        <ele>990.378467</ele>
        <time>2020-09-01T08:01:32.364Z</time>
      </trkpt>
      <trkpt lat="46.072607" lon="10.956092">
        <ele>992.991243</ele>
        <time>2020-09-01T08:01:38.361Z</time>
      </trkpt>
      <trkpt lat="46.072539" lon="10.956005">
        <ele>995.278469</ele>
        <time>2020-09-01T08:01:44.373Z</time>
      </trkpt>
      <trkpt lat="46.072450" lon="10.955919">
        <ele>997.973858</ele>
        <time>2020-09-01T08:01:49.376Z</time>
      </trkpt>
      <trkpt lat="46.072346" lon="10.955842">
        <ele>1000.915004</ele>
        <time>2020-09-01T08:01:53.373Z</time>
      </trkpt>
      <trkpt lat="46.072269" lon="10.955741">
        <ele>1003.533950</ele>
        <time>2020-09-01T08:01:58.375Z</time>
      </trkpt>
      <trkpt lat="46.072198" lon="10.955638">
        <ele>1006.067961</ele>
        <time>2020-09-01T08:02:03.414Z</time>
      </trkpt>
      <trkpt lat="46.072105" lon="10.955600">
        <ele>1008.499635</ele>
        <time>2020-09-01T08:02:07.376Z</time>
      </trkpt>
      <trkpt lat="46.071998" lon="10.955591">
        <ele>1011.195892</ele>
        <time>2020-09-01T08:02:11.385Z</time>
      </trkpt>
      <trkpt lat="46.071897" lon="10.955583">
        <ele>1013.740468</ele>
        <time>2020-09-01T08:02:16.369Z</time>
      </trkpt>
      <trkpt lat="46.071809" lon="10.955633">
        <ele>1016.119959</ele>
        <time>2020-09-01T08:02:23.375Z</time>
      </trkpt>
      <trkpt lat="46.071718" lon="10.955588">
        <ele>1018.540109</ele>
        <time>2020-09-01T08:02:28.384Z</time>
      </trkpt>
      <trkpt lat="46.071666" lon="10.955453">
        <ele>1020.418202</ele>
        <time>2020-09-01T08:02:33.389Z</time>
      </trkpt>
      <trkpt lat="46.071603" lon="10.955356">
        <ele>1020.418202</ele>
        <time>2020-09-01T08:02:37.391Z</time>
      </trkpt>
      <trkpt lat="46.071515" lon="10.955298">
        <ele>1020.418202</ele>
        <time>2020-09-01T08:02:41.374Z</time>
      </trkpt>
      <trkpt lat="46.071433" lon="10.955220">
        <ele>1020.418202</ele>
        <time>2020-09-01T08:02:44.413Z</time>
      </trkpt>
      <trkpt lat="46.071355" lon="10.955146">
        <ele>1020.418202</ele>
        <time>2020-09-01T08:02:50.381Z</time>
      </trkpt>
      <trkpt lat="46.071265" lon="10.955159">
        <ele>1020.418202</ele>
        <time>2020-09-01T08:02:54.383Z</time>
      </trkpt>
      <trkpt lat="46.071162" lon="10.955185">
        <ele>1020.418202</ele>
        <time>2020-09-01T08:02:59.374Z</time>
      </trkpt>
      <trkpt lat="46.071072" lon="10.955106">
        <ele>1020.418202</ele>
        <time>2020-09-01T08:03:04.374Z</time>
      </trkpt>
      <trkpt lat="46.071033" lon="10.954981">
        <ele>1020.418202</ele>
        <time>2020-09-01T08:03:07.373Z</time>
      </trkpt>
      <trkpt lat="46.071056" lon="10.954846">
        <ele>1020.418202</ele>
        <time>2020-09-01T08:03:10.381Z</time>
      </trkpt>
      <trkpt lat="46.071141" lon="10.954753">
        <ele>1020.418202</ele>
        <time>2020-09-01T08:03:14.379Z</time>
      </trkpt>
      <trkpt lat="46.071236" lon="10.954687">
        <ele>1020.418202</ele>
        <time>2020-09-01T08:03:19.397Z</time>
      </trkpt>
      <trkpt lat="46.071337" lon="10.954670">
        <ele>1020.418202</ele>
        <time>2020-09-01T08:03:25.389Z</time>
      </trkpt>
      <trkpt lat="46.071427" lon="10.954726">
        <ele>1020.418202</ele>
        <time>2020-09-01T08:03:31.382Z</time>
      </trkpt>
      <trkpt lat="46.071525" lon="10.954789">
        <ele>1020.418202</ele>
        <time>2020-09-01T08:03:37.385Z</time>
      </trkpt>
      <trkpt lat="46.071615" lon="10.954805">
        <ele>1020.418202</ele>
        <time>2020-09-01T08:03:42.389Z</time>
      </trkpt>
      <trkpt lat="46.071721" lon="10.954799">
        <ele>1020.418202</ele>
        <time>2020-09-01T08:03:50.368Z</time>
      </trkpt>
      <trkpt lat="46.071825" lon="10.954786">
        <ele>1020.418202</ele>
        <time>2020-09-01T08:03:55.374Z</time>
      </trkpt>
      <trkpt lat="46.071924" lon="10.954745">
        <ele>1020.418202</ele>
        <time>2020-09-01T08:04:00.380Z</time>
      </trkpt>
      <trkpt lat="46.071941" lon="10.954733">
        <ele>1020.418202</ele>
        <time>2020-09-01T08:04:01.525Z</time>
      </trkpt>
      <trkpt lat="46.071958" lon="10.954720">
        <ele>953.242986</ele>
        <time>2020-09-01T08:04:16.080Z</time>
      </trkpt>
      <trkpt lat="46.072398" lon="10.954868">
        <ele>953.242986</ele>
        <time>2020-09-01T08:04:33.352Z</time>
      </trkpt>
      <trkpt lat="46.072490" lon="10.954875">
        <ele>953.242986</ele>
        <time>2020-09-01T08:04:39.354Z</time>
      </trkpt>
      <trkpt lat="46.072604" lon="10.954886">
        <ele>953.242986</ele>
        <time>2020-09-01T08:04:44.357Z</time>
      </trkpt>
      <trkpt lat="46.072708" lon="10.954924">
        <ele>953.242986</ele>
        <time>2020-09-01T08:04:48.354Z</time>
      </trkpt>
      <trkpt lat="46.072799" lon="10.954952">
        <ele>953.242986</ele>
        <time>2020-09-01T08:04:52.365Z</time>
      </trkpt>
      <trkpt lat="46.072894" lon="10.954999">
        <ele>961.390653</ele>
        <time>2020-09-01T08:04:56.359Z</time>
      </trkpt>
      <trkpt lat="46.072988" lon="10.955032">
        <ele>974.602949</ele>
        <time>2020-09-01T08:05:00.359Z</time>
      </trkpt>
      <trkpt lat="46.073064" lon="10.955136">
        <ele>988.913896</ele>
        <time>2020-09-01T08:05:05.364Z</time>
      </trkpt>
      <trkpt lat="46.073147" lon="10.955220">
        <ele>1002.763500</ele>
        <time>2020-09-01T08:05:10.369Z</time>
      </trkpt>
      <trkpt lat="46.073240" lon="10.955284">
        <ele>1016.837129</ele>
        <time>2020-09-01T08:05:16.358Z</time>
      </trkpt>
      <trkpt lat="46.073347" lon="10.955271">
        <ele>1031.501342</ele>
        <time>2020-09-01T08:05:21.359Z</time>
      </trkpt>
      <trkpt lat="46.073459" lon="10.955262">
        <ele>1046.820313</ele>
        <time>2020-09-01T08:05:25.352Z</time>
      </trkpt>
      <trkpt lat="46.073547" lon="10.955314">
        <ele>1059.808558</ele>
        <time>2020-09-01T08:05:29.352Z</time>
      </trkpt>
      <trkpt lat="46.073624" lon="10.955392">
        <ele>1072.660885</ele>
        <time>2020-09-01T08:05:34.361Z</time>
      </trkpt>
      <trkpt lat="46.073727" lon="10.955431">
        <ele>1087.204205</ele>
        <time>2020-09-01T08:05:40.353Z</time>
      </trkpt>
      <trkpt lat="46.073834" lon="10.955483">
        <ele>1102.624710</ele>
        <time>2020-09-01T08:05:45.351Z</time>
      </trkpt>
      <trkpt lat="46.073926" lon="10.955544">
        <ele>1116.454031</ele>
        <time>2020-09-01T08:05:51.364Z</time>
      </trkpt>
      <trkpt lat="46.073984" lon="10.955652">
        <ele>1129.393414</ele>
        <time>2020-09-01T08:05:56.363Z</time>
      </trkpt>
      <trkpt lat="46.074049" lon="10.955768">
        <ele>1143.520300</ele>
        <time>2020-09-01T08:06:01.354Z</time>
      </trkpt>
      <trkpt lat="46.074056" lon="10.955901">
        <ele>1156.156747</ele>
        <time>2020-09-01T08:06:06.356Z</time>
      </trkpt>
      <trkpt lat="46.074038" lon="10.956042">
        <ele>1169.739186</ele>
        <time>2020-09-01T08:06:10.352Z</time>
      </trkpt>
      <trkpt lat="46.074021" lon="10.956195">
        <ele>1184.418943</ele>
        <time>2020-09-01T08:06:15.359Z</time>
      </trkpt>
      <trkpt lat="46.074028" lon="10.956341">
        <ele>1198.283784</ele>
        <time>2020-09-01T08:06:20.351Z</time>
      </trkpt>
      <trkpt lat="46.074095" lon="10.956444">
        <ele>1206.524342</ele>
        <time>2020-09-01T08:06:27.350Z</time>
      </trkpt>
      <trkpt lat="46.074146" lon="10.956571">
        <ele>1214.842276</ele>
        <time>2020-09-01T08:06:33.354Z</time>
      </trkpt>
      <trkpt lat="46.074205" lon="10.956677">
        <ele>1222.545637</ele>
        <time>2020-09-01T08:06:38.354Z</time>
      </trkpt>
      <trkpt lat="46.074268" lon="10.956796">
        <ele>1231.030789</ele>
        <time>2020-09-01T08:06:44.363Z</time>
      </trkpt>
      <trkpt lat="46.074336" lon="10.956892">
        <ele>1238.807829</ele>
        <time>2020-09-01T08:06:50.349Z</time>
      </trkpt>
      <trkpt lat="46.074395" lon="10.956994">
        <ele>1246.335665</ele>
        <time>2020-09-01T08:06:55.368Z</time>
      </trkpt>
      <trkpt lat="46.074459" lon="10.957113">
        <ele>1254.870615</ele>
        <time>2020-09-01T08:07:00.359Z</time>
      </trkpt>
      <trkpt lat="46.074513" lon="10.957218">
        <ele>1262.279481</ele>
        <time>2020-09-01T08:07:05.354Z</time>
      </trkpt>
      <trkpt lat="46.074588" lon="10.957328">
        <ele>1271.021982</ele>
        <time>2020-09-01T08:07:12.358Z</time>
      </trkpt>
      <trkpt lat="46.074676" lon="10.957413">
        <ele>1279.677333</ele>
        <time>2020-09-01T08:07:18.361Z</time>
      </trkpt>
      <trkpt lat="46.074749" lon="10.957510">
        <ele>1287.789597</ele>
        <time>2020-09-01T08:07:24.378Z</time>
      </trkpt>
      <trkpt lat="46.074805" lon="10.957633">
        <ele>1296.129001</ele>
        <time>2020-09-01T08:07:30.393Z</time>
      </trkpt>
      <trkpt lat="46.074848" lon="10.957753">
        <ele>1303.784779</ele>
        <time>2020-09-01T08:07:35.364Z</time>
      </trkpt>
      <trkpt lat="46.074941" lon="10.957814">
        <ele>1312.133360</ele>
        <time>2020-09-01T08:07:40.350Z</time>
      </trkpt>
      <trkpt lat="46.075027" lon="10.957761">
        <ele>1319.775556</ele>
        <time>2020-09-01T08:07:45.352Z</time>
      </trkpt>
      <trkpt lat="46.075026" lon="10.957619">
        <ele>1327.824906</ele>
        <time>2020-09-01T08:07:51.348Z</time>
      </trkpt>
      <trkpt lat="46.074947" lon="10.957536">
        <ele>1335.812443</ele>
        <time>2020-09-01T08:07:57.340Z</time>
      </trkpt>
      <trkpt lat="46.074894" lon="10.957406">
        <ele>1344.359511</ele>
        <time>2020-09-01T08:08:04.353Z</time>
      </trkpt>
      <trkpt lat="46.074868" lon="10.957258">
        <ele>1346.515597</ele>
        <time>2020-09-01T08:08:09.349Z</time>
      </trkpt>
      <trkpt lat="46.074831" lon="10.957124">
        <ele>1347.286931</ele>
        <time>2020-09-01T08:08:14.355Z</time>
      </trkpt>
      <trkpt lat="46.074775" lon="10.957017">
        <ele>1348.003772</ele>
        <time>2020-09-01T08:08:19.363Z</time>
      </trkpt>
      <trkpt lat="46.074690" lon="10.956925">
        <ele>1348.823229</ele>
        <time>2020-09-01T08:08:24.334Z</time>
      </trkpt>
      <trkpt lat="46.074627" lon="10.956815">
        <ele>1349.586113</ele>
        <time>2020-09-01T08:08:30.375Z</time>
      </trkpt>
      <trkpt lat="46.074582" lon="10.956693">
        <ele>1350.325086</ele>
        <time>2020-09-01T08:08:38.391Z</time>
      </trkpt>
      <trkpt lat="46.074551" lon="10.956556">
        <ele>1351.095778</ele>
        <time>2020-09-01T08:08:46.348Z</time>
      </trkpt>
      <trkpt lat="46.074477" lon="10.956454">
        <ele>1351.885114</ele>
        <time>2020-09-01T08:08:50.352Z</time>
      </trkpt>
      <trkpt lat="46.074443" lon="10.956321">
        <ele>1352.643182</ele>
        <time>2020-09-01T08:08:55.354Z</time>
      </trkpt>
      <trkpt lat="46.074401" lon="10.956203">
        <ele>1353.352486</ele>
        <time>2020-09-01T08:09:01.356Z</time>
      </trkpt>
      <trkpt lat="46.074342" lon="10.956096">
        <ele>1354.083493</ele>
        <time>2020-09-01T08:09:07.362Z</time>
      </trkpt>
      <trkpt lat="46.074270" lon="10.955998">
        <ele>1354.846916</ele>
        <time>2020-09-01T08:09:14.373Z</time>
      </trkpt>
      <trkpt lat="46.074252" lon="10.955869">
        <ele>1355.550652</ele>
        <time>2020-09-01T08:09:32.368Z</time>
      </trkpt>
      <trkpt lat="46.074208" lon="10.955754">
        <ele>1356.253037</ele>
        <time>2020-09-01T08:09:54.350Z</time>
      </trkpt>
      <trkpt lat="46.074176" lon="10.955627">
        <ele>1356.975675</ele>
        <time>2020-09-01T08:09:59.357Z</time>
      </trkpt>
      <trkpt lat="46.074143" lon="10.955505">
        <ele>1357.676002</ele>
        <time>2020-09-01T08:10:04.347Z</time>
      </trkpt>
      <trkpt lat="46.074250" lon="10.955556">
        <ele>1358.544832</ele>
        <time>2020-09-01T08:15:36.353Z</time>
      </trkpt>
      <trkpt lat="46.074319" lon="10.955643">
        <ele>1359.251562</ele>
        <time>2020-09-01T08:15:41.350Z</time>
      </trkpt>
      <trkpt lat="46.074370" lon="10.955776">
        <ele>1360.398826</ele>
        <time>2020-09-01T08:15:47.347Z</time>
      </trkpt>
      <trkpt lat="46.074431" lon="10.955883">
        <ele>1361.829321</ele>
        <time>2020-09-01T08:15:53.370Z</time>
      </trkpt>
      <trkpt lat="46.074508" lon="10.955970">
        <ele>1363.285978</ele>
        <time>2020-09-01T08:16:00.351Z</time>
      </trkpt>
      <trkpt lat="46.074591" lon="10.956045">
        <ele>1364.744493</ele>
        <time>2020-09-01T08:16:06.355Z</time>
      </trkpt>
      <trkpt lat="46.074676" lon="10.956138">
        <ele>1366.333318</ele>
        <time>2020-09-01T08:16:12.355Z</time>
      </trkpt>
      <trkpt lat="46.074762" lon="10.956219">
        <ele>1367.862864</ele>
        <time>2020-09-01T08:16:17.353Z</time>
      </trkpt>
      <trkpt lat="46.074852" lon="10.956314">
        <ele>1369.523720</ele>
        <time>2020-09-01T08:16:22.359Z</time>
      </trkpt>
      <trkpt lat="46.074925" lon="10.956420">
        <ele>1371.066457</ele>
        <time>2020-09-01T08:16:27.393Z</time>
      </trkpt>
      <trkpt lat="46.074997" lon="10.956532">
        <ele>1372.643615</ele>
        <time>2020-09-01T08:16:33.375Z</time>
      </trkpt>
      <trkpt lat="46.075064" lon="10.956627">
        <ele>1374.042880</ele>
        <time>2020-09-01T08:16:39.363Z</time>
      </trkpt>
      <trkpt lat="46.075142" lon="10.956728">
        <ele>1375.603963</ele>
        <time>2020-09-01T08:16:46.382Z</time>
      </trkpt>
      <trkpt lat="46.075233" lon="10.956786">
        <ele>1377.085390</ele>
        <time>2020-09-01T08:16:52.364Z</time>
      </trkpt>
      <trkpt lat="46.075292" lon="10.956894">
        <ele>1378.505253</ele>
        <time>2020-09-01T08:16:58.387Z</time>
      </trkpt>
      <trkpt lat="46.075352" lon="10.956994">
        <ele>1379.870855</ele>
        <time>2020-09-01T08:17:03.368Z</time>
      </trkpt>
      <trkpt lat="46.075427" lon="10.957099">
        <ele>1381.427493</ele>
        <time>2020-09-01T08:17:08.374Z</time>
      </trkpt>
      <trkpt lat="46.075513" lon="10.957202">
        <ele>1383.092227</ele>
        <time>2020-09-01T08:17:12.359Z</time>
      </trkpt>
      <trkpt lat="46.075593" lon="10.957266">
        <ele>1384.454478</ele>
        <time>2020-09-01T08:17:17.371Z</time>
      </trkpt>
      <trkpt lat="46.075684" lon="10.957304">
        <ele>1385.865079</ele>
        <time>2020-09-01T08:17:22.410Z</time>
      </trkpt>
      <trkpt lat="46.075759" lon="10.957396">
        <ele>1387.238626</ele>
        <time>2020-09-01T08:17:28.367Z</time>
      </trkpt>
      <trkpt lat="46.075812" lon="10.957516">
        <ele>1388.546979</ele>
        <time>2020-09-01T08:17:34.368Z</time>
      </trkpt>
      <trkpt lat="46.075892" lon="10.957625">
        <ele>1390.006399</ele>
        <time>2020-09-01T08:17:40.384Z</time>
      </trkpt>
      <trkpt lat="46.075982" lon="10.957725">
        <ele>1391.512922</ele>
        <time>2020-09-01T08:17:45.365Z</time>
      </trkpt>
      <trkpt lat="46.076048" lon="10.957823">
        <ele>1392.769116</ele>
        <time>2020-09-01T08:17:49.368Z</time>
      </trkpt>
      <trkpt lat="46.076141" lon="10.957885">
        <ele>1394.127570</ele>
        <time>2020-09-01T08:17:54.363Z</time>
      </trkpt>
      <trkpt lat="46.076238" lon="10.957892">
        <ele>1395.415197</ele>
        <time>2020-09-01T08:17:59.360Z</time>
      </trkpt>
      <trkpt lat="46.076331" lon="10.957889">
        <ele>1396.648490</ele>
        <time>2020-09-01T08:18:04.365Z</time>
      </trkpt>
      <trkpt lat="46.076427" lon="10.957962">
        <ele>1398.087471</ele>
        <time>2020-09-01T08:18:09.343Z</time>
      </trkpt>
      <trkpt lat="46.076467" lon="10.958092">
        <ele>1399.395412</ele>
        <time>2020-09-01T08:18:13.376Z</time>
      </trkpt>
      <trkpt lat="46.076431" lon="10.958239">
        <ele>1400.829143</ele>
        <time>2020-09-01T08:18:17.363Z</time>
      </trkpt>
      <trkpt lat="46.076403" lon="10.958386">
        <ele>1402.231138</ele>
        <time>2020-09-01T08:18:22.357Z</time>
      </trkpt>
      <trkpt lat="46.076383" lon="10.958541">
        <ele>1403.681122</ele>
        <time>2020-09-01T08:18:56.376Z</time>
      </trkpt>
      <trkpt lat="46.076441" lon="10.958667">
        <ele>1405.071863</ele>
        <time>2020-09-01T08:19:01.377Z</time>
      </trkpt>
      <trkpt lat="46.076517" lon="10.958756">
        <ele>1406.370035</ele>
        <time>2020-09-01T08:19:05.380Z</time>
      </trkpt>
      <trkpt lat="46.076629" lon="10.958814">
        <ele>1407.947825</ele>
        <time>2020-09-01T08:19:09.414Z</time>
      </trkpt>
      <trkpt lat="46.076722" lon="10.958856">
        <ele>1409.239900</ele>
        <time>2020-09-01T08:19:13.390Z</time>
      </trkpt>
      <trkpt lat="46.076807" lon="10.958910">
        <ele>1410.413398</ele>
        <time>2020-09-01T08:19:18.373Z</time>
      </trkpt>
      <trkpt lat="46.076893" lon="10.958971">
        <ele>1411.157999</ele>
        <time>2020-09-01T08:19:23.383Z</time>
      </trkpt>
      <trkpt lat="46.076980" lon="10.959029">
        <ele>1411.902648</ele>
        <time>2020-09-01T08:19:28.353Z</time>
      </trkpt>
      <trkpt lat="46.077066" lon="10.959105">
        <ele>1412.686300</ele>
        <time>2020-09-01T08:19:33.356Z</time>
      </trkpt>
      <trkpt lat="46.077054" lon="10.958965">
        <ele>1413.446505</ele>
        <time>2020-09-01T08:19:45.361Z</time>
      </trkpt>
      <trkpt lat="46.076965" lon="10.958911">
        <ele>1414.196662</ele>
        <time>2020-09-01T08:19:52.371Z</time>
      </trkpt>
      <trkpt lat="46.076895" lon="10.958801">
        <ele>1415.001108</ele>
        <time>2020-09-01T08:19:57.364Z</time>
      </trkpt>
      <trkpt lat="46.076835" lon="10.958697">
        <ele>1415.730070</ele>
        <time>2020-09-01T08:20:02.343Z</time>
      </trkpt>
      <trkpt lat="46.076774" lon="10.958595">
        <ele>1416.455828</ele>
        <time>2020-09-01T08:20:07.353Z</time>
      </trkpt>
      <trkpt lat="46.076704" lon="10.958477">
        <ele>1417.292553</ele>
        <time>2020-09-01T08:20:12.365Z</time>
      </trkpt>
      <trkpt lat="46.076697" lon="10.958347">
        <ele>1417.995242</ele>
        <time>2020-09-01T08:20:17.380Z</time>
      </trkpt>
      <trkpt lat="46.076752" lon="10.958226">
        <ele>1418.774839</ele>
        <time>2020-09-01T08:20:23.357Z</time>
      </trkpt>
      <trkpt lat="46.076837" lon="10.958147">
        <ele>1419.560521</ele>
        <time>2020-09-01T08:20:30.358Z</time>
      </trkpt>
      <trkpt lat="46.076924" lon="10.958066">
        <ele>1420.365102</ele>
        <time>2020-09-01T08:20:37.354Z</time>
      </trkpt>
      <trkpt lat="46.076991" lon="10.957978">
        <ele>1421.069248</ele>
        <time>2020-09-01T08:20:43.361Z</time>
      </trkpt>
      <trkpt lat="46.077088" lon="10.957930">
        <ele>1421.865970</ele>
        <time>2020-09-01T08:20:50.373Z</time>
      </trkpt>
      <trkpt lat="46.077159" lon="10.957839">
        <ele>1422.604028</ele>
        <time>2020-09-01T08:20:55.377Z</time>
      </trkpt>
      <trkpt lat="46.077210" lon="10.957732">
        <ele>1423.303653</ele>
        <time>2020-09-01T08:20:59.364Z</time>
      </trkpt>
      <trkpt lat="46.077225" lon="10.957580">
        <ele>1424.131033</ele>
        <time>2020-09-01T08:21:03.350Z</time>
      </trkpt>
      <trkpt lat="46.077194" lon="10.957449">
        <ele>1425.191782</ele>
        <time>2020-09-01T08:21:07.362Z</time>
      </trkpt>
      <trkpt lat="46.077109" lon="10.957376">
        <ele>1426.383068</ele>
        <time>2020-09-01T08:21:12.353Z</time>
      </trkpt>
      <trkpt lat="46.077013" lon="10.957338">
        <ele>1427.581726</ele>
        <time>2020-09-01T08:21:17.386Z</time>
      </trkpt>
      <trkpt lat="46.076913" lon="10.957319">
        <ele>1428.796174</ele>
        <time>2020-09-01T08:21:22.380Z</time>
      </trkpt>
      <trkpt lat="46.076820" lon="10.957243">
        <ele>1430.083337</ele>
        <time>2020-09-01T08:21:27.367Z</time>
      </trkpt>
      <trkpt lat="46.076729" lon="10.957182">
        <ele>1431.291675</ele>
        <time>2020-09-01T08:21:31.361Z</time>
      </trkpt>
      <trkpt lat="46.076664" lon="10.957091">
        <ele>1432.382635</ele>
        <time>2020-09-01T08:21:35.357Z</time>
      </trkpt>
      <trkpt lat="46.076602" lon="10.956961">
        <ele>1433.700298</ele>
        <time>2020-09-01T08:21:40.399Z</time>
      </trkpt>
      <trkpt lat="46.076574" lon="10.956824">
        <ele>1434.893200</ele>
        <time>2020-09-01T08:21:45.355Z</time>
      </trkpt>
      <trkpt lat="46.076502" lon="10.956721">
        <ele>1436.114523</ele>
        <time>2020-09-01T08:21:49.375Z</time>
      </trkpt>
      <trkpt lat="46.076423" lon="10.956632">
        <ele>1437.321728</ele>
        <time>2020-09-01T08:21:53.379Z</time>
      </trkpt>
      <trkpt lat="46.076404" lon="10.956492">
        <ele>1438.513229</ele>
        <time>2020-09-01T08:21:58.361Z</time>
      </trkpt>
      <trkpt lat="46.076359" lon="10.956358">
        <ele>1439.756698</ele>
        <time>2020-09-01T08:22:02.399Z</time>
      </trkpt>
      <trkpt lat="46.076281" lon="10.956278">
        <ele>1440.909295</ele>
        <time>2020-09-01T08:22:06.366Z</time>
      </trkpt>
      <trkpt lat="46.076195" lon="10.956198">
        <ele>1442.141642</ele>
        <time>2020-09-01T08:22:10.366Z</time>
      </trkpt>
      <trkpt lat="46.076141" lon="10.956065">
        <ele>1443.428797</ele>
        <time>2020-09-01T08:22:15.379Z</time>
      </trkpt>
      <trkpt lat="46.076135" lon="10.955925">
        <ele>1444.600365</ele>
        <time>2020-09-01T08:22:19.363Z</time>
      </trkpt>
      <trkpt lat="46.076101" lon="10.955775">
        <ele>1445.918414</ele>
        <time>2020-09-01T08:22:24.399Z</time>
      </trkpt>
      <trkpt lat="46.076026" lon="10.955675">
        <ele>1448.630625</ele>
        <time>2020-09-01T08:22:29.357Z</time>
      </trkpt>
      <trkpt lat="46.076028" lon="10.955541">
        <ele>1451.146984</ele>
        <time>2020-09-01T08:22:34.364Z</time>
      </trkpt>
      <trkpt lat="46.076125" lon="10.955517">
        <ele>1453.810590</ele>
        <time>2020-09-01T08:22:38.357Z</time>
      </trkpt>
      <trkpt lat="46.076217" lon="10.955493">
        <ele>1456.340929</ele>
        <time>2020-09-01T08:22:44.350Z</time>
      </trkpt>
      <trkpt lat="46.076307" lon="10.955448">
        <ele>1458.919056</ele>
        <time>2020-09-01T08:22:50.359Z</time>
      </trkpt>
      <trkpt lat="46.076407" lon="10.955410">
        <ele>1461.717918</ele>
        <time>2020-09-01T08:22:56.358Z</time>
      </trkpt>
      <trkpt lat="46.076494" lon="10.955368">
        <ele>1464.201020</ele>
        <time>2020-09-01T08:23:03.401Z</time>
      </trkpt>
      <trkpt lat="46.076552" lon="10.955252">
        <ele>1466.885587</ele>
        <time>2020-09-01T08:23:10.363Z</time>
      </trkpt>
      <trkpt lat="46.076607" lon="10.955135">
        <ele>1469.539021</ele>
        <time>2020-09-01T08:23:17.349Z</time>
      </trkpt>
      <trkpt lat="46.076673" lon="10.955238">
        <ele>1472.171510</ele>
        <time>2020-09-01T08:23:26.350Z</time>
      </trkpt>
      <trkpt lat="46.076642" lon="10.955381">
        <ele>1474.984267</ele>
        <time>2020-09-01T08:23:32.357Z</time>
      </trkpt>
      <trkpt lat="46.076608" lon="10.955522">
        <ele>1477.786808</ele>
        <time>2020-09-01T08:23:37.353Z</time>
      </trkpt>
      <trkpt lat="46.076558" lon="10.955638">
        <ele>1480.350797</ele>
        <time>2020-09-01T08:23:42.348Z</time>
      </trkpt>
      <trkpt lat="46.076510" lon="10.955755">
        <ele>1482.902779</ele>
        <time>2020-09-01T08:23:47.361Z</time>
      </trkpt>
      <trkpt lat="46.076531" lon="10.955888">
        <ele>1485.463624</ele>
        <time>2020-09-01T08:23:54.356Z</time>
      </trkpt>
      <trkpt lat="46.076634" lon="10.955901">
        <ele>1488.261890</ele>
        <time>2020-09-01T08:24:00.390Z</time>
      </trkpt>
      <trkpt lat="46.076725" lon="10.955904">
        <ele>1490.725367</ele>
        <time>2020-09-01T08:24:04.370Z</time>
      </trkpt>
      <trkpt lat="46.076828" lon="10.955914">
        <ele>1493.519284</ele>
        <time>2020-09-01T08:24:09.361Z</time>
      </trkpt>
      <trkpt lat="46.076916" lon="10.955882">
        <ele>1495.336242</ele>
        <time>2020-09-01T08:24:14.355Z</time>
      </trkpt>
      <trkpt lat="46.077006" lon="10.955892">
        <ele>1496.610413</ele>
        <time>2020-09-01T08:24:21.350Z</time>
      </trkpt>
      <trkpt lat="46.077104" lon="10.955939">
        <ele>1498.068286</ele>
        <time>2020-09-01T08:24:28.353Z</time>
      </trkpt>
      <trkpt lat="46.077204" lon="10.955966">
        <ele>1499.504391</ele>
        <time>2020-09-01T08:24:35.359Z</time>
      </trkpt>
      <trkpt lat="46.077312" lon="10.955952">
        <ele>1501.035026</ele>
        <time>2020-09-01T08:24:41.359Z</time>
      </trkpt>
      <trkpt lat="46.077404" lon="10.955961">
        <ele>1502.336647</ele>
        <time>2020-09-01T08:24:47.360Z</time>
      </trkpt>
      <trkpt lat="46.077495" lon="10.956004">
        <ele>1503.688412</ele>
        <time>2020-09-01T08:24:54.359Z</time>
      </trkpt>
      <trkpt lat="46.077594" lon="10.956007">
        <ele>1505.086164</ele>
        <time>2020-09-01T08:25:00.362Z</time>
      </trkpt>
      <trkpt lat="46.077691" lon="10.955951">
        <ele>1506.561093</ele>
        <time>2020-09-01T08:25:05.374Z</time>
      </trkpt>
      <trkpt lat="46.077775" lon="10.955868">
        <ele>1507.998594</ele>
        <time>2020-09-01T08:25:09.368Z</time>
      </trkpt>
      <trkpt lat="46.077874" lon="10.955858">
        <ele>1509.399464</ele>
        <time>2020-09-01T08:25:15.397Z</time>
      </trkpt>
      <trkpt lat="46.077965" lon="10.955906">
        <ele>1510.767269</ele>
        <time>2020-09-01T08:25:20.355Z</time>
      </trkpt>
      <trkpt lat="46.078047" lon="10.955999">
        <ele>1512.240020</ele>
        <time>2020-09-01T08:25:25.351Z</time>
      </trkpt>
      <trkpt lat="46.078131" lon="10.955937">
        <ele>1513.572108</ele>
        <time>2020-09-01T08:25:30.358Z</time>
      </trkpt>
      <trkpt lat="46.078230" lon="10.955899">
        <ele>1515.018238</ele>
        <time>2020-09-01T08:25:36.367Z</time>
      </trkpt>
      <trkpt lat="46.078321" lon="10.955896">
        <ele>1516.303093</ele>
        <time>2020-09-01T08:25:43.363Z</time>
      </trkpt>
      <trkpt lat="46.078412" lon="10.955871">
        <ele>1517.610728</ele>
        <time>2020-09-01T08:25:49.387Z</time>
      </trkpt>
      <trkpt lat="46.078506" lon="10.955832">
        <ele>1518.991452</ele>
        <time>2020-09-01T08:25:54.384Z</time>
      </trkpt>
      <trkpt lat="46.078611" lon="10.955775">
        <ele>1520.679187</ele>
        <time>2020-09-01T08:25:58.348Z</time>
      </trkpt>
      <trkpt lat="46.078715" lon="10.955752">
        <ele>1522.446774</ele>
        <time>2020-09-01T08:26:02.361Z</time>
      </trkpt>
      <trkpt lat="46.078801" lon="10.955703">
        <ele>1524.000279</ele>
        <time>2020-09-01T08:26:07.364Z</time>
      </trkpt>
      <trkpt lat="46.078897" lon="10.955657">
        <ele>1525.699785</ele>
        <time>2020-09-01T08:26:13.361Z</time>
      </trkpt>
      <trkpt lat="46.078991" lon="10.955694">
        <ele>1527.336744</ele>
        <time>2020-09-01T08:26:17.360Z</time>
      </trkpt>
      <trkpt lat="46.079072" lon="10.955787">
        <ele>1529.076337</ele>
        <time>2020-09-01T08:26:23.358Z</time>
      </trkpt>
      <trkpt lat="46.079165" lon="10.955815">
        <ele>1530.672399</ele>
        <time>2020-09-01T08:26:28.380Z</time>
      </trkpt>
      <trkpt lat="46.079221" lon="10.955706">
        <ele>1532.253050</ele>
        <time>2020-09-01T08:26:57.345Z</time>
      </trkpt>
      <trkpt lat="46.079316" lon="10.955734">
        <ele>1533.882016</ele>
        <time>2020-09-01T08:28:14.361Z</time>
      </trkpt>
      <trkpt lat="46.079374" lon="10.955848">
        <ele>1535.529502</ele>
        <time>2020-09-01T08:28:18.385Z</time>
      </trkpt>
      <trkpt lat="46.079426" lon="10.955956">
        <ele>1537.061513</ele>
        <time>2020-09-01T08:28:21.367Z</time>
      </trkpt>
      <trkpt lat="46.079485" lon="10.956096">
        <ele>1538.970444</ele>
        <time>2020-09-01T08:28:25.374Z</time>
      </trkpt>
      <trkpt lat="46.079512" lon="10.956220">
        <ele>1540.484952</ele>
        <time>2020-09-01T08:28:30.365Z</time>
      </trkpt>
      <trkpt lat="46.079540" lon="10.956354">
        <ele>1542.115782</ele>
        <time>2020-09-01T08:28:36.372Z</time>
      </trkpt>
      <trkpt lat="46.079576" lon="10.956482">
        <ele>1543.725326</ele>
        <time>2020-09-01T08:28:41.373Z</time>
      </trkpt>
      <trkpt lat="46.079602" lon="10.956608">
        <ele>1545.257210</ele>
        <time>2020-09-01T08:28:47.409Z</time>
      </trkpt>
      <trkpt lat="46.079642" lon="10.956730">
        <ele>1546.829702</ele>
        <time>2020-09-01T08:28:51.368Z</time>
      </trkpt>
      <trkpt lat="46.079683" lon="10.956862">
        <ele>1548.515082</ele>
        <time>2020-09-01T08:28:58.409Z</time>
      </trkpt>
      <trkpt lat="46.079730" lon="10.956975">
        <ele>1550.050462</ele>
        <time>2020-09-01T08:29:57.397Z</time>
      </trkpt>
      <trkpt lat="46.079756" lon="10.957104">
        <ele>1552.070200</ele>
        <time>2020-09-01T08:30:20.340Z</time>
      </trkpt>
      <trkpt lat="46.079782" lon="10.957232">
        <ele>1554.139349</ele>
        <time>2020-09-01T08:31:45.401Z</time>
      </trkpt>
      <trkpt lat="46.079804" lon="10.957363">
        <ele>1556.230362</ele>
        <time>2020-09-01T08:32:09.372Z</time>
      </trkpt>
      <trkpt lat="46.079851" lon="10.957479">
        <ele>1558.314463</ele>
        <time>2020-09-01T08:32:37.363Z</time>
      </trkpt>
      <trkpt lat="46.079947" lon="10.957521">
        <ele>1560.558211</ele>
        <time>2020-09-01T08:33:25.367Z</time>
      </trkpt>
      <trkpt lat="46.080015" lon="10.957618">
        <ele>1562.697705</ele>
        <time>2020-09-01T08:33:42.365Z</time>
      </trkpt>
      <trkpt lat="46.080090" lon="10.957727">
        <ele>1565.079527</ele>
        <time>2020-09-01T08:34:15.396Z</time>
      </trkpt>
      <trkpt lat="46.080172" lon="10.957796">
        <ele>1567.203014</ele>
        <time>2020-09-01T08:34:35.375Z</time>
      </trkpt>
      <trkpt lat="46.080262" lon="10.957812">
        <ele>1569.231126</ele>
        <time>2020-09-01T08:34:46.373Z</time>
      </trkpt>
      <trkpt lat="46.080346" lon="10.957760">
        <ele>1571.275679</ele>
        <time>2020-09-01T08:35:20.357Z</time>
      </trkpt>
      <trkpt lat="46.080427" lon="10.957704">
        <ele>1573.284799</ele>
        <time>2020-09-01T08:35:40.358Z</time>
      </trkpt>
      <trkpt lat="46.080502" lon="10.957784">
        <ele>1575.371404</ele>
        <time>2020-09-01T08:40:09.382Z</time>
      </trkpt>
      <trkpt lat="46.080609" lon="10.957784">
        <ele>1577.764477</ele>
        <time>2020-09-01T08:41:17.369Z</time>
      </trkpt>
      <trkpt lat="46.080661" lon="10.957674">
        <ele>1579.829576</ele>
        <time>2020-09-01T08:42:32.359Z</time>
      </trkpt>
      <trkpt lat="46.080612" lon="10.957786">
        <ele>1581.883823</ele>
        <time>2020-09-01T08:59:15.365Z</time>
      </trkpt>
      <trkpt lat="46.080549" lon="10.957680">
        <ele>1584.049339</ele>
        <time>2020-09-01T08:59:47.363Z</time>
      </trkpt>
      <trkpt lat="46.080628" lon="10.957611">
        <ele>1586.115151</ele>
        <time>2020-09-01T09:01:04.377Z</time>
      </trkpt>
      <trkpt lat="46.080700" lon="10.957533">
        <ele>1588.129417</ele>
        <time>2020-09-01T09:01:14.367Z</time>
      </trkpt>
      <trkpt lat="46.080781" lon="10.957459">
        <ele>1590.274112</ele>
        <time>2020-09-01T09:01:41.368Z</time>
      </trkpt>
      <trkpt lat="46.080720" lon="10.957660">
        <ele>1591.771759</ele>
        <time>2020-09-01T09:08:02.378Z</time>
      </trkpt>
      <trkpt lat="46.080653" lon="10.957749">
        <ele>1592.598077</ele>
        <time>2020-09-01T09:08:13.381Z</time>
      </trkpt>
      <trkpt lat="46.080582" lon="10.957831">
        <ele>1593.423203</ele>
        <time>2020-09-01T09:08:33.390Z</time>
      </trkpt>
      <trkpt lat="46.080515" lon="10.957743">
        <ele>1594.245272</ele>
        <time>2020-09-01T09:09:13.380Z</time>
      </trkpt>
      <trkpt lat="46.080533" lon="10.957879">
        <ele>1595.116331</ele>
        <time>2020-09-01T09:13:56.381Z</time>
      </trkpt>
      <trkpt lat="46.080511" lon="10.958020">
        <ele>1596.025574</ele>
        <time>2020-09-01T09:14:00.388Z</time>
      </trkpt>
      <trkpt lat="46.080481" lon="10.958168">
        <ele>1596.995636</ele>
        <time>2020-09-01T09:14:03.367Z</time>
      </trkpt>
      <trkpt lat="46.080493" lon="10.958316">
        <ele>1597.933094</ele>
        <time>2020-09-01T09:14:07.372Z</time>
      </trkpt>
      <trkpt lat="46.080596" lon="10.958382">
        <ele>1598.955421</ele>
        <time>2020-09-01T09:14:11.361Z</time>
      </trkpt>
      <trkpt lat="46.080708" lon="10.958424">
        <ele>1600.005058</ele>
        <time>2020-09-01T09:14:15.370Z</time>
      </trkpt>
      <trkpt lat="46.080803" lon="10.958498">
        <ele>1600.984433</ele>
        <time>2020-09-01T09:14:19.409Z</time>
      </trkpt>
      <trkpt lat="46.080888" lon="10.958569">
        <ele>1601.875434</ele>
        <time>2020-09-01T09:14:25.379Z</time>
      </trkpt>
      <trkpt lat="46.080975" lon="10.958653">
        <ele>1602.825136</ele>
        <time>2020-09-01T09:14:31.371Z</time>
      </trkpt>
      <trkpt lat="46.081045" lon="10.958737">
        <ele>1603.651194</ele>
        <time>2020-09-01T09:14:35.382Z</time>
      </trkpt>
      <trkpt lat="46.081130" lon="10.958842">
        <ele>1604.666441</ele>
        <time>2020-09-01T09:14:40.369Z</time>
      </trkpt>
      <trkpt lat="46.081197" lon="10.958943">
        <ele>1605.545667</ele>
        <time>2020-09-01T09:14:45.383Z</time>
      </trkpt>
      <trkpt lat="46.081257" lon="10.959042">
        <ele>1606.372754</ele>
        <time>2020-09-01T09:14:50.368Z</time>
      </trkpt>
      <trkpt lat="46.081331" lon="10.959152">
        <ele>1607.180068</ele>
        <time>2020-09-01T09:14:56.370Z</time>
      </trkpt>
      <trkpt lat="46.081420" lon="10.959223">
        <ele>1607.840527</ele>
        <time>2020-09-01T09:15:01.370Z</time>
      </trkpt>
      <trkpt lat="46.081492" lon="10.959316">
        <ele>1608.468221</ele>
        <time>2020-09-01T09:15:05.367Z</time>
      </trkpt>
      <trkpt lat="46.081571" lon="10.959423">
        <ele>1609.172039</ele>
        <time>2020-09-01T09:15:11.367Z</time>
      </trkpt>
      <trkpt lat="46.081658" lon="10.959516">
        <ele>1609.875282</ele>
        <time>2020-09-01T09:15:18.360Z</time>
      </trkpt>
      <trkpt lat="46.081734" lon="10.959604">
        <ele>1610.508212</ele>
        <time>2020-09-01T09:15:24.361Z</time>
      </trkpt>
      <trkpt lat="46.081835" lon="10.959669">
        <ele>1611.226389</ele>
        <time>2020-09-01T09:15:31.382Z</time>
      </trkpt>
      <trkpt lat="46.081915" lon="10.959765">
        <ele>1611.902233</ele>
        <time>2020-09-01T09:15:36.367Z</time>
      </trkpt>
      <trkpt lat="46.081989" lon="10.959874">
        <ele>1612.589158</ele>
        <time>2020-09-01T09:15:41.379Z</time>
      </trkpt>
      <trkpt lat="46.082055" lon="10.959977">
        <ele>1613.220699</ele>
        <time>2020-09-01T09:15:46.364Z</time>
      </trkpt>
      <trkpt lat="46.082133" lon="10.960068">
        <ele>1613.872217</ele>
        <time>2020-09-01T09:15:52.382Z</time>
      </trkpt>
      <trkpt lat="46.082217" lon="10.960141">
        <ele>1614.509066</ele>
        <time>2020-09-01T09:15:58.368Z</time>
      </trkpt>
      <trkpt lat="46.082305" lon="10.960187">
        <ele>1615.116857</ele>
        <time>2020-09-01T09:16:03.372Z</time>
      </trkpt>
      <trkpt lat="46.082398" lon="10.960227">
        <ele>1615.747015</ele>
        <time>2020-09-01T09:16:08.368Z</time>
      </trkpt>
      <trkpt lat="46.082489" lon="10.960274">
        <ele>1616.374658</ele>
        <time>2020-09-01T09:16:15.373Z</time>
      </trkpt>
      <trkpt lat="46.082588" lon="10.960328">
        <ele>1617.061943</ele>
        <time>2020-09-01T09:16:21.379Z</time>
      </trkpt>
      <trkpt lat="46.082677" lon="10.960430">
        <ele>1617.800172</ele>
        <time>2020-09-01T09:16:27.374Z</time>
      </trkpt>
      <trkpt lat="46.082754" lon="10.960541">
        <ele>1618.544222</ele>
        <time>2020-09-01T09:16:31.380Z</time>
      </trkpt>
      <trkpt lat="46.082840" lon="10.960619">
        <ele>1619.767919</ele>
        <time>2020-09-01T09:16:35.371Z</time>
      </trkpt>
      <trkpt lat="46.082911" lon="10.960699">
        <ele>1620.853219</ele>
        <time>2020-09-01T09:16:39.369Z</time>
      </trkpt>
      <trkpt lat="46.083001" lon="10.960764">
        <ele>1622.065579</ele>
        <time>2020-09-01T09:16:45.391Z</time>
      </trkpt>
      <trkpt lat="46.083045" lon="10.960891">
        <ele>1623.251510</ele>
        <time>2020-09-01T09:16:51.384Z</time>
      </trkpt>
      <trkpt lat="46.083125" lon="10.960988">
        <ele>1624.510476</ele>
        <time>2020-09-01T09:16:57.371Z</time>
      </trkpt>
      <trkpt lat="46.083211" lon="10.961050">
        <ele>1625.668537</ele>
        <time>2020-09-01T09:17:02.363Z</time>
      </trkpt>
      <trkpt lat="46.083290" lon="10.961151">
        <ele>1626.940229</ele>
        <time>2020-09-01T09:17:06.399Z</time>
      </trkpt>
      <trkpt lat="46.083362" lon="10.961280">
        <ele>1628.323448</ele>
        <time>2020-09-01T09:17:11.365Z</time>
      </trkpt>
      <trkpt lat="46.083430" lon="10.961377">
        <ele>1629.475562</ele>
        <time>2020-09-01T09:17:14.399Z</time>
      </trkpt>
      <trkpt lat="46.083500" lon="10.961484">
        <ele>1630.704287</ele>
        <time>2020-09-01T09:17:20.367Z</time>
      </trkpt>
      <trkpt lat="46.083531" lon="10.961619">
        <ele>1631.892249</ele>
        <time>2020-09-01T09:17:23.424Z</time>
      </trkpt>
      <trkpt lat="46.083599" lon="10.961744">
        <ele>1633.219333</ele>
        <time>2020-09-01T09:17:27.381Z</time>
      </trkpt>
      <trkpt lat="46.083651" lon="10.961852">
        <ele>1634.317612</ele>
        <time>2020-09-01T09:17:33.383Z</time>
      </trkpt>
      <trkpt lat="46.083742" lon="10.961913">
        <ele>1635.526286</ele>
        <time>2020-09-01T09:17:40.376Z</time>
      </trkpt>
      <trkpt lat="46.083821" lon="10.961980">
        <ele>1636.630175</ele>
        <time>2020-09-01T09:17:44.377Z</time>
      </trkpt>
      <trkpt lat="46.083912" lon="10.962027">
        <ele>1637.794381</ele>
        <time>2020-09-01T09:17:48.375Z</time>
      </trkpt>
      <trkpt lat="46.084008" lon="10.962098">
        <ele>1639.093855</ele>
        <time>2020-09-01T09:17:53.396Z</time>
      </trkpt>
      <trkpt lat="46.084116" lon="10.962167">
        <ele>1640.763345</ele>
        <time>2020-09-01T09:17:57.378Z</time>
      </trkpt>
      <trkpt lat="46.084215" lon="10.962196">
        <ele>1642.750064</ele>
        <time>2020-09-01T09:18:01.410Z</time>
      </trkpt>
      <trkpt lat="46.084330" lon="10.962238">
        <ele>1645.083094</ele>
        <time>2020-09-01T09:18:06.404Z</time>
      </trkpt>
      <trkpt lat="46.084420" lon="10.962263">
        <ele>1646.885591</ele>
        <time>2020-09-01T09:18:10.383Z</time>
      </trkpt>
      <trkpt lat="46.084516" lon="10.962305">
        <ele>1648.858541</ele>
        <time>2020-09-01T09:18:17.397Z</time>
      </trkpt>
      <trkpt lat="46.084616" lon="10.962325">
        <ele>1650.843979</ele>
        <time>2020-09-01T09:18:23.367Z</time>
      </trkpt>
      <trkpt lat="46.084709" lon="10.962306">
        <ele>1652.691193</ele>
        <time>2020-09-01T09:20:48.376Z</time>
      </trkpt>
      <trkpt lat="46.084805" lon="10.962294">
        <ele>1654.586217</ele>
        <time>2020-09-01T09:21:00.382Z</time>
      </trkpt>
      <trkpt lat="46.084880" lon="10.962209">
        <ele>1656.462316</ele>
        <time>2020-09-01T09:21:41.378Z</time>
      </trkpt>
      <trkpt lat="46.084968" lon="10.962158">
        <ele>1658.327511</ele>
        <time>2020-09-01T09:21:52.378Z</time>
      </trkpt>
      <trkpt lat="46.085056" lon="10.962112">
        <ele>1660.168357</ele>
        <time>2020-09-01T09:22:04.405Z</time>
      </trkpt>
      <trkpt lat="46.085148" lon="10.962086">
        <ele>1662.012065</ele>
        <time>2020-09-01T09:22:25.383Z</time>
      </trkpt>
      <trkpt lat="46.085243" lon="10.962058">
        <ele>1663.918979</ele>
        <time>2020-09-01T09:22:46.382Z</time>
      </trkpt>
      <trkpt lat="46.085429" lon="10.962094">
        <ele>1667.609678</ele>
        <time>2020-09-01T09:23:44.377Z</time>
      </trkpt>
      <trkpt lat="46.085537" lon="10.962103">
        <ele>1669.737158</ele>
        <time>2020-09-01T09:23:50.401Z</time>
      </trkpt>
      <trkpt lat="46.085628" lon="10.962112">
        <ele>1671.530975</ele>
        <time>2020-09-01T09:23:55.392Z</time>
      </trkpt>
      <trkpt lat="46.085728" lon="10.962136">
        <ele>1673.524641</ele>
        <time>2020-09-01T09:24:01.389Z</time>
      </trkpt>
      <trkpt lat="46.085833" lon="10.962113">
        <ele>1675.529751</ele>
        <time>2020-09-01T09:24:06.397Z</time>
      </trkpt>
      <trkpt lat="46.085921" lon="10.962144">
        <ele>1676.009968</ele>
        <time>2020-09-01T09:24:11.377Z</time>
      </trkpt>
      <trkpt lat="46.086009" lon="10.962183">
        <ele>1676.498003</ele>
        <time>2020-09-01T09:24:16.368Z</time>
      </trkpt>
      <trkpt lat="46.086105" lon="10.962172">
        <ele>1677.008511</ele>
        <time>2020-09-01T09:24:21.393Z</time>
      </trkpt>
      <trkpt lat="46.086195" lon="10.962144">
        <ele>1677.496589</ele>
        <time>2020-09-01T09:24:25.370Z</time>
      </trkpt>
      <trkpt lat="46.086299" lon="10.962141">
        <ele>1678.048011</ele>
        <time>2020-09-01T09:24:31.361Z</time>
      </trkpt>
      <trkpt lat="46.086395" lon="10.962132">
        <ele>1678.557990</ele>
        <time>2020-09-01T09:24:37.370Z</time>
      </trkpt>
      <trkpt lat="46.086488" lon="10.962159">
        <ele>1679.060885</ele>
        <time>2020-09-01T09:24:43.384Z</time>
      </trkpt>
      <trkpt lat="46.086590" lon="10.962189">
        <ele>1679.612731</ele>
        <time>2020-09-01T09:24:47.367Z</time>
      </trkpt>
      <trkpt lat="46.086696" lon="10.962216">
        <ele>1680.183346</ele>
        <time>2020-09-01T09:24:52.378Z</time>
      </trkpt>
      <trkpt lat="46.086786" lon="10.962239">
        <ele>1680.667879</ele>
        <time>2020-09-01T09:24:56.424Z</time>
      </trkpt>
      <trkpt lat="46.086901" lon="10.962247">
        <ele>1681.278213</ele>
        <time>2020-09-01T09:25:01.386Z</time>
      </trkpt>
      <trkpt lat="46.086995" lon="10.962238">
        <ele>1681.777611</ele>
        <time>2020-09-01T09:25:05.377Z</time>
      </trkpt>
      <trkpt lat="46.087088" lon="10.962249">
        <ele>1682.272268</ele>
        <time>2020-09-01T09:25:09.378Z</time>
      </trkpt>
      <trkpt lat="46.087195" lon="10.962257">
        <ele>1682.840245</ele>
        <time>2020-09-01T09:25:14.407Z</time>
      </trkpt>
      <trkpt lat="46.087294" lon="10.962262">
        <ele>1683.365374</ele>
        <time>2020-09-01T09:25:18.422Z</time>
      </trkpt>
      <trkpt lat="46.087387" lon="10.962269">
        <ele>1683.859045</ele>
        <time>2020-09-01T09:25:22.405Z</time>
      </trkpt>
      <trkpt lat="46.087478" lon="10.962281">
        <ele>1684.343457</ele>
        <time>2020-09-01T09:25:27.369Z</time>
      </trkpt>
      <trkpt lat="46.087572" lon="10.962291">
        <ele>1684.843113</ele>
        <time>2020-09-01T09:25:35.355Z</time>
      </trkpt>
      <trkpt lat="46.087667" lon="10.962332">
        <ele>1684.767746</ele>
        <time>2020-09-01T09:25:42.375Z</time>
      </trkpt>
      <trkpt lat="46.087770" lon="10.962361">
        <ele>1684.326275</ele>
        <time>2020-09-01T09:25:51.390Z</time>
      </trkpt>
      <trkpt lat="46.087876" lon="10.962389">
        <ele>1683.872946</ele>
        <time>2020-09-01T09:25:56.397Z</time>
      </trkpt>
      <trkpt lat="46.087995" lon="10.962432">
        <ele>1683.356871</ele>
        <time>2020-09-01T09:25:59.397Z</time>
      </trkpt>
      <trkpt lat="46.088116" lon="10.962498">
        <ele>1682.812658</ele>
        <time>2020-09-01T09:26:01.363Z</time>
      </trkpt>
      <trkpt lat="46.088228" lon="10.962544">
        <ele>1682.322768</ele>
        <time>2020-09-01T09:26:04.366Z</time>
      </trkpt>
      <trkpt lat="46.088334" lon="10.962588">
        <ele>1681.858750</ele>
        <time>2020-09-01T09:26:07.378Z</time>
      </trkpt>
      <trkpt lat="46.088438" lon="10.962611">
        <ele>1681.416140</ele>
        <time>2020-09-01T09:26:10.359Z</time>
      </trkpt>
      <trkpt lat="46.088540" lon="10.962652">
        <ele>1680.970697</ele>
        <time>2020-09-01T09:26:13.380Z</time>
      </trkpt>
      <trkpt lat="46.088640" lon="10.962696">
        <ele>1680.530878</ele>
        <time>2020-09-01T09:26:16.385Z</time>
      </trkpt>
      <trkpt lat="46.088751" lon="10.962745">
        <ele>1680.042544</ele>
        <time>2020-09-01T09:26:19.391Z</time>
      </trkpt>
      <trkpt lat="46.088853" lon="10.962807">
        <ele>1679.576893</ele>
        <time>2020-09-01T09:26:22.356Z</time>
      </trkpt>
      <trkpt lat="46.088956" lon="10.962886">
        <ele>1679.086118</ele>
        <time>2020-09-01T09:26:25.373Z</time>
      </trkpt>
      <trkpt lat="46.089037" lon="10.962961">
        <ele>1678.681170</ele>
        <time>2020-09-01T09:26:28.347Z</time>
      </trkpt>
      <trkpt lat="46.089127" lon="10.963044">
        <ele>1678.231752</ele>
        <time>2020-09-01T09:26:32.344Z</time>
      </trkpt>
      <trkpt lat="46.089205" lon="10.963122">
        <ele>1677.832442</ele>
        <time>2020-09-01T09:26:35.363Z</time>
      </trkpt>
      <trkpt lat="46.089287" lon="10.963200">
        <ele>1677.619679</ele>
        <time>2020-09-01T09:26:39.382Z</time>
      </trkpt>
      <trkpt lat="46.089370" lon="10.963290">
        <ele>1679.000924</ele>
        <time>2020-09-01T09:26:46.389Z</time>
      </trkpt>
      <trkpt lat="46.089451" lon="10.963379">
        <ele>1680.355391</ele>
        <time>2020-09-01T09:26:52.372Z</time>
      </trkpt>
      <trkpt lat="46.089604" lon="10.963509">
        <ele>1682.717364</ele>
        <time>2020-09-01T09:26:55.382Z</time>
      </trkpt>
      <trkpt lat="46.089693" lon="10.963575">
        <ele>1684.048464</ele>
        <time>2020-09-01T09:26:59.378Z</time>
      </trkpt>
      <trkpt lat="46.089777" lon="10.963624">
        <ele>1685.253649</ele>
        <time>2020-09-01T09:27:04.365Z</time>
      </trkpt>
      <trkpt lat="46.089895" lon="10.963649">
        <ele>1686.839930</ele>
        <time>2020-09-01T09:27:08.374Z</time>
      </trkpt>
      <trkpt lat="46.089992" lon="10.963665">
        <ele>1688.138468</ele>
        <time>2020-09-01T09:27:11.383Z</time>
      </trkpt>
      <trkpt lat="46.090094" lon="10.963684">
        <ele>1689.506367</ele>
        <time>2020-09-01T09:27:15.384Z</time>
      </trkpt>
      <trkpt lat="46.090204" lon="10.963709">
        <ele>1690.987457</ele>
        <time>2020-09-01T09:27:19.379Z</time>
      </trkpt>
      <trkpt lat="46.090300" lon="10.963724">
        <ele>1692.271756</ele>
        <time>2020-09-01T09:27:22.379Z</time>
      </trkpt>
      <trkpt lat="46.090402" lon="10.963753">
        <ele>1693.654502</ele>
        <time>2020-09-01T09:27:26.400Z</time>
      </trkpt>
      <trkpt lat="46.090498" lon="10.963772">
        <ele>1694.943298</ele>
        <time>2020-09-01T09:27:30.400Z</time>
      </trkpt>
      <trkpt lat="46.090593" lon="10.963794">
        <ele>1696.223013</ele>
        <time>2020-09-01T09:27:34.398Z</time>
      </trkpt>
      <trkpt lat="46.090691" lon="10.963828">
        <ele>1697.563636</ele>
        <time>2020-09-01T09:27:38.381Z</time>
      </trkpt>
      <trkpt lat="46.090806" lon="10.963885">
        <ele>1699.181007</ele>
        <time>2020-09-01T09:27:42.428Z</time>
      </trkpt>
      <trkpt lat="46.090902" lon="10.963908">
        <ele>1700.475336</ele>
        <time>2020-09-01T09:27:46.403Z</time>
      </trkpt>
      <trkpt lat="46.090997" lon="10.963925">
        <ele>1701.431715</ele>
        <time>2020-09-01T09:27:50.399Z</time>
      </trkpt>
      <trkpt lat="46.091086" lon="10.963981">
        <ele>1701.582701</ele>
        <time>2020-09-01T09:27:54.384Z</time>
      </trkpt>
      <trkpt lat="46.091163" lon="10.964062">
        <ele>1701.730902</ele>
        <time>2020-09-01T09:28:00.403Z</time>
      </trkpt>
      <trkpt lat="46.091268" lon="10.964056">
        <ele>1701.894293</ele>
        <time>2020-09-01T09:28:06.383Z</time>
      </trkpt>
      <trkpt lat="46.091381" lon="10.964081">
        <ele>1702.072051</ele>
        <time>2020-09-01T09:28:11.378Z</time>
      </trkpt>
      <trkpt lat="46.091478" lon="10.964102">
        <ele>1702.224566</ele>
        <time>2020-09-01T09:28:15.438Z</time>
      </trkpt>
      <trkpt lat="46.091581" lon="10.964166">
        <ele>1702.398955</ele>
        <time>2020-09-01T09:28:20.382Z</time>
      </trkpt>
      <trkpt lat="46.091671" lon="10.964231">
        <ele>1702.555467</ele>
        <time>2020-09-01T09:28:24.380Z</time>
      </trkpt>
      <trkpt lat="46.091780" lon="10.964292">
        <ele>1702.737266</ele>
        <time>2020-09-01T09:28:28.385Z</time>
      </trkpt>
      <trkpt lat="46.091890" lon="10.964351">
        <ele>1702.919753</ele>
        <time>2020-09-01T09:28:32.381Z</time>
      </trkpt>
      <trkpt lat="46.091984" lon="10.964377">
        <ele>1703.068577</ele>
        <time>2020-09-01T09:28:35.389Z</time>
      </trkpt>
      <trkpt lat="46.092068" lon="10.964432">
        <ele>1703.212021</ele>
        <time>2020-09-01T09:28:39.383Z</time>
      </trkpt>
      <trkpt lat="46.092164" lon="10.964486">
        <ele>1703.372246</ele>
        <time>2020-09-01T09:28:44.417Z</time>
      </trkpt>
      <trkpt lat="46.092250" lon="10.964537">
        <ele>1703.516833</ele>
        <time>2020-09-01T09:28:49.394Z</time>
      </trkpt>
      <trkpt lat="46.092342" lon="10.964566">
        <ele>1703.663260</ele>
        <time>2020-09-01T09:28:54.393Z</time>
      </trkpt>
      <trkpt lat="46.092252" lon="10.964510">
        <ele>1703.815672</ele>
        <time>2020-09-01T09:34:08.361Z</time>
      </trkpt>
      <trkpt lat="46.092352" lon="10.964553">
        <ele>1703.977927</ele>
        <time>2020-09-01T09:34:20.345Z</time>
      </trkpt>
      <trkpt lat="46.092449" lon="10.964601">
        <ele>1704.137385</ele>
        <time>2020-09-01T09:34:25.384Z</time>
      </trkpt>
      <trkpt lat="46.092540" lon="10.964668">
        <ele>1705.144862</ele>
        <time>2020-09-01T09:34:29.384Z</time>
      </trkpt>
      <trkpt lat="46.092640" lon="10.964721">
        <ele>1706.590803</ele>
        <time>2020-09-01T09:34:33.399Z</time>
      </trkpt>
      <trkpt lat="46.092746" lon="10.964757">
        <ele>1708.068768</ele>
        <time>2020-09-01T09:34:37.380Z</time>
      </trkpt>
      <trkpt lat="46.092852" lon="10.964834">
        <ele>1709.679602</ele>
        <time>2020-09-01T09:34:41.375Z</time>
      </trkpt>
      <trkpt lat="46.092936" lon="10.964890">
        <ele>1710.935568</ele>
        <time>2020-09-01T09:34:44.379Z</time>
      </trkpt>
      <trkpt lat="46.093038" lon="10.964933">
        <ele>1712.377829</ele>
        <time>2020-09-01T09:34:48.381Z</time>
      </trkpt>
      <trkpt lat="46.093141" lon="10.964992">
        <ele>1713.881970</ele>
        <time>2020-09-01T09:34:53.377Z</time>
      </trkpt>
      <trkpt lat="46.093222" lon="10.965057">
        <ele>1715.140040</ele>
        <time>2020-09-01T09:34:57.386Z</time>
      </trkpt>
      <trkpt lat="46.093315" lon="10.965113">
        <ele>1716.507836</ele>
        <time>2020-09-01T09:35:04.397Z</time>
      </trkpt>
      <trkpt lat="46.093406" lon="10.965145">
        <ele>1717.779054</ele>
        <time>2020-09-01T09:35:11.406Z</time>
      </trkpt>
      <trkpt lat="46.093516" lon="10.965165">
        <ele>1719.283763</ele>
        <time>2020-09-01T09:35:17.389Z</time>
      </trkpt>
      <trkpt lat="46.093623" lon="10.965205">
        <ele>1720.783942</ele>
        <time>2020-09-01T09:35:21.391Z</time>
      </trkpt>
      <trkpt lat="46.093720" lon="10.965250">
        <ele>1722.166849</ele>
        <time>2020-09-01T09:35:25.427Z</time>
      </trkpt>
      <trkpt lat="46.093827" lon="10.965292">
        <ele>1723.671861</ele>
        <time>2020-09-01T09:35:29.401Z</time>
      </trkpt>
      <trkpt lat="46.093922" lon="10.965304">
        <ele>1724.966111</ele>
        <time>2020-09-01T09:35:34.383Z</time>
      </trkpt>
      <trkpt lat="46.094014" lon="10.965326">
        <ele>1726.231761</ele>
        <time>2020-09-01T09:35:40.381Z</time>
      </trkpt>
      <trkpt lat="46.094112" lon="10.965301">
        <ele>1727.582441</ele>
        <time>2020-09-01T09:35:47.372Z</time>
      </trkpt>
      <trkpt lat="46.094223" lon="10.965338">
        <ele>1728.841037</ele>
        <time>2020-09-01T09:35:54.388Z</time>
      </trkpt>
      <trkpt lat="46.094310" lon="10.965373">
        <ele>1729.403587</ele>
        <time>2020-09-01T09:35:57.380Z</time>
      </trkpt>
      <trkpt lat="46.094671" lon="10.965437">
        <ele>1731.668917</ele>
        <time>2020-09-01T09:37:43.409Z</time>
      </trkpt>
      <trkpt lat="46.094762" lon="10.965464">
        <ele>1732.247562</ele>
        <time>2020-09-01T09:37:47.377Z</time>
      </trkpt>
      <trkpt lat="46.094872" lon="10.965506">
        <ele>1732.956279</ele>
        <time>2020-09-01T09:37:51.393Z</time>
      </trkpt>
      <trkpt lat="46.094965" lon="10.965521">
        <ele>1733.539119</ele>
        <time>2020-09-01T09:37:54.374Z</time>
      </trkpt>
      <trkpt lat="46.095079" lon="10.965557">
        <ele>1734.265966</ele>
        <time>2020-09-01T09:37:57.358Z</time>
      </trkpt>
      <trkpt lat="46.095178" lon="10.965600">
        <ele>1734.909927</ele>
        <time>2020-09-01T09:38:00.384Z</time>
      </trkpt>
      <trkpt lat="46.095271" lon="10.965654">
        <ele>1735.534347</ele>
        <time>2020-09-01T09:38:03.405Z</time>
      </trkpt>
      <trkpt lat="46.095398" lon="10.965735">
        <ele>1736.399248</ele>
        <time>2020-09-01T09:38:06.403Z</time>
      </trkpt>
      <trkpt lat="46.095503" lon="10.965775">
        <ele>1737.075650</ele>
        <time>2020-09-01T09:38:10.365Z</time>
      </trkpt>
      <trkpt lat="46.095617" lon="10.965806">
        <ele>1737.798186</ele>
        <time>2020-09-01T09:38:14.374Z</time>
      </trkpt>
      <trkpt lat="46.095727" lon="10.965810">
        <ele>1738.483512</ele>
        <time>2020-09-01T09:38:18.397Z</time>
      </trkpt>
      <trkpt lat="46.095833" lon="10.965789">
        <ele>1739.149909</ele>
        <time>2020-09-01T09:38:23.375Z</time>
      </trkpt>
      <trkpt lat="46.095964" lon="10.965834">
        <ele>1739.835182</ele>
        <time>2020-09-01T09:43:30.456Z</time>
      </trkpt>
      <trkpt lat="46.096064" lon="10.965903">
        <ele>1739.965322</ele>
        <time>2020-09-01T09:43:34.393Z</time>
      </trkpt>
      <trkpt lat="46.096146" lon="10.965958">
        <ele>1740.071488</ele>
        <time>2020-09-01T09:43:37.434Z</time>
      </trkpt>
      <trkpt lat="46.096248" lon="10.966028">
        <ele>1740.204098</ele>
        <time>2020-09-01T09:43:40.391Z</time>
      </trkpt>
      <trkpt lat="46.096367" lon="10.966106">
        <ele>1740.357550</ele>
        <time>2020-09-01T09:43:43.373Z</time>
      </trkpt>
      <trkpt lat="46.096460" lon="10.966158">
        <ele>1740.474646</ele>
        <time>2020-09-01T09:43:45.387Z</time>
      </trkpt>
      <trkpt lat="46.096567" lon="10.966225">
        <ele>1740.611588</ele>
        <time>2020-09-01T09:43:48.413Z</time>
      </trkpt>
      <trkpt lat="46.096640" lon="10.966318">
        <ele>1740.725937</ele>
        <time>2020-09-01T09:43:52.399Z</time>
      </trkpt>
      <trkpt lat="46.096746" lon="10.966393">
        <ele>1740.864545</ele>
        <time>2020-09-01T09:43:57.381Z</time>
      </trkpt>
      <trkpt lat="46.096850" lon="10.966439">
        <ele>1740.992248</ele>
        <time>2020-09-01T09:44:00.404Z</time>
      </trkpt>
      <trkpt lat="46.096945" lon="10.966520">
        <ele>1741.121807</ele>
        <time>2020-09-01T09:44:03.378Z</time>
      </trkpt>
      <trkpt lat="46.097036" lon="10.966564">
        <ele>1741.234481</ele>
        <time>2020-09-01T09:44:06.378Z</time>
      </trkpt>
      <trkpt lat="46.097123" lon="10.966599">
        <ele>1741.340513</ele>
        <time>2020-09-01T09:44:10.409Z</time>
      </trkpt>
      <trkpt lat="46.097223" lon="10.966635">
        <ele>1741.461509</ele>
        <time>2020-09-01T09:44:16.414Z</time>
      </trkpt>
      <trkpt lat="46.097326" lon="10.966671">
        <ele>1741.585926</ele>
        <time>2020-09-01T09:44:20.391Z</time>
      </trkpt>
      <trkpt lat="46.097433" lon="10.966702">
        <ele>1741.714047</ele>
        <time>2020-09-01T09:44:24.401Z</time>
      </trkpt>
      <trkpt lat="46.097539" lon="10.966721">
        <ele>1741.839442</ele>
        <time>2020-09-01T09:44:28.404Z</time>
      </trkpt>
      <trkpt lat="46.097664" lon="10.966762">
        <ele>1742.321728</ele>
        <time>2020-09-01T09:44:32.435Z</time>
      </trkpt>
      <trkpt lat="46.097760" lon="10.966777">
        <ele>1742.911804</ele>
        <time>2020-09-01T09:44:34.394Z</time>
      </trkpt>
      <trkpt lat="46.097848" lon="10.966805">
        <ele>1743.462494</ele>
        <time>2020-09-01T09:44:36.393Z</time>
      </trkpt>
      <trkpt lat="46.097945" lon="10.966908">
        <ele>1744.198599</ele>
        <time>2020-09-01T09:44:39.390Z</time>
      </trkpt>
      <trkpt lat="46.097980" lon="10.967041">
        <ele>1744.801397</ele>
        <time>2020-09-01T09:44:41.384Z</time>
      </trkpt>
      <trkpt lat="46.098066" lon="10.967125">
        <ele>1745.436128</ele>
        <time>2020-09-01T09:44:43.412Z</time>
      </trkpt>
      <trkpt lat="46.098162" lon="10.967219">
        <ele>1746.145216</ele>
        <time>2020-09-01T09:44:46.387Z</time>
      </trkpt>
      <trkpt lat="46.098247" lon="10.967323">
        <ele>1746.826399</ele>
        <time>2020-09-01T09:44:49.387Z</time>
      </trkpt>
      <trkpt lat="46.098334" lon="10.967384">
        <ele>1747.417549</ele>
        <time>2020-09-01T09:44:52.378Z</time>
      </trkpt>
      <trkpt lat="46.098432" lon="10.967469">
        <ele>1748.116382</ele>
        <time>2020-09-01T09:44:56.380Z</time>
      </trkpt>
      <trkpt lat="46.098499" lon="10.967560">
        <ele>1748.678807</ele>
        <time>2020-09-01T09:45:00.394Z</time>
      </trkpt>
      <trkpt lat="46.098583" lon="10.967654">
        <ele>1749.328533</ele>
        <time>2020-09-01T09:45:05.435Z</time>
      </trkpt>
      <trkpt lat="46.098680" lon="10.967725">
        <ele>1749.993266</ele>
        <time>2020-09-01T09:45:10.384Z</time>
      </trkpt>
      <trkpt lat="46.098773" lon="10.967790">
        <ele>1750.624802</ele>
        <time>2020-09-01T09:45:14.388Z</time>
      </trkpt>
      <trkpt lat="46.098859" lon="10.967880">
        <ele>1751.274128</ele>
        <time>2020-09-01T09:45:18.395Z</time>
      </trkpt>
      <trkpt lat="46.098934" lon="10.967961">
        <ele>1751.846715</ele>
        <time>2020-09-01T09:45:21.402Z</time>
      </trkpt>
      <trkpt lat="46.099018" lon="10.968070">
        <ele>1752.537234</ele>
        <time>2020-09-01T09:45:25.387Z</time>
      </trkpt>
      <trkpt lat="46.099086" lon="10.968180">
        <ele>1753.009380</ele>
        <time>2020-09-01T09:45:29.391Z</time>
      </trkpt>
      <trkpt lat="46.099154" lon="10.968267">
        <ele>1753.238718</ele>
        <time>2020-09-01T09:45:33.395Z</time>
      </trkpt>
      <trkpt lat="46.099242" lon="10.968366">
        <ele>1753.520295</ele>
        <time>2020-09-01T09:45:37.399Z</time>
      </trkpt>
      <trkpt lat="46.099317" lon="10.968456">
        <ele>1753.766450</ele>
        <time>2020-09-01T09:45:41.393Z</time>
      </trkpt>
      <trkpt lat="46.099390" lon="10.968547">
        <ele>1754.009889</ele>
        <time>2020-09-01T09:45:44.397Z</time>
      </trkpt>
      <trkpt lat="46.099457" lon="10.968677">
        <ele>1754.293249</ele>
        <time>2020-09-01T09:45:47.377Z</time>
      </trkpt>
      <trkpt lat="46.099550" lon="10.968742">
        <ele>1754.553981</ele>
        <time>2020-09-01T09:45:51.373Z</time>
      </trkpt>
      <trkpt lat="46.099644" lon="10.968755">
        <ele>1754.792221</ele>
        <time>2020-09-01T09:45:54.420Z</time>
      </trkpt>
      <trkpt lat="46.099739" lon="10.968787">
        <ele>1755.038347</ele>
        <time>2020-09-01T09:45:57.375Z</time>
      </trkpt>
      <trkpt lat="46.099853" lon="10.968819">
        <ele>1755.331354</ele>
        <time>2020-09-01T09:46:00.378Z</time>
      </trkpt>
      <trkpt lat="46.099948" lon="10.968864">
        <ele>1755.583626</ele>
        <time>2020-09-01T09:46:03.379Z</time>
      </trkpt>
      <trkpt lat="46.100053" lon="10.968947">
        <ele>1755.885713</ele>
        <time>2020-09-01T09:46:07.381Z</time>
      </trkpt>
      <trkpt lat="46.100142" lon="10.969032">
        <ele>1756.155023</ele>
        <time>2020-09-01T09:46:10.381Z</time>
      </trkpt>
      <trkpt lat="46.100218" lon="10.969119">
        <ele>1756.399825</ele>
        <time>2020-09-01T09:46:13.378Z</time>
      </trkpt>
      <trkpt lat="46.100292" lon="10.969212">
        <ele>1756.647460</ele>
        <time>2020-09-01T09:46:16.387Z</time>
      </trkpt>
      <trkpt lat="46.100371" lon="10.969285">
        <ele>1756.884171</ele>
        <time>2020-09-01T09:46:19.368Z</time>
      </trkpt>
      <trkpt lat="46.100456" lon="10.969355">
        <ele>1757.131118</ele>
        <time>2020-09-01T09:46:22.371Z</time>
      </trkpt>
      <trkpt lat="46.100551" lon="10.969405">
        <ele>1757.386254</ele>
        <time>2020-09-01T09:46:26.383Z</time>
      </trkpt>
      <trkpt lat="46.100654" lon="10.969466">
        <ele>1758.149125</ele>
        <time>2020-09-01T09:46:30.412Z</time>
      </trkpt>
      <trkpt lat="46.100752" lon="10.969535">
        <ele>1759.008175</ele>
        <time>2020-09-01T09:46:33.399Z</time>
      </trkpt>
      <trkpt lat="46.100848" lon="10.969603">
        <ele>1759.850675</ele>
        <time>2020-09-01T09:46:37.399Z</time>
      </trkpt>
      <trkpt lat="46.100960" lon="10.969674">
        <ele>1760.814391</ele>
        <time>2020-09-01T09:46:41.403Z</time>
      </trkpt>
      <trkpt lat="46.101042" lon="10.969744">
        <ele>1761.564996</ele>
        <time>2020-09-01T09:46:45.401Z</time>
      </trkpt>
      <trkpt lat="46.101143" lon="10.969811">
        <ele>1762.440722</ele>
        <time>2020-09-01T09:46:50.392Z</time>
      </trkpt>
      <trkpt lat="46.101235" lon="10.969829">
        <ele>1763.172063</ele>
        <time>2020-09-01T09:46:54.399Z</time>
      </trkpt>
      <trkpt lat="46.101334" lon="10.969860">
        <ele>1763.970076</ele>
        <time>2020-09-01T09:46:59.397Z</time>
      </trkpt>
      <trkpt lat="46.101444" lon="10.969902">
        <ele>1764.866420</ele>
        <time>2020-09-01T09:47:04.417Z</time>
      </trkpt>
      <trkpt lat="46.101534" lon="10.969954">
        <ele>1765.630145</ele>
        <time>2020-09-01T09:47:07.399Z</time>
      </trkpt>
      <trkpt lat="46.101625" lon="10.970020">
        <ele>1766.432509</ele>
        <time>2020-09-01T09:47:12.393Z</time>
      </trkpt>
      <trkpt lat="46.101721" lon="10.970086">
        <ele>1767.270247</ele>
        <time>2020-09-01T09:47:17.394Z</time>
      </trkpt>
      <trkpt lat="46.101813" lon="10.970148">
        <ele>1768.070166</ele>
        <time>2020-09-01T09:47:22.396Z</time>
      </trkpt>
      <trkpt lat="46.101903" lon="10.970192">
        <ele>1768.818739</ele>
        <time>2020-09-01T09:47:27.400Z</time>
      </trkpt>
      <trkpt lat="46.101973" lon="10.970318">
        <ele>1769.700590</ele>
        <time>2020-09-01T09:47:32.397Z</time>
      </trkpt>
      <trkpt lat="46.102049" lon="10.970436">
        <ele>1770.580240</ele>
        <time>2020-09-01T09:47:37.404Z</time>
      </trkpt>
      <trkpt lat="46.102114" lon="10.970548">
        <ele>1771.377970</ele>
        <time>2020-09-01T09:47:44.393Z</time>
      </trkpt>
      <trkpt lat="46.102173" lon="10.970651">
        <ele>1772.062315</ele>
        <time>2020-09-01T09:47:50.396Z</time>
      </trkpt>
      <trkpt lat="46.102234" lon="10.970750">
        <ele>1772.719963</ele>
        <time>2020-09-01T09:47:55.400Z</time>
      </trkpt>
      <trkpt lat="46.102302" lon="10.970857">
        <ele>1773.440690</ele>
        <time>2020-09-01T09:47:59.399Z</time>
      </trkpt>
      <trkpt lat="46.102376" lon="10.970981">
        <ele>1774.253075</ele>
        <time>2020-09-01T09:48:02.399Z</time>
      </trkpt>
      <trkpt lat="46.102459" lon="10.971084">
        <ele>1775.037230</ele>
        <time>2020-09-01T09:48:05.396Z</time>
      </trkpt>
      <trkpt lat="46.102565" lon="10.971158">
        <ele>1775.880602</ele>
        <time>2020-09-01T09:48:08.401Z</time>
      </trkpt>
      <trkpt lat="46.102652" lon="10.971225">
        <ele>1776.586912</ele>
        <time>2020-09-01T09:48:11.398Z</time>
      </trkpt>
      <trkpt lat="46.102751" lon="10.971285">
        <ele>1777.355953</ele>
        <time>2020-09-01T09:48:15.434Z</time>
      </trkpt>
      <trkpt lat="46.102835" lon="10.971336">
        <ele>1778.008648</ele>
        <time>2020-09-01T09:48:20.413Z</time>
      </trkpt>
      <trkpt lat="46.102928" lon="10.971412">
        <ele>1778.774150</ele>
        <time>2020-09-01T09:48:26.402Z</time>
      </trkpt>
      <trkpt lat="46.103018" lon="10.971486">
        <ele>1779.516067</ele>
        <time>2020-09-01T09:48:30.398Z</time>
      </trkpt>
      <trkpt lat="46.103095" lon="10.971563">
        <ele>1780.187085</ele>
        <time>2020-09-01T09:48:34.392Z</time>
      </trkpt>
      <trkpt lat="46.103162" lon="10.971661">
        <ele>1780.870477</ele>
        <time>2020-09-01T09:48:39.401Z</time>
      </trkpt>
      <trkpt lat="46.103240" lon="10.971728">
        <ele>1781.520638</ele>
        <time>2020-09-01T09:48:44.398Z</time>
      </trkpt>
      <trkpt lat="46.103318" lon="10.971796">
        <ele>1782.173353</ele>
        <time>2020-09-01T09:48:49.402Z</time>
      </trkpt>
      <trkpt lat="46.103401" lon="10.971856">
        <ele>1782.838241</ele>
        <time>2020-09-01T09:48:53.437Z</time>
      </trkpt>
      <trkpt lat="46.103481" lon="10.971946">
        <ele>1783.564841</ele>
        <time>2020-09-01T09:48:59.390Z</time>
      </trkpt>
      <trkpt lat="46.103561" lon="10.972045">
        <ele>1784.319749</ele>
        <time>2020-09-01T09:49:04.386Z</time>
      </trkpt>
      <trkpt lat="46.103624" lon="10.972161">
        <ele>1784.904547</ele>
        <time>2020-09-01T09:49:09.372Z</time>
      </trkpt>
      <trkpt lat="46.103686" lon="10.972269">
        <ele>1785.418875</ele>
        <time>2020-09-01T09:49:12.371Z</time>
      </trkpt>
      <trkpt lat="46.103733" lon="10.972398">
        <ele>1785.953419</ele>
        <time>2020-09-01T09:49:17.376Z</time>
      </trkpt>
      <trkpt lat="46.103798" lon="10.972496">
        <ele>1786.450890</ele>
        <time>2020-09-01T09:49:22.387Z</time>
      </trkpt>
      <trkpt lat="46.103828" lon="10.972619">
        <ele>1786.929174</ele>
        <time>2020-09-01T09:49:27.419Z</time>
      </trkpt>
      <trkpt lat="46.103843" lon="10.972747">
        <ele>1787.405356</ele>
        <time>2020-09-01T09:49:31.394Z</time>
      </trkpt>
      <trkpt lat="46.103917" lon="10.972889">
        <ele>1788.056953</ele>
        <time>2020-09-01T09:49:35.396Z</time>
      </trkpt>
      <trkpt lat="46.104018" lon="10.972885">
        <ele>1788.591489</ele>
        <time>2020-09-01T09:49:41.401Z</time>
      </trkpt>
      <trkpt lat="46.104120" lon="10.972848">
        <ele>1789.147920</ele>
        <time>2020-09-01T09:49:47.388Z</time>
      </trkpt>
      <trkpt lat="46.104221" lon="10.972852">
        <ele>1789.682456</ele>
        <time>2020-09-01T09:49:52.399Z</time>
      </trkpt>
      <trkpt lat="46.104323" lon="10.972844">
        <ele>1790.222878</ele>
        <time>2020-09-01T09:49:56.398Z</time>
      </trkpt>
      <trkpt lat="46.104426" lon="10.972858">
        <ele>1790.770208</ele>
        <time>2020-09-01T09:50:00.397Z</time>
      </trkpt>
      <trkpt lat="46.104521" lon="10.972914">
        <ele>1791.313157</ele>
        <time>2020-09-01T09:50:04.397Z</time>
      </trkpt>
      <trkpt lat="46.104607" lon="10.972960">
        <ele>1791.798415</ele>
        <time>2020-09-01T09:50:08.417Z</time>
      </trkpt>
      <trkpt lat="46.104694" lon="10.973013">
        <ele>1792.298057</ele>
        <time>2020-09-01T09:50:13.409Z</time>
      </trkpt>
      <trkpt lat="46.104785" lon="10.973054">
        <ele>1792.802431</ele>
        <time>2020-09-01T09:50:18.404Z</time>
      </trkpt>
      <trkpt lat="46.104887" lon="10.973083">
        <ele>1793.352440</ele>
        <time>2020-09-01T09:50:23.438Z</time>
      </trkpt>
      <trkpt lat="46.104992" lon="10.973103">
        <ele>1793.912760</ele>
        <time>2020-09-01T09:50:28.393Z</time>
      </trkpt>
      <trkpt lat="46.105087" lon="10.973124">
        <ele>1794.716933</ele>
        <time>2020-09-01T09:50:32.401Z</time>
      </trkpt>
      <trkpt lat="46.105171" lon="10.973180">
        <ele>1795.554258</ele>
        <time>2020-09-01T09:50:35.398Z</time>
      </trkpt>
      <trkpt lat="46.105262" lon="10.973244">
        <ele>1796.470330</ele>
        <time>2020-09-01T09:50:38.417Z</time>
      </trkpt>
      <trkpt lat="46.105349" lon="10.973310">
        <ele>1797.359784</ele>
        <time>2020-09-01T09:50:41.395Z</time>
      </trkpt>
      <trkpt lat="46.105439" lon="10.973389">
        <ele>1798.313088</ele>
        <time>2020-09-01T09:50:44.401Z</time>
      </trkpt>
      <trkpt lat="46.105545" lon="10.973410">
        <ele>1799.281215</ele>
        <time>2020-09-01T09:50:47.391Z</time>
      </trkpt>
      <trkpt lat="46.105638" lon="10.973441">
        <ele>1800.144889</ele>
        <time>2020-09-01T09:50:54.403Z</time>
      </trkpt>
      <trkpt lat="46.105729" lon="10.973496">
        <ele>1801.037657</ele>
        <time>2020-09-01T09:51:03.397Z</time>
      </trkpt>
      <trkpt lat="46.105814" lon="10.973547">
        <ele>1801.870658</ele>
        <time>2020-09-01T09:51:10.403Z</time>
      </trkpt>
      <trkpt lat="46.105898" lon="10.973617">
        <ele>1802.748458</ele>
        <time>2020-09-01T09:51:16.398Z</time>
      </trkpt>
      <trkpt lat="46.105973" lon="10.973696">
        <ele>1803.588786</ele>
        <time>2020-09-01T09:51:21.405Z</time>
      </trkpt>
      <trkpt lat="46.106032" lon="10.973799">
        <ele>1804.426953</ele>
        <time>2020-09-01T09:51:25.401Z</time>
      </trkpt>
      <trkpt lat="46.106079" lon="10.973943">
        <ele>1805.425421</ele>
        <time>2020-09-01T09:51:30.400Z</time>
      </trkpt>
      <trkpt lat="46.106123" lon="10.974080">
        <ele>1806.372614</ele>
        <time>2020-09-01T09:51:35.405Z</time>
      </trkpt>
      <trkpt lat="46.106157" lon="10.974223">
        <ele>1807.320996</ele>
        <time>2020-09-01T09:51:38.409Z</time>
      </trkpt>
      <trkpt lat="46.106176" lon="10.974389">
        <ele>1808.376478</ele>
        <time>2020-09-01T09:51:41.406Z</time>
      </trkpt>
      <trkpt lat="46.106155" lon="10.974538">
        <ele>1809.330335</ele>
        <time>2020-09-01T09:51:45.423Z</time>
      </trkpt>
      <trkpt lat="46.106140" lon="10.974673">
        <ele>1810.188053</ele>
        <time>2020-09-01T09:51:48.400Z</time>
      </trkpt>
      <trkpt lat="46.106084" lon="10.974785">
        <ele>1809.745910</ele>
        <time>2020-09-01T09:51:53.402Z</time>
      </trkpt>
      <trkpt lat="46.106232" lon="10.974746">
        <ele>1808.808154</ele>
        <time>2020-09-01T09:53:35.396Z</time>
      </trkpt>
      <trkpt lat="46.106325" lon="10.974668">
        <ele>1808.137603</ele>
        <time>2020-09-01T09:53:39.393Z</time>
      </trkpt>
      <trkpt lat="46.106415" lon="10.974582">
        <ele>1807.464690</ele>
        <time>2020-09-01T09:53:43.399Z</time>
      </trkpt>
      <trkpt lat="46.106508" lon="10.974521">
        <ele>1806.827894</ele>
        <time>2020-09-01T09:53:47.405Z</time>
      </trkpt>
      <trkpt lat="46.106602" lon="10.974453">
        <ele>1806.172427</ele>
        <time>2020-09-01T09:53:51.399Z</time>
      </trkpt>
      <trkpt lat="46.106691" lon="10.974424">
        <ele>1805.603709</ele>
        <time>2020-09-01T09:53:55.397Z</time>
      </trkpt>
      <trkpt lat="46.106786" lon="10.974408">
        <ele>1805.007548</ele>
        <time>2020-09-01T09:53:59.393Z</time>
      </trkpt>
      <trkpt lat="46.106877" lon="10.974384">
        <ele>1804.430939</ele>
        <time>2020-09-01T09:54:03.400Z</time>
      </trkpt>
      <trkpt lat="46.106974" lon="10.974343">
        <ele>1803.800910</ele>
        <time>2020-09-01T09:54:07.397Z</time>
      </trkpt>
      <trkpt lat="46.107061" lon="10.974302">
        <ele>1803.230426</ele>
        <time>2020-09-01T09:54:10.399Z</time>
      </trkpt>
      <trkpt lat="46.107172" lon="10.974305">
        <ele>1802.538439</ele>
        <time>2020-09-01T09:54:13.410Z</time>
      </trkpt>
      <trkpt lat="46.107259" lon="10.974338">
        <ele>1801.977729</ele>
        <time>2020-09-01T09:54:15.399Z</time>
      </trkpt>
      <trkpt lat="46.107361" lon="10.974381">
        <ele>1801.315361</ele>
        <time>2020-09-01T09:54:18.399Z</time>
      </trkpt>
      <trkpt lat="46.107465" lon="10.974416">
        <ele>1800.649716</ele>
        <time>2020-09-01T09:54:21.381Z</time>
      </trkpt>
      <trkpt lat="46.107576" lon="10.974454">
        <ele>1799.938630</ele>
        <time>2020-09-01T09:54:25.399Z</time>
      </trkpt>
      <trkpt lat="46.107682" lon="10.974509">
        <ele>1799.236480</ele>
        <time>2020-09-01T09:54:29.407Z</time>
      </trkpt>
      <trkpt lat="46.107785" lon="10.974604">
        <ele>1799.378043</ele>
        <time>2020-09-01T09:54:33.391Z</time>
      </trkpt>
      <trkpt lat="46.107882" lon="10.974671">
        <ele>1799.727145</ele>
        <time>2020-09-01T09:54:36.397Z</time>
      </trkpt>
      <trkpt lat="46.107980" lon="10.974687">
        <ele>1800.047284</ele>
        <time>2020-09-01T09:54:39.418Z</time>
      </trkpt>
      <trkpt lat="46.108088" lon="10.974648">
        <ele>1800.408670</ele>
        <time>2020-09-01T09:54:43.410Z</time>
      </trkpt>
      <trkpt lat="46.108185" lon="10.974706">
        <ele>1800.749514</ele>
        <time>2020-09-01T09:54:48.388Z</time>
      </trkpt>
      <trkpt lat="46.108285" lon="10.974765">
        <ele>1801.100218</ele>
        <time>2020-09-01T09:54:53.391Z</time>
      </trkpt>
      <trkpt lat="46.108402" lon="10.974770">
        <ele>1801.480166</ele>
        <time>2020-09-01T09:54:57.436Z</time>
      </trkpt>
      <trkpt lat="46.108503" lon="10.974786">
        <ele>1801.809982</ele>
        <time>2020-09-01T09:55:01.406Z</time>
      </trkpt>
      <trkpt lat="46.108578" lon="10.974870">
        <ele>1802.118206</ele>
        <time>2020-09-01T09:55:06.401Z</time>
      </trkpt>
      <trkpt lat="46.108633" lon="10.974983">
        <ele>1802.428915</ele>
        <time>2020-09-01T09:55:11.404Z</time>
      </trkpt>
      <trkpt lat="46.108677" lon="10.975102">
        <ele>1802.732420</ele>
        <time>2020-09-01T09:55:41.388Z</time>
      </trkpt>
      <trkpt lat="46.108744" lon="10.975202">
        <ele>1803.045377</ele>
        <time>2020-09-01T09:55:46.394Z</time>
      </trkpt>
      <trkpt lat="46.108817" lon="10.975304">
        <ele>1803.375284</ele>
        <time>2020-09-01T09:55:51.438Z</time>
      </trkpt>
      <trkpt lat="46.108881" lon="10.975397">
        <ele>1803.670172</ele>
        <time>2020-09-01T09:55:55.398Z</time>
      </trkpt>
      <trkpt lat="46.108951" lon="10.975482">
        <ele>1803.967188</ele>
        <time>2020-09-01T09:55:59.398Z</time>
      </trkpt>
      <trkpt lat="46.109021" lon="10.975572">
        <ele>1804.271572</ele>
        <time>2020-09-01T09:56:03.397Z</time>
      </trkpt>
      <trkpt lat="46.109114" lon="10.975666">
        <ele>1804.640188</ele>
        <time>2020-09-01T09:56:07.392Z</time>
      </trkpt>
      <trkpt lat="46.109202" lon="10.975735">
        <ele>1804.948133</ele>
        <time>2020-09-01T09:56:10.400Z</time>
      </trkpt>
      <trkpt lat="46.109307" lon="10.975834">
        <ele>1805.235382</ele>
        <time>2020-09-01T09:56:13.400Z</time>
      </trkpt>
      <trkpt lat="46.109401" lon="10.975921">
        <ele>1805.491132</ele>
        <time>2020-09-01T09:56:16.399Z</time>
      </trkpt>
      <trkpt lat="46.109474" lon="10.976012">
        <ele>1805.712069</ele>
        <time>2020-09-01T09:56:19.449Z</time>
      </trkpt>
      <trkpt lat="46.109535" lon="10.976112">
        <ele>1805.923526</ele>
        <time>2020-09-01T09:56:22.398Z</time>
      </trkpt>
      <trkpt lat="46.109595" lon="10.976222">
        <ele>1806.145724</ele>
        <time>2020-09-01T09:56:25.462Z</time>
      </trkpt>
      <trkpt lat="46.109666" lon="10.976323">
        <ele>1806.374070</ele>
        <time>2020-09-01T09:56:57.404Z</time>
      </trkpt>
      <trkpt lat="46.109737" lon="10.976423">
        <ele>1806.601303</ele>
        <time>2020-09-01T09:57:02.393Z</time>
      </trkpt>
      <trkpt lat="46.109814" lon="10.976505">
        <ele>1806.820473</ele>
        <time>2020-09-01T09:57:07.402Z</time>
      </trkpt>
      <trkpt lat="46.109875" lon="10.976612">
        <ele>1807.040394</ele>
        <time>2020-09-01T09:57:12.395Z</time>
      </trkpt>
      <trkpt lat="46.109898" lon="10.976762">
        <ele>1807.284277</ele>
        <time>2020-09-01T09:57:18.416Z</time>
      </trkpt>
      <trkpt lat="46.109961" lon="10.976862">
        <ele>1807.498786</ele>
        <time>2020-09-01T09:57:23.404Z</time>
      </trkpt>
      <trkpt lat="46.110035" lon="10.976972">
        <ele>1807.742114</ele>
        <time>2020-09-01T09:57:28.409Z</time>
      </trkpt>
      <trkpt lat="46.110066" lon="10.977116">
        <ele>1807.981484</ele>
        <time>2020-09-01T09:57:32.402Z</time>
      </trkpt>
      <trkpt lat="46.110090" lon="10.977245">
        <ele>1808.193520</ele>
        <time>2020-09-01T09:57:36.395Z</time>
      </trkpt>
      <trkpt lat="46.110146" lon="10.977384">
        <ele>1808.448739</ele>
        <time>2020-09-01T09:57:41.397Z</time>
      </trkpt>
      <trkpt lat="46.110228" lon="10.977473">
        <ele>1808.683729</ele>
        <time>2020-09-01T09:57:45.396Z</time>
      </trkpt>
      <trkpt lat="46.110321" lon="10.977495">
        <ele>1808.899533</ele>
        <time>2020-09-01T09:57:49.394Z</time>
      </trkpt>
      <trkpt lat="46.110432" lon="10.977512">
        <ele>1808.993225</ele>
        <time>2020-09-01T09:57:53.405Z</time>
      </trkpt>
      <trkpt lat="46.110514" lon="10.977567">
        <ele>1808.941330</ele>
        <time>2020-09-01T09:57:56.401Z</time>
      </trkpt>
      <trkpt lat="46.110578" lon="10.977705">
        <ele>1808.875277</ele>
        <time>2020-09-01T09:58:00.415Z</time>
      </trkpt>
      <trkpt lat="46.110599" lon="10.977840">
        <ele>1808.820234</ele>
        <time>2020-09-01T09:58:04.406Z</time>
      </trkpt>
      <trkpt lat="46.110662" lon="10.977980">
        <ele>1808.753832</ele>
        <time>2020-09-01T09:58:09.396Z</time>
      </trkpt>
      <trkpt lat="46.110724" lon="10.978107">
        <ele>1808.692036</ele>
        <time>2020-09-01T09:58:14.396Z</time>
      </trkpt>
      <trkpt lat="46.110805" lon="10.978195">
        <ele>1808.633845</ele>
        <time>2020-09-01T09:58:18.399Z</time>
      </trkpt>
      <trkpt lat="46.110894" lon="10.978256">
        <ele>1808.577299</ele>
        <time>2020-09-01T09:58:23.397Z</time>
      </trkpt>
      <trkpt lat="46.110989" lon="10.978334">
        <ele>1808.514570</ele>
        <time>2020-09-01T09:58:28.402Z</time>
      </trkpt>
      <trkpt lat="46.111070" lon="10.978392">
        <ele>1808.462675</ele>
        <time>2020-09-01T09:58:32.442Z</time>
      </trkpt>
      <trkpt lat="46.111137" lon="10.978494">
        <ele>1808.406774</ele>
        <time>2020-09-01T09:58:37.394Z</time>
      </trkpt>
      <trkpt lat="46.111136" lon="10.978361">
        <ele>1808.353859</ele>
        <time>2020-09-01T09:58:58.397Z</time>
      </trkpt>
      <trkpt lat="46.111160" lon="10.978230">
        <ele>1808.299954</ele>
        <time>2020-09-01T09:59:17.364Z</time>
      </trkpt>
      <trkpt lat="46.111165" lon="10.978040">
        <ele>1808.224312</ele>
        <time>2020-09-01T09:59:42.374Z</time>
      </trkpt>
      <trkpt lat="46.111253" lon="10.977998">
        <ele>1808.171120</ele>
        <time>2020-09-01T09:59:53.379Z</time>
      </trkpt>
      <trkpt lat="46.111147" lon="10.978009">
        <ele>1808.110134</ele>
        <time>2020-09-01T10:02:02.421Z</time>
      </trkpt>
      <trkpt lat="46.111150" lon="10.978207">
        <ele>1808.031344</ele>
        <time>2020-09-01T10:02:40.392Z</time>
      </trkpt>
      <trkpt lat="46.111105" lon="10.978352">
        <ele>1807.282943</ele>
        <time>2020-09-01T10:09:32.444Z</time>
      </trkpt>
      <trkpt lat="46.111099" lon="10.978493">
        <ele>1805.708602</ele>
        <time>2020-09-01T10:09:49.397Z</time>
      </trkpt>
      <trkpt lat="46.111160" lon="10.978588">
        <ele>1804.265512</ele>
        <time>2020-09-01T10:10:07.392Z</time>
      </trkpt>
      <trkpt lat="46.111177" lon="10.978724">
        <ele>1802.725413</ele>
        <time>2020-09-01T10:10:46.440Z</time>
      </trkpt>
      <trkpt lat="46.111172" lon="10.978864">
        <ele>1801.163106</ele>
        <time>2020-09-01T10:11:12.408Z</time>
      </trkpt>
      <trkpt lat="46.111146" lon="10.978992">
        <ele>1799.676632</ele>
        <time>2020-09-01T10:11:21.395Z</time>
      </trkpt>
      <trkpt lat="46.111111" lon="10.979124">
        <ele>1798.101624</ele>
        <time>2020-09-01T10:11:42.409Z</time>
      </trkpt>
      <trkpt lat="46.111087" lon="10.979257">
        <ele>1796.570008</ele>
        <time>2020-09-01T10:11:51.408Z</time>
      </trkpt>
      <trkpt lat="46.111077" lon="10.979386">
        <ele>1795.123398</ele>
        <time>2020-09-01T10:12:03.381Z</time>
      </trkpt>
      <trkpt lat="46.111028" lon="10.979502">
        <ele>1793.609552</ele>
        <time>2020-09-01T10:12:17.394Z</time>
      </trkpt>
      <trkpt lat="46.110963" lon="10.979600">
        <ele>1792.098039</ele>
        <time>2020-09-01T10:12:42.413Z</time>
      </trkpt>
      <trkpt lat="46.110928" lon="10.979725">
        <ele>1790.595633</ele>
        <time>2020-09-01T10:12:53.399Z</time>
      </trkpt>
      <trkpt lat="46.110865" lon="10.979831">
        <ele>1789.039606</ele>
        <time>2020-09-01T10:13:08.390Z</time>
      </trkpt>
      <trkpt lat="46.110816" lon="10.979946">
        <ele>1787.535262</ele>
        <time>2020-09-01T10:13:22.384Z</time>
      </trkpt>
      <trkpt lat="46.110874" lon="10.980046">
        <ele>1786.082210</ele>
        <time>2020-09-01T10:13:38.442Z</time>
      </trkpt>
      <trkpt lat="46.110859" lon="10.980179">
        <ele>1784.580490</ele>
        <time>2020-09-01T10:14:02.397Z</time>
      </trkpt>
      <trkpt lat="46.110821" lon="10.980299">
        <ele>1783.110225</ele>
        <time>2020-09-01T10:14:14.397Z</time>
      </trkpt>
      <trkpt lat="46.110804" lon="10.980430">
        <ele>1781.624922</ele>
        <time>2020-09-01T10:14:31.396Z</time>
      </trkpt>
      <trkpt lat="46.110850" lon="10.980553">
        <ele>1780.067397</ele>
        <time>2020-09-01T10:14:43.401Z</time>
      </trkpt>
      <trkpt lat="46.110928" lon="10.980623">
        <ele>1778.662374</ele>
        <time>2020-09-01T10:14:57.396Z</time>
      </trkpt>
      <trkpt lat="46.111023" lon="10.980637">
        <ele>1777.352606</ele>
        <time>2020-09-01T10:15:08.400Z</time>
      </trkpt>
      <trkpt lat="46.111138" lon="10.980685">
        <ele>1775.710600</ele>
        <time>2020-09-01T10:18:36.406Z</time>
      </trkpt>
      <trkpt lat="46.111229" lon="10.980716">
        <ele>1774.428143</ele>
        <time>2020-09-01T10:18:53.389Z</time>
      </trkpt>
      <trkpt lat="46.111327" lon="10.980719">
        <ele>1773.083707</ele>
        <time>2020-09-01T10:19:02.383Z</time>
      </trkpt>
      <trkpt lat="46.111421" lon="10.980699">
        <ele>1771.780487</ele>
        <time>2020-09-01T10:19:10.404Z</time>
      </trkpt>
      <trkpt lat="46.111511" lon="10.980749">
        <ele>1770.457690</ele>
        <time>2020-09-01T10:19:19.397Z</time>
      </trkpt>
      <trkpt lat="46.111605" lon="10.980785">
        <ele>1769.123753</ele>
        <time>2020-09-01T10:19:28.411Z</time>
      </trkpt>
      <trkpt lat="46.111676" lon="10.980867">
        <ele>1767.876264</ele>
        <time>2020-09-01T10:19:36.396Z</time>
      </trkpt>
      <trkpt lat="46.111767" lon="10.980932">
        <ele>1766.483499</ele>
        <time>2020-09-01T10:19:45.388Z</time>
      </trkpt>
      <trkpt lat="46.111863" lon="10.980957">
        <ele>1765.145512</ele>
        <time>2020-09-01T10:19:53.386Z</time>
      </trkpt>
      <trkpt lat="46.111956" lon="10.980956">
        <ele>1763.869922</ele>
        <time>2020-09-01T10:20:07.384Z</time>
      </trkpt>
      <trkpt lat="46.112055" lon="10.980956">
        <ele>1762.512073</ele>
        <time>2020-09-01T10:20:21.381Z</time>
      </trkpt>
      <trkpt lat="46.112182" lon="10.980987">
        <ele>1760.745423</ele>
        <time>2020-09-01T10:24:24.387Z</time>
      </trkpt>
      <trkpt lat="46.112280" lon="10.980991">
        <ele>1759.400752</ele>
        <time>2020-09-01T10:24:28.386Z</time>
      </trkpt>
      <trkpt lat="46.112377" lon="10.980974">
        <ele>1758.060551</ele>
        <time>2020-09-01T10:24:35.404Z</time>
      </trkpt>
      <trkpt lat="46.112473" lon="10.981003">
        <ele>1756.715287</ele>
        <time>2020-09-01T10:24:41.387Z</time>
      </trkpt>
      <trkpt lat="46.112575" lon="10.981054">
        <ele>1755.234632</ele>
        <time>2020-09-01T10:24:46.386Z</time>
      </trkpt>
      <trkpt lat="46.112682" lon="10.981082">
        <ele>1753.893351</ele>
        <time>2020-09-01T10:24:49.408Z</time>
      </trkpt>
      <trkpt lat="46.112871" lon="10.981121">
        <ele>1751.864843</ele>
        <time>2020-09-01T10:24:51.411Z</time>
      </trkpt>
      <trkpt lat="46.112968" lon="10.981136">
        <ele>1750.828343</ele>
        <time>2020-09-01T10:24:57.384Z</time>
      </trkpt>
      <trkpt lat="46.113062" lon="10.981162">
        <ele>1749.811429</ele>
        <time>2020-09-01T10:25:01.389Z</time>
      </trkpt>
      <trkpt lat="46.113197" lon="10.981174">
        <ele>1748.374375</ele>
        <time>2020-09-01T10:25:04.387Z</time>
      </trkpt>
      <trkpt lat="46.113313" lon="10.981147">
        <ele>1747.125970</ele>
        <time>2020-09-01T10:25:06.376Z</time>
      </trkpt>
      <trkpt lat="46.113433" lon="10.981199">
        <ele>1745.794723</ele>
        <time>2020-09-01T10:25:09.372Z</time>
      </trkpt>
      <trkpt lat="46.113517" lon="10.981267">
        <ele>1744.771319</ele>
        <time>2020-09-01T10:25:12.380Z</time>
      </trkpt>
      <trkpt lat="46.113620" lon="10.981323">
        <ele>1743.601828</ele>
        <time>2020-09-01T10:25:15.399Z</time>
      </trkpt>
      <trkpt lat="46.113707" lon="10.981372">
        <ele>1742.609523</ele>
        <time>2020-09-01T10:25:20.381Z</time>
      </trkpt>
      <trkpt lat="46.113830" lon="10.981435">
        <ele>1741.222753</ele>
        <time>2020-09-01T10:25:52.392Z</time>
      </trkpt>
      <trkpt lat="46.113948" lon="10.981504">
        <ele>1739.869951</ele>
        <time>2020-09-01T10:25:55.377Z</time>
      </trkpt>
      <trkpt lat="46.114042" lon="10.981523">
        <ele>1738.861474</ele>
        <time>2020-09-01T10:25:57.378Z</time>
      </trkpt>
      <trkpt lat="46.114145" lon="10.981649">
        <ele>1737.426615</ele>
        <time>2020-09-01T10:25:59.368Z</time>
      </trkpt>
      <trkpt lat="46.114229" lon="10.981740">
        <ele>1736.310492</ele>
        <time>2020-09-01T10:26:02.378Z</time>
      </trkpt>
      <trkpt lat="46.114314" lon="10.981817">
        <ele>1735.283723</ele>
        <time>2020-09-01T10:26:06.392Z</time>
      </trkpt>
      <trkpt lat="46.114389" lon="10.981912">
        <ele>1734.978077</ele>
        <time>2020-09-01T10:26:09.398Z</time>
      </trkpt>
      <trkpt lat="46.114414" lon="10.982036">
        <ele>1734.703937</ele>
        <time>2020-09-01T10:26:12.383Z</time>
      </trkpt>
      <trkpt lat="46.114476" lon="10.982157">
        <ele>1734.384521</ele>
        <time>2020-09-01T10:26:28.403Z</time>
      </trkpt>
      <trkpt lat="46.114567" lon="10.982222">
        <ele>1734.073562</ele>
        <time>2020-09-01T10:26:31.399Z</time>
      </trkpt>
      <trkpt lat="46.114658" lon="10.982255">
        <ele>1733.786223</ele>
        <time>2020-09-01T10:26:34.384Z</time>
      </trkpt>
      <trkpt lat="46.114762" lon="10.982301">
        <ele>1733.453110</ele>
        <time>2020-09-01T10:26:38.432Z</time>
      </trkpt>
      <trkpt lat="46.114852" lon="10.982310">
        <ele>1733.176843</ele>
        <time>2020-09-01T10:26:41.390Z</time>
      </trkpt>
      <trkpt lat="46.114958" lon="10.982318">
        <ele>1732.851796</ele>
        <time>2020-09-01T10:26:47.387Z</time>
      </trkpt>
      <trkpt lat="46.115069" lon="10.982332">
        <ele>1732.510585</ele>
        <time>2020-09-01T10:26:51.395Z</time>
      </trkpt>
      <trkpt lat="46.115178" lon="10.982363">
        <ele>1732.170370</ele>
        <time>2020-09-01T10:26:56.379Z</time>
      </trkpt>
      <trkpt lat="46.115274" lon="10.982394">
        <ele>1731.869115</ele>
        <time>2020-09-01T10:27:00.416Z</time>
      </trkpt>
      <trkpt lat="46.115381" lon="10.982395">
        <ele>1731.541443</ele>
        <time>2020-09-01T10:27:04.381Z</time>
      </trkpt>
      <trkpt lat="46.115481" lon="10.982428">
        <ele>1731.227303</ele>
        <time>2020-09-01T10:27:09.378Z</time>
      </trkpt>
      <trkpt lat="46.115570" lon="10.982466">
        <ele>1730.943072</ele>
        <time>2020-09-01T10:27:13.377Z</time>
      </trkpt>
      <trkpt lat="46.115657" lon="10.982499">
        <ele>1730.667597</ele>
        <time>2020-09-01T10:27:17.377Z</time>
      </trkpt>
      <trkpt lat="46.115889" lon="10.983097">
        <ele>1729.044997</ele>
        <time>2020-09-01T10:27:32.425Z</time>
      </trkpt>
      <trkpt lat="46.115958" lon="10.983013">
        <ele>1728.688334</ele>
        <time>2020-09-01T10:27:40.373Z</time>
      </trkpt>
      <trkpt lat="46.116044" lon="10.982953">
        <ele>1728.310959</ele>
        <time>2020-09-01T10:30:02.389Z</time>
      </trkpt>
      <trkpt lat="46.116158" lon="10.983083">
        <ele>1727.736907</ele>
        <time>2020-09-01T10:31:13.399Z</time>
      </trkpt>
      <trkpt lat="46.116258" lon="10.983074">
        <ele>1727.341104</ele>
        <time>2020-09-01T10:31:18.384Z</time>
      </trkpt>
      <trkpt lat="46.116163" lon="10.983046">
        <ele>1726.958067</ele>
        <time>2020-09-01T10:31:28.426Z</time>
      </trkpt>
      <trkpt lat="46.115658" lon="10.981661">
        <ele>1722.657170</ele>
        <time>2020-09-01T10:32:05.397Z</time>
      </trkpt>
      <trkpt lat="46.115641" lon="10.981504">
        <ele>1721.731281</ele>
        <time>2020-09-01T10:32:11.389Z</time>
      </trkpt>
      <trkpt lat="46.115673" lon="10.981381">
        <ele>1720.965782</ele>
        <time>2020-09-01T10:32:14.410Z</time>
      </trkpt>
      <trkpt lat="46.116127" lon="10.980917">
        <ele>1716.289036</ele>
        <time>2020-09-01T10:32:15.392Z</time>
      </trkpt>
      <trkpt lat="46.117838" lon="10.982350">
        <ele>1702.627044</ele>
        <time>2020-09-01T10:32:17.373Z</time>
      </trkpt>
      <trkpt lat="46.117942" lon="10.982331">
        <ele>1702.076546</ele>
        <time>2020-09-01T10:32:19.365Z</time>
      </trkpt>
      <trkpt lat="46.118055" lon="10.982342">
        <ele>1701.481799</ele>
        <time>2020-09-01T10:32:22.378Z</time>
      </trkpt>
      <trkpt lat="46.118164" lon="10.982344">
        <ele>1700.909360</ele>
        <time>2020-09-01T10:32:30.384Z</time>
      </trkpt>
      <trkpt lat="46.118277" lon="10.982406">
        <ele>1700.274495</ele>
        <time>2020-09-01T10:32:33.395Z</time>
      </trkpt>
      <trkpt lat="46.118370" lon="10.982515">
        <ele>1699.645265</ele>
        <time>2020-09-01T10:32:37.379Z</time>
      </trkpt>
      <trkpt lat="46.118489" lon="10.982532">
        <ele>1699.017303</ele>
        <time>2020-09-01T10:32:40.379Z</time>
      </trkpt>
      <trkpt lat="46.118586" lon="10.982551">
        <ele>1698.503252</ele>
        <time>2020-09-01T10:32:45.381Z</time>
      </trkpt>
      <trkpt lat="46.118686" lon="10.982541">
        <ele>1697.952124</ele>
        <time>2020-09-01T10:32:49.385Z</time>
      </trkpt>
      <trkpt lat="46.118787" lon="10.982508">
        <ele>1697.316145</ele>
        <time>2020-09-01T10:32:58.431Z</time>
      </trkpt>
      <trkpt lat="46.118918" lon="10.982525">
        <ele>1696.508388</ele>
        <time>2020-09-01T10:33:02.395Z</time>
      </trkpt>
      <trkpt lat="46.119009" lon="10.982550">
        <ele>1695.939488</ele>
        <time>2020-09-01T10:33:08.391Z</time>
      </trkpt>
      <trkpt lat="46.119092" lon="10.982608">
        <ele>1695.373112</ele>
        <time>2020-09-01T10:34:06.388Z</time>
      </trkpt>
      <trkpt lat="46.119271" lon="10.982557">
        <ele>1694.252588</ele>
        <time>2020-09-01T10:34:32.444Z</time>
      </trkpt>
      <trkpt lat="46.119360" lon="10.982469">
        <ele>1693.589962</ele>
        <time>2020-09-01T10:34:35.393Z</time>
      </trkpt>
      <trkpt lat="46.119457" lon="10.982427">
        <ele>1692.968005</ele>
        <time>2020-09-01T10:34:38.387Z</time>
      </trkpt>
      <trkpt lat="46.119547" lon="10.982402">
        <ele>1692.405137</ele>
        <time>2020-09-01T10:34:41.391Z</time>
      </trkpt>
      <trkpt lat="46.119669" lon="10.982619">
        <ele>1691.215745</ele>
        <time>2020-09-01T10:34:42.404Z</time>
      </trkpt>
      <trkpt lat="46.119774" lon="10.982606">
        <ele>1690.568540</ele>
        <time>2020-09-01T10:34:45.403Z</time>
      </trkpt>
      <trkpt lat="46.119900" lon="10.982637">
        <ele>1689.783566</ele>
        <time>2020-09-01T10:34:48.387Z</time>
      </trkpt>
      <trkpt lat="46.120027" lon="10.982639">
        <ele>1689.003575</ele>
        <time>2020-09-01T10:34:51.388Z</time>
      </trkpt>
      <trkpt lat="46.120117" lon="10.982662">
        <ele>1688.442255</ele>
        <time>2020-09-01T10:34:53.395Z</time>
      </trkpt>
      <trkpt lat="46.120213" lon="10.982675">
        <ele>1687.850100</ele>
        <time>2020-09-01T10:34:55.389Z</time>
      </trkpt>
      <trkpt lat="46.120304" lon="10.982715">
        <ele>1687.265878</ele>
        <time>2020-09-01T10:34:57.391Z</time>
      </trkpt>
      <trkpt lat="46.120393" lon="10.982782">
        <ele>1686.718433</ele>
        <time>2020-09-01T10:35:01.389Z</time>
      </trkpt>
      <trkpt lat="46.120500" lon="10.982864">
        <ele>1686.094580</ele>
        <time>2020-09-01T10:35:06.386Z</time>
      </trkpt>
      <trkpt lat="46.120582" lon="10.982953">
        <ele>1685.566216</ele>
        <time>2020-09-01T10:35:10.381Z</time>
      </trkpt>
      <trkpt lat="46.120651" lon="10.983069">
        <ele>1685.020663</ele>
        <time>2020-09-01T10:35:16.421Z</time>
      </trkpt>
      <trkpt lat="46.120701" lon="10.983181">
        <ele>1684.545200</ele>
        <time>2020-09-01T10:35:38.417Z</time>
      </trkpt>
      <trkpt lat="46.120754" lon="10.983292">
        <ele>1684.064142</ele>
        <time>2020-09-01T10:35:44.384Z</time>
      </trkpt>
      <trkpt lat="46.120783" lon="10.983429">
        <ele>1683.552895</ele>
        <time>2020-09-01T10:35:50.392Z</time>
      </trkpt>
      <trkpt lat="46.121152" lon="10.984154">
        <ele>1680.342715</ele>
        <time>2020-09-01T10:36:08.448Z</time>
      </trkpt>
      <trkpt lat="46.121236" lon="10.984211">
        <ele>1679.864743</ele>
        <time>2020-09-01T10:36:11.375Z</time>
      </trkpt>
      <trkpt lat="46.121323" lon="10.984251">
        <ele>1679.394579</ele>
        <time>2020-09-01T10:36:14.380Z</time>
      </trkpt>
      <trkpt lat="46.121418" lon="10.984248">
        <ele>1678.905303</ele>
        <time>2020-09-01T10:36:20.381Z</time>
      </trkpt>
      <trkpt lat="46.121501" lon="10.984329">
        <ele>1678.389342</ele>
        <time>2020-09-01T10:36:56.388Z</time>
      </trkpt>
      <trkpt lat="46.121574" lon="10.984413">
        <ele>1677.908549</ele>
        <time>2020-09-01T10:37:02.385Z</time>
      </trkpt>
      <trkpt lat="46.121665" lon="10.984469">
        <ele>1677.953697</ele>
        <time>2020-09-01T10:37:07.382Z</time>
      </trkpt>
      <trkpt lat="46.121759" lon="10.984537">
        <ele>1678.133329</ele>
        <time>2020-09-01T10:37:11.393Z</time>
      </trkpt>
      <trkpt lat="46.121837" lon="10.984608">
        <ele>1678.290877</ele>
        <time>2020-09-01T10:37:20.385Z</time>
      </trkpt>
      <trkpt lat="46.121917" lon="10.984684">
        <ele>1678.454505</ele>
        <time>2020-09-01T10:37:30.385Z</time>
      </trkpt>
      <trkpt lat="46.122008" lon="10.984736">
        <ele>1678.621706</ele>
        <time>2020-09-01T10:37:38.401Z</time>
      </trkpt>
      <trkpt lat="46.122114" lon="10.984790">
        <ele>1678.813739</ele>
        <time>2020-09-01T10:37:43.389Z</time>
      </trkpt>
      <trkpt lat="46.122204" lon="10.984829">
        <ele>1678.974268</ele>
        <time>2020-09-01T10:37:47.400Z</time>
      </trkpt>
      <trkpt lat="46.122291" lon="10.984878">
        <ele>1679.133810</ele>
        <time>2020-09-01T10:37:52.385Z</time>
      </trkpt>
      <trkpt lat="46.122567" lon="10.985034">
        <ele>1679.640181</ele>
        <time>2020-09-01T10:39:09.395Z</time>
      </trkpt>
      <trkpt lat="46.122659" lon="10.985086">
        <ele>1679.808971</ele>
        <time>2020-09-01T10:39:12.407Z</time>
      </trkpt>
      <trkpt lat="46.122743" lon="10.985139">
        <ele>1679.965587</ele>
        <time>2020-09-01T10:39:15.405Z</time>
      </trkpt>
      <trkpt lat="46.122822" lon="10.985213">
        <ele>1680.126488</ele>
        <time>2020-09-01T10:39:19.396Z</time>
      </trkpt>
      <trkpt lat="46.122909" lon="10.985269">
        <ele>1680.289227</ele>
        <time>2020-09-01T10:39:23.400Z</time>
      </trkpt>
      <trkpt lat="46.123016" lon="10.985322">
        <ele>1680.482483</ele>
        <time>2020-09-01T10:39:28.396Z</time>
      </trkpt>
      <trkpt lat="46.123092" lon="10.985414">
        <ele>1680.651956</ele>
        <time>2020-09-01T10:39:32.394Z</time>
      </trkpt>
      <trkpt lat="46.123166" lon="10.985505">
        <ele>1680.818055</ele>
        <time>2020-09-01T10:39:36.417Z</time>
      </trkpt>
      <trkpt lat="46.123258" lon="10.985566">
        <ele>1680.398923</ele>
        <time>2020-09-01T10:39:41.414Z</time>
      </trkpt>
      <trkpt lat="46.123360" lon="10.985590">
        <ele>1679.559722</ele>
        <time>2020-09-01T10:39:46.394Z</time>
      </trkpt>
      <trkpt lat="46.123454" lon="10.985636">
        <ele>1678.753713</ele>
        <time>2020-09-01T10:39:53.387Z</time>
      </trkpt>
      <trkpt lat="46.123530" lon="10.985707">
        <ele>1678.018503</ele>
        <time>2020-09-01T10:39:59.381Z</time>
      </trkpt>
      <trkpt lat="46.123638" lon="10.985747">
        <ele>1677.113088</ele>
        <time>2020-09-01T10:40:04.400Z</time>
      </trkpt>
      <trkpt lat="46.123731" lon="10.985753">
        <ele>1676.357156</ele>
        <time>2020-09-01T10:40:08.397Z</time>
      </trkpt>
      <trkpt lat="46.123829" lon="10.985755">
        <ele>1675.561298</ele>
        <time>2020-09-01T10:40:14.381Z</time>
      </trkpt>
      <trkpt lat="46.123822" lon="10.985901">
        <ele>1674.737629</ele>
        <time>2020-09-01T10:40:18.379Z</time>
      </trkpt>
      <trkpt lat="46.124445" lon="10.986168">
        <ele>1669.460288</ele>
        <time>2020-09-01T10:42:21.384Z</time>
      </trkpt>
      <trkpt lat="46.124547" lon="10.986220">
        <ele>1668.581845</ele>
        <time>2020-09-01T10:42:28.380Z</time>
      </trkpt>
      <trkpt lat="46.124640" lon="10.986264">
        <ele>1667.787102</ele>
        <time>2020-09-01T10:42:32.388Z</time>
      </trkpt>
      <trkpt lat="46.124751" lon="10.986284">
        <ele>1666.878760</ele>
        <time>2020-09-01T10:42:35.382Z</time>
      </trkpt>
      <trkpt lat="46.124844" lon="10.986317">
        <ele>1666.180548</ele>
        <time>2020-09-01T10:42:39.385Z</time>
      </trkpt>
      <trkpt lat="46.124964" lon="10.986328">
        <ele>1665.631174</ele>
        <time>2020-09-01T10:42:44.384Z</time>
      </trkpt>
      <trkpt lat="46.125063" lon="10.986340">
        <ele>1665.177259</ele>
        <time>2020-09-01T10:42:48.398Z</time>
      </trkpt>
      <trkpt lat="46.125260" lon="10.986567">
        <ele>1664.025370</ele>
        <time>2020-09-01T10:44:08.399Z</time>
      </trkpt>
      <trkpt lat="46.125710" lon="10.987003">
        <ele>1661.548809</ele>
        <time>2020-09-01T10:44:19.384Z</time>
      </trkpt>
      <trkpt lat="46.125791" lon="10.987076">
        <ele>1661.112465</ele>
        <time>2020-09-01T10:44:23.397Z</time>
      </trkpt>
      <trkpt lat="46.125856" lon="10.987201">
        <ele>1660.617617</ele>
        <time>2020-09-01T10:44:27.411Z</time>
      </trkpt>
      <trkpt lat="46.125938" lon="10.987288">
        <ele>1660.152580</ele>
        <time>2020-09-01T10:44:31.396Z</time>
      </trkpt>
      <trkpt lat="46.126016" lon="10.987353">
        <ele>1659.741036</ele>
        <time>2020-09-01T10:44:41.397Z</time>
      </trkpt>
      <trkpt lat="46.126458" lon="10.987885">
        <ele>1656.626039</ele>
        <time>2020-09-01T10:44:54.399Z</time>
      </trkpt>
      <trkpt lat="46.126547" lon="10.987856">
        <ele>1655.997124</ele>
        <time>2020-09-01T10:44:58.405Z</time>
      </trkpt>
      <trkpt lat="46.126646" lon="10.987918">
        <ele>1655.253222</ele>
        <time>2020-09-01T10:45:04.400Z</time>
      </trkpt>
      <trkpt lat="46.126731" lon="10.987987">
        <ele>1654.580966</ele>
        <time>2020-09-01T10:45:10.401Z</time>
      </trkpt>
      <trkpt lat="46.126822" lon="10.988040">
        <ele>1653.904541</ele>
        <time>2020-09-01T10:45:17.383Z</time>
      </trkpt>
      <trkpt lat="46.126894" lon="10.988119">
        <ele>1653.281057</ele>
        <time>2020-09-01T10:45:23.410Z</time>
      </trkpt>
      <trkpt lat="46.127171" lon="10.988465">
        <ele>1650.755659</ele>
        <time>2020-09-01T10:46:07.389Z</time>
      </trkpt>
      <trkpt lat="46.127264" lon="10.988519">
        <ele>1650.064662</ele>
        <time>2020-09-01T10:46:11.416Z</time>
      </trkpt>
      <trkpt lat="46.127354" lon="10.988556">
        <ele>1649.419613</ele>
        <time>2020-09-01T10:46:13.403Z</time>
      </trkpt>
      <trkpt lat="46.127437" lon="10.988615">
        <ele>1648.781844</ele>
        <time>2020-09-01T10:46:16.409Z</time>
      </trkpt>
      <trkpt lat="46.127515" lon="10.988696">
        <ele>1648.119430</ele>
        <time>2020-09-01T10:46:20.400Z</time>
      </trkpt>
      <trkpt lat="46.127604" lon="10.988746">
        <ele>1647.461104</ele>
        <time>2020-09-01T10:46:26.398Z</time>
      </trkpt>
      <trkpt lat="46.127520" lon="10.988675">
        <ele>1646.790071</ele>
        <time>2020-09-01T10:46:34.398Z</time>
      </trkpt>
      <trkpt lat="46.127434" lon="10.988630">
        <ele>1646.159508</ele>
        <time>2020-09-01T10:46:38.402Z</time>
      </trkpt>
      <trkpt lat="46.127343" lon="10.988676">
        <ele>1645.301365</ele>
        <time>2020-09-01T10:46:48.400Z</time>
      </trkpt>
      <trkpt lat="46.127411" lon="10.988932">
        <ele>1642.520286</ele>
        <time>2020-09-01T10:46:50.398Z</time>
      </trkpt>
      <trkpt lat="46.127509" lon="10.988901">
        <ele>1641.051825</ele>
        <time>2020-09-01T10:46:52.401Z</time>
      </trkpt>
      <trkpt lat="46.127609" lon="10.988945">
        <ele>1639.521614</ele>
        <time>2020-09-01T10:46:59.410Z</time>
      </trkpt>
      <trkpt lat="46.127718" lon="10.989035">
        <ele>1637.683464</ele>
        <time>2020-09-01T10:47:04.408Z</time>
      </trkpt>
      <trkpt lat="46.127806" lon="10.989086">
        <ele>1636.295422</ele>
        <time>2020-09-01T10:47:06.392Z</time>
      </trkpt>
      <trkpt lat="46.127919" lon="10.989137">
        <ele>1634.562453</ele>
        <time>2020-09-01T10:47:09.385Z</time>
      </trkpt>
      <trkpt lat="46.130469" lon="10.988818">
        <ele>1597.862556</ele>
        <time>2020-09-01T10:49:15.403Z</time>
      </trkpt>
      <trkpt lat="46.130389" lon="10.988901">
        <ele>1596.469886</ele>
        <time>2020-09-01T10:50:06.398Z</time>
      </trkpt>
      <trkpt lat="46.130294" lon="10.988864">
        <ele>1595.079090</ele>
        <time>2020-09-01T10:50:11.396Z</time>
      </trkpt>
      <trkpt lat="46.130206" lon="10.988829">
        <ele>1593.798980</ele>
        <time>2020-09-01T10:50:15.417Z</time>
      </trkpt>
      <trkpt lat="46.130099" lon="10.988754">
        <ele>1592.248235</ele>
        <time>2020-09-01T10:50:20.417Z</time>
      </trkpt>
      <trkpt lat="46.129981" lon="10.988712">
        <ele>1590.663848</ele>
        <time>2020-09-01T10:50:23.398Z</time>
      </trkpt>
      <trkpt lat="46.129882" lon="10.988700">
        <ele>1589.368712</ele>
        <time>2020-09-01T10:50:27.414Z</time>
      </trkpt>
      <trkpt lat="46.129794" lon="10.988625">
        <ele>1588.036357</ele>
        <time>2020-09-01T10:50:31.404Z</time>
      </trkpt>
      <trkpt lat="46.129721" lon="10.988532">
        <ele>1586.766876</ele>
        <time>2020-09-01T10:50:36.400Z</time>
      </trkpt>
      <trkpt lat="46.129678" lon="10.988416">
        <ele>1585.578374</ele>
        <time>2020-09-01T10:50:40.434Z</time>
      </trkpt>
      <trkpt lat="46.129669" lon="10.988287">
        <ele>1584.407032</ele>
        <time>2020-09-01T10:50:43.393Z</time>
      </trkpt>
      <trkpt lat="46.129656" lon="10.988124">
        <ele>1582.924688</ele>
        <time>2020-09-01T10:50:47.398Z</time>
      </trkpt>
      <trkpt lat="46.129623" lon="10.987966">
        <ele>1581.433819</ele>
        <time>2020-09-01T10:50:50.396Z</time>
      </trkpt>
      <trkpt lat="46.129575" lon="10.987823">
        <ele>1579.998323</ele>
        <time>2020-09-01T10:50:52.396Z</time>
      </trkpt>
      <trkpt lat="46.129522" lon="10.987653">
        <ele>1578.314201</ele>
        <time>2020-09-01T10:50:55.396Z</time>
      </trkpt>
      <trkpt lat="46.129411" lon="10.987204">
        <ele>1574.007329</ele>
        <time>2020-09-01T10:50:57.387Z</time>
      </trkpt>
      <trkpt lat="46.129364" lon="10.987056">
        <ele>1572.536520</ele>
        <time>2020-09-01T10:51:01.398Z</time>
      </trkpt>
      <trkpt lat="46.129315" lon="10.986920">
        <ele>1571.151695</ele>
        <time>2020-09-01T10:51:06.399Z</time>
      </trkpt>
      <trkpt lat="46.129289" lon="10.986778">
        <ele>1569.790135</ele>
        <time>2020-09-01T10:51:12.400Z</time>
      </trkpt>
      <trkpt lat="46.129229" lon="10.986667">
        <ele>1568.450181</ele>
        <time>2020-09-01T10:51:16.395Z</time>
      </trkpt>
      <trkpt lat="46.129195" lon="10.986541">
        <ele>1567.163118</ele>
        <time>2020-09-01T10:51:20.405Z</time>
      </trkpt>
      <trkpt lat="46.129170" lon="10.986416">
        <ele>1565.924723</ele>
        <time>2020-09-01T10:51:24.426Z</time>
      </trkpt>
      <trkpt lat="46.129141" lon="10.986275">
        <ele>1564.524727</ele>
        <time>2020-09-01T10:51:30.416Z</time>
      </trkpt>
      <trkpt lat="46.129138" lon="10.986141">
        <ele>1563.248553</ele>
        <time>2020-09-01T10:51:36.406Z</time>
      </trkpt>
      <trkpt lat="46.129231" lon="10.986161">
        <ele>1561.957105</ele>
        <time>2020-09-01T10:52:58.434Z</time>
      </trkpt>
      <trkpt lat="46.129312" lon="10.986095">
        <ele>1560.679458</ele>
        <time>2020-09-01T10:53:12.408Z</time>
      </trkpt>
      <trkpt lat="46.129404" lon="10.986119">
        <ele>1559.395369</ele>
        <time>2020-09-01T10:53:18.411Z</time>
      </trkpt>
      <trkpt lat="46.129490" lon="10.986044">
        <ele>1558.015196</ele>
        <time>2020-09-01T10:53:27.404Z</time>
      </trkpt>
      <trkpt lat="46.129568" lon="10.985976">
        <ele>1556.763527</ele>
        <time>2020-09-01T10:53:33.405Z</time>
      </trkpt>
      <trkpt lat="46.130197" lon="10.985215">
        <ele>1545.607532</ele>
        <time>2020-09-01T10:55:43.400Z</time>
      </trkpt>
      <trkpt lat="46.130289" lon="10.985207">
        <ele>1544.880382</ele>
        <time>2020-09-01T10:55:53.395Z</time>
      </trkpt>
      <trkpt lat="46.130245" lon="10.985321">
        <ele>1544.166931</ele>
        <time>2020-09-01T10:56:06.407Z</time>
      </trkpt>
      <trkpt lat="46.130331" lon="10.985370">
        <ele>1543.437456</ele>
        <time>2020-09-01T10:56:22.400Z</time>
      </trkpt>
      <trkpt lat="46.130431" lon="10.985389">
        <ele>1542.641697</ele>
        <time>2020-09-01T10:56:32.401Z</time>
      </trkpt>
      <trkpt lat="46.130515" lon="10.985436">
        <ele>1541.930901</ele>
        <time>2020-09-01T10:56:41.403Z</time>
      </trkpt>
      <trkpt lat="46.130600" lon="10.985497">
        <ele>1541.181935</ele>
        <time>2020-09-01T10:56:50.403Z</time>
      </trkpt>
      <trkpt lat="46.130831" lon="10.985779">
        <ele>1538.794742</ele>
        <time>2020-09-01T10:57:19.412Z</time>
      </trkpt>
      <trkpt lat="46.130958" lon="10.985773">
        <ele>1537.792239</ele>
        <time>2020-09-01T10:57:32.421Z</time>
      </trkpt>
      <trkpt lat="46.131055" lon="10.985766">
        <ele>1537.026002</ele>
        <time>2020-09-01T10:57:42.444Z</time>
      </trkpt>
      <trkpt lat="46.131154" lon="10.985766">
        <ele>1536.244943</ele>
        <time>2020-09-01T10:57:54.402Z</time>
      </trkpt>
      <trkpt lat="46.131404" lon="10.986017">
        <ele>1533.842118</ele>
        <time>2020-09-01T10:58:29.414Z</time>
      </trkpt>
      <trkpt lat="46.131363" lon="10.986134">
        <ele>1533.125291</ele>
        <time>2020-09-01T10:59:02.412Z</time>
      </trkpt>
      <trkpt lat="46.132143" lon="10.985744">
        <ele>1518.410068</ele>
        <time>2020-09-01T11:00:29.513Z</time>
      </trkpt>
      <trkpt lat="46.132234" lon="10.985581">
        <ele>1515.374703</ele>
        <time>2020-09-01T11:00:48.402Z</time>
      </trkpt>
      <trkpt lat="46.132505" lon="10.985506">
        <ele>1509.600464</ele>
        <time>2020-09-01T11:01:20.415Z</time>
      </trkpt>
      <trkpt lat="46.132420" lon="10.985562">
        <ele>1507.645159</ele>
        <time>2020-09-01T11:01:35.405Z</time>
      </trkpt>
      <trkpt lat="46.132826" lon="10.985394">
        <ele>1498.806892</ele>
        <time>2020-09-01T11:02:28.425Z</time>
      </trkpt>
      <trkpt lat="46.132914" lon="10.985342">
        <ele>1496.817011</ele>
        <time>2020-09-01T11:02:35.412Z</time>
      </trkpt>
      <trkpt lat="46.132985" lon="10.985262">
        <ele>1494.932008</ele>
        <time>2020-09-01T11:02:41.388Z</time>
      </trkpt>
      <trkpt lat="46.133059" lon="10.985042">
        <ele>1491.725192</ele>
        <time>2020-09-01T11:02:54.407Z</time>
      </trkpt>
      <trkpt lat="46.132963" lon="10.985073">
        <ele>1489.940333</ele>
        <time>2020-09-01T11:03:04.400Z</time>
      </trkpt>
      <trkpt lat="46.132875" lon="10.985006">
        <ele>1488.135094</ele>
        <time>2020-09-01T11:03:12.410Z</time>
      </trkpt>
      <trkpt lat="46.132853" lon="10.984862">
        <ele>1486.281065</ele>
        <time>2020-09-01T11:03:23.433Z</time>
      </trkpt>
      <trkpt lat="46.132876" lon="10.984733">
        <ele>1484.606291</ele>
        <time>2020-09-01T11:03:29.434Z</time>
      </trkpt>
      <trkpt lat="46.132792" lon="10.984686">
        <ele>1482.971675</ele>
        <time>2020-09-01T11:03:52.401Z</time>
      </trkpt>
      <trkpt lat="46.132740" lon="10.984572">
        <ele>1481.255682</ele>
        <time>2020-09-01T11:04:16.413Z</time>
      </trkpt>
      <trkpt lat="46.132663" lon="10.984496">
        <ele>1479.563088</ele>
        <time>2020-09-01T11:04:26.403Z</time>
      </trkpt>
      <trkpt lat="46.132745" lon="10.983696">
        <ele>1469.395009</ele>
        <time>2020-09-01T11:04:56.414Z</time>
      </trkpt>
      <trkpt lat="46.132659" lon="10.983745">
        <ele>1467.717437</ele>
        <time>2020-09-01T11:05:33.404Z</time>
      </trkpt>
      <trkpt lat="46.132578" lon="10.983677">
        <ele>1466.017200</ele>
        <time>2020-09-01T11:05:37.403Z</time>
      </trkpt>
      <trkpt lat="46.132442" lon="10.983628">
        <ele>1463.473926</ele>
        <time>2020-09-01T11:06:02.404Z</time>
      </trkpt>
      <trkpt lat="46.132367" lon="10.983526">
        <ele>1461.604046</ele>
        <time>2020-09-01T11:06:05.407Z</time>
      </trkpt>
      <trkpt lat="46.132344" lon="10.983395">
        <ele>1459.672609</ele>
        <time>2020-09-01T11:06:13.404Z</time>
      </trkpt>
      <trkpt lat="46.132387" lon="10.983281">
        <ele>1457.769902</ele>
        <time>2020-09-01T11:06:25.412Z</time>
      </trkpt>
      <trkpt lat="46.132418" lon="10.983154">
        <ele>1455.796019</ele>
        <time>2020-09-01T11:06:41.418Z</time>
      </trkpt>
      <trkpt lat="46.132461" lon="10.983033">
        <ele>1453.802579</ele>
        <time>2020-09-01T11:06:56.414Z</time>
      </trkpt>
      <trkpt lat="46.132536" lon="10.982874">
        <ele>1450.982989</ele>
        <time>2020-09-01T11:07:16.446Z</time>
      </trkpt>
      <trkpt lat="46.132628" lon="10.982823">
        <ele>1448.898158</ele>
        <time>2020-09-01T11:07:48.412Z</time>
      </trkpt>
      <trkpt lat="46.132718" lon="10.982831">
        <ele>1446.990692</ele>
        <time>2020-09-01T11:08:00.411Z</time>
      </trkpt>
      <trkpt lat="46.132826" lon="10.983116">
        <ele>1442.228884</ele>
        <time>2020-09-01T11:08:06.417Z</time>
      </trkpt>
      <trkpt lat="46.133204" lon="10.983277">
        <ele>1433.891642</ele>
        <time>2020-09-01T11:08:58.413Z</time>
      </trkpt>
      <trkpt lat="46.133175" lon="10.983404">
        <ele>1431.931434</ele>
        <time>2020-09-01T11:09:12.399Z</time>
      </trkpt>
      <trkpt lat="46.133083" lon="10.983444">
        <ele>1429.898850</ele>
        <time>2020-09-01T11:09:33.413Z</time>
      </trkpt>
      <trkpt lat="46.133376" lon="10.983139">
        <ele>1422.498366</ele>
        <time>2020-09-01T11:12:28.408Z</time>
      </trkpt>
      <trkpt lat="46.133768" lon="10.982923">
        <ele>1415.769978</ele>
        <time>2020-09-01T11:13:21.449Z</time>
      </trkpt>
      <trkpt lat="46.133737" lon="10.982793">
        <ele>1414.242297</ele>
        <time>2020-09-01T11:13:33.410Z</time>
      </trkpt>
      <trkpt lat="46.134294" lon="10.983163">
        <ele>1404.409940</ele>
        <time>2020-09-01T11:16:29.411Z</time>
      </trkpt>
      <trkpt lat="46.134365" lon="10.983070">
        <ele>1402.872391</ele>
        <time>2020-09-01T11:16:47.400Z</time>
      </trkpt>
      <trkpt lat="46.134416" lon="10.982960">
        <ele>1401.401752</ele>
        <time>2020-09-01T11:16:55.412Z</time>
      </trkpt>
      <trkpt lat="46.134494" lon="10.982895">
        <ele>1399.957455</ele>
        <time>2020-09-01T11:17:08.401Z</time>
      </trkpt>
      <trkpt lat="46.134586" lon="10.982868">
        <ele>1398.452035</ele>
        <time>2020-09-01T11:17:19.401Z</time>
      </trkpt>
      <trkpt lat="46.134847" lon="10.982215">
        <ele>1394.133921</ele>
        <time>2020-09-01T11:17:41.411Z</time>
      </trkpt>
      <trkpt lat="46.134944" lon="10.982259">
        <ele>1394.028270</ele>
        <time>2020-09-01T11:17:53.405Z</time>
      </trkpt>
      <trkpt lat="46.135103" lon="10.981640">
        <ele>1393.552934</ele>
        <time>2020-09-01T11:20:00.407Z</time>
      </trkpt>
      <trkpt lat="46.135200" lon="10.981630">
        <ele>1393.451888</ele>
        <time>2020-09-01T11:20:40.390Z</time>
      </trkpt>
      <trkpt lat="46.135259" lon="10.981519">
        <ele>1393.351160</ele>
        <time>2020-09-01T11:20:49.418Z</time>
      </trkpt>
      <trkpt lat="46.135304" lon="10.981402">
        <ele>1393.254810</ele>
        <time>2020-09-01T11:20:57.381Z</time>
      </trkpt>
      <trkpt lat="46.135223" lon="10.980807">
        <ele>1392.818203</ele>
        <time>2020-09-01T11:22:04.405Z</time>
      </trkpt>
      <trkpt lat="46.135412" lon="10.980487">
        <ele>1392.366811</ele>
        <time>2020-09-01T11:23:00.437Z</time>
      </trkpt>
      <trkpt lat="46.135350" lon="10.980388">
        <ele>1391.806286</ele>
        <time>2020-09-01T11:23:29.409Z</time>
      </trkpt>
      <trkpt lat="46.135297" lon="10.980282">
        <ele>1391.257216</ele>
        <time>2020-09-01T11:23:41.413Z</time>
      </trkpt>
      <trkpt lat="46.135218" lon="10.980132">
        <ele>1390.465797</ele>
        <time>2020-09-01T11:23:51.419Z</time>
      </trkpt>
      <trkpt lat="46.135241" lon="10.980002">
        <ele>1389.902202</ele>
        <time>2020-09-01T11:24:02.419Z</time>
      </trkpt>
      <trkpt lat="46.135324" lon="10.979934">
        <ele>1389.323642</ele>
        <time>2020-09-01T11:24:09.415Z</time>
      </trkpt>
      <trkpt lat="46.135226" lon="10.979913">
        <ele>1388.723069</ele>
        <time>2020-09-01T11:24:38.422Z</time>
      </trkpt>
      <trkpt lat="46.135319" lon="10.980052">
        <ele>1387.911445</ele>
        <time>2020-09-01T11:31:33.540Z</time>
      </trkpt>
      <trkpt lat="46.135247" lon="10.980147">
        <ele>1387.320061</ele>
        <time>2020-09-01T11:32:35.403Z</time>
      </trkpt>
      <trkpt lat="46.135208" lon="10.980269">
        <ele>1386.755686</ele>
        <time>2020-09-01T11:32:39.396Z</time>
      </trkpt>
      <trkpt lat="46.135172" lon="10.980424">
        <ele>1386.068995</ele>
        <time>2020-09-01T11:32:43.397Z</time>
      </trkpt>
      <trkpt lat="46.135097" lon="10.980593">
        <ele>1385.225991</ele>
        <time>2020-09-01T11:32:45.395Z</time>
      </trkpt>
      <trkpt lat="46.135099" lon="10.980751">
        <ele>1384.562184</ele>
        <time>2020-09-01T11:33:12.442Z</time>
      </trkpt>
      <trkpt lat="46.135056" lon="10.980923">
        <ele>1383.794098</ele>
        <time>2020-09-01T11:33:15.435Z</time>
      </trkpt>
      <trkpt lat="46.135011" lon="10.981086">
        <ele>1383.057061</ele>
        <time>2020-09-01T11:33:18.422Z</time>
      </trkpt>
      <trkpt lat="46.134959" lon="10.981198">
        <ele>1382.490755</ele>
        <time>2020-09-01T11:33:20.436Z</time>
      </trkpt>
      <trkpt lat="46.134901" lon="10.981302">
        <ele>1381.929985</ele>
        <time>2020-09-01T11:33:22.419Z</time>
      </trkpt>
      <trkpt lat="46.134835" lon="10.981396">
        <ele>1381.159476</ele>
        <time>2020-09-01T11:33:24.433Z</time>
      </trkpt>
      <trkpt lat="46.134762" lon="10.981490">
        <ele>1380.117435</ele>
        <time>2020-09-01T11:33:26.421Z</time>
      </trkpt>
      <trkpt lat="46.134665" lon="10.981615">
        <ele>1378.732333</ele>
        <time>2020-09-01T11:33:29.418Z</time>
      </trkpt>
      <trkpt lat="46.134591" lon="10.981701">
        <ele>1377.720361</ele>
        <time>2020-09-01T11:33:34.431Z</time>
      </trkpt>
      <trkpt lat="46.134512" lon="10.981776">
        <ele>1376.713190</ele>
        <time>2020-09-01T11:33:37.419Z</time>
      </trkpt>
      <trkpt lat="46.134407" lon="10.981856">
        <ele>1375.448552</ele>
        <time>2020-09-01T11:33:40.423Z</time>
      </trkpt>
      <trkpt lat="46.134289" lon="10.981925">
        <ele>1374.092496</ele>
        <time>2020-09-01T11:33:42.412Z</time>
      </trkpt>
      <trkpt lat="46.134196" lon="10.981950">
        <ele>1373.084931</ele>
        <time>2020-09-01T11:33:45.410Z</time>
      </trkpt>
      <trkpt lat="46.134100" lon="10.981891">
        <ele>1371.973586</ele>
        <time>2020-09-01T11:33:49.402Z</time>
      </trkpt>
      <trkpt lat="46.134025" lon="10.981809">
        <ele>1370.971394</ele>
        <time>2020-09-01T11:33:51.403Z</time>
      </trkpt>
      <trkpt lat="46.134049" lon="10.981609">
        <ele>1369.473280</ele>
        <time>2020-09-01T11:33:53.402Z</time>
      </trkpt>
      <trkpt lat="46.134014" lon="10.981490">
        <ele>1368.519138</ele>
        <time>2020-09-01T11:33:54.402Z</time>
      </trkpt>
      <trkpt lat="46.133908" lon="10.981379">
        <ele>1367.124219</ele>
        <time>2020-09-01T11:33:57.404Z</time>
      </trkpt>
      <trkpt lat="46.133810" lon="10.981250">
        <ele>1365.711419</ele>
        <time>2020-09-01T11:34:00.421Z</time>
      </trkpt>
      <trkpt lat="46.133760" lon="10.981139">
        <ele>1364.734284</ele>
        <time>2020-09-01T11:34:03.405Z</time>
      </trkpt>
      <trkpt lat="46.133697" lon="10.981017">
        <ele>1363.611315</ele>
        <time>2020-09-01T11:34:08.412Z</time>
      </trkpt>
      <trkpt lat="46.133637" lon="10.980885">
        <ele>1362.431997</ele>
        <time>2020-09-01T11:34:12.402Z</time>
      </trkpt>
      <trkpt lat="46.133580" lon="10.980757">
        <ele>1360.910910</ele>
        <time>2020-09-01T11:34:15.406Z</time>
      </trkpt>
      <trkpt lat="46.133514" lon="10.980627">
        <ele>1359.299800</ele>
        <time>2020-09-01T11:34:18.410Z</time>
      </trkpt>
      <trkpt lat="46.133443" lon="10.980502">
        <ele>1357.683999</ele>
        <time>2020-09-01T11:34:21.410Z</time>
      </trkpt>
      <trkpt lat="46.133374" lon="10.980394">
        <ele>1356.215444</ele>
        <time>2020-09-01T11:34:23.416Z</time>
      </trkpt>
      <trkpt lat="46.133313" lon="10.980286">
        <ele>1354.822530</ele>
        <time>2020-09-01T11:34:25.404Z</time>
      </trkpt>
      <trkpt lat="46.133242" lon="10.980164">
        <ele>1353.229808</ele>
        <time>2020-09-01T11:34:28.411Z</time>
      </trkpt>
      <trkpt lat="46.133133" lon="10.980061">
        <ele>1351.350162</ele>
        <time>2020-09-01T11:34:32.389Z</time>
      </trkpt>
      <trkpt lat="46.133039" lon="10.979998">
        <ele>1349.854943</ele>
        <time>2020-09-01T11:34:34.408Z</time>
      </trkpt>
      <trkpt lat="46.132962" lon="10.979925">
        <ele>1348.525811</ele>
        <time>2020-09-01T11:34:36.404Z</time>
      </trkpt>
      <trkpt lat="46.132866" lon="10.979799">
        <ele>1346.653686</ele>
        <time>2020-09-01T11:34:39.407Z</time>
      </trkpt>
      <trkpt lat="46.132796" lon="10.979713">
        <ele>1345.327402</ele>
        <time>2020-09-01T11:34:41.408Z</time>
      </trkpt>
      <trkpt lat="46.132705" lon="10.979601">
        <ele>1343.601935</ele>
        <time>2020-09-01T11:34:44.402Z</time>
      </trkpt>
      <trkpt lat="46.132625" lon="10.979532">
        <ele>1342.257370</ele>
        <time>2020-09-01T11:34:47.401Z</time>
      </trkpt>
      <trkpt lat="46.132524" lon="10.979487">
        <ele>1340.732419</ele>
        <time>2020-09-01T11:34:50.404Z</time>
      </trkpt>
      <trkpt lat="46.132419" lon="10.979437">
        <ele>1339.137286</ele>
        <time>2020-09-01T11:34:53.453Z</time>
      </trkpt>
      <trkpt lat="46.132290" lon="10.979383">
        <ele>1337.199541</ele>
        <time>2020-09-01T11:34:56.404Z</time>
      </trkpt>
      <trkpt lat="46.132200" lon="10.979352">
        <ele>1335.738083</ele>
        <time>2020-09-01T11:34:58.404Z</time>
      </trkpt>
      <trkpt lat="46.132100" lon="10.979334">
        <ele>1334.010895</ele>
        <time>2020-09-01T11:35:01.397Z</time>
      </trkpt>
      <trkpt lat="46.132007" lon="10.979381">
        <ele>1332.322036</ele>
        <time>2020-09-01T11:35:05.388Z</time>
      </trkpt>
      <trkpt lat="46.131962" lon="10.979262">
        <ele>1330.711895</ele>
        <time>2020-09-01T11:35:19.409Z</time>
      </trkpt>
      <trkpt lat="46.132078" lon="10.979138">
        <ele>1328.237673</ele>
        <time>2020-09-01T11:36:07.397Z</time>
      </trkpt>
      <trkpt lat="46.132172" lon="10.979114">
        <ele>1326.601578</ele>
        <time>2020-09-01T11:36:12.417Z</time>
      </trkpt>
      <trkpt lat="46.132262" lon="10.979049">
        <ele>1324.876651</ele>
        <time>2020-09-01T11:36:17.419Z</time>
      </trkpt>
      <trkpt lat="46.132350" lon="10.979007">
        <ele>1323.288059</ele>
        <time>2020-09-01T11:36:20.418Z</time>
      </trkpt>
      <trkpt lat="46.132472" lon="10.978978">
        <ele>1321.168915</ele>
        <time>2020-09-01T11:36:25.421Z</time>
      </trkpt>
      <trkpt lat="46.132567" lon="10.978973">
        <ele>1319.539622</ele>
        <time>2020-09-01T11:36:27.421Z</time>
      </trkpt>
      <trkpt lat="46.132683" lon="10.978947">
        <ele>1317.527652</ele>
        <time>2020-09-01T11:36:30.418Z</time>
      </trkpt>
      <trkpt lat="46.132794" lon="10.978922">
        <ele>1315.602185</ele>
        <time>2020-09-01T11:36:34.408Z</time>
      </trkpt>
      <trkpt lat="46.132899" lon="10.978903">
        <ele>1313.788490</ele>
        <time>2020-09-01T11:36:37.435Z</time>
      </trkpt>
      <trkpt lat="46.133013" lon="10.978919">
        <ele>1311.825418</ele>
        <time>2020-09-01T11:36:40.419Z</time>
      </trkpt>
      <trkpt lat="46.133115" lon="10.978936">
        <ele>1310.065614</ele>
        <time>2020-09-01T11:36:43.453Z</time>
      </trkpt>
      <trkpt lat="46.133248" lon="10.978960">
        <ele>1307.768366</ele>
        <time>2020-09-01T11:36:46.417Z</time>
      </trkpt>
      <trkpt lat="46.133345" lon="10.978969">
        <ele>1306.102445</ele>
        <time>2020-09-01T11:36:48.414Z</time>
      </trkpt>
      <trkpt lat="46.133446" lon="10.978995">
        <ele>1305.069222</ele>
        <time>2020-09-01T11:36:50.421Z</time>
      </trkpt>
      <trkpt lat="46.133539" lon="10.979014">
        <ele>1304.313449</ele>
        <time>2020-09-01T11:36:52.430Z</time>
      </trkpt>
      <trkpt lat="46.133635" lon="10.979025">
        <ele>1303.538567</ele>
        <time>2020-09-01T11:36:54.461Z</time>
      </trkpt>
      <trkpt lat="46.133725" lon="10.979016">
        <ele>1302.812659</ele>
        <time>2020-09-01T11:36:56.423Z</time>
      </trkpt>
      <trkpt lat="46.133817" lon="10.979019">
        <ele>1302.072205</ele>
        <time>2020-09-01T11:36:58.421Z</time>
      </trkpt>
      <trkpt lat="46.133933" lon="10.979042">
        <ele>1301.130058</ele>
        <time>2020-09-01T11:37:02.425Z</time>
      </trkpt>
      <trkpt lat="46.134028" lon="10.979048">
        <ele>1300.364923</ele>
        <time>2020-09-01T11:37:04.414Z</time>
      </trkpt>
      <trkpt lat="46.134125" lon="10.979054">
        <ele>1299.583709</ele>
        <time>2020-09-01T11:37:06.420Z</time>
      </trkpt>
      <trkpt lat="46.134218" lon="10.979073">
        <ele>1298.827936</ele>
        <time>2020-09-01T11:37:08.420Z</time>
      </trkpt>
      <trkpt lat="46.134292" lon="10.978995">
        <ele>1298.090581</ele>
        <time>2020-09-01T11:37:12.422Z</time>
      </trkpt>
      <trkpt lat="46.134390" lon="10.978969">
        <ele>1297.288823</ele>
        <time>2020-09-01T11:37:15.417Z</time>
      </trkpt>
      <trkpt lat="46.134477" lon="10.978924">
        <ele>1296.545180</ele>
        <time>2020-09-01T11:37:19.417Z</time>
      </trkpt>
      <trkpt lat="46.134581" lon="10.978915">
        <ele>1295.706856</ele>
        <time>2020-09-01T11:37:21.420Z</time>
      </trkpt>
      <trkpt lat="46.134679" lon="10.978815">
        <ele>1294.741091</ele>
        <time>2020-09-01T11:37:23.429Z</time>
      </trkpt>
      <trkpt lat="46.134698" lon="10.978558">
        <ele>1293.299967</ele>
        <time>2020-09-01T11:37:25.431Z</time>
      </trkpt>
      <trkpt lat="46.134670" lon="10.978410">
        <ele>1292.444539</ele>
        <time>2020-09-01T11:37:26.422Z</time>
      </trkpt>
      <trkpt lat="46.134543" lon="10.978354">
        <ele>1291.376011</ele>
        <time>2020-09-01T11:37:27.471Z</time>
      </trkpt>
      <trkpt lat="46.134451" lon="10.978329">
        <ele>1289.926903</ele>
        <time>2020-09-01T11:37:28.423Z</time>
      </trkpt>
      <trkpt lat="46.134300" lon="10.978329">
        <ele>1287.338695</ele>
        <time>2020-09-01T11:37:30.419Z</time>
      </trkpt>
      <trkpt lat="46.134173" lon="10.978343">
        <ele>1285.155516</ele>
        <time>2020-09-01T11:37:32.419Z</time>
      </trkpt>
      <trkpt lat="46.134065" lon="10.978302">
        <ele>1283.241362</ele>
        <time>2020-09-01T11:37:34.429Z</time>
      </trkpt>
      <trkpt lat="46.133953" lon="10.978270">
        <ele>1281.284366</ele>
        <time>2020-09-01T11:37:36.415Z</time>
      </trkpt>
      <trkpt lat="46.133851" lon="10.978249">
        <ele>1279.518337</ele>
        <time>2020-09-01T11:37:39.426Z</time>
      </trkpt>
      <trkpt lat="46.133755" lon="10.978223">
        <ele>1277.844124</ele>
        <time>2020-09-01T11:37:45.427Z</time>
      </trkpt>
      <trkpt lat="46.133709" lon="10.978102">
        <ele>1276.204825</ele>
        <time>2020-09-01T11:37:49.463Z</time>
      </trkpt>
      <trkpt lat="46.133715" lon="10.977972">
        <ele>1274.657270</ele>
        <time>2020-09-01T11:37:53.419Z</time>
      </trkpt>
      <trkpt lat="46.133643" lon="10.977867">
        <ele>1272.902704</ele>
        <time>2020-09-01T11:37:57.413Z</time>
      </trkpt>
      <trkpt lat="46.133542" lon="10.977934">
        <ele>1270.997359</ele>
        <time>2020-09-01T11:38:00.453Z</time>
      </trkpt>
      <trkpt lat="46.133459" lon="10.977864">
        <ele>1269.349549</ele>
        <time>2020-09-01T11:38:03.406Z</time>
      </trkpt>
      <trkpt lat="46.133084" lon="10.977538">
        <ele>1261.845606</ele>
        <time>2020-09-01T11:38:16.403Z</time>
      </trkpt>
      <trkpt lat="46.132985" lon="10.977406">
        <ele>1259.839448</ele>
        <time>2020-09-01T11:38:19.413Z</time>
      </trkpt>
      <trkpt lat="46.132883" lon="10.977360">
        <ele>1258.645578</ele>
        <time>2020-09-01T11:38:23.425Z</time>
      </trkpt>
      <trkpt lat="46.132805" lon="10.977256">
        <ele>1257.459151</ele>
        <time>2020-09-01T11:38:26.412Z</time>
      </trkpt>
      <trkpt lat="46.132736" lon="10.977142">
        <ele>1256.287335</ele>
        <time>2020-09-01T11:38:29.418Z</time>
      </trkpt>
      <trkpt lat="46.132651" lon="10.977072">
        <ele>1255.193978</ele>
        <time>2020-09-01T11:38:33.461Z</time>
      </trkpt>
      <trkpt lat="46.132560" lon="10.977026">
        <ele>1254.116777</ele>
        <time>2020-09-01T11:38:37.420Z</time>
      </trkpt>
      <trkpt lat="46.132419" lon="10.977031">
        <ele>1252.541086</ele>
        <time>2020-09-01T11:38:40.422Z</time>
      </trkpt>
      <trkpt lat="46.132294" lon="10.977037">
        <ele>1251.143845</ele>
        <time>2020-09-01T11:38:42.423Z</time>
      </trkpt>
      <trkpt lat="46.132204" lon="10.977016">
        <ele>1250.125328</ele>
        <time>2020-09-01T11:38:44.457Z</time>
      </trkpt>
      <trkpt lat="46.132070" lon="10.976967">
        <ele>1248.580996</ele>
        <time>2020-09-01T11:38:47.426Z</time>
      </trkpt>
      <trkpt lat="46.131969" lon="10.976914">
        <ele>1247.380357</ele>
        <time>2020-09-01T11:38:49.432Z</time>
      </trkpt>
      <trkpt lat="46.131882" lon="10.976956">
        <ele>1246.355466</ele>
        <time>2020-09-01T11:38:51.427Z</time>
      </trkpt>
      <trkpt lat="46.131781" lon="10.977021">
        <ele>1245.119987</ele>
        <time>2020-09-01T11:38:53.419Z</time>
      </trkpt>
      <trkpt lat="46.131664" lon="10.977079">
        <ele>1243.737912</ele>
        <time>2020-09-01T11:38:55.471Z</time>
      </trkpt>
      <trkpt lat="46.131534" lon="10.977144">
        <ele>1242.200870</ele>
        <time>2020-09-01T11:38:57.426Z</time>
      </trkpt>
      <trkpt lat="46.131414" lon="10.977132">
        <ele>1240.857045</ele>
        <time>2020-09-01T11:38:59.421Z</time>
      </trkpt>
      <trkpt lat="46.131322" lon="10.977089">
        <ele>1239.850329</ele>
        <time>2020-09-01T11:39:01.415Z</time>
      </trkpt>
      <trkpt lat="46.131220" lon="10.977109">
        <ele>1238.857723</ele>
        <time>2020-09-01T11:39:05.410Z</time>
      </trkpt>
      <trkpt lat="46.131102" lon="10.977095">
        <ele>1237.716030</ele>
        <time>2020-09-01T11:39:08.419Z</time>
      </trkpt>
      <trkpt lat="46.131042" lon="10.976992">
        <ele>1236.816860</ele>
        <time>2020-09-01T11:39:13.412Z</time>
      </trkpt>
      <trkpt lat="46.130964" lon="10.976873">
        <ele>1235.722281</ele>
        <time>2020-09-01T11:39:16.403Z</time>
      </trkpt>
      <trkpt lat="46.130845" lon="10.976784">
        <ele>1234.429812</ele>
        <time>2020-09-01T11:39:19.414Z</time>
      </trkpt>
      <trkpt lat="46.130742" lon="10.976701">
        <ele>1233.292222</ele>
        <time>2020-09-01T11:39:22.464Z</time>
      </trkpt>
      <trkpt lat="46.130650" lon="10.976684">
        <ele>1232.397838</ele>
        <time>2020-09-01T11:39:24.417Z</time>
      </trkpt>
      <trkpt lat="46.130554" lon="10.976642">
        <ele>1231.430514</ele>
        <time>2020-09-01T11:39:27.409Z</time>
      </trkpt>
      <trkpt lat="46.130460" lon="10.976688">
        <ele>1230.473382</ele>
        <time>2020-09-01T11:39:31.420Z</time>
      </trkpt>
      <trkpt lat="46.130376" lon="10.976767">
        <ele>1229.506528</ele>
        <time>2020-09-01T11:39:34.422Z</time>
      </trkpt>
      <trkpt lat="46.130279" lon="10.976825">
        <ele>1228.494048</ele>
        <time>2020-09-01T11:39:36.418Z</time>
      </trkpt>
      <trkpt lat="46.130178" lon="10.976853">
        <ele>1227.502311</ele>
        <time>2020-09-01T11:39:38.411Z</time>
      </trkpt>
      <trkpt lat="46.130074" lon="10.976881">
        <ele>1226.482151</ele>
        <time>2020-09-01T11:39:40.413Z</time>
      </trkpt>
      <trkpt lat="46.129979" lon="10.976877">
        <ele>1225.565693</ele>
        <time>2020-09-01T11:39:42.421Z</time>
      </trkpt>
      <trkpt lat="46.129998" lon="10.976736">
        <ele>1224.605784</ele>
        <time>2020-09-01T11:39:48.419Z</time>
      </trkpt>
      <trkpt lat="46.130124" lon="10.976658">
        <ele>1223.283696</ele>
        <time>2020-09-01T11:39:51.424Z</time>
      </trkpt>
      <trkpt lat="46.130236" lon="10.976595">
        <ele>1221.688216</ele>
        <time>2020-09-01T11:39:54.422Z</time>
      </trkpt>
      <trkpt lat="46.130331" lon="10.976565">
        <ele>1220.267014</ele>
        <time>2020-09-01T11:39:57.415Z</time>
      </trkpt>
      <trkpt lat="46.130442" lon="10.976495">
        <ele>1218.496690</ele>
        <time>2020-09-01T11:40:01.427Z</time>
      </trkpt>
      <trkpt lat="46.130505" lon="10.976353">
        <ele>1216.789069</ele>
        <time>2020-09-01T11:40:04.420Z</time>
      </trkpt>
      <trkpt lat="46.130529" lon="10.976216">
        <ele>1215.357909</ele>
        <time>2020-09-01T11:40:06.467Z</time>
      </trkpt>
      <trkpt lat="46.130592" lon="10.976067">
        <ele>1213.590169</ele>
        <time>2020-09-01T11:40:09.420Z</time>
      </trkpt>
      <trkpt lat="46.130645" lon="10.975958">
        <ele>1212.241614</ele>
        <time>2020-09-01T11:40:11.423Z</time>
      </trkpt>
      <trkpt lat="46.130720" lon="10.975874">
        <ele>1210.854133</ele>
        <time>2020-09-01T11:40:14.422Z</time>
      </trkpt>
      <trkpt lat="46.130822" lon="10.975852">
        <ele>1209.346931</ele>
        <time>2020-09-01T11:40:17.468Z</time>
      </trkpt>
      <trkpt lat="46.130911" lon="10.975883">
        <ele>1208.008916</ele>
        <time>2020-09-01T11:40:20.424Z</time>
      </trkpt>
      <trkpt lat="46.131006" lon="10.975905">
        <ele>1206.602807</ele>
        <time>2020-09-01T11:40:23.420Z</time>
      </trkpt>
      <trkpt lat="46.131102" lon="10.975900">
        <ele>1205.198936</ele>
        <time>2020-09-01T11:40:26.410Z</time>
      </trkpt>
      <trkpt lat="46.131097" lon="10.975746">
        <ele>1203.637551</ele>
        <time>2020-09-01T11:40:28.459Z</time>
      </trkpt>
      <trkpt lat="46.131122" lon="10.975432">
        <ele>1200.436518</ele>
        <time>2020-09-01T11:40:29.418Z</time>
      </trkpt>
      <trkpt lat="46.131171" lon="10.975278">
        <ele>1198.720311</ele>
        <time>2020-09-01T11:40:33.421Z</time>
      </trkpt>
      <trkpt lat="46.131186" lon="10.975115">
        <ele>1197.054998</ele>
        <time>2020-09-01T11:40:36.423Z</time>
      </trkpt>
      <trkpt lat="46.131237" lon="10.974983">
        <ele>1195.024817</ele>
        <time>2020-09-01T11:40:39.464Z</time>
      </trkpt>
      <trkpt lat="46.131231" lon="10.974804">
        <ele>1192.428719</ele>
        <time>2020-09-01T11:40:42.421Z</time>
      </trkpt>
      <trkpt lat="46.131294" lon="10.974655">
        <ele>1189.900220</ele>
        <time>2020-09-01T11:40:45.423Z</time>
      </trkpt>
      <trkpt lat="46.131394" lon="10.974570">
        <ele>1187.474148</ele>
        <time>2020-09-01T11:40:48.400Z</time>
      </trkpt>
      <trkpt lat="46.131458" lon="10.974479">
        <ele>1185.595957</ele>
        <time>2020-09-01T11:40:51.420Z</time>
      </trkpt>
      <trkpt lat="46.131535" lon="10.974398">
        <ele>1183.604074</ele>
        <time>2020-09-01T11:40:54.419Z</time>
      </trkpt>
      <trkpt lat="46.131427" lon="10.974442">
        <ele>1181.258226</ele>
        <time>2020-09-01T11:41:02.423Z</time>
      </trkpt>
      <trkpt lat="46.131787" lon="10.973991">
        <ele>1171.292555</ele>
        <time>2020-09-01T11:41:14.419Z</time>
      </trkpt>
      <trkpt lat="46.131877" lon="10.973871">
        <ele>1168.731061</ele>
        <time>2020-09-01T11:41:17.421Z</time>
      </trkpt>
      <trkpt lat="46.131945" lon="10.973760">
        <ele>1166.584883</ele>
        <time>2020-09-01T11:41:20.422Z</time>
      </trkpt>
      <trkpt lat="46.132020" lon="10.973890">
        <ele>1164.134499</ele>
        <time>2020-09-01T11:41:22.414Z</time>
      </trkpt>
      <trkpt lat="46.132101" lon="10.973818">
        <ele>1162.145839</ele>
        <time>2020-09-01T11:41:25.418Z</time>
      </trkpt>
      <trkpt lat="46.132158" lon="10.973712">
        <ele>1160.202246</ele>
        <time>2020-09-01T11:41:31.430Z</time>
      </trkpt>
      <trkpt lat="46.132256" lon="10.973701">
        <ele>1158.179425</ele>
        <time>2020-09-01T11:41:37.424Z</time>
      </trkpt>
      <trkpt lat="46.133067" lon="10.973737">
        <ele>1141.794820</ele>
        <time>2020-09-01T11:42:25.420Z</time>
      </trkpt>
      <trkpt lat="46.133217" lon="10.973475">
        <ele>1137.039077</ele>
        <time>2020-09-01T11:42:28.427Z</time>
      </trkpt>
      <trkpt lat="46.133127" lon="10.973370">
        <ele>1134.702000</ele>
        <time>2020-09-01T11:42:32.422Z</time>
      </trkpt>
      <trkpt lat="46.133058" lon="10.973286">
        <ele>1132.879048</ele>
        <time>2020-09-01T11:42:36.423Z</time>
      </trkpt>
      <trkpt lat="46.132982" lon="10.973206">
        <ele>1130.979421</ele>
        <time>2020-09-01T11:42:41.422Z</time>
      </trkpt>
      <trkpt lat="46.132905" lon="10.973106">
        <ele>1128.887544</ele>
        <time>2020-09-01T11:42:46.432Z</time>
      </trkpt>
      <trkpt lat="46.132820" lon="10.973014">
        <ele>1126.741934</ele>
        <time>2020-09-01T11:42:50.437Z</time>
      </trkpt>
      <trkpt lat="46.132736" lon="10.972931">
        <ele>1124.686136</ele>
        <time>2020-09-01T11:42:54.425Z</time>
      </trkpt>
      <trkpt lat="46.132644" lon="10.972891">
        <ele>1122.749484</ele>
        <time>2020-09-01T11:42:57.430Z</time>
      </trkpt>
      <trkpt lat="46.132544" lon="10.972838">
        <ele>1120.980289</ele>
        <time>2020-09-01T11:43:00.436Z</time>
      </trkpt>
      <trkpt lat="46.132437" lon="10.972770">
        <ele>1119.038619</ele>
        <time>2020-09-01T11:43:03.441Z</time>
      </trkpt>
      <trkpt lat="46.132347" lon="10.972739">
        <ele>1117.501979</ele>
        <time>2020-09-01T11:43:06.419Z</time>
      </trkpt>
      <trkpt lat="46.132256" lon="10.972692">
        <ele>1115.896836</ele>
        <time>2020-09-01T11:43:09.421Z</time>
      </trkpt>
      <trkpt lat="46.132145" lon="10.972680">
        <ele>1114.048268</ele>
        <time>2020-09-01T11:43:12.424Z</time>
      </trkpt>
      <trkpt lat="46.132033" lon="10.972632">
        <ele>1112.107958</ele>
        <time>2020-09-01T11:43:15.422Z</time>
      </trkpt>
      <trkpt lat="46.131923" lon="10.972593">
        <ele>1110.226831</ele>
        <time>2020-09-01T11:43:18.470Z</time>
      </trkpt>
      <trkpt lat="46.131810" lon="10.972569">
        <ele>1108.329997</ele>
        <time>2020-09-01T11:43:21.421Z</time>
      </trkpt>
      <trkpt lat="46.131719" lon="10.972566">
        <ele>1106.818345</ele>
        <time>2020-09-01T11:43:24.419Z</time>
      </trkpt>
      <trkpt lat="46.131614" lon="10.972588">
        <ele>1105.056300</ele>
        <time>2020-09-01T11:43:26.430Z</time>
      </trkpt>
      <trkpt lat="46.131484" lon="10.972600">
        <ele>1102.892948</ele>
        <time>2020-09-01T11:43:28.431Z</time>
      </trkpt>
      <trkpt lat="46.131372" lon="10.972608">
        <ele>1101.030662</ele>
        <time>2020-09-01T11:43:30.421Z</time>
      </trkpt>
      <trkpt lat="46.131232" lon="10.972584">
        <ele>1098.689301</ele>
        <time>2020-09-01T11:43:33.420Z</time>
      </trkpt>
      <trkpt lat="46.131136" lon="10.972565">
        <ele>1097.080081</ele>
        <time>2020-09-01T11:43:35.423Z</time>
      </trkpt>
      <trkpt lat="46.128221" lon="10.970726">
        <ele>1011.897661</ele>
        <time>2020-09-01T11:45:42.409Z</time>
      </trkpt>
      <trkpt lat="46.128231" lon="10.970595">
        <ele>1009.272822</ele>
        <time>2020-09-01T11:45:50.407Z</time>
      </trkpt>
      <trkpt lat="46.128302" lon="10.970501">
        <ele>1006.503700</ele>
        <time>2020-09-01T11:46:00.403Z</time>
      </trkpt>
      <trkpt lat="46.128392" lon="10.970463">
        <ele>1003.808861</ele>
        <time>2020-09-01T11:46:03.402Z</time>
      </trkpt>
      <trkpt lat="46.128477" lon="10.970374">
        <ele>1000.790795</ele>
        <time>2020-09-01T11:46:06.416Z</time>
      </trkpt>
      <trkpt lat="46.128525" lon="10.970256">
        <ele>998.065748</ele>
        <time>2020-09-01T11:46:09.411Z</time>
      </trkpt>
      <trkpt lat="46.128618" lon="10.970227">
        <ele>995.331456</ele>
        <time>2020-09-01T11:46:12.406Z</time>
      </trkpt>
      <trkpt lat="46.128727" lon="10.970180">
        <ele>992.309305</ele>
        <time>2020-09-01T11:46:16.403Z</time>
      </trkpt>
      <trkpt lat="46.128810" lon="10.970111">
        <ele>990.612189</ele>
        <time>2020-09-01T11:46:19.421Z</time>
      </trkpt>
      <trkpt lat="46.128901" lon="10.969982">
        <ele>988.352053</ele>
        <time>2020-09-01T11:46:22.420Z</time>
      </trkpt>
      <trkpt lat="46.128986" lon="10.969864">
        <ele>986.262289</ele>
        <time>2020-09-01T11:46:25.412Z</time>
      </trkpt>
      <trkpt lat="46.129081" lon="10.969775">
        <ele>984.255529</ele>
        <time>2020-09-01T11:46:28.400Z</time>
      </trkpt>
      <trkpt lat="46.129213" lon="10.969754">
        <ele>981.902708</ele>
        <time>2020-09-01T11:46:32.413Z</time>
      </trkpt>
      <trkpt lat="46.129316" lon="10.969769">
        <ele>980.068582</ele>
        <time>2020-09-01T11:46:35.410Z</time>
      </trkpt>
      <trkpt lat="46.129429" lon="10.969760">
        <ele>978.063508</ele>
        <time>2020-09-01T11:46:38.416Z</time>
      </trkpt>
      <trkpt lat="46.129537" lon="10.969775">
        <ele>976.141224</ele>
        <time>2020-09-01T11:46:41.422Z</time>
      </trkpt>
      <trkpt lat="46.129624" lon="10.969654">
        <ele>974.000398</ele>
        <time>2020-09-01T11:46:45.431Z</time>
      </trkpt>
      <trkpt lat="46.129690" lon="10.969559">
        <ele>972.348754</ele>
        <time>2020-09-01T11:46:47.406Z</time>
      </trkpt>
      <trkpt lat="46.129771" lon="10.969480">
        <ele>970.616604</ele>
        <time>2020-09-01T11:46:49.401Z</time>
      </trkpt>
      <trkpt lat="46.129967" lon="10.969405">
        <ele>967.024035</ele>
        <time>2020-09-01T11:46:50.390Z</time>
      </trkpt>
      <trkpt lat="46.130085" lon="10.969319">
        <ele>964.681886</ele>
        <time>2020-09-01T11:46:53.432Z</time>
      </trkpt>
      <trkpt lat="46.130160" lon="10.969243">
        <ele>963.058179</ele>
        <time>2020-09-01T11:46:55.392Z</time>
      </trkpt>
      <trkpt lat="46.130257" lon="10.969150">
        <ele>960.994852</ele>
        <time>2020-09-01T11:46:58.391Z</time>
      </trkpt>
      <trkpt lat="46.131525" lon="10.968940">
        <ele>941.092054</ele>
        <time>2020-09-01T11:47:27.413Z</time>
      </trkpt>
      <trkpt lat="46.132034" lon="10.968999">
        <ele>933.136701</ele>
        <time>2020-09-01T11:48:30.440Z</time>
      </trkpt>
      <trkpt lat="46.132132" lon="10.969036">
        <ele>930.941660</ele>
        <time>2020-09-01T11:48:32.449Z</time>
      </trkpt>
      <trkpt lat="46.132222" lon="10.969064">
        <ele>928.805062</ele>
        <time>2020-09-01T11:48:34.412Z</time>
      </trkpt>
      <trkpt lat="46.132355" lon="10.969060">
        <ele>925.717895</ele>
        <time>2020-09-01T11:48:36.419Z</time>
      </trkpt>
      <trkpt lat="46.132474" lon="10.969073">
        <ele>922.948390</ele>
        <time>2020-09-01T11:48:38.418Z</time>
      </trkpt>
      <trkpt lat="46.132565" lon="10.969061">
        <ele>920.827776</ele>
        <time>2020-09-01T11:48:40.413Z</time>
      </trkpt>
      <trkpt lat="46.132667" lon="10.969063">
        <ele>918.460470</ele>
        <time>2020-09-01T11:48:44.430Z</time>
      </trkpt>
      <trkpt lat="46.132781" lon="10.969026">
        <ele>915.748809</ele>
        <time>2020-09-01T11:48:47.408Z</time>
      </trkpt>
      <trkpt lat="46.132886" lon="10.969005">
        <ele>913.288809</ele>
        <time>2020-09-01T11:48:51.420Z</time>
      </trkpt>
      <trkpt lat="46.132992" lon="10.969095">
        <ele>910.434674</ele>
        <time>2020-09-01T11:48:54.459Z</time>
      </trkpt>
      <trkpt lat="46.133080" lon="10.969180">
        <ele>907.977205</ele>
        <time>2020-09-01T11:48:56.410Z</time>
      </trkpt>
      <trkpt lat="46.133183" lon="10.969244">
        <ele>905.374735</ele>
        <time>2020-09-01T11:48:58.417Z</time>
      </trkpt>
      <trkpt lat="46.133273" lon="10.969276">
        <ele>903.223663</ele>
        <time>2020-09-01T11:49:00.418Z</time>
      </trkpt>
      <trkpt lat="46.133401" lon="10.969314">
        <ele>900.190989</ele>
        <time>2020-09-01T11:49:03.409Z</time>
      </trkpt>
      <trkpt lat="46.133525" lon="10.969339">
        <ele>897.285403</ele>
        <time>2020-09-01T11:49:06.411Z</time>
      </trkpt>
      <trkpt lat="46.133641" lon="10.969357">
        <ele>894.577901</ele>
        <time>2020-09-01T11:49:10.415Z</time>
      </trkpt>
      <trkpt lat="46.133761" lon="10.969387">
        <ele>891.751610</ele>
        <time>2020-09-01T11:49:13.429Z</time>
      </trkpt>
      <trkpt lat="46.133857" lon="10.969441">
        <ele>891.032832</ele>
        <time>2020-09-01T11:49:17.426Z</time>
      </trkpt>
      <trkpt lat="46.133917" lon="10.969539">
        <ele>890.977675</ele>
        <time>2020-09-01T11:49:21.420Z</time>
      </trkpt>
      <trkpt lat="46.134231" lon="10.969697">
        <ele>890.775268</ele>
        <time>2020-09-01T11:49:26.451Z</time>
      </trkpt>
      <trkpt lat="46.134331" lon="10.969771">
        <ele>890.706865</ele>
        <time>2020-09-01T11:49:29.408Z</time>
      </trkpt>
      <trkpt lat="46.134420" lon="10.969849">
        <ele>890.643486</ele>
        <time>2020-09-01T11:49:32.404Z</time>
      </trkpt>
      <trkpt lat="46.134485" lon="10.969940">
        <ele>890.588364</ele>
        <time>2020-09-01T11:49:35.414Z</time>
      </trkpt>
      <trkpt lat="46.134584" lon="10.969973">
        <ele>890.526519</ele>
        <time>2020-09-01T11:49:38.411Z</time>
      </trkpt>
      <trkpt lat="46.134695" lon="10.970008">
        <ele>890.457364</ele>
        <time>2020-09-01T11:49:40.411Z</time>
      </trkpt>
      <trkpt lat="46.134801" lon="10.970010">
        <ele>890.392839</ele>
        <time>2020-09-01T11:49:42.412Z</time>
      </trkpt>
      <trkpt lat="46.134975" lon="10.970042">
        <ele>890.286075</ele>
        <time>2020-09-01T11:49:44.417Z</time>
      </trkpt>
      <trkpt lat="46.135100" lon="10.970056">
        <ele>890.209763</ele>
        <time>2020-09-01T11:49:46.408Z</time>
      </trkpt>
      <trkpt lat="46.135234" lon="10.970047">
        <ele>890.128114</ele>
        <time>2020-09-01T11:49:48.448Z</time>
      </trkpt>
      <trkpt lat="46.135377" lon="10.970090">
        <ele>890.039205</ele>
        <time>2020-09-01T11:49:50.401Z</time>
      </trkpt>
      <trkpt lat="46.135485" lon="10.970115">
        <ele>889.909882</ele>
        <time>2020-09-01T11:49:52.418Z</time>
      </trkpt>
      <trkpt lat="46.135628" lon="10.970158">
        <ele>889.288380</ele>
        <time>2020-09-01T11:49:54.421Z</time>
      </trkpt>
      <trkpt lat="46.135765" lon="10.970193">
        <ele>888.696410</ele>
        <time>2020-09-01T11:49:56.413Z</time>
      </trkpt>
      <trkpt lat="46.135898" lon="10.970167">
        <ele>888.125355</ele>
        <time>2020-09-01T11:49:58.408Z</time>
      </trkpt>
      <trkpt lat="46.136027" lon="10.970175">
        <ele>887.575981</ele>
        <time>2020-09-01T11:50:00.413Z</time>
      </trkpt>
      <trkpt lat="46.136148" lon="10.970151">
        <ele>887.056312</ele>
        <time>2020-09-01T11:50:02.408Z</time>
      </trkpt>
      <trkpt lat="46.136295" lon="10.970186">
        <ele>886.422403</ele>
        <time>2020-09-01T11:50:04.413Z</time>
      </trkpt>
      <trkpt lat="46.136424" lon="10.970215">
        <ele>885.866916</ele>
        <time>2020-09-01T11:50:06.409Z</time>
      </trkpt>
      <trkpt lat="46.136542" lon="10.970200">
        <ele>885.362907</ele>
        <time>2020-09-01T11:50:08.411Z</time>
      </trkpt>
      <trkpt lat="46.136662" lon="10.970219">
        <ele>884.849269</ele>
        <time>2020-09-01T11:50:10.414Z</time>
      </trkpt>
      <trkpt lat="46.136797" lon="10.970265">
        <ele>884.259079</ele>
        <time>2020-09-01T11:50:12.406Z</time>
      </trkpt>
      <trkpt lat="46.136918" lon="10.970328">
        <ele>883.711768</ele>
        <time>2020-09-01T11:50:14.439Z</time>
      </trkpt>
      <trkpt lat="46.137033" lon="10.970409">
        <ele>883.167300</ele>
        <time>2020-09-01T11:50:16.402Z</time>
      </trkpt>
      <trkpt lat="46.137158" lon="10.970487">
        <ele>882.587863</ele>
        <time>2020-09-01T11:50:18.403Z</time>
      </trkpt>
      <trkpt lat="46.137284" lon="10.970563">
        <ele>882.117856</ele>
        <time>2020-09-01T11:50:20.419Z</time>
      </trkpt>
      <trkpt lat="46.137379" lon="10.970620">
        <ele>881.830388</ele>
        <time>2020-09-01T11:50:22.403Z</time>
      </trkpt>
      <trkpt lat="46.137492" lon="10.970611">
        <ele>881.514173</ele>
        <time>2020-09-01T11:50:24.434Z</time>
      </trkpt>
      <trkpt lat="46.137596" lon="10.970604">
        <ele>881.223270</ele>
        <time>2020-09-01T11:50:26.454Z</time>
      </trkpt>
      <trkpt lat="46.137731" lon="10.970591">
        <ele>880.845226</ele>
        <time>2020-09-01T11:50:28.411Z</time>
      </trkpt>
      <trkpt lat="46.137905" lon="10.970618">
        <ele>880.356249</ele>
        <time>2020-09-01T11:50:30.423Z</time>
      </trkpt>
      <trkpt lat="46.138059" lon="10.970660">
        <ele>879.918340</ele>
        <time>2020-09-01T11:50:32.411Z</time>
      </trkpt>
      <trkpt lat="46.138195" lon="10.970728">
        <ele>879.516180</ele>
        <time>2020-09-01T11:50:34.417Z</time>
      </trkpt>
      <trkpt lat="46.138311" lon="10.970829">
        <ele>879.137644</ele>
        <time>2020-09-01T11:50:36.402Z</time>
      </trkpt>
      <trkpt lat="46.138412" lon="10.970826">
        <ele>878.855379</ele>
        <time>2020-09-01T11:50:38.403Z</time>
      </trkpt>
      <trkpt lat="46.138551" lon="10.970857">
        <ele>878.462387</ele>
        <time>2020-09-01T11:50:40.410Z</time>
      </trkpt>
      <trkpt lat="46.138650" lon="10.970901">
        <ele>878.172950</ele>
        <time>2020-09-01T11:50:42.410Z</time>
      </trkpt>
      <trkpt lat="46.138790" lon="10.970961">
        <ele>877.764890</ele>
        <time>2020-09-01T11:50:44.406Z</time>
      </trkpt>
      <trkpt lat="46.138974" lon="10.970874">
        <ele>877.326362</ele>
        <time>2020-09-01T11:50:46.426Z</time>
      </trkpt>
      <trkpt lat="46.139121" lon="10.970803">
        <ele>877.442771</ele>
        <time>2020-09-01T11:50:48.454Z</time>
      </trkpt>
      <trkpt lat="46.139229" lon="10.970760">
        <ele>877.526905</ele>
        <time>2020-09-01T11:50:50.411Z</time>
      </trkpt>
      <trkpt lat="46.139325" lon="10.970646">
        <ele>877.620265</ele>
        <time>2020-09-01T11:50:52.392Z</time>
      </trkpt>
      <trkpt lat="46.139431" lon="10.970604">
        <ele>877.702813</ele>
        <time>2020-09-01T11:50:54.406Z</time>
      </trkpt>
      <trkpt lat="46.139579" lon="10.970502">
        <ele>877.825977</ele>
        <time>2020-09-01T11:50:56.415Z</time>
      </trkpt>
      <trkpt lat="46.139698" lon="10.970387">
        <ele>877.933526</ele>
        <time>2020-09-01T11:50:58.412Z</time>
      </trkpt>
      <trkpt lat="46.139828" lon="10.970285">
        <ele>878.044646</ele>
        <time>2020-09-01T11:51:00.413Z</time>
      </trkpt>
      <trkpt lat="46.139938" lon="10.970163">
        <ele>878.148827</ele>
        <time>2020-09-01T11:51:02.413Z</time>
      </trkpt>
      <trkpt lat="46.140105" lon="10.970014">
        <ele>878.296268</ele>
        <time>2020-09-01T11:51:04.413Z</time>
      </trkpt>
      <trkpt lat="46.140230" lon="10.969896">
        <ele>878.408435</ele>
        <time>2020-09-01T11:51:06.417Z</time>
      </trkpt>
      <trkpt lat="46.140346" lon="10.969819">
        <ele>878.504319</ele>
        <time>2020-09-01T11:51:08.410Z</time>
      </trkpt>
      <trkpt lat="46.140459" lon="10.969787">
        <ele>878.590796</ele>
        <time>2020-09-01T11:51:10.451Z</time>
      </trkpt>
      <trkpt lat="46.140566" lon="10.969675">
        <ele>878.495441</ele>
        <time>2020-09-01T11:51:12.409Z</time>
      </trkpt>
      <trkpt lat="46.140670" lon="10.969632">
        <ele>878.120928</ele>
        <time>2020-09-01T11:51:14.401Z</time>
      </trkpt>
      <trkpt lat="46.140790" lon="10.969581">
        <ele>877.687870</ele>
        <time>2020-09-01T11:51:16.402Z</time>
      </trkpt>
      <trkpt lat="46.140878" lon="10.969504">
        <ele>877.331613</ele>
        <time>2020-09-01T11:51:18.408Z</time>
      </trkpt>
      <trkpt lat="46.140996" lon="10.969406">
        <ele>876.860311</ele>
        <time>2020-09-01T11:51:20.404Z</time>
      </trkpt>
      <trkpt lat="46.141077" lon="10.969312">
        <ele>876.500495</ele>
        <time>2020-09-01T11:51:22.390Z</time>
      </trkpt>
      <trkpt lat="46.141222" lon="10.969259">
        <ele>875.982682</ele>
        <time>2020-09-01T11:51:24.405Z</time>
      </trkpt>
      <trkpt lat="46.141343" lon="10.969165">
        <ele>875.506972</ele>
        <time>2020-09-01T11:51:26.408Z</time>
      </trkpt>
      <trkpt lat="46.141451" lon="10.969066">
        <ele>875.064057</ele>
        <time>2020-09-01T11:51:28.409Z</time>
      </trkpt>
      <trkpt lat="46.141516" lon="10.968946">
        <ele>874.698703</ele>
        <time>2020-09-01T11:51:30.418Z</time>
      </trkpt>
      <trkpt lat="46.141597" lon="10.968799">
        <ele>874.248198</ele>
        <time>2020-09-01T11:51:32.452Z</time>
      </trkpt>
      <trkpt lat="46.141646" lon="10.968664">
        <ele>873.882644</ele>
        <time>2020-09-01T11:51:34.402Z</time>
      </trkpt>
      <trkpt lat="46.141670" lon="10.968533">
        <ele>873.557625</ele>
        <time>2020-09-01T11:51:36.402Z</time>
      </trkpt>
      <trkpt lat="46.141682" lon="10.968373">
        <ele>873.171604</ele>
        <time>2020-09-01T11:51:38.401Z</time>
      </trkpt>
      <trkpt lat="46.141688" lon="10.968230">
        <ele>872.827972</ele>
        <time>2020-09-01T11:51:41.411Z</time>
      </trkpt>
      <trkpt lat="46.141474" lon="10.967833">
        <ele>873.013410</ele>
        <time>2020-09-01T11:52:44.409Z</time>
      </trkpt>
      <trkpt lat="46.141376" lon="10.967774">
        <ele>873.279623</ele>
        <time>2020-09-01T11:52:47.409Z</time>
      </trkpt>
      <trkpt lat="46.141262" lon="10.967712">
        <ele>873.585049</ele>
        <time>2020-09-01T11:52:50.404Z</time>
      </trkpt>
      <trkpt lat="46.141140" lon="10.967696">
        <ele>873.892173</ele>
        <time>2020-09-01T11:52:53.442Z</time>
      </trkpt>
      <trkpt lat="46.141043" lon="10.967774">
        <ele>874.170559</ele>
        <time>2020-09-01T11:52:59.389Z</time>
      </trkpt>
      <trkpt lat="46.140968" lon="10.967859">
        <ele>874.409635</ele>
        <time>2020-09-01T11:53:16.409Z</time>
      </trkpt>
      <trkpt lat="46.140864" lon="10.967883">
        <ele>874.673684</ele>
        <time>2020-09-01T11:53:36.417Z</time>
      </trkpt>
      <trkpt lat="46.140774" lon="10.967914">
        <ele>874.905658</ele>
        <time>2020-09-01T11:53:41.418Z</time>
      </trkpt>
      <trkpt lat="46.140584" lon="10.968031">
        <ele>875.423550</ele>
        <time>2020-09-01T11:54:08.415Z</time>
      </trkpt>
      <trkpt lat="46.140487" lon="10.968098">
        <ele>875.693154</ele>
        <time>2020-09-01T11:54:11.422Z</time>
      </trkpt>
      <trkpt lat="46.140403" lon="10.968170">
        <ele>875.938090</ele>
        <time>2020-09-01T11:54:14.412Z</time>
      </trkpt>
      <trkpt lat="46.140310" lon="10.968201">
        <ele>876.177386</ele>
        <time>2020-09-01T11:54:18.410Z</time>
      </trkpt>
      <trkpt lat="46.140221" lon="10.968229">
        <ele>876.405756</ele>
        <time>2020-09-01T11:54:23.416Z</time>
      </trkpt>
      <trkpt lat="46.140125" lon="10.968250">
        <ele>876.649185</ele>
        <time>2020-09-01T11:54:27.429Z</time>
      </trkpt>
      <trkpt lat="46.140036" lon="10.968290">
        <ele>876.882884</ele>
        <time>2020-09-01T11:54:30.406Z</time>
      </trkpt>
      <trkpt lat="46.139939" lon="10.968318">
        <ele>876.729850</ele>
        <time>2020-09-01T11:54:33.417Z</time>
      </trkpt>
      <trkpt lat="46.139820" lon="10.968371">
        <ele>876.392554</ele>
        <time>2020-09-01T11:54:36.414Z</time>
      </trkpt>
      <trkpt lat="46.139703" lon="10.968415">
        <ele>876.065091</ele>
        <time>2020-09-01T11:54:39.413Z</time>
      </trkpt>
      <trkpt lat="46.139597" lon="10.968414">
        <ele>875.777997</ele>
        <time>2020-09-01T11:54:42.409Z</time>
      </trkpt>
      <trkpt lat="46.139524" lon="10.968330">
        <ele>875.525133</ele>
        <time>2020-09-01T11:54:45.399Z</time>
      </trkpt>
      <trkpt lat="46.139470" lon="10.968193">
        <ele>875.229344</ele>
        <time>2020-09-01T11:54:49.401Z</time>
      </trkpt>
      <trkpt lat="46.139414" lon="10.968065">
        <ele>874.945258</ele>
        <time>2020-09-01T11:54:53.404Z</time>
      </trkpt>
      <trkpt lat="46.139353" lon="10.967920">
        <ele>874.626916</ele>
        <time>2020-09-01T11:54:57.409Z</time>
      </trkpt>
      <trkpt lat="46.139321" lon="10.967794">
        <ele>874.375074</ele>
        <time>2020-09-01T11:55:00.399Z</time>
      </trkpt>
      <trkpt lat="46.139286" lon="10.967668">
        <ele>874.120322</ele>
        <time>2020-09-01T11:55:03.396Z</time>
      </trkpt>
      <trkpt lat="46.139245" lon="10.967544">
        <ele>873.862480</ele>
        <time>2020-09-01T11:55:06.389Z</time>
      </trkpt>
      <trkpt lat="46.139187" lon="10.967426">
        <ele>873.590976</ele>
        <time>2020-09-01T11:55:09.406Z</time>
      </trkpt>
      <trkpt lat="46.139131" lon="10.967300">
        <ele>873.310054</ele>
        <time>2020-09-01T11:55:12.396Z</time>
      </trkpt>
      <trkpt lat="46.139081" lon="10.967179">
        <ele>873.045664</ele>
        <time>2020-09-01T11:55:15.404Z</time>
      </trkpt>
      <trkpt lat="46.139041" lon="10.967058">
        <ele>872.794069</ele>
        <time>2020-09-01T11:55:18.396Z</time>
      </trkpt>
      <trkpt lat="46.139019" lon="10.966907">
        <ele>872.504495</ele>
        <time>2020-09-01T11:55:21.412Z</time>
      </trkpt>
      <trkpt lat="46.139005" lon="10.966746">
        <ele>872.199982</ele>
        <time>2020-09-01T11:55:24.419Z</time>
      </trkpt>
      <trkpt lat="46.138994" lon="10.966606">
        <ele>871.891487</ele>
        <time>2020-09-01T11:55:27.411Z</time>
      </trkpt>
      <trkpt lat="46.138985" lon="10.966464">
        <ele>871.533936</ele>
        <time>2020-09-01T11:55:31.412Z</time>
      </trkpt>
      <trkpt lat="46.138992" lon="10.966304">
        <ele>871.131937</ele>
        <time>2020-09-01T11:55:34.416Z</time>
      </trkpt>
      <trkpt lat="46.139004" lon="10.966123">
        <ele>870.676008</ele>
        <time>2020-09-01T11:55:37.426Z</time>
      </trkpt>
      <trkpt lat="46.139018" lon="10.965973">
        <ele>870.296487</ele>
        <time>2020-09-01T11:55:40.414Z</time>
      </trkpt>
      <trkpt lat="46.139051" lon="10.965835">
        <ele>869.930426</ele>
        <time>2020-09-01T11:55:43.412Z</time>
      </trkpt>
      <trkpt lat="46.139097" lon="10.965705">
        <ele>869.564408</ele>
        <time>2020-09-01T11:55:46.410Z</time>
      </trkpt>
      <trkpt lat="46.139142" lon="10.965582">
        <ele>869.215635</ele>
        <time>2020-09-01T11:55:49.413Z</time>
      </trkpt>
      <trkpt lat="46.139197" lon="10.965433">
        <ele>868.792311</ele>
        <time>2020-09-01T11:55:53.419Z</time>
      </trkpt>
      <trkpt lat="46.139239" lon="10.965316">
        <ele>868.461903</ele>
        <time>2020-09-01T11:55:56.415Z</time>
      </trkpt>
      <trkpt lat="46.139294" lon="10.965169">
        <ele>868.042999</ele>
        <time>2020-09-01T11:56:00.427Z</time>
      </trkpt>
      <trkpt lat="46.139355" lon="10.965019">
        <ele>867.606884</ele>
        <time>2020-09-01T11:56:04.428Z</time>
      </trkpt>
      <trkpt lat="46.139432" lon="10.964894">
        <ele>867.187497</ele>
        <time>2020-09-01T11:56:08.458Z</time>
      </trkpt>
      <trkpt lat="46.139478" lon="10.964769">
        <ele>866.832601</ele>
        <time>2020-09-01T11:56:11.411Z</time>
      </trkpt>
      <trkpt lat="46.139492" lon="10.964638">
        <ele>866.500238</ele>
        <time>2020-09-01T11:56:14.415Z</time>
      </trkpt>
      <trkpt lat="46.139519" lon="10.964486">
        <ele>866.106777</ele>
        <time>2020-09-01T11:56:18.412Z</time>
      </trkpt>
      <trkpt lat="46.139560" lon="10.964363">
        <ele>865.764526</ele>
        <time>2020-09-01T11:56:21.413Z</time>
      </trkpt>
      <trkpt lat="46.139608" lon="10.964236">
        <ele>865.763230</ele>
        <time>2020-09-01T11:56:24.424Z</time>
      </trkpt>
      <trkpt lat="46.139654" lon="10.964122">
        <ele>866.198826</ele>
        <time>2020-09-01T11:56:28.423Z</time>
      </trkpt>
      <trkpt lat="46.139711" lon="10.964016">
        <ele>866.641865</ele>
        <time>2020-09-01T11:56:32.411Z</time>
      </trkpt>
      <trkpt lat="46.139785" lon="10.963913">
        <ele>867.131783</ele>
        <time>2020-09-01T11:56:36.462Z</time>
      </trkpt>
      <trkpt lat="46.139874" lon="10.963870">
        <ele>867.579035</ele>
        <time>2020-09-01T11:56:41.416Z</time>
      </trkpt>
      <trkpt lat="46.139947" lon="10.963763">
        <ele>868.074857</ele>
        <time>2020-09-01T11:56:48.423Z</time>
      </trkpt>
      <trkpt lat="46.140007" lon="10.963660">
        <ele>868.519173</ele>
        <time>2020-09-01T11:56:55.405Z</time>
      </trkpt>
      <trkpt lat="46.140029" lon="10.963527">
        <ele>868.970668</ele>
        <time>2020-09-01T11:57:04.405Z</time>
      </trkpt>
      <trkpt lat="46.139980" lon="10.963417">
        <ele>869.402461</ele>
        <time>2020-09-01T11:57:18.408Z</time>
      </trkpt>
      <trkpt lat="46.139906" lon="10.963338">
        <ele>869.841091</ele>
        <time>2020-09-01T11:57:26.425Z</time>
      </trkpt>
      <trkpt lat="46.139810" lon="10.963338">
        <ele>870.298565</ele>
        <time>2020-09-01T11:57:30.421Z</time>
      </trkpt>
      <trkpt lat="46.139708" lon="10.963366">
        <ele>870.793347</ele>
        <time>2020-09-01T11:57:34.405Z</time>
      </trkpt>
      <trkpt lat="46.139557" lon="10.963349">
        <ele>871.515102</ele>
        <time>2020-09-01T11:57:37.417Z</time>
      </trkpt>
      <trkpt lat="46.139436" lon="10.963293">
        <ele>872.120634</ele>
        <time>2020-09-01T11:57:40.413Z</time>
      </trkpt>
      <trkpt lat="46.139315" lon="10.963321">
        <ele>872.704608</ele>
        <time>2020-09-01T11:57:43.413Z</time>
      </trkpt>
      <trkpt lat="46.139211" lon="10.963366">
        <ele>873.222000</ele>
        <time>2020-09-01T11:57:46.417Z</time>
      </trkpt>
      <trkpt lat="46.139116" lon="10.963427">
        <ele>873.717496</ele>
        <time>2020-09-01T11:57:49.417Z</time>
      </trkpt>
      <trkpt lat="46.139027" lon="10.963497">
        <ele>874.082069</ele>
        <time>2020-09-01T11:57:53.403Z</time>
      </trkpt>
      <trkpt lat="46.138918" lon="10.963530">
        <ele>873.734047</ele>
        <time>2020-09-01T11:57:56.445Z</time>
      </trkpt>
      <trkpt lat="46.138821" lon="10.963498">
        <ele>873.423119</ele>
        <time>2020-09-01T11:58:00.443Z</time>
      </trkpt>
      <trkpt lat="46.138740" lon="10.963556">
        <ele>873.140563</ele>
        <time>2020-09-01T11:58:05.426Z</time>
      </trkpt>
      <trkpt lat="46.138692" lon="10.963683">
        <ele>872.827329</ele>
        <time>2020-09-01T11:58:09.446Z</time>
      </trkpt>
      <trkpt lat="46.138613" lon="10.963778">
        <ele>872.505999</ele>
        <time>2020-09-01T11:58:14.428Z</time>
      </trkpt>
      <trkpt lat="46.138524" lon="10.963827">
        <ele>872.208337</ele>
        <time>2020-09-01T11:58:20.438Z</time>
      </trkpt>
      <trkpt lat="46.138478" lon="10.963947">
        <ele>871.911395</ele>
        <time>2020-09-01T11:58:24.419Z</time>
      </trkpt>
      <trkpt lat="46.138527" lon="10.963829">
        <ele>871.613527</ele>
        <time>2020-09-01T11:59:04.392Z</time>
      </trkpt>
      <trkpt lat="46.138623" lon="10.963816">
        <ele>871.312224</ele>
        <time>2020-09-01T11:59:14.406Z</time>
      </trkpt>
      <trkpt lat="46.138529" lon="10.963857">
        <ele>871.005366</ele>
        <time>2020-09-01T11:59:39.415Z</time>
      </trkpt>
      <trkpt lat="46.138440" lon="10.963780">
        <ele>870.681108</ele>
        <time>2020-09-01T11:59:47.423Z</time>
      </trkpt>
      <trkpt lat="46.138376" lon="10.963680">
        <ele>870.386354</ele>
        <time>2020-09-01T11:59:52.407Z</time>
      </trkpt>
      <trkpt lat="46.138324" lon="10.963567">
        <ele>870.092637</ele>
        <time>2020-09-01T11:59:56.405Z</time>
      </trkpt>
      <trkpt lat="46.138296" lon="10.963423">
        <ele>869.768795</ele>
        <time>2020-09-01T12:00:00.421Z</time>
      </trkpt>
      <trkpt lat="46.138282" lon="10.963265">
        <ele>869.423897</ele>
        <time>2020-09-01T12:00:04.430Z</time>
      </trkpt>
      <trkpt lat="46.138277" lon="10.963126">
        <ele>869.122519</ele>
        <time>2020-09-01T12:00:07.441Z</time>
      </trkpt>
      <trkpt lat="46.138275" lon="10.962964">
        <ele>868.771690</ele>
        <time>2020-09-01T12:00:10.420Z</time>
      </trkpt>
      <trkpt lat="46.138287" lon="10.962814">
        <ele>868.471782</ele>
        <time>2020-09-01T12:00:13.434Z</time>
      </trkpt>
      <trkpt lat="46.138301" lon="10.962653">
        <ele>868.269464</ele>
        <time>2020-09-01T12:00:16.438Z</time>
      </trkpt>
      <trkpt lat="46.138309" lon="10.962476">
        <ele>868.048303</ele>
        <time>2020-09-01T12:00:19.424Z</time>
      </trkpt>
      <trkpt lat="46.138308" lon="10.962342">
        <ele>867.881215</ele>
        <time>2020-09-01T12:00:22.436Z</time>
      </trkpt>
      <trkpt lat="46.138258" lon="10.962221">
        <ele>867.705556</ele>
        <time>2020-09-01T12:00:27.418Z</time>
      </trkpt>
      <trkpt lat="46.138160" lon="10.962107">
        <ele>867.479059</ele>
        <time>2020-09-01T12:00:31.422Z</time>
      </trkpt>
      <trkpt lat="46.138062" lon="10.961922">
        <ele>867.188707</ele>
        <time>2020-09-01T12:00:33.422Z</time>
      </trkpt>
      <trkpt lat="46.137946" lon="10.961841">
        <ele>866.956825</ele>
        <time>2020-09-01T12:00:37.449Z</time>
      </trkpt>
      <trkpt lat="46.137844" lon="10.961763">
        <ele>866.749110</ele>
        <time>2020-09-01T12:00:41.423Z</time>
      </trkpt>
      <trkpt lat="46.137747" lon="10.961691">
        <ele>866.552833</ele>
        <time>2020-09-01T12:00:44.439Z</time>
      </trkpt>
      <trkpt lat="46.137661" lon="10.961634">
        <ele>866.382543</ele>
        <time>2020-09-01T12:00:47.421Z</time>
      </trkpt>
      <trkpt lat="46.137555" lon="10.961545">
        <ele>866.161873</ele>
        <time>2020-09-01T12:00:50.421Z</time>
      </trkpt>
      <trkpt lat="46.137516" lon="10.961398">
        <ele>865.965608</ele>
        <time>2020-09-01T12:00:54.422Z</time>
      </trkpt>
      <trkpt lat="46.137515" lon="10.961233">
        <ele>865.759867</ele>
        <time>2020-09-01T12:00:58.419Z</time>
      </trkpt>
      <trkpt lat="46.137530" lon="10.961066">
        <ele>865.549898</ele>
        <time>2020-09-01T12:01:02.419Z</time>
      </trkpt>
      <trkpt lat="46.137542" lon="10.960923">
        <ele>865.370293</ele>
        <time>2020-09-01T12:01:04.415Z</time>
      </trkpt>
      <trkpt lat="46.137553" lon="10.960771">
        <ele>865.196215</ele>
        <time>2020-09-01T12:01:07.418Z</time>
      </trkpt>
      <trkpt lat="46.137536" lon="10.960602">
        <ele>865.021317</ele>
        <time>2020-09-01T12:01:10.450Z</time>
      </trkpt>
      <trkpt lat="46.137436" lon="10.960520">
        <ele>864.851323</ele>
        <time>2020-09-01T12:01:13.417Z</time>
      </trkpt>
      <trkpt lat="46.137341" lon="10.960456">
        <ele>864.696365</ele>
        <time>2020-09-01T12:01:16.424Z</time>
      </trkpt>
      <trkpt lat="46.137243" lon="10.960444">
        <ele>864.550999</ele>
        <time>2020-09-01T12:01:19.421Z</time>
      </trkpt>
      <trkpt lat="46.137152" lon="10.960451">
        <ele>864.416309</ele>
        <time>2020-09-01T12:01:22.420Z</time>
      </trkpt>
      <trkpt lat="46.137062" lon="10.960379">
        <ele>864.264215</ele>
        <time>2020-09-01T12:01:26.416Z</time>
      </trkpt>
      <trkpt lat="46.137028" lon="10.960247">
        <ele>864.119987</ele>
        <time>2020-09-01T12:01:30.404Z</time>
      </trkpt>
      <trkpt lat="46.137003" lon="10.960092">
        <ele>863.956997</ele>
        <time>2020-09-01T12:01:34.408Z</time>
      </trkpt>
      <trkpt lat="46.136984" lon="10.959937">
        <ele>863.795785</ele>
        <time>2020-09-01T12:01:37.417Z</time>
      </trkpt>
      <trkpt lat="46.136951" lon="10.959783">
        <ele>863.630693</ele>
        <time>2020-09-01T12:01:40.428Z</time>
      </trkpt>
      <trkpt lat="46.136913" lon="10.959651">
        <ele>863.484300</ele>
        <time>2020-09-01T12:01:43.464Z</time>
      </trkpt>
      <trkpt lat="46.136869" lon="10.959499">
        <ele>863.315587</ele>
        <time>2020-09-01T12:01:46.433Z</time>
      </trkpt>
      <trkpt lat="46.136816" lon="10.959338">
        <ele>863.133034</ele>
        <time>2020-09-01T12:01:51.430Z</time>
      </trkpt>
      <trkpt lat="46.136758" lon="10.959215">
        <ele>862.980659</ele>
        <time>2020-09-01T12:01:54.446Z</time>
      </trkpt>
      <trkpt lat="46.136699" lon="10.959056">
        <ele>862.795936</ele>
        <time>2020-09-01T12:01:56.417Z</time>
      </trkpt>
      <trkpt lat="46.136648" lon="10.958930">
        <ele>862.646487</ele>
        <time>2020-09-01T12:02:00.417Z</time>
      </trkpt>
      <trkpt lat="46.136574" lon="10.958788">
        <ele>862.601978</ele>
        <time>2020-09-01T12:02:06.421Z</time>
      </trkpt>
      <trkpt lat="46.136513" lon="10.958674">
        <ele>862.590514</ele>
        <time>2020-09-01T12:02:09.417Z</time>
      </trkpt>
      <trkpt lat="46.136448" lon="10.958542">
        <ele>862.577624</ele>
        <time>2020-09-01T12:02:12.428Z</time>
      </trkpt>
      <trkpt lat="46.136392" lon="10.958433">
        <ele>862.566824</ele>
        <time>2020-09-01T12:02:14.424Z</time>
      </trkpt>
      <trkpt lat="46.136331" lon="10.958323">
        <ele>862.555610</ele>
        <time>2020-09-01T12:02:17.418Z</time>
      </trkpt>
      <trkpt lat="46.136279" lon="10.958191">
        <ele>862.543524</ele>
        <time>2020-09-01T12:02:20.427Z</time>
      </trkpt>
      <trkpt lat="46.136219" lon="10.958072">
        <ele>862.531810</ele>
        <time>2020-09-01T12:02:24.449Z</time>
      </trkpt>
      <trkpt lat="46.136171" lon="10.957953">
        <ele>862.520850</ele>
        <time>2020-09-01T12:02:26.419Z</time>
      </trkpt>
      <trkpt lat="46.136150" lon="10.957793">
        <ele>862.507889</ele>
        <time>2020-09-01T12:02:30.423Z</time>
      </trkpt>
      <trkpt lat="46.136183" lon="10.957670">
        <ele>862.497390</ele>
        <time>2020-09-01T12:02:33.420Z</time>
      </trkpt>
      <trkpt lat="46.136141" lon="10.957537">
        <ele>862.485757</ele>
        <time>2020-09-01T12:02:39.412Z</time>
      </trkpt>
      <trkpt lat="46.136096" lon="10.957417">
        <ele>862.474896</ele>
        <time>2020-09-01T12:02:50.418Z</time>
      </trkpt>
      <trkpt lat="46.135797" lon="10.957155">
        <ele>862.434716</ele>
        <time>2020-09-01T12:03:34.415Z</time>
      </trkpt>
      <trkpt lat="46.135693" lon="10.957112">
        <ele>862.422289</ele>
        <time>2020-09-01T12:03:37.447Z</time>
      </trkpt>
      <trkpt lat="46.135602" lon="10.957042">
        <ele>862.410444</ele>
        <time>2020-09-01T12:03:41.420Z</time>
      </trkpt>
      <trkpt lat="46.135494" lon="10.956986">
        <ele>862.210430</ele>
        <time>2020-09-01T12:03:45.419Z</time>
      </trkpt>
      <trkpt lat="46.135389" lon="10.956946">
        <ele>861.957612</ele>
        <time>2020-09-01T12:03:50.432Z</time>
      </trkpt>
      <trkpt lat="46.135320" lon="10.956863">
        <ele>861.748489</ele>
        <time>2020-09-01T12:03:54.434Z</time>
      </trkpt>
      <trkpt lat="46.135256" lon="10.956761">
        <ele>861.526506</ele>
        <time>2020-09-01T12:04:00.442Z</time>
      </trkpt>
      <trkpt lat="46.135200" lon="10.956645">
        <ele>861.298436</ele>
        <time>2020-09-01T12:04:03.425Z</time>
      </trkpt>
      <trkpt lat="46.135149" lon="10.956517">
        <ele>861.060241</ele>
        <time>2020-09-01T12:04:07.424Z</time>
      </trkpt>
      <trkpt lat="46.135110" lon="10.956391">
        <ele>860.837617</ele>
        <time>2020-09-01T12:04:10.424Z</time>
      </trkpt>
      <trkpt lat="46.135171" lon="10.956290">
        <ele>860.621479</ele>
        <time>2020-09-01T12:04:16.431Z</time>
      </trkpt>
      <trkpt lat="46.135160" lon="10.956141">
        <ele>860.379746</ele>
        <time>2020-09-01T12:04:19.444Z</time>
      </trkpt>
      <trkpt lat="46.135059" lon="10.956010">
        <ele>860.063598</ele>
        <time>2020-09-01T12:04:21.434Z</time>
      </trkpt>
      <trkpt lat="46.134975" lon="10.955902">
        <ele>859.801685</ele>
        <time>2020-09-01T12:04:23.431Z</time>
      </trkpt>
      <trkpt lat="46.134879" lon="10.955805">
        <ele>859.528855</ele>
        <time>2020-09-01T12:04:26.461Z</time>
      </trkpt>
      <trkpt lat="46.134790" lon="10.955689">
        <ele>859.249659</ele>
        <time>2020-09-01T12:04:29.425Z</time>
      </trkpt>
      <trkpt lat="46.134723" lon="10.955594">
        <ele>859.030986</ele>
        <time>2020-09-01T12:04:32.435Z</time>
      </trkpt>
      <trkpt lat="46.134638" lon="10.955477">
        <ele>858.757518</ele>
        <time>2020-09-01T12:04:36.428Z</time>
      </trkpt>
      <trkpt lat="46.134565" lon="10.955386">
        <ele>858.532942</ele>
        <time>2020-09-01T12:04:39.428Z</time>
      </trkpt>
      <trkpt lat="46.134417" lon="10.955366">
        <ele>858.140298</ele>
        <time>2020-09-01T12:04:42.435Z</time>
      </trkpt>
      <trkpt lat="46.134291" lon="10.955297">
        <ele>857.380308</ele>
        <time>2020-09-01T12:04:43.430Z</time>
      </trkpt>
      <trkpt lat="46.134171" lon="10.955224">
        <ele>856.645924</ele>
        <time>2020-09-01T12:04:45.407Z</time>
      </trkpt>
      <trkpt lat="46.134074" lon="10.955136">
        <ele>855.999796</ele>
        <time>2020-09-01T12:04:47.422Z</time>
      </trkpt>
      <trkpt lat="46.133987" lon="10.955018">
        <ele>855.326489</ele>
        <time>2020-09-01T12:04:51.441Z</time>
      </trkpt>
      <trkpt lat="46.133880" lon="10.954867">
        <ele>854.482511</ele>
        <time>2020-09-01T12:04:54.433Z</time>
      </trkpt>
      <trkpt lat="46.133796" lon="10.954730">
        <ele>853.767653</ele>
        <time>2020-09-01T12:04:57.413Z</time>
      </trkpt>
      <trkpt lat="46.133715" lon="10.954590">
        <ele>853.054932</ele>
        <time>2020-09-01T12:05:00.419Z</time>
      </trkpt>
      <trkpt lat="46.133630" lon="10.954461">
        <ele>852.359303</ele>
        <time>2020-09-01T12:05:02.419Z</time>
      </trkpt>
      <trkpt lat="46.133533" lon="10.954328">
        <ele>851.604744</ele>
        <time>2020-09-01T12:05:04.410Z</time>
      </trkpt>
      <trkpt lat="46.133451" lon="10.954196">
        <ele>850.911977</ele>
        <time>2020-09-01T12:05:06.417Z</time>
      </trkpt>
      <trkpt lat="46.133427" lon="10.954029">
        <ele>850.245470</ele>
        <time>2020-09-01T12:05:11.416Z</time>
      </trkpt>
      <trkpt lat="46.133411" lon="10.953887">
        <ele>849.683259</ele>
        <time>2020-09-01T12:05:14.424Z</time>
      </trkpt>
      <trkpt lat="46.133418" lon="10.953736">
        <ele>849.091846</ele>
        <time>2020-09-01T12:05:17.424Z</time>
      </trkpt>
      <trkpt lat="46.133400" lon="10.953591">
        <ele>848.516179</ele>
        <time>2020-09-01T12:05:21.452Z</time>
      </trkpt>
      <trkpt lat="46.133395" lon="10.953454">
        <ele>847.864449</ele>
        <time>2020-09-01T12:05:25.422Z</time>
      </trkpt>
      <trkpt lat="46.133384" lon="10.953295">
        <ele>846.492332</ele>
        <time>2020-09-01T12:05:29.422Z</time>
      </trkpt>
      <trkpt lat="46.133390" lon="10.953135">
        <ele>845.116405</ele>
        <time>2020-09-01T12:05:34.418Z</time>
      </trkpt>
      <trkpt lat="46.133381" lon="10.952971">
        <ele>843.703732</ele>
        <time>2020-09-01T12:05:38.436Z</time>
      </trkpt>
      <trkpt lat="46.133360" lon="10.952820">
        <ele>842.381244</ele>
        <time>2020-09-01T12:05:42.437Z</time>
      </trkpt>
      <trkpt lat="46.133326" lon="10.952679">
        <ele>841.099272</ele>
        <time>2020-09-01T12:05:46.429Z</time>
      </trkpt>
      <trkpt lat="46.133294" lon="10.952537">
        <ele>839.817066</ele>
        <time>2020-09-01T12:05:50.433Z</time>
      </trkpt>
      <trkpt lat="46.133259" lon="10.952401">
        <ele>838.571304</ele>
        <time>2020-09-01T12:05:54.473Z</time>
      </trkpt>
      <trkpt lat="46.133202" lon="10.952292">
        <ele>837.398728</ele>
        <time>2020-09-01T12:05:58.425Z</time>
      </trkpt>
      <trkpt lat="46.133160" lon="10.952151">
        <ele>836.080845</ele>
        <time>2020-09-01T12:06:02.432Z</time>
      </trkpt>
      <trkpt lat="46.133070" lon="10.952123">
        <ele>834.939999</ele>
        <time>2020-09-01T12:06:08.438Z</time>
      </trkpt>
      <trkpt lat="46.133026" lon="10.951967">
        <ele>833.493718</ele>
        <time>2020-09-01T12:06:11.438Z</time>
      </trkpt>
      <trkpt lat="46.133033" lon="10.951827">
        <ele>832.288407</ele>
        <time>2020-09-01T12:06:14.434Z</time>
      </trkpt>
      <trkpt lat="46.133027" lon="10.951652">
        <ele>830.783838</ele>
        <time>2020-09-01T12:06:18.442Z</time>
      </trkpt>
      <trkpt lat="46.132984" lon="10.951538">
        <ele>829.669300</ele>
        <time>2020-09-01T12:06:21.441Z</time>
      </trkpt>
      <trkpt lat="46.132925" lon="10.951433">
        <ele>828.508504</ele>
        <time>2020-09-01T12:06:25.438Z</time>
      </trkpt>
      <trkpt lat="46.132878" lon="10.951305">
        <ele>827.264600</ele>
        <time>2020-09-01T12:06:28.430Z</time>
      </trkpt>
      <trkpt lat="46.132848" lon="10.951170">
        <ele>826.047201</ele>
        <time>2020-09-01T12:06:38.423Z</time>
      </trkpt>
      <trkpt lat="46.132573" lon="10.950405">
        <ele>826.212523</ele>
        <time>2020-09-01T12:06:39.411Z</time>
      </trkpt>
      <trkpt lat="46.132513" lon="10.950285">
        <ele>826.287874</ele>
        <time>2020-09-01T12:06:40.407Z</time>
      </trkpt>
      <trkpt lat="46.132391" lon="10.950136">
        <ele>826.405320</ele>
        <time>2020-09-01T12:06:43.396Z</time>
      </trkpt>
      <trkpt lat="46.132317" lon="10.950054">
        <ele>826.473880</ele>
        <time>2020-09-01T12:06:44.418Z</time>
      </trkpt>
      <trkpt lat="46.132256" lon="10.949954">
        <ele>826.541719</ele>
        <time>2020-09-01T12:06:46.419Z</time>
      </trkpt>
      <trkpt lat="46.132159" lon="10.949859">
        <ele>826.627863</ele>
        <time>2020-09-01T12:06:50.424Z</time>
      </trkpt>
      <trkpt lat="46.132062" lon="10.949714">
        <ele>826.730491</ele>
        <time>2020-09-01T12:06:51.438Z</time>
      </trkpt>
      <trkpt lat="46.131953" lon="10.949602">
        <ele>826.828817</ele>
        <time>2020-09-01T12:06:52.423Z</time>
      </trkpt>
      <trkpt lat="46.131872" lon="10.949505">
        <ele>826.906163</ele>
        <time>2020-09-01T12:06:55.422Z</time>
      </trkpt>
      <trkpt lat="46.131798" lon="10.949397">
        <ele>826.983503</ele>
        <time>2020-09-01T12:06:58.425Z</time>
      </trkpt>
      <trkpt lat="46.131708" lon="10.949307">
        <ele>827.063965</ele>
        <time>2020-09-01T12:07:02.432Z</time>
      </trkpt>
      <trkpt lat="46.131621" lon="10.949213">
        <ele>828.370214</ele>
        <time>2020-09-01T12:07:05.421Z</time>
      </trkpt>
      <trkpt lat="46.131507" lon="10.949148">
        <ele>831.790634</ele>
        <time>2020-09-01T12:07:08.426Z</time>
      </trkpt>
      <trkpt lat="46.131385" lon="10.949143">
        <ele>835.196331</ele>
        <time>2020-09-01T12:07:11.438Z</time>
      </trkpt>
      <trkpt lat="46.131262" lon="10.949169">
        <ele>838.665190</ele>
        <time>2020-09-01T12:07:14.429Z</time>
      </trkpt>
      <trkpt lat="46.131168" lon="10.949221">
        <ele>841.474341</ele>
        <time>2020-09-01T12:07:17.423Z</time>
      </trkpt>
      <trkpt lat="46.131088" lon="10.949284">
        <ele>844.017487</ele>
        <time>2020-09-01T12:07:21.432Z</time>
      </trkpt>
      <trkpt lat="46.131020" lon="10.949371">
        <ele>846.553421</ele>
        <time>2020-09-01T12:07:25.439Z</time>
      </trkpt>
      <trkpt lat="46.130937" lon="10.949424">
        <ele>849.086121</ele>
        <time>2020-09-01T12:07:28.443Z</time>
      </trkpt>
      <trkpt lat="46.130837" lon="10.949479">
        <ele>852.072378</ele>
        <time>2020-09-01T12:07:32.439Z</time>
      </trkpt>
      <trkpt lat="46.130768" lon="10.949575">
        <ele>854.746995</ele>
        <time>2020-09-01T12:07:37.473Z</time>
      </trkpt>
      <trkpt lat="46.130719" lon="10.949697">
        <ele>857.473823</ele>
        <time>2020-09-01T12:07:42.441Z</time>
      </trkpt>
      <trkpt lat="46.130624" lon="10.949763">
        <ele>860.415981</ele>
        <time>2020-09-01T12:07:45.440Z</time>
      </trkpt>
      <trkpt lat="46.130547" lon="10.949840">
        <ele>863.030144</ele>
        <time>2020-09-01T12:07:49.432Z</time>
      </trkpt>
      <trkpt lat="46.130458" lon="10.949892">
        <ele>865.709489</ele>
        <time>2020-09-01T12:07:53.427Z</time>
      </trkpt>
      <trkpt lat="46.130364" lon="10.949927">
        <ele>868.418411</ele>
        <time>2020-09-01T12:07:58.434Z</time>
      </trkpt>
      <trkpt lat="46.130264" lon="10.949931">
        <ele>871.209912</ele>
        <time>2020-09-01T12:08:02.440Z</time>
      </trkpt>
      <trkpt lat="46.130174" lon="10.949951">
        <ele>873.750906</ele>
        <time>2020-09-01T12:08:08.432Z</time>
      </trkpt>
      <trkpt lat="46.130187" lon="10.949801">
        <ele>876.674245</ele>
        <time>2020-09-01T12:08:20.500Z</time>
      </trkpt>
      <trkpt lat="46.129787" lon="10.950203">
        <ele>888.069776</ele>
        <time>2020-09-01T12:08:39.423Z</time>
      </trkpt>
      <trkpt lat="46.129726" lon="10.950316">
        <ele>890.368678</ele>
        <time>2020-09-01T12:08:41.429Z</time>
      </trkpt>
      <trkpt lat="46.129668" lon="10.950431">
        <ele>892.651429</ele>
        <time>2020-09-01T12:08:43.478Z</time>
      </trkpt>
      <trkpt lat="46.129641" lon="10.950558">
        <ele>894.783509</ele>
        <time>2020-09-01T12:08:45.441Z</time>
      </trkpt>
      <trkpt lat="46.129631" lon="10.950690">
        <ele>896.914707</ele>
        <time>2020-09-01T12:08:48.425Z</time>
      </trkpt>
      <trkpt lat="46.129579" lon="10.950817">
        <ele>899.282203</ele>
        <time>2020-09-01T12:08:52.437Z</time>
      </trkpt>
      <trkpt lat="46.129524" lon="10.950964">
        <ele>901.963406</ele>
        <time>2020-09-01T12:08:56.430Z</time>
      </trkpt>
      <trkpt lat="46.129452" lon="10.951059">
        <ele>904.222874</ele>
        <time>2020-09-01T12:09:01.429Z</time>
      </trkpt>
      <trkpt lat="46.129357" lon="10.951137">
        <ele>906.754213</ele>
        <time>2020-09-01T12:09:07.433Z</time>
      </trkpt>
      <trkpt lat="46.129309" lon="10.951249">
        <ele>908.867753</ele>
        <time>2020-09-01T12:09:14.427Z</time>
      </trkpt>
      <trkpt lat="46.129226" lon="10.951344">
        <ele>911.321255</ele>
        <time>2020-09-01T12:09:21.470Z</time>
      </trkpt>
      <trkpt lat="46.129146" lon="10.951414">
        <ele>913.488004</ele>
        <time>2020-09-01T12:09:27.428Z</time>
      </trkpt>
      <trkpt lat="46.129081" lon="10.951517">
        <ele>915.723831</ele>
        <time>2020-09-01T12:09:35.434Z</time>
      </trkpt>
      <trkpt lat="46.129005" lon="10.951597">
        <ele>917.902486</ele>
        <time>2020-09-01T12:09:40.434Z</time>
      </trkpt>
      <trkpt lat="46.128918" lon="10.951637">
        <ele>919.540080</ele>
        <time>2020-09-01T12:09:46.442Z</time>
      </trkpt>
      <trkpt lat="46.128811" lon="10.951673">
        <ele>920.941484</ele>
        <time>2020-09-01T12:09:52.424Z</time>
      </trkpt>
      <trkpt lat="46.128716" lon="10.951770">
        <ele>922.425913</ele>
        <time>2020-09-01T12:09:55.433Z</time>
      </trkpt>
      <trkpt lat="46.128609" lon="10.951796">
        <ele>923.809923</ele>
        <time>2020-09-01T12:09:59.431Z</time>
      </trkpt>
      <trkpt lat="46.128514" lon="10.951783">
        <ele>925.027092</ele>
        <time>2020-09-01T12:10:03.441Z</time>
      </trkpt>
      <trkpt lat="46.128423" lon="10.951715">
        <ele>926.334220</ele>
        <time>2020-09-01T12:10:10.433Z</time>
      </trkpt>
      <trkpt lat="46.128329" lon="10.951682">
        <ele>927.568174</ele>
        <time>2020-09-01T12:10:18.423Z</time>
      </trkpt>
      <trkpt lat="46.128235" lon="10.951634">
        <ele>928.840019</ele>
        <time>2020-09-01T12:10:25.435Z</time>
      </trkpt>
      <trkpt lat="46.128186" lon="10.951757">
        <ele>930.094153</ele>
        <time>2020-09-01T12:13:00.421Z</time>
      </trkpt>
      <trkpt lat="46.128165" lon="10.951903">
        <ele>931.412277</ele>
        <time>2020-09-01T12:13:06.418Z</time>
      </trkpt>
      <trkpt lat="46.128113" lon="10.952015">
        <ele>932.603977</ele>
        <time>2020-09-01T12:13:11.442Z</time>
      </trkpt>
      <trkpt lat="46.127862" lon="10.952100">
        <ele>935.892495</ele>
        <time>2020-09-01T12:13:12.481Z</time>
      </trkpt>
      <trkpt lat="46.127785" lon="10.952010">
        <ele>937.156445</ele>
        <time>2020-09-01T12:13:22.429Z</time>
      </trkpt>
      <trkpt lat="46.127689" lon="10.952004">
        <ele>938.382080</ele>
        <time>2020-09-01T12:13:33.420Z</time>
      </trkpt>
      <trkpt lat="46.127577" lon="10.951989">
        <ele>939.816789</ele>
        <time>2020-09-01T12:13:38.432Z</time>
      </trkpt>
      <trkpt lat="46.127472" lon="10.952001">
        <ele>941.160267</ele>
        <time>2020-09-01T12:13:43.436Z</time>
      </trkpt>
      <trkpt lat="46.127380" lon="10.952011">
        <ele>941.351736</ele>
        <time>2020-09-01T12:13:48.405Z</time>
      </trkpt>
      <trkpt lat="46.126870" lon="10.951776">
        <ele>932.888473</ele>
        <time>2020-09-01T12:13:57.513Z</time>
      </trkpt>
      <trkpt lat="46.126758" lon="10.951769">
        <ele>931.116305</ele>
        <time>2020-09-01T12:14:09.644Z</time>
      </trkpt>
      <trkpt lat="46.126666" lon="10.951755">
        <ele>929.653893</ele>
        <time>2020-09-01T12:14:12.477Z</time>
      </trkpt>
      <trkpt lat="46.126557" lon="10.951755">
        <ele>927.930810</ele>
        <time>2020-09-01T12:14:16.416Z</time>
      </trkpt>
      <trkpt lat="46.126454" lon="10.951816">
        <ele>926.170752</ele>
        <time>2020-09-01T12:14:19.412Z</time>
      </trkpt>
      <trkpt lat="46.126215" lon="10.951891">
        <ele>922.304291</ele>
        <time>2020-09-01T12:14:20.445Z</time>
      </trkpt>
      <trkpt lat="46.126110" lon="10.951927">
        <ele>920.598221</ele>
        <time>2020-09-01T12:14:22.433Z</time>
      </trkpt>
      <trkpt lat="46.126018" lon="10.951928">
        <ele>919.143834</ele>
        <time>2020-09-01T12:14:24.449Z</time>
      </trkpt>
      <trkpt lat="46.125919" lon="10.951894">
        <ele>917.535109</ele>
        <time>2020-09-01T12:14:27.423Z</time>
      </trkpt>
      <trkpt lat="46.125804" lon="10.951830">
        <ele>915.586634</ele>
        <time>2020-09-01T12:14:30.438Z</time>
      </trkpt>
      <trkpt lat="46.125703" lon="10.951803">
        <ele>913.962842</ele>
        <time>2020-09-01T12:14:33.424Z</time>
      </trkpt>
      <trkpt lat="46.125614" lon="10.951765">
        <ele>912.000309</ele>
        <time>2020-09-01T12:14:36.440Z</time>
      </trkpt>
      <trkpt lat="46.125496" lon="10.951776">
        <ele>909.174916</ele>
        <time>2020-09-01T12:14:39.423Z</time>
      </trkpt>
      <trkpt lat="46.125403" lon="10.951806">
        <ele>906.897895</ele>
        <time>2020-09-01T12:14:42.421Z</time>
      </trkpt>
      <trkpt lat="46.125292" lon="10.951846">
        <ele>904.164168</ele>
        <time>2020-09-01T12:14:46.444Z</time>
      </trkpt>
      <trkpt lat="46.125201" lon="10.951842">
        <ele>901.988788</ele>
        <time>2020-09-01T12:14:50.417Z</time>
      </trkpt>
      <trkpt lat="46.125064" lon="10.951848">
        <ele>898.713777</ele>
        <time>2020-09-01T12:14:54.430Z</time>
      </trkpt>
      <trkpt lat="46.124949" lon="10.951873">
        <ele>895.934930</ele>
        <time>2020-09-01T12:14:56.466Z</time>
      </trkpt>
      <trkpt lat="46.124851" lon="10.951867">
        <ele>893.591192</ele>
        <time>2020-09-01T12:14:58.423Z</time>
      </trkpt>
      <trkpt lat="46.124755" lon="10.951877">
        <ele>891.291379</ele>
        <time>2020-09-01T12:15:00.447Z</time>
      </trkpt>
      <trkpt lat="46.124623" lon="10.951899">
        <ele>888.116373</ele>
        <time>2020-09-01T12:15:03.420Z</time>
      </trkpt>
      <trkpt lat="46.124514" lon="10.951915">
        <ele>885.498462</ele>
        <time>2020-09-01T12:15:06.422Z</time>
      </trkpt>
      <trkpt lat="46.123216" lon="10.950796">
        <ele>869.243729</ele>
        <time>2020-09-01T12:15:30.412Z</time>
      </trkpt>
      <trkpt lat="46.123125" lon="10.950641">
        <ele>869.045705</ele>
        <time>2020-09-01T12:15:32.412Z</time>
      </trkpt>
      <trkpt lat="46.123062" lon="10.950480">
        <ele>868.865467</ele>
        <time>2020-09-01T12:15:34.415Z</time>
      </trkpt>
      <trkpt lat="46.123008" lon="10.950330">
        <ele>868.700690</ele>
        <time>2020-09-01T12:15:36.415Z</time>
      </trkpt>
      <trkpt lat="46.122928" lon="10.950251">
        <ele>868.564338</ele>
        <time>2020-09-01T12:15:39.417Z</time>
      </trkpt>
      <trkpt lat="46.122827" lon="10.950198">
        <ele>868.413178</ele>
        <time>2020-09-01T12:15:43.417Z</time>
      </trkpt>
      <trkpt lat="46.122742" lon="10.950150">
        <ele>868.284795</ele>
        <time>2020-09-01T12:15:46.420Z</time>
      </trkpt>
      <trkpt lat="46.122657" lon="10.950094">
        <ele>868.153368</ele>
        <time>2020-09-01T12:15:49.408Z</time>
      </trkpt>
      <trkpt lat="46.122590" lon="10.949991">
        <ele>868.015662</ele>
        <time>2020-09-01T12:15:53.410Z</time>
      </trkpt>
      <trkpt lat="46.122471" lon="10.949917">
        <ele>868.791627</ele>
        <time>2020-09-01T12:15:56.412Z</time>
      </trkpt>
      <trkpt lat="46.122383" lon="10.949879">
        <ele>869.663965</ele>
        <time>2020-09-01T12:15:58.421Z</time>
      </trkpt>
      <trkpt lat="46.122293" lon="10.949839">
        <ele>870.558301</ele>
        <time>2020-09-01T12:16:00.420Z</time>
      </trkpt>
      <trkpt lat="46.122197" lon="10.949765">
        <ele>871.591947</ele>
        <time>2020-09-01T12:16:02.418Z</time>
      </trkpt>
      <trkpt lat="46.122104" lon="10.949681">
        <ele>872.633939</ele>
        <time>2020-09-01T12:16:04.418Z</time>
      </trkpt>
      <trkpt lat="46.122022" lon="10.949598">
        <ele>873.585202</ele>
        <time>2020-09-01T12:16:06.413Z</time>
      </trkpt>
      <trkpt lat="46.121924" lon="10.949554">
        <ele>874.559901</ele>
        <time>2020-09-01T12:16:10.426Z</time>
      </trkpt>
      <trkpt lat="46.121831" lon="10.949508">
        <ele>875.493555</ele>
        <time>2020-09-01T12:16:15.434Z</time>
      </trkpt>
      <trkpt lat="46.121741" lon="10.949512">
        <ele>876.348662</ele>
        <time>2020-09-01T12:16:22.424Z</time>
      </trkpt>
      <trkpt lat="46.121629" lon="10.949518">
        <ele>877.413023</ele>
        <time>2020-09-01T12:16:28.431Z</time>
      </trkpt>
      <trkpt lat="46.121537" lon="10.949499">
        <ele>878.295623</ele>
        <time>2020-09-01T12:16:31.438Z</time>
      </trkpt>
      <trkpt lat="46.121440" lon="10.949467">
        <ele>879.240577</ele>
        <time>2020-09-01T12:16:34.417Z</time>
      </trkpt>
      <trkpt lat="46.121339" lon="10.949404">
        <ele>880.285550</ele>
        <time>2020-09-01T12:16:38.441Z</time>
      </trkpt>
      <trkpt lat="46.121226" lon="10.949381">
        <ele>881.369302</ele>
        <time>2020-09-01T12:16:42.440Z</time>
      </trkpt>
      <trkpt lat="46.121123" lon="10.949379">
        <ele>882.347549</ele>
        <time>2020-09-01T12:16:46.421Z</time>
      </trkpt>
      <trkpt lat="46.121040" lon="10.949315">
        <ele>883.241291</ele>
        <time>2020-09-01T12:16:51.480Z</time>
      </trkpt>
      <trkpt lat="46.120981" lon="10.949192">
        <ele>884.225908</ele>
        <time>2020-09-01T12:16:55.426Z</time>
      </trkpt>
      <trkpt lat="46.120921" lon="10.949046">
        <ele>885.081654</ele>
        <time>2020-09-01T12:16:59.408Z</time>
      </trkpt>
      <trkpt lat="46.120871" lon="10.948906">
        <ele>885.229498</ele>
        <time>2020-09-01T12:17:02.471Z</time>
      </trkpt>
      <trkpt lat="46.120804" lon="10.948816">
        <ele>885.353481</ele>
        <time>2020-09-01T12:17:05.418Z</time>
      </trkpt>
      <trkpt lat="46.120725" lon="10.948726">
        <ele>885.489809</ele>
        <time>2020-09-01T12:17:09.426Z</time>
      </trkpt>
      <trkpt lat="46.120623" lon="10.948653">
        <ele>885.644015</ele>
        <time>2020-09-01T12:17:13.470Z</time>
      </trkpt>
      <trkpt lat="46.120522" lon="10.948610">
        <ele>885.786634</ele>
        <time>2020-09-01T12:17:16.411Z</time>
      </trkpt>
      <trkpt lat="46.120414" lon="10.948594">
        <ele>885.933671</ele>
        <time>2020-09-01T12:17:19.435Z</time>
      </trkpt>
      <trkpt lat="46.120282" lon="10.948568">
        <ele>886.114102</ele>
        <time>2020-09-01T12:17:22.427Z</time>
      </trkpt>
      <trkpt lat="46.120194" lon="10.948539">
        <ele>886.236353</ele>
        <time>2020-09-01T12:17:24.470Z</time>
      </trkpt>
      <trkpt lat="46.120095" lon="10.948516">
        <ele>886.372159</ele>
        <time>2020-09-01T12:17:27.428Z</time>
      </trkpt>
      <trkpt lat="46.120006" lon="10.948479">
        <ele>886.497600</ele>
        <time>2020-09-01T12:17:30.429Z</time>
      </trkpt>
      <trkpt lat="46.119908" lon="10.948402">
        <ele>886.648731</ele>
        <time>2020-09-01T12:17:33.443Z</time>
      </trkpt>
      <trkpt lat="46.119818" lon="10.948283">
        <ele>886.814070</ele>
        <time>2020-09-01T12:17:37.433Z</time>
      </trkpt>
      <trkpt lat="46.119752" lon="10.948185">
        <ele>886.942341</ele>
        <time>2020-09-01T12:17:40.424Z</time>
      </trkpt>
      <trkpt lat="46.119679" lon="10.948090">
        <ele>887.075488</ele>
        <time>2020-09-01T12:17:44.458Z</time>
      </trkpt>
      <trkpt lat="46.119610" lon="10.947954">
        <ele>887.233705</ele>
        <time>2020-09-01T12:17:49.424Z</time>
      </trkpt>
      <trkpt lat="46.119584" lon="10.947826">
        <ele>887.358920</ele>
        <time>2020-09-01T12:17:54.423Z</time>
      </trkpt>
      <trkpt lat="46.119532" lon="10.947668">
        <ele>887.558232</ele>
        <time>2020-09-01T12:17:59.444Z</time>
      </trkpt>
      <trkpt lat="46.119447" lon="10.947577">
        <ele>887.804326</ele>
        <time>2020-09-01T12:18:02.447Z</time>
      </trkpt>
      <trkpt lat="46.119335" lon="10.947512">
        <ele>888.085004</ele>
        <time>2020-09-01T12:18:05.427Z</time>
      </trkpt>
      <trkpt lat="46.119226" lon="10.947433">
        <ele>888.368611</ele>
        <time>2020-09-01T12:18:08.467Z</time>
      </trkpt>
      <trkpt lat="46.119126" lon="10.947388">
        <ele>888.612157</ele>
        <time>2020-09-01T12:18:12.448Z</time>
      </trkpt>
      <trkpt lat="46.119029" lon="10.947311">
        <ele>888.869566</ele>
        <time>2020-09-01T12:18:16.424Z</time>
      </trkpt>
      <trkpt lat="46.118958" lon="10.947192">
        <ele>889.122605</ele>
        <time>2020-09-01T12:18:19.474Z</time>
      </trkpt>
      <trkpt lat="46.118873" lon="10.947070">
        <ele>889.401375</ele>
        <time>2020-09-01T12:18:22.438Z</time>
      </trkpt>
      <trkpt lat="46.118783" lon="10.946986">
        <ele>889.650596</ele>
        <time>2020-09-01T12:18:26.411Z</time>
      </trkpt>
      <trkpt lat="46.118699" lon="10.946869">
        <ele>889.922064</ele>
        <time>2020-09-01T12:18:29.402Z</time>
      </trkpt>
      <trkpt lat="46.118626" lon="10.946781">
        <ele>890.143242</ele>
        <time>2020-09-01T12:18:33.421Z</time>
      </trkpt>
      <trkpt lat="46.118562" lon="10.946607">
        <ele>890.460694</ele>
        <time>2020-09-01T12:18:35.443Z</time>
      </trkpt>
      <trkpt lat="46.118509" lon="10.946471">
        <ele>890.712136</ele>
        <time>2020-09-01T12:18:36.421Z</time>
      </trkpt>
      <trkpt lat="46.118478" lon="10.946347">
        <ele>890.924576</ele>
        <time>2020-09-01T12:18:39.427Z</time>
      </trkpt>
      <trkpt lat="46.118456" lon="10.946212">
        <ele>891.148074</ele>
        <time>2020-09-01T12:18:43.441Z</time>
      </trkpt>
      <trkpt lat="46.118444" lon="10.946083">
        <ele>891.357835</ele>
        <time>2020-09-01T12:18:47.435Z</time>
      </trkpt>
      <trkpt lat="46.118455" lon="10.945946">
        <ele>891.580102</ele>
        <time>2020-09-01T12:18:51.442Z</time>
      </trkpt>
      <trkpt lat="46.118475" lon="10.945813">
        <ele>891.857252</ele>
        <time>2020-09-01T12:18:55.432Z</time>
      </trkpt>
      <trkpt lat="46.118481" lon="10.945679">
        <ele>892.160852</ele>
        <time>2020-09-01T12:18:59.441Z</time>
      </trkpt>
      <trkpt lat="46.118506" lon="10.945521">
        <ele>892.527274</ele>
        <time>2020-09-01T12:19:04.422Z</time>
      </trkpt>
      <trkpt lat="46.118490" lon="10.945392">
        <ele>892.823571</ele>
        <time>2020-09-01T12:19:07.456Z</time>
      </trkpt>
      <trkpt lat="46.118449" lon="10.945255">
        <ele>893.160959</ele>
        <time>2020-09-01T12:19:10.431Z</time>
      </trkpt>
      <trkpt lat="46.118387" lon="10.945138">
        <ele>893.493938</ele>
        <time>2020-09-01T12:19:13.432Z</time>
      </trkpt>
      <trkpt lat="46.118350" lon="10.945011">
        <ele>893.805413</ele>
        <time>2020-09-01T12:19:17.439Z</time>
      </trkpt>
      <trkpt lat="46.118282" lon="10.944916">
        <ele>894.114170</ele>
        <time>2020-09-01T12:19:20.435Z</time>
      </trkpt>
      <trkpt lat="46.118186" lon="10.944788">
        <ele>894.540558</ele>
        <time>2020-09-01T12:19:23.412Z</time>
      </trkpt>
      <trkpt lat="46.118106" lon="10.944688">
        <ele>894.885828</ele>
        <time>2020-09-01T12:19:26.419Z</time>
      </trkpt>
      <trkpt lat="46.118029" lon="10.944610">
        <ele>895.192718</ele>
        <time>2020-09-01T12:19:34.421Z</time>
      </trkpt>
      <trkpt lat="46.117951" lon="10.944501">
        <ele>895.546928</ele>
        <time>2020-09-01T12:19:40.440Z</time>
      </trkpt>
      <trkpt lat="46.117862" lon="10.944396">
        <ele>895.921940</ele>
        <time>2020-09-01T12:19:44.420Z</time>
      </trkpt>
      <trkpt lat="46.117786" lon="10.944283">
        <ele>896.277929</ele>
        <time>2020-09-01T12:19:47.475Z</time>
      </trkpt>
      <trkpt lat="46.117706" lon="10.944192">
        <ele>896.610231</ele>
        <time>2020-09-01T12:19:50.442Z</time>
      </trkpt>
      <trkpt lat="46.117615" lon="10.944096">
        <ele>896.977949</ele>
        <time>2020-09-01T12:19:54.446Z</time>
      </trkpt>
      <trkpt lat="46.117528" lon="10.944057">
        <ele>897.275108</ele>
        <time>2020-09-01T12:19:57.444Z</time>
      </trkpt>
      <trkpt lat="46.117445" lon="10.944006">
        <ele>897.566872</ele>
        <time>2020-09-01T12:20:00.437Z</time>
      </trkpt>
      <trkpt lat="46.117362" lon="10.943948">
        <ele>897.851584</ele>
        <time>2020-09-01T12:20:04.410Z</time>
      </trkpt>
      <trkpt lat="46.117272" lon="10.943879">
        <ele>898.166226</ele>
        <time>2020-09-01T12:20:08.447Z</time>
      </trkpt>
      <trkpt lat="46.117168" lon="10.943870">
        <ele>898.487867</ele>
        <time>2020-09-01T12:20:12.419Z</time>
      </trkpt>
      <trkpt lat="46.116972" lon="10.943844">
        <ele>899.095501</ele>
        <time>2020-09-01T12:20:54.481Z</time>
      </trkpt>
      <trkpt lat="46.116872" lon="10.943800">
        <ele>899.418256</ele>
        <time>2020-09-01T12:20:57.438Z</time>
      </trkpt>
      <trkpt lat="46.116771" lon="10.943764">
        <ele>899.739435</ele>
        <time>2020-09-01T12:21:01.444Z</time>
      </trkpt>
      <trkpt lat="46.116662" lon="10.943739">
        <ele>900.080161</ele>
        <time>2020-09-01T12:21:05.434Z</time>
      </trkpt>
      <trkpt lat="46.116560" lon="10.943686">
        <ele>900.414854</ele>
        <time>2020-09-01T12:21:09.426Z</time>
      </trkpt>
      <trkpt lat="46.116476" lon="10.943634">
        <ele>900.697042</ele>
        <time>2020-09-01T12:21:45.447Z</time>
      </trkpt>
      <trkpt lat="46.116533" lon="10.943749">
        <ele>900.999581</ele>
        <time>2020-09-01T12:22:56.415Z</time>
      </trkpt>
      <trkpt lat="46.116567" lon="10.943874">
        <ele>901.286936</ele>
        <time>2020-09-01T12:23:22.394Z</time>
      </trkpt>
      <trkpt lat="46.116488" lon="10.943810">
        <ele>901.566646</ele>
        <time>2020-09-01T12:24:08.416Z</time>
      </trkpt>
      <trkpt lat="46.116407" lon="10.943662">
        <ele>901.970182</ele>
        <time>2020-09-01T12:25:07.444Z</time>
      </trkpt>
      <trkpt lat="46.116343" lon="10.943559">
        <ele>902.266192</ele>
        <time>2020-09-01T12:25:12.431Z</time>
      </trkpt>
      <trkpt lat="46.116234" lon="10.943526">
        <ele>902.610022</ele>
        <time>2020-09-01T12:25:18.443Z</time>
      </trkpt>
      <trkpt lat="46.116129" lon="10.943490">
        <ele>902.943202</ele>
        <time>2020-09-01T12:25:23.441Z</time>
      </trkpt>
      <trkpt lat="46.116014" lon="10.943462">
        <ele>902.963824</ele>
        <time>2020-09-01T12:25:27.452Z</time>
      </trkpt>
      <trkpt lat="46.115926" lon="10.943416">
        <ele>902.822338</ele>
        <time>2020-09-01T12:25:30.439Z</time>
      </trkpt>
      <trkpt lat="46.115815" lon="10.943376">
        <ele>902.649392</ele>
        <time>2020-09-01T12:25:34.440Z</time>
      </trkpt>
      <trkpt lat="46.115731" lon="10.943329">
        <ele>902.513200</ele>
        <time>2020-09-01T12:25:37.454Z</time>
      </trkpt>
      <trkpt lat="46.115651" lon="10.943266">
        <ele>902.375425</ele>
        <time>2020-09-01T12:25:40.439Z</time>
      </trkpt>
      <trkpt lat="46.115568" lon="10.943187">
        <ele>902.225112</ele>
        <time>2020-09-01T12:25:43.442Z</time>
      </trkpt>
      <trkpt lat="46.115477" lon="10.943100">
        <ele>902.060088</ele>
        <time>2020-09-01T12:25:46.441Z</time>
      </trkpt>
      <trkpt lat="46.115386" lon="10.943011">
        <ele>901.893897</ele>
        <time>2020-09-01T12:25:49.422Z</time>
      </trkpt>
      <trkpt lat="46.115284" lon="10.942962">
        <ele>901.731387</ele>
        <time>2020-09-01T12:25:52.418Z</time>
      </trkpt>
      <trkpt lat="46.115188" lon="10.942932">
        <ele>901.582905</ele>
        <time>2020-09-01T12:25:55.462Z</time>
      </trkpt>
      <trkpt lat="46.115089" lon="10.942834">
        <ele>901.401410</ele>
        <time>2020-09-01T12:25:59.439Z</time>
      </trkpt>
      <trkpt lat="46.114982" lon="10.942734">
        <ele>901.208689</ele>
        <time>2020-09-01T12:26:03.424Z</time>
      </trkpt>
      <trkpt lat="46.114877" lon="10.942655">
        <ele>901.029678</ele>
        <time>2020-09-01T12:26:07.419Z</time>
      </trkpt>
      <trkpt lat="46.114758" lon="10.942567">
        <ele>900.827537</ele>
        <time>2020-09-01T12:26:11.439Z</time>
      </trkpt>
      <trkpt lat="46.114645" lon="10.942485">
        <ele>900.636329</ele>
        <time>2020-09-01T12:26:14.438Z</time>
      </trkpt>
      <trkpt lat="46.114543" lon="10.942405">
        <ele>900.460828</ele>
        <time>2020-09-01T12:26:17.433Z</time>
      </trkpt>
      <trkpt lat="46.114461" lon="10.942284">
        <ele>900.482936</ele>
        <time>2020-09-01T12:26:21.420Z</time>
      </trkpt>
      <trkpt lat="46.114407" lon="10.942153">
        <ele>900.759426</ele>
        <time>2020-09-01T12:26:25.437Z</time>
      </trkpt>
      <trkpt lat="46.114356" lon="10.942020">
        <ele>901.035155</ele>
        <time>2020-09-01T12:26:28.438Z</time>
      </trkpt>
      <trkpt lat="46.114277" lon="10.941925">
        <ele>901.304305</ele>
        <time>2020-09-01T12:26:31.418Z</time>
      </trkpt>
      <trkpt lat="46.114180" lon="10.941901">
        <ele>901.561854</ele>
        <time>2020-09-01T12:26:34.420Z</time>
      </trkpt>
      <trkpt lat="46.114067" lon="10.941869">
        <ele>901.863211</ele>
        <time>2020-09-01T12:26:38.438Z</time>
      </trkpt>
      <trkpt lat="46.113981" lon="10.941814">
        <ele>902.109393</ele>
        <time>2020-09-01T12:26:42.475Z</time>
      </trkpt>
      <trkpt lat="46.113889" lon="10.941805">
        <ele>902.350704</ele>
        <time>2020-09-01T12:26:46.439Z</time>
      </trkpt>
      <trkpt lat="46.113815" lon="10.941728">
        <ele>902.589480</ele>
        <time>2020-09-01T12:26:49.442Z</time>
      </trkpt>
      <trkpt lat="46.113744" lon="10.941627">
        <ele>902.850429</ele>
        <time>2020-09-01T12:26:52.437Z</time>
      </trkpt>
      <trkpt lat="46.113678" lon="10.941535">
        <ele>903.090610</ele>
        <time>2020-09-01T12:26:55.433Z</time>
      </trkpt>
      <trkpt lat="46.113642" lon="10.941407">
        <ele>903.341203</ele>
        <time>2020-09-01T12:26:58.415Z</time>
      </trkpt>
      <trkpt lat="46.113581" lon="10.941312">
        <ele>903.576117</ele>
        <time>2020-09-01T12:27:01.410Z</time>
      </trkpt>
      <trkpt lat="46.113490" lon="10.941257">
        <ele>903.834315</ele>
        <time>2020-09-01T12:27:04.447Z</time>
      </trkpt>
      <trkpt lat="46.113375" lon="10.941208">
        <ele>904.148116</ele>
        <time>2020-09-01T12:27:07.441Z</time>
      </trkpt>
      <trkpt lat="46.113252" lon="10.941182">
        <ele>904.473436</ele>
        <time>2020-09-01T12:27:10.423Z</time>
      </trkpt>
      <trkpt lat="46.113132" lon="10.941181">
        <ele>904.787473</ele>
        <time>2020-09-01T12:27:13.448Z</time>
      </trkpt>
      <trkpt lat="46.113028" lon="10.941162">
        <ele>905.061807</ele>
        <time>2020-09-01T12:27:17.422Z</time>
      </trkpt>
      <trkpt lat="46.112945" lon="10.941225">
        <ele>905.029105</ele>
        <time>2020-09-01T12:27:47.434Z</time>
      </trkpt>
      <trkpt lat="46.112841" lon="10.941219">
        <ele>904.990733</ele>
        <time>2020-09-01T12:27:57.449Z</time>
      </trkpt>
      <trkpt lat="46.112750" lon="10.941155">
        <ele>904.953409</ele>
        <time>2020-09-01T12:28:01.440Z</time>
      </trkpt>
      <trkpt lat="46.112643" lon="10.941080">
        <ele>904.909551</ele>
        <time>2020-09-01T12:28:04.431Z</time>
      </trkpt>
      <trkpt lat="46.112548" lon="10.941034">
        <ele>904.872607</ele>
        <time>2020-09-01T12:28:08.439Z</time>
      </trkpt>
      <trkpt lat="46.112418" lon="10.941033">
        <ele>904.824680</ele>
        <time>2020-09-01T12:28:11.430Z</time>
      </trkpt>
      <trkpt lat="46.112287" lon="10.941049">
        <ele>904.776212</ele>
        <time>2020-09-01T12:28:14.430Z</time>
      </trkpt>
      <trkpt lat="46.112158" lon="10.941082">
        <ele>904.727912</ele>
        <time>2020-09-01T12:28:16.421Z</time>
      </trkpt>
      <trkpt lat="46.112039" lon="10.941036">
        <ele>904.682493</ele>
        <time>2020-09-01T12:28:18.423Z</time>
      </trkpt>
      <trkpt lat="46.111930" lon="10.941032">
        <ele>904.642295</ele>
        <time>2020-09-01T12:28:20.418Z</time>
      </trkpt>
      <trkpt lat="46.111827" lon="10.941098">
        <ele>904.600744</ele>
        <time>2020-09-01T12:28:22.421Z</time>
      </trkpt>
      <trkpt lat="46.111706" lon="10.941157">
        <ele>904.553656</ele>
        <time>2020-09-01T12:28:25.424Z</time>
      </trkpt>
      <trkpt lat="46.111634" lon="10.941264">
        <ele>904.515545</ele>
        <time>2020-09-01T12:28:27.421Z</time>
      </trkpt>
      <trkpt lat="46.111601" lon="10.941386">
        <ele>904.482075</ele>
        <time>2020-09-01T12:28:29.426Z</time>
      </trkpt>
      <trkpt lat="46.111634" lon="10.941526">
        <ele>904.444282</ele>
        <time>2020-09-01T12:28:31.418Z</time>
      </trkpt>
      <trkpt lat="46.111641" lon="10.941679">
        <ele>904.405093</ele>
        <time>2020-09-01T12:28:33.443Z</time>
      </trkpt>
      <trkpt lat="46.111626" lon="10.941836">
        <ele>903.463714</ele>
        <time>2020-09-01T12:28:35.420Z</time>
      </trkpt>
      <trkpt lat="46.111608" lon="10.942008">
        <ele>902.299357</ele>
        <time>2020-09-01T12:28:38.420Z</time>
      </trkpt>
      <trkpt lat="46.111562" lon="10.942161">
        <ele>901.183059</ele>
        <time>2020-09-01T12:28:41.421Z</time>
      </trkpt>
      <trkpt lat="46.111483" lon="10.942271">
        <ele>900.122881</ele>
        <time>2020-09-01T12:28:44.420Z</time>
      </trkpt>
      <trkpt lat="46.111395" lon="10.942340">
        <ele>899.155786</ele>
        <time>2020-09-01T12:28:48.460Z</time>
      </trkpt>
      <trkpt lat="46.111295" lon="10.942338">
        <ele>898.190150</ele>
        <time>2020-09-01T12:28:52.424Z</time>
      </trkpt>
      <trkpt lat="46.111246" lon="10.942217">
        <ele>897.252151</ele>
        <time>2020-09-01T12:28:57.420Z</time>
      </trkpt>
      <trkpt lat="46.111218" lon="10.942087">
        <ele>896.340936</ele>
        <time>2020-09-01T12:29:00.421Z</time>
      </trkpt>
      <trkpt lat="46.111175" lon="10.941918">
        <ele>895.135912</ele>
        <time>2020-09-01T12:29:04.428Z</time>
      </trkpt>
      <trkpt lat="46.111107" lon="10.941792">
        <ele>894.067069</ele>
        <time>2020-09-01T12:29:07.420Z</time>
      </trkpt>
      <trkpt lat="46.111011" lon="10.941755">
        <ele>893.107630</ele>
        <time>2020-09-01T12:29:09.420Z</time>
      </trkpt>
      <trkpt lat="46.110915" lon="10.941731">
        <ele>892.166890</ele>
        <time>2020-09-01T12:29:11.420Z</time>
      </trkpt>
      <trkpt lat="46.110784" lon="10.941664">
        <ele>890.824873</ele>
        <time>2020-09-01T12:29:14.443Z</time>
      </trkpt>
      <trkpt lat="46.110673" lon="10.941621">
        <ele>889.715142</ele>
        <time>2020-09-01T12:29:16.440Z</time>
      </trkpt>
      <trkpt lat="46.110555" lon="10.941655">
        <ele>888.553293</ele>
        <time>2020-09-01T12:29:18.437Z</time>
      </trkpt>
      <trkpt lat="46.110445" lon="10.941679">
        <ele>887.479114</ele>
        <time>2020-09-01T12:29:20.427Z</time>
      </trkpt>
      <trkpt lat="46.110345" lon="10.941655">
        <ele>886.785284</ele>
        <time>2020-09-01T12:29:22.439Z</time>
      </trkpt>
      <trkpt lat="46.110250" lon="10.941697">
        <ele>886.338505</ele>
        <time>2020-09-01T12:29:25.440Z</time>
      </trkpt>
      <trkpt lat="46.110160" lon="10.941767">
        <ele>885.878739</ele>
        <time>2020-09-01T12:29:27.449Z</time>
      </trkpt>
      <trkpt lat="46.110078" lon="10.941850">
        <ele>885.428304</ele>
        <time>2020-09-01T12:29:29.437Z</time>
      </trkpt>
      <trkpt lat="46.109983" lon="10.941915">
        <ele>884.955517</ele>
        <time>2020-09-01T12:29:32.443Z</time>
      </trkpt>
      <trkpt lat="46.109902" lon="10.941999">
        <ele>884.506942</ele>
        <time>2020-09-01T12:29:36.439Z</time>
      </trkpt>
      <trkpt lat="46.109807" lon="10.942006">
        <ele>884.079219</ele>
        <time>2020-09-01T12:29:40.424Z</time>
      </trkpt>
      <trkpt lat="46.109711" lon="10.941933">
        <ele>883.591246</ele>
        <time>2020-09-01T12:29:44.431Z</time>
      </trkpt>
      <trkpt lat="46.109666" lon="10.941803">
        <ele>883.138288</ele>
        <time>2020-09-01T12:29:47.441Z</time>
      </trkpt>
      <trkpt lat="46.109604" lon="10.941686">
        <ele>882.679219</ele>
        <time>2020-09-01T12:29:50.426Z</time>
      </trkpt>
      <trkpt lat="46.109487" lon="10.941668">
        <ele>882.150147</ele>
        <time>2020-09-01T12:29:53.447Z</time>
      </trkpt>
      <trkpt lat="46.109382" lon="10.941762">
        <ele>881.594473</ele>
        <time>2020-09-01T12:29:56.432Z</time>
      </trkpt>
      <trkpt lat="46.109295" lon="10.941835">
        <ele>881.141904</ele>
        <time>2020-09-01T12:29:59.469Z</time>
      </trkpt>
      <trkpt lat="46.109206" lon="10.941951">
        <ele>880.602541</ele>
        <time>2020-09-01T12:30:03.435Z</time>
      </trkpt>
      <trkpt lat="46.109138" lon="10.942038">
        <ele>880.193830</ele>
        <time>2020-09-01T12:30:08.435Z</time>
      </trkpt>
      <trkpt lat="46.109031" lon="10.942077">
        <ele>879.697584</ele>
        <time>2020-09-01T12:30:14.447Z</time>
      </trkpt>
      <trkpt lat="46.108927" lon="10.942012">
        <ele>879.187937</ele>
        <time>2020-09-01T12:30:19.438Z</time>
      </trkpt>
      <trkpt lat="46.108845" lon="10.941902">
        <ele>878.493855</ele>
        <time>2020-09-01T12:30:22.438Z</time>
      </trkpt>
      <trkpt lat="46.108771" lon="10.941763">
        <ele>877.549707</ele>
        <time>2020-09-01T12:30:25.438Z</time>
      </trkpt>
      <trkpt lat="46.108687" lon="10.941665">
        <ele>876.710182</ele>
        <time>2020-09-01T12:30:27.447Z</time>
      </trkpt>
      <trkpt lat="46.108622" lon="10.941568">
        <ele>875.983409</ele>
        <time>2020-09-01T12:30:29.436Z</time>
      </trkpt>
      <trkpt lat="46.108540" lon="10.941431">
        <ele>875.008341</ele>
        <time>2020-09-01T12:30:33.426Z</time>
      </trkpt>
      <trkpt lat="46.108416" lon="10.941355">
        <ele>873.961398</ele>
        <time>2020-09-01T12:30:36.425Z</time>
      </trkpt>
      <trkpt lat="46.108317" lon="10.941287">
        <ele>873.109330</ele>
        <time>2020-09-01T12:30:39.418Z</time>
      </trkpt>
      <trkpt lat="46.108240" lon="10.941207">
        <ele>872.371928</ele>
        <time>2020-09-01T12:30:41.423Z</time>
      </trkpt>
      <trkpt lat="46.108133" lon="10.941128">
        <ele>871.437870</ele>
        <time>2020-09-01T12:30:43.461Z</time>
      </trkpt>
      <trkpt lat="46.108018" lon="10.941127">
        <ele>870.544229</ele>
        <time>2020-09-01T12:30:45.416Z</time>
      </trkpt>
      <trkpt lat="46.107911" lon="10.941076">
        <ele>869.668549</ele>
        <time>2020-09-01T12:30:47.419Z</time>
      </trkpt>
      <trkpt lat="46.107792" lon="10.940924">
        <ele>868.433373</ele>
        <time>2020-09-01T12:30:49.425Z</time>
      </trkpt>
      <trkpt lat="46.107675" lon="10.940753">
        <ele>867.139045</ele>
        <time>2020-09-01T12:30:51.419Z</time>
      </trkpt>
      <trkpt lat="46.107605" lon="10.940660">
        <ele>866.399512</ele>
        <time>2020-09-01T12:30:52.422Z</time>
      </trkpt>
      <trkpt lat="46.107514" lon="10.940569">
        <ele>865.539056</ele>
        <time>2020-09-01T12:30:53.418Z</time>
      </trkpt>
      <trkpt lat="46.107423" lon="10.940537">
        <ele>864.895253</ele>
        <time>2020-09-01T12:30:54.453Z</time>
      </trkpt>
      <trkpt lat="46.107218" lon="10.940539">
        <ele>864.148085</ele>
        <time>2020-09-01T12:30:56.413Z</time>
      </trkpt>
      <trkpt lat="46.107089" lon="10.940466">
        <ele>863.643037</ele>
        <time>2020-09-01T12:30:58.419Z</time>
      </trkpt>
      <trkpt lat="46.106961" lon="10.940367">
        <ele>863.113683</ele>
        <time>2020-09-01T12:31:00.418Z</time>
      </trkpt>
      <trkpt lat="46.106884" lon="10.940284">
        <ele>862.763335</ele>
        <time>2020-09-01T12:31:01.417Z</time>
      </trkpt>
      <trkpt lat="46.106755" lon="10.940132">
        <ele>862.156235</ele>
        <time>2020-09-01T12:31:03.419Z</time>
      </trkpt>
      <trkpt lat="46.106680" lon="10.940051">
        <ele>861.814750</ele>
        <time>2020-09-01T12:31:04.420Z</time>
      </trkpt>
      <trkpt lat="46.106588" lon="10.939919">
        <ele>861.341795</ele>
        <time>2020-09-01T12:31:05.458Z</time>
      </trkpt>
      <trkpt lat="46.106496" lon="10.939837">
        <ele>860.947632</ele>
        <time>2020-09-01T12:31:06.426Z</time>
      </trkpt>
      <trkpt lat="46.106434" lon="10.939698">
        <ele>860.529984</ele>
        <time>2020-09-01T12:31:07.416Z</time>
      </trkpt>
      <trkpt lat="46.106354" lon="10.939603">
        <ele>860.152307</ele>
        <time>2020-09-01T12:31:08.422Z</time>
      </trkpt>
      <trkpt lat="46.106299" lon="10.939498">
        <ele>859.819772</ele>
        <time>2020-09-01T12:31:09.419Z</time>
      </trkpt>
      <trkpt lat="46.106235" lon="10.939377">
        <ele>859.435200</ele>
        <time>2020-09-01T12:31:10.418Z</time>
      </trkpt>
      <trkpt lat="46.106175" lon="10.939254">
        <ele>859.055170</ele>
        <time>2020-09-01T12:31:11.420Z</time>
      </trkpt>
      <trkpt lat="46.106115" lon="10.939118">
        <ele>858.647834</ele>
        <time>2020-09-01T12:31:12.423Z</time>
      </trkpt>
      <trkpt lat="46.106049" lon="10.938994">
        <ele>858.229805</ele>
        <time>2020-09-01T12:31:13.412Z</time>
      </trkpt>
      <trkpt lat="46.105981" lon="10.938853">
        <ele>857.733879</ele>
        <time>2020-09-01T12:31:14.417Z</time>
      </trkpt>
      <trkpt lat="46.105909" lon="10.938719">
        <ele>857.244383</ele>
        <time>2020-09-01T12:31:15.423Z</time>
      </trkpt>
      <trkpt lat="46.105833" lon="10.938606">
        <ele>856.789818</ele>
        <time>2020-09-01T12:31:16.450Z</time>
      </trkpt>
      <trkpt lat="46.105758" lon="10.938513">
        <ele>856.377916</ele>
        <time>2020-09-01T12:31:17.417Z</time>
      </trkpt>
      <trkpt lat="46.105622" lon="10.938358">
        <ele>855.656058</ele>
        <time>2020-09-01T12:31:19.419Z</time>
      </trkpt>
      <trkpt lat="46.105523" lon="10.938222">
        <ele>855.086685</ele>
        <time>2020-09-01T12:31:21.422Z</time>
      </trkpt>
      <trkpt lat="46.105429" lon="10.938094">
        <ele>854.548317</ele>
        <time>2020-09-01T12:31:23.414Z</time>
      </trkpt>
      <trkpt lat="46.105351" lon="10.937986">
        <ele>854.098027</ele>
        <time>2020-09-01T12:31:24.421Z</time>
      </trkpt>
      <trkpt lat="46.105254" lon="10.937815">
        <ele>853.460084</ele>
        <time>2020-09-01T12:31:26.420Z</time>
      </trkpt>
      <trkpt lat="46.105195" lon="10.937643">
        <ele>852.905991</ele>
        <time>2020-09-01T12:31:28.440Z</time>
      </trkpt>
      <trkpt lat="46.105146" lon="10.937531">
        <ele>852.523600</ele>
        <time>2020-09-01T12:31:29.444Z</time>
      </trkpt>
      <trkpt lat="46.105065" lon="10.937379">
        <ele>851.970054</ele>
        <time>2020-09-01T12:31:31.420Z</time>
      </trkpt>
      <trkpt lat="46.104982" lon="10.937279">
        <ele>851.519665</ele>
        <time>2020-09-01T12:31:33.434Z</time>
      </trkpt>
      <trkpt lat="46.104884" lon="10.937181">
        <ele>851.023040</ele>
        <time>2020-09-01T12:31:35.426Z</time>
      </trkpt>
      <trkpt lat="46.104790" lon="10.937116">
        <ele>851.056202</ele>
        <time>2020-09-01T12:31:37.437Z</time>
      </trkpt>
      <trkpt lat="46.104686" lon="10.937062">
        <ele>851.238607</ele>
        <time>2020-09-01T12:31:39.432Z</time>
      </trkpt>
      <trkpt lat="46.104581" lon="10.937010">
        <ele>851.421810</ele>
        <time>2020-09-01T12:31:41.422Z</time>
      </trkpt>
      <trkpt lat="46.104481" lon="10.936934">
        <ele>851.608340</ele>
        <time>2020-09-01T12:31:43.430Z</time>
      </trkpt>
      <trkpt lat="46.104385" lon="10.936895">
        <ele>851.772925</ele>
        <time>2020-09-01T12:31:45.427Z</time>
      </trkpt>
      <trkpt lat="46.104278" lon="10.936881">
        <ele>851.950223</ele>
        <time>2020-09-01T12:31:47.409Z</time>
      </trkpt>
      <trkpt lat="46.104172" lon="10.936872">
        <ele>852.125448</ele>
        <time>2020-09-01T12:31:49.477Z</time>
      </trkpt>
      <trkpt lat="46.104062" lon="10.936861">
        <ele>852.307408</ele>
        <time>2020-09-01T12:31:51.420Z</time>
      </trkpt>
      <trkpt lat="46.103954" lon="10.936870">
        <ele>852.485928</ele>
        <time>2020-09-01T12:31:53.423Z</time>
      </trkpt>
      <trkpt lat="46.103851" lon="10.936881">
        <ele>852.656365</ele>
        <time>2020-09-01T12:31:55.441Z</time>
      </trkpt>
      <trkpt lat="46.103751" lon="10.936878">
        <ele>852.821422</ele>
        <time>2020-09-01T12:31:57.421Z</time>
      </trkpt>
      <trkpt lat="46.103653" lon="10.936901">
        <ele>852.985270</ele>
        <time>2020-09-01T12:31:59.420Z</time>
      </trkpt>
      <trkpt lat="46.103561" lon="10.936894">
        <ele>853.137301</ele>
        <time>2020-09-01T12:32:01.427Z</time>
      </trkpt>
      <trkpt lat="46.103471" lon="10.936876">
        <ele>853.287241</ele>
        <time>2020-09-01T12:32:03.428Z</time>
      </trkpt>
      <trkpt lat="46.103376" lon="10.936820">
        <ele>853.456600</ele>
        <time>2020-09-01T12:32:06.403Z</time>
      </trkpt>
      <trkpt lat="46.103299" lon="10.936745">
        <ele>853.609930</ele>
        <time>2020-09-01T12:32:08.415Z</time>
      </trkpt>
      <trkpt lat="46.103222" lon="10.936626">
        <ele>853.796170</ele>
        <time>2020-09-01T12:32:10.421Z</time>
      </trkpt>
      <trkpt lat="46.103146" lon="10.936498">
        <ele>853.695445</ele>
        <time>2020-09-01T12:32:12.423Z</time>
      </trkpt>
      <trkpt lat="46.103061" lon="10.936393">
        <ele>853.322713</ele>
        <time>2020-09-01T12:32:14.431Z</time>
      </trkpt>
      <trkpt lat="46.102974" lon="10.936317">
        <ele>852.983958</ele>
        <time>2020-09-01T12:32:16.428Z</time>
      </trkpt>
      <trkpt lat="46.102857" lon="10.936265">
        <ele>852.576213</ele>
        <time>2020-09-01T12:32:18.433Z</time>
      </trkpt>
      <trkpt lat="46.102721" lon="10.936209">
        <ele>852.105173</ele>
        <time>2020-09-01T12:32:20.444Z</time>
      </trkpt>
      <trkpt lat="46.102580" lon="10.936148">
        <ele>851.614907</ele>
        <time>2020-09-01T12:32:22.465Z</time>
      </trkpt>
      <trkpt lat="46.102457" lon="10.936122">
        <ele>851.200885</ele>
        <time>2020-09-01T12:32:24.442Z</time>
      </trkpt>
      <trkpt lat="46.102325" lon="10.936154">
        <ele>850.755098</ele>
        <time>2020-09-01T12:32:26.421Z</time>
      </trkpt>
      <trkpt lat="46.102182" lon="10.936222">
        <ele>850.253624</ele>
        <time>2020-09-01T12:32:28.418Z</time>
      </trkpt>
      <trkpt lat="46.102050" lon="10.936317">
        <ele>849.762307</ele>
        <time>2020-09-01T12:32:30.416Z</time>
      </trkpt>
      <trkpt lat="46.101925" lon="10.936412">
        <ele>849.291735</ele>
        <time>2020-09-01T12:32:32.430Z</time>
      </trkpt>
      <trkpt lat="46.101798" lon="10.936526">
        <ele>848.793533</ele>
        <time>2020-09-01T12:32:34.407Z</time>
      </trkpt>
      <trkpt lat="46.101680" lon="10.936615">
        <ele>848.350042</ele>
        <time>2020-09-01T12:32:36.432Z</time>
      </trkpt>
      <trkpt lat="46.101554" lon="10.936730">
        <ele>847.833810</ele>
        <time>2020-09-01T12:32:38.421Z</time>
      </trkpt>
      <trkpt lat="46.101432" lon="10.936820">
        <ele>847.190860</ele>
        <time>2020-09-01T12:32:40.405Z</time>
      </trkpt>
      <trkpt lat="46.101301" lon="10.936903">
        <ele>846.519524</ele>
        <time>2020-09-01T12:32:42.415Z</time>
      </trkpt>
      <trkpt lat="46.101169" lon="10.936954">
        <ele>845.878354</ele>
        <time>2020-09-01T12:32:44.430Z</time>
      </trkpt>
      <trkpt lat="46.101031" lon="10.936954">
        <ele>845.230872</ele>
        <time>2020-09-01T12:32:46.398Z</time>
      </trkpt>
      <trkpt lat="46.100904" lon="10.936907">
        <ele>844.615696</ele>
        <time>2020-09-01T12:32:48.422Z</time>
      </trkpt>
      <trkpt lat="46.100786" lon="10.936839">
        <ele>844.019489</ele>
        <time>2020-09-01T12:32:50.429Z</time>
      </trkpt>
      <trkpt lat="46.100671" lon="10.936741">
        <ele>843.392764</ele>
        <time>2020-09-01T12:32:52.418Z</time>
      </trkpt>
      <trkpt lat="46.100551" lon="10.936636">
        <ele>842.734212</ele>
        <time>2020-09-01T12:32:54.429Z</time>
      </trkpt>
      <trkpt lat="46.100418" lon="10.936525">
        <ele>842.013233</ele>
        <time>2020-09-01T12:32:56.442Z</time>
      </trkpt>
      <trkpt lat="46.100292" lon="10.936434">
        <ele>841.352066</ele>
        <time>2020-09-01T12:32:58.428Z</time>
      </trkpt>
      <trkpt lat="46.100156" lon="10.936319">
        <ele>840.612372</ele>
        <time>2020-09-01T12:33:00.434Z</time>
      </trkpt>
      <trkpt lat="46.100071" lon="10.936241">
        <ele>840.139672</ele>
        <time>2020-09-01T12:33:01.418Z</time>
      </trkpt>
      <trkpt lat="46.099992" lon="10.936165">
        <ele>839.694111</ele>
        <time>2020-09-01T12:33:02.429Z</time>
      </trkpt>
      <trkpt lat="46.099915" lon="10.936091">
        <ele>839.263056</ele>
        <time>2020-09-01T12:33:03.424Z</time>
      </trkpt>
      <trkpt lat="46.099826" lon="10.936015">
        <ele>838.785168</ele>
        <time>2020-09-01T12:33:04.423Z</time>
      </trkpt>
      <trkpt lat="46.099744" lon="10.935935">
        <ele>838.327752</ele>
        <time>2020-09-01T12:33:05.421Z</time>
      </trkpt>
      <trkpt lat="46.099605" lon="10.935776">
        <ele>837.508034</ele>
        <time>2020-09-01T12:33:07.421Z</time>
      </trkpt>
      <trkpt lat="46.099533" lon="10.935648">
        <ele>836.979989</ele>
        <time>2020-09-01T12:33:08.430Z</time>
      </trkpt>
      <trkpt lat="46.099458" lon="10.935523">
        <ele>836.450408</ele>
        <time>2020-09-01T12:33:09.423Z</time>
      </trkpt>
      <trkpt lat="46.099378" lon="10.935422">
        <ele>835.959157</ele>
        <time>2020-09-01T12:33:10.457Z</time>
      </trkpt>
      <trkpt lat="46.099303" lon="10.935315">
        <ele>835.471722</ele>
        <time>2020-09-01T12:33:11.419Z</time>
      </trkpt>
      <trkpt lat="46.099234" lon="10.935231">
        <ele>835.054518</ele>
        <time>2020-09-01T12:33:12.436Z</time>
      </trkpt>
      <trkpt lat="46.099120" lon="10.935098">
        <ele>834.377027</ele>
        <time>2020-09-01T12:33:14.421Z</time>
      </trkpt>
      <trkpt lat="46.098959" lon="10.934948">
        <ele>833.491425</ele>
        <time>2020-09-01T12:33:16.428Z</time>
      </trkpt>
      <trkpt lat="46.098863" lon="10.934849">
        <ele>832.946138</ele>
        <time>2020-09-01T12:33:17.421Z</time>
      </trkpt>
      <trkpt lat="46.098780" lon="10.934765">
        <ele>832.477643</ele>
        <time>2020-09-01T12:33:18.423Z</time>
      </trkpt>
      <trkpt lat="46.098638" lon="10.934645">
        <ele>831.717212</ele>
        <time>2020-09-01T12:33:20.437Z</time>
      </trkpt>
      <trkpt lat="46.098547" lon="10.934617">
        <ele>831.287299</ele>
        <time>2020-09-01T12:33:23.424Z</time>
      </trkpt>
      <trkpt lat="46.098338" lon="10.934573">
        <ele>830.705821</ele>
        <time>2020-09-01T12:34:24.430Z</time>
      </trkpt>
      <trkpt lat="46.098241" lon="10.934582">
        <ele>830.467419</ele>
        <time>2020-09-01T12:34:41.442Z</time>
      </trkpt>
      <trkpt lat="46.098141" lon="10.934579">
        <ele>830.222099</ele>
        <time>2020-09-01T12:34:45.420Z</time>
      </trkpt>
      <trkpt lat="46.098029" lon="10.934534">
        <ele>829.936937</ele>
        <time>2020-09-01T12:34:49.425Z</time>
      </trkpt>
      <trkpt lat="46.097937" lon="10.934479">
        <ele>829.692671</ele>
        <time>2020-09-01T12:34:52.428Z</time>
      </trkpt>
      <trkpt lat="46.097838" lon="10.934436">
        <ele>829.439082</ele>
        <time>2020-09-01T12:34:55.422Z</time>
      </trkpt>
      <trkpt lat="46.097741" lon="10.934382">
        <ele>829.184061</ele>
        <time>2020-09-01T12:34:58.427Z</time>
      </trkpt>
      <trkpt lat="46.097619" lon="10.934324">
        <ele>828.868994</ele>
        <time>2020-09-01T12:35:01.435Z</time>
      </trkpt>
      <trkpt lat="46.097513" lon="10.934270">
        <ele>828.593266</ele>
        <time>2020-09-01T12:35:04.420Z</time>
      </trkpt>
      <trkpt lat="46.097419" lon="10.934216">
        <ele>828.345095</ele>
        <time>2020-09-01T12:35:07.421Z</time>
      </trkpt>
      <trkpt lat="46.097313" lon="10.934164">
        <ele>828.070481</ele>
        <time>2020-09-01T12:35:10.408Z</time>
      </trkpt>
      <trkpt lat="46.097213" lon="10.934126">
        <ele>827.816841</ele>
        <time>2020-09-01T12:35:13.422Z</time>
      </trkpt>
      <trkpt lat="46.097113" lon="10.934093">
        <ele>827.565234</ele>
        <time>2020-09-01T12:35:16.460Z</time>
      </trkpt>
      <trkpt lat="46.097002" lon="10.934068">
        <ele>827.289687</ele>
        <time>2020-09-01T12:35:20.423Z</time>
      </trkpt>
      <trkpt lat="46.096882" lon="10.934061">
        <ele>826.995125</ele>
        <time>2020-09-01T12:35:24.420Z</time>
      </trkpt>
      <trkpt lat="46.096768" lon="10.934070">
        <ele>826.773439</ele>
        <time>2020-09-01T12:35:28.418Z</time>
      </trkpt>
      <trkpt lat="46.096675" lon="10.934077">
        <ele>827.067612</ele>
        <time>2020-09-01T12:35:31.422Z</time>
      </trkpt>
      <trkpt lat="46.096583" lon="10.934107">
        <ele>827.365563</ele>
        <time>2020-09-01T12:35:34.428Z</time>
      </trkpt>
      <trkpt lat="46.096469" lon="10.934093">
        <ele>827.726975</ele>
        <time>2020-09-01T12:35:38.403Z</time>
      </trkpt>
      <trkpt lat="46.096377" lon="10.934083">
        <ele>828.018414</ele>
        <time>2020-09-01T12:35:41.418Z</time>
      </trkpt>
      <trkpt lat="46.096273" lon="10.934001">
        <ele>828.392832</ele>
        <time>2020-09-01T12:35:45.432Z</time>
      </trkpt>
      <trkpt lat="46.096212" lon="10.933888">
        <ele>828.706518</ele>
        <time>2020-09-01T12:35:48.426Z</time>
      </trkpt>
      <trkpt lat="46.096196" lon="10.933733">
        <ele>829.049787</ele>
        <time>2020-09-01T12:35:51.422Z</time>
      </trkpt>
      <trkpt lat="46.096214" lon="10.933586">
        <ele>829.376772</ele>
        <time>2020-09-01T12:35:54.457Z</time>
      </trkpt>
      <trkpt lat="46.096248" lon="10.933446">
        <ele>829.701705</ele>
        <time>2020-09-01T12:35:57.437Z</time>
      </trkpt>
      <trkpt lat="46.096274" lon="10.933301">
        <ele>830.029774</ele>
        <time>2020-09-01T12:36:00.424Z</time>
      </trkpt>
      <trkpt lat="46.096300" lon="10.933139">
        <ele>830.394016</ele>
        <time>2020-09-01T12:36:03.423Z</time>
      </trkpt>
      <trkpt lat="46.096326" lon="10.933001">
        <ele>830.707263</ele>
        <time>2020-09-01T12:36:06.428Z</time>
      </trkpt>
      <trkpt lat="46.096358" lon="10.932859">
        <ele>831.034326</ele>
        <time>2020-09-01T12:36:10.471Z</time>
      </trkpt>
      <trkpt lat="46.096378" lon="10.932705">
        <ele>831.377527</ele>
        <time>2020-09-01T12:36:13.428Z</time>
      </trkpt>
      <trkpt lat="46.096382" lon="10.932540">
        <ele>831.739180</ele>
        <time>2020-09-01T12:36:16.430Z</time>
      </trkpt>
      <trkpt lat="46.096357" lon="10.932414">
        <ele>832.026258</ele>
        <time>2020-09-01T12:36:22.433Z</time>
      </trkpt>
      <trkpt lat="46.096306" lon="10.932536">
        <ele>832.338301</ele>
        <time>2020-09-01T12:39:48.413Z</time>
      </trkpt>
      <trkpt lat="46.096332" lon="10.932521">
        <ele>832.420574</ele>
        <time>2020-09-01T12:47:54.572Z</time>
      </trkpt>
      <trkpt lat="46.096343" lon="10.932201">
        <ele>832.161647</ele>
        <time>2020-09-01T13:28:17.439Z</time>
      </trkpt>
      <trkpt lat="46.096358" lon="10.932347">
        <ele>832.042368</ele>
        <time>2020-09-01T13:28:20.432Z</time>
      </trkpt>
      <trkpt lat="46.096312" lon="10.932489">
        <ele>831.915705</ele>
        <time>2020-09-01T13:28:31.445Z</time>
      </trkpt>
      <trkpt lat="46.096302" lon="10.932621">
        <ele>831.808394</ele>
        <time>2020-09-01T13:28:34.435Z</time>
      </trkpt>
      <trkpt lat="46.096265" lon="10.932748">
        <ele>831.697067</ele>
        <time>2020-09-01T13:28:42.487Z</time>
      </trkpt>
      <trkpt lat="46.096182" lon="10.932675">
        <ele>831.583766</ele>
        <time>2020-09-01T13:28:47.436Z</time>
      </trkpt>
      <trkpt lat="46.096167" lon="10.932530">
        <ele>831.465287</ele>
        <time>2020-09-01T13:28:51.430Z</time>
      </trkpt>
      <trkpt lat="46.096136" lon="10.932381">
        <ele>831.339568</ele>
        <time>2020-09-01T13:28:55.435Z</time>
      </trkpt>
      <trkpt lat="46.096126" lon="10.932244">
        <ele>831.228238</ele>
        <time>2020-09-01T13:28:57.436Z</time>
      </trkpt>
      <trkpt lat="46.096113" lon="10.932084">
        <ele>831.098048</ele>
        <time>2020-09-01T13:28:59.435Z</time>
      </trkpt>
      <trkpt lat="46.096080" lon="10.931957">
        <ele>830.988443</ele>
        <time>2020-09-01T13:29:01.440Z</time>
      </trkpt>
      <trkpt lat="46.096016" lon="10.931800">
        <ele>830.841263</ele>
        <time>2020-09-01T13:29:04.479Z</time>
      </trkpt>
      <trkpt lat="46.095948" lon="10.931715">
        <ele>830.736386</ele>
        <time>2020-09-01T13:29:06.431Z</time>
      </trkpt>
      <trkpt lat="46.095855" lon="10.931607">
        <ele>830.597227</ele>
        <time>2020-09-01T13:29:09.440Z</time>
      </trkpt>
      <trkpt lat="46.095749" lon="10.931525">
        <ele>830.457040</ele>
        <time>2020-09-01T13:29:12.432Z</time>
      </trkpt>
      <trkpt lat="46.095652" lon="10.931488">
        <ele>830.340107</ele>
        <time>2020-09-01T13:29:16.438Z</time>
      </trkpt>
      <trkpt lat="46.095554" lon="10.931441">
        <ele>830.079304</ele>
        <time>2020-09-01T13:29:21.432Z</time>
      </trkpt>
      <trkpt lat="46.095437" lon="10.931429">
        <ele>829.762046</ele>
        <time>2020-09-01T13:29:25.429Z</time>
      </trkpt>
      <trkpt lat="46.095323" lon="10.931411">
        <ele>829.451859</ele>
        <time>2020-09-01T13:29:29.417Z</time>
      </trkpt>
      <trkpt lat="46.095238" lon="10.931346">
        <ele>829.191626</ele>
        <time>2020-09-01T13:29:33.414Z</time>
      </trkpt>
      <trkpt lat="46.095115" lon="10.931312">
        <ele>828.852882</ele>
        <time>2020-09-01T13:29:36.438Z</time>
      </trkpt>
      <trkpt lat="46.094958" lon="10.931433">
        <ele>828.371388</ele>
        <time>2020-09-01T13:29:37.456Z</time>
      </trkpt>
      <trkpt lat="46.094866" lon="10.931409">
        <ele>828.118509</ele>
        <time>2020-09-01T13:29:39.438Z</time>
      </trkpt>
      <trkpt lat="46.094741" lon="10.931341">
        <ele>827.757154</ele>
        <time>2020-09-01T13:29:41.432Z</time>
      </trkpt>
      <trkpt lat="46.094653" lon="10.931454">
        <ele>827.438442</ele>
        <time>2020-09-01T13:29:43.436Z</time>
      </trkpt>
      <trkpt lat="46.094550" lon="10.931481">
        <ele>827.155284</ele>
        <time>2020-09-01T13:29:45.437Z</time>
      </trkpt>
      <trkpt lat="46.094496" lon="10.931599">
        <ele>826.890105</ele>
        <time>2020-09-01T13:29:48.430Z</time>
      </trkpt>
      <trkpt lat="46.094508" lon="10.931728">
        <ele>826.645974</ele>
        <time>2020-09-01T13:29:54.461Z</time>
      </trkpt>
      <trkpt lat="46.094409" lon="10.931773">
        <ele>826.365213</ele>
        <time>2020-09-01T13:30:09.459Z</time>
      </trkpt>
      <trkpt lat="46.094394" lon="10.931906">
        <ele>826.112469</ele>
        <time>2020-09-01T13:30:12.467Z</time>
      </trkpt>
      <trkpt lat="46.094425" lon="10.932080">
        <ele>825.775501</ele>
        <time>2020-09-01T13:30:15.456Z</time>
      </trkpt>
      <trkpt lat="46.094454" lon="10.932214">
        <ele>825.512203</ele>
        <time>2020-09-01T13:30:18.457Z</time>
      </trkpt>
      <trkpt lat="46.094474" lon="10.932355">
        <ele>826.221938</ele>
        <time>2020-09-01T13:30:21.454Z</time>
      </trkpt>
      <trkpt lat="46.094528" lon="10.932508">
        <ele>827.341182</ele>
        <time>2020-09-01T13:30:25.454Z</time>
      </trkpt>
      <trkpt lat="46.094580" lon="10.932648">
        <ele>828.376590</ele>
        <time>2020-09-01T13:30:29.474Z</time>
      </trkpt>
      <trkpt lat="46.094624" lon="10.932782">
        <ele>829.343188</ele>
        <time>2020-09-01T13:30:33.460Z</time>
      </trkpt>
      <trkpt lat="46.094658" lon="10.932908">
        <ele>830.224643</ele>
        <time>2020-09-01T13:30:36.460Z</time>
      </trkpt>
      <trkpt lat="46.094694" lon="10.933068">
        <ele>831.321295</ele>
        <time>2020-09-01T13:30:39.456Z</time>
      </trkpt>
      <trkpt lat="46.094732" lon="10.933222">
        <ele>832.386961</ele>
        <time>2020-09-01T13:30:42.457Z</time>
      </trkpt>
      <trkpt lat="46.094766" lon="10.933381">
        <ele>833.471723</ele>
        <time>2020-09-01T13:30:46.495Z</time>
      </trkpt>
      <trkpt lat="46.094791" lon="10.933512">
        <ele>834.357526</ele>
        <time>2020-09-01T13:30:49.463Z</time>
      </trkpt>
      <trkpt lat="46.094819" lon="10.933652">
        <ele>835.307454</ele>
        <time>2020-09-01T13:30:52.458Z</time>
      </trkpt>
      <trkpt lat="46.094854" lon="10.933814">
        <ele>836.413679</ele>
        <time>2020-09-01T13:30:56.458Z</time>
      </trkpt>
      <trkpt lat="46.094864" lon="10.933953">
        <ele>837.324750</ele>
        <time>2020-09-01T13:30:59.462Z</time>
      </trkpt>
      <trkpt lat="46.094891" lon="10.934097">
        <ele>838.297265</ele>
        <time>2020-09-01T13:31:03.457Z</time>
      </trkpt>
      <trkpt lat="46.094906" lon="10.934229">
        <ele>839.169312</ele>
        <time>2020-09-01T13:31:07.457Z</time>
      </trkpt>
      <trkpt lat="46.094898" lon="10.934373">
        <ele>840.111124</ele>
        <time>2020-09-01T13:31:11.451Z</time>
      </trkpt>
      <trkpt lat="46.094884" lon="10.934521">
        <ele>841.084941</ele>
        <time>2020-09-01T13:31:16.469Z</time>
      </trkpt>
      <trkpt lat="46.094864" lon="10.934670">
        <ele>842.074372</ele>
        <time>2020-09-01T13:31:21.450Z</time>
      </trkpt>
      <trkpt lat="46.094868" lon="10.934823">
        <ele>843.588033</ele>
        <time>2020-09-01T13:31:26.468Z</time>
      </trkpt>
      <trkpt lat="46.094870" lon="10.934966">
        <ele>845.205346</ele>
        <time>2020-09-01T13:31:31.469Z</time>
      </trkpt>
      <trkpt lat="46.094890" lon="10.935105">
        <ele>846.810575</ele>
        <time>2020-09-01T13:31:36.456Z</time>
      </trkpt>
      <trkpt lat="46.094920" lon="10.935242">
        <ele>848.435111</ele>
        <time>2020-09-01T13:31:41.509Z</time>
      </trkpt>
      <trkpt lat="46.094953" lon="10.935383">
        <ele>850.117832</ele>
        <time>2020-09-01T13:31:47.466Z</time>
      </trkpt>
      <trkpt lat="46.094926" lon="10.935516">
        <ele>851.684855</ele>
        <time>2020-09-01T13:31:52.492Z</time>
      </trkpt>
      <trkpt lat="46.094859" lon="10.935637">
        <ele>853.435729</ele>
        <time>2020-09-01T13:31:58.455Z</time>
      </trkpt>
      <trkpt lat="46.094786" lon="10.935749">
        <ele>855.173767</ele>
        <time>2020-09-01T13:32:04.454Z</time>
      </trkpt>
      <trkpt lat="46.094722" lon="10.935847">
        <ele>856.695949</ele>
        <time>2020-09-01T13:32:10.454Z</time>
      </trkpt>
      <trkpt lat="46.094641" lon="10.935925">
        <ele>858.284144</ele>
        <time>2020-09-01T13:32:16.437Z</time>
      </trkpt>
      <trkpt lat="46.094564" lon="10.935996">
        <ele>859.774435</ele>
        <time>2020-09-01T13:32:22.461Z</time>
      </trkpt>
      <trkpt lat="46.094469" lon="10.936029">
        <ele>861.367803</ele>
        <time>2020-09-01T13:32:28.463Z</time>
      </trkpt>
      <trkpt lat="46.094388" lon="10.936108">
        <ele>862.962308</ele>
        <time>2020-09-01T13:32:34.432Z</time>
      </trkpt>
      <trkpt lat="46.094362" lon="10.936243">
        <ele>864.546622</ele>
        <time>2020-09-01T13:32:39.459Z</time>
      </trkpt>
      <trkpt lat="46.094306" lon="10.936387">
        <ele>866.413488</ele>
        <time>2020-09-01T13:32:44.448Z</time>
      </trkpt>
      <trkpt lat="46.094241" lon="10.936521">
        <ele>868.262616</ele>
        <time>2020-09-01T13:32:48.437Z</time>
      </trkpt>
      <trkpt lat="46.094224" lon="10.936656">
        <ele>869.814121</ele>
        <time>2020-09-01T13:32:53.450Z</time>
      </trkpt>
      <trkpt lat="46.094240" lon="10.936787">
        <ele>871.318230</ele>
        <time>2020-09-01T13:32:59.471Z</time>
      </trkpt>
      <trkpt lat="46.094243" lon="10.936924">
        <ele>872.136867</ele>
        <time>2020-09-01T13:33:04.457Z</time>
      </trkpt>
      <trkpt lat="46.094215" lon="10.937076">
        <ele>872.802756</ele>
        <time>2020-09-01T13:33:09.476Z</time>
      </trkpt>
      <trkpt lat="46.094212" lon="10.937209">
        <ele>873.366178</ele>
        <time>2020-09-01T13:33:15.430Z</time>
      </trkpt>
      <trkpt lat="46.094263" lon="10.937336">
        <ele>873.987548</ele>
        <time>2020-09-01T13:33:21.446Z</time>
      </trkpt>
      <trkpt lat="46.094339" lon="10.937432">
        <ele>874.604416</ele>
        <time>2020-09-01T13:33:27.438Z</time>
      </trkpt>
      <trkpt lat="46.094396" lon="10.937563">
        <ele>875.259210</ele>
        <time>2020-09-01T13:33:32.476Z</time>
      </trkpt>
      <trkpt lat="46.094401" lon="10.937708">
        <ele>875.873899</ele>
        <time>2020-09-01T13:33:36.459Z</time>
      </trkpt>
      <trkpt lat="46.094368" lon="10.937847">
        <ele>876.495958</ele>
        <time>2020-09-01T13:33:41.478Z</time>
      </trkpt>
      <trkpt lat="46.094453" lon="10.937897">
        <ele>877.056445</ele>
        <time>2020-09-01T13:33:46.460Z</time>
      </trkpt>
      <trkpt lat="46.094544" lon="10.937908">
        <ele>877.613995</ele>
        <time>2020-09-01T13:33:50.461Z</time>
      </trkpt>
      <trkpt lat="46.094620" lon="10.937986">
        <ele>878.183537</ele>
        <time>2020-09-01T13:33:54.453Z</time>
      </trkpt>
      <trkpt lat="46.094640" lon="10.938126">
        <ele>878.788742</ele>
        <time>2020-09-01T13:33:57.471Z</time>
      </trkpt>
      <trkpt lat="46.094695" lon="10.938253">
        <ele>879.422699</ele>
        <time>2020-09-01T13:34:01.459Z</time>
      </trkpt>
      <trkpt lat="46.094741" lon="10.938393">
        <ele>880.078625</ele>
        <time>2020-09-01T13:34:06.461Z</time>
      </trkpt>
      <trkpt lat="46.094785" lon="10.938517">
        <ele>880.668376</ele>
        <time>2020-09-01T13:34:10.491Z</time>
      </trkpt>
      <trkpt lat="46.094800" lon="10.938654">
        <ele>881.255616</ele>
        <time>2020-09-01T13:34:15.461Z</time>
      </trkpt>
      <trkpt lat="46.094822" lon="10.938786">
        <ele>881.830414</ele>
        <time>2020-09-01T13:34:23.455Z</time>
      </trkpt>
      <trkpt lat="46.094885" lon="10.938884">
        <ele>882.396205</ele>
        <time>2020-09-01T13:34:28.460Z</time>
      </trkpt>
      <trkpt lat="46.094974" lon="10.938981">
        <ele>883.045827</ele>
        <time>2020-09-01T13:34:33.459Z</time>
      </trkpt>
      <trkpt lat="46.095048" lon="10.939075">
        <ele>883.600085</ele>
        <time>2020-09-01T13:34:37.461Z</time>
      </trkpt>
      <trkpt lat="46.095157" lon="10.939081">
        <ele>884.213149</ele>
        <time>2020-09-01T13:34:42.460Z</time>
      </trkpt>
      <trkpt lat="46.095250" lon="10.939143">
        <ele>884.788996</ele>
        <time>2020-09-01T13:34:46.461Z</time>
      </trkpt>
      <trkpt lat="46.095325" lon="10.939241">
        <ele>885.357832</ele>
        <time>2020-09-01T13:34:49.453Z</time>
      </trkpt>
      <trkpt lat="46.095419" lon="10.939329">
        <ele>885.987712</ele>
        <time>2020-09-01T13:34:53.441Z</time>
      </trkpt>
      <trkpt lat="46.095538" lon="10.939322">
        <ele>886.657090</ele>
        <time>2020-09-01T13:35:00.453Z</time>
      </trkpt>
      <trkpt lat="46.095634" lon="10.939274">
        <ele>887.228156</ele>
        <time>2020-09-01T13:35:03.434Z</time>
      </trkpt>
      <trkpt lat="46.095740" lon="10.939227">
        <ele>887.851439</ele>
        <time>2020-09-01T13:35:07.432Z</time>
      </trkpt>
      <trkpt lat="46.095843" lon="10.939252">
        <ele>888.438478</ele>
        <time>2020-09-01T13:35:10.432Z</time>
      </trkpt>
      <trkpt lat="46.095940" lon="10.939347">
        <ele>889.097497</ele>
        <time>2020-09-01T13:35:13.451Z</time>
      </trkpt>
      <trkpt lat="46.095973" lon="10.939479">
        <ele>889.644372</ele>
        <time>2020-09-01T13:35:18.442Z</time>
      </trkpt>
      <trkpt lat="46.095947" lon="10.939603">
        <ele>890.149264</ele>
        <time>2020-09-01T13:35:35.437Z</time>
      </trkpt>
      <trkpt lat="46.095916" lon="10.939732">
        <ele>890.681369</ele>
        <time>2020-09-01T13:35:54.454Z</time>
      </trkpt>
      <trkpt lat="46.095885" lon="10.939878">
        <ele>891.276473</ele>
        <time>2020-09-01T13:36:00.453Z</time>
      </trkpt>
      <trkpt lat="46.095911" lon="10.940044">
        <ele>891.939747</ele>
        <time>2020-09-01T13:36:07.450Z</time>
      </trkpt>
      <trkpt lat="46.095935" lon="10.940193">
        <ele>892.535927</ele>
        <time>2020-09-01T13:36:11.464Z</time>
      </trkpt>
      <trkpt lat="46.095953" lon="10.940351">
        <ele>892.753199</ele>
        <time>2020-09-01T13:36:14.454Z</time>
      </trkpt>
      <trkpt lat="46.095986" lon="10.940502">
        <ele>892.692218</ele>
        <time>2020-09-01T13:36:17.471Z</time>
      </trkpt>
      <trkpt lat="46.096011" lon="10.940642">
        <ele>892.636535</ele>
        <time>2020-09-01T13:36:20.449Z</time>
      </trkpt>
      <trkpt lat="46.096032" lon="10.940797">
        <ele>892.575704</ele>
        <time>2020-09-01T13:36:23.459Z</time>
      </trkpt>
      <trkpt lat="46.096040" lon="10.940931">
        <ele>892.523900</ele>
        <time>2020-09-01T13:36:25.463Z</time>
      </trkpt>
      <trkpt lat="46.096026" lon="10.941060">
        <ele>892.473608</ele>
        <time>2020-09-01T13:36:28.459Z</time>
      </trkpt>
      <trkpt lat="46.096047" lon="10.941189">
        <ele>892.422570</ele>
        <time>2020-09-01T13:36:33.466Z</time>
      </trkpt>
      <trkpt lat="46.096085" lon="10.941309">
        <ele>892.371758</ele>
        <time>2020-09-01T13:36:36.458Z</time>
      </trkpt>
      <trkpt lat="46.096121" lon="10.941458">
        <ele>892.310984</ele>
        <time>2020-09-01T13:36:39.463Z</time>
      </trkpt>
      <trkpt lat="46.096140" lon="10.941611">
        <ele>892.251115</ele>
        <time>2020-09-01T13:36:41.469Z</time>
      </trkpt>
      <trkpt lat="46.096161" lon="10.941773">
        <ele>892.187636</ele>
        <time>2020-09-01T13:36:43.474Z</time>
      </trkpt>
      <trkpt lat="46.096189" lon="10.941928">
        <ele>892.125942</ele>
        <time>2020-09-01T13:36:45.459Z</time>
      </trkpt>
      <trkpt lat="46.096219" lon="10.942061">
        <ele>892.072072</ele>
        <time>2020-09-01T13:36:47.458Z</time>
      </trkpt>
      <trkpt lat="46.096218" lon="10.942194">
        <ele>892.020842</ele>
        <time>2020-09-01T13:36:49.459Z</time>
      </trkpt>
      <trkpt lat="46.096226" lon="10.942332">
        <ele>891.967502</ele>
        <time>2020-09-01T13:36:51.453Z</time>
      </trkpt>
      <trkpt lat="46.096238" lon="10.942466">
        <ele>891.915461</ele>
        <time>2020-09-01T13:36:53.461Z</time>
      </trkpt>
      <trkpt lat="46.096257" lon="10.942607">
        <ele>891.860136</ele>
        <time>2020-09-01T13:36:55.468Z</time>
      </trkpt>
      <trkpt lat="46.096232" lon="10.942774">
        <ele>891.794330</ele>
        <time>2020-09-01T13:36:57.468Z</time>
      </trkpt>
      <trkpt lat="46.096211" lon="10.942931">
        <ele>892.048671</ele>
        <time>2020-09-01T13:36:59.514Z</time>
      </trkpt>
      <trkpt lat="46.096177" lon="10.943059">
        <ele>892.283465</ele>
        <time>2020-09-01T13:37:04.459Z</time>
      </trkpt>
      <trkpt lat="46.096161" lon="10.943188">
        <ele>892.507943</ele>
        <time>2020-09-01T13:37:08.463Z</time>
      </trkpt>
      <trkpt lat="46.096107" lon="10.943326">
        <ele>892.779371</ele>
        <time>2020-09-01T13:37:12.479Z</time>
      </trkpt>
      <trkpt lat="46.096053" lon="10.943473">
        <ele>893.064326</ele>
        <time>2020-09-01T13:37:15.484Z</time>
      </trkpt>
      <trkpt lat="46.096030" lon="10.943612">
        <ele>893.309112</ele>
        <time>2020-09-01T13:37:17.455Z</time>
      </trkpt>
      <trkpt lat="46.095989" lon="10.943795">
        <ele>893.638540</ele>
        <time>2020-09-01T13:37:20.468Z</time>
      </trkpt>
      <trkpt lat="46.095961" lon="10.943920">
        <ele>893.863554</ele>
        <time>2020-09-01T13:37:22.460Z</time>
      </trkpt>
      <trkpt lat="46.095927" lon="10.944044">
        <ele>894.091964</ele>
        <time>2020-09-01T13:37:24.461Z</time>
      </trkpt>
      <trkpt lat="46.095862" lon="10.944197">
        <ele>894.399322</ele>
        <time>2020-09-01T13:37:27.465Z</time>
      </trkpt>
      <trkpt lat="46.095828" lon="10.944338">
        <ele>894.655036</ele>
        <time>2020-09-01T13:37:30.469Z</time>
      </trkpt>
      <trkpt lat="46.095786" lon="10.944484">
        <ele>894.925796</ele>
        <time>2020-09-01T13:37:33.471Z</time>
      </trkpt>
      <trkpt lat="46.095727" lon="10.944615">
        <ele>895.193370</ele>
        <time>2020-09-01T13:37:36.446Z</time>
      </trkpt>
      <trkpt lat="46.095642" lon="10.944764">
        <ele>895.523870</ele>
        <time>2020-09-01T13:37:39.458Z</time>
      </trkpt>
      <trkpt lat="46.095590" lon="10.944907">
        <ele>895.800462</ele>
        <time>2020-09-01T13:37:41.464Z</time>
      </trkpt>
      <trkpt lat="46.095530" lon="10.945014">
        <ele>896.036177</ele>
        <time>2020-09-01T13:37:43.507Z</time>
      </trkpt>
      <trkpt lat="46.095452" lon="10.945099">
        <ele>896.127236</ele>
        <time>2020-09-01T13:37:45.475Z</time>
      </trkpt>
      <trkpt lat="46.095370" lon="10.945166">
        <ele>895.562738</ele>
        <time>2020-09-01T13:37:47.475Z</time>
      </trkpt>
      <trkpt lat="46.095274" lon="10.945201">
        <ele>894.969654</ele>
        <time>2020-09-01T13:37:50.463Z</time>
      </trkpt>
      <trkpt lat="46.095172" lon="10.945245">
        <ele>894.331977</ele>
        <time>2020-09-01T13:37:53.455Z</time>
      </trkpt>
      <trkpt lat="46.095086" lon="10.945300">
        <ele>893.768496</ele>
        <time>2020-09-01T13:37:56.452Z</time>
      </trkpt>
      <trkpt lat="46.094981" lon="10.945360">
        <ele>893.092022</ele>
        <time>2020-09-01T13:38:00.459Z</time>
      </trkpt>
      <trkpt lat="46.094876" lon="10.945398">
        <ele>892.443621</ele>
        <time>2020-09-01T13:38:03.463Z</time>
      </trkpt>
      <trkpt lat="46.094776" lon="10.945446">
        <ele>891.812362</ele>
        <time>2020-09-01T13:38:06.461Z</time>
      </trkpt>
      <trkpt lat="46.094656" lon="10.945489">
        <ele>891.071764</ele>
        <time>2020-09-01T13:38:12.433Z</time>
      </trkpt>
      <trkpt lat="46.094558" lon="10.945526">
        <ele>890.465008</ele>
        <time>2020-09-01T13:38:14.462Z</time>
      </trkpt>
      <trkpt lat="46.094422" lon="10.945524">
        <ele>889.650395</ele>
        <time>2020-09-01T13:38:17.459Z</time>
      </trkpt>
      <trkpt lat="46.094287" lon="10.945521">
        <ele>888.841716</ele>
        <time>2020-09-01T13:38:20.460Z</time>
      </trkpt>
      <trkpt lat="46.094145" lon="10.945517">
        <ele>887.991046</ele>
        <time>2020-09-01T13:38:23.468Z</time>
      </trkpt>
      <trkpt lat="46.094047" lon="10.945575">
        <ele>887.356561</ele>
        <time>2020-09-01T13:38:26.436Z</time>
      </trkpt>
      <trkpt lat="46.093951" lon="10.945563">
        <ele>886.779413</ele>
        <time>2020-09-01T13:38:28.438Z</time>
      </trkpt>
      <trkpt lat="46.093834" lon="10.945568">
        <ele>886.078334</ele>
        <time>2020-09-01T13:38:33.439Z</time>
      </trkpt>
      <trkpt lat="46.093716" lon="10.945609">
        <ele>885.479777</ele>
        <time>2020-09-01T13:38:34.446Z</time>
      </trkpt>
      <trkpt lat="46.093560" lon="10.945508">
        <ele>885.657529</ele>
        <time>2020-09-01T13:38:35.442Z</time>
      </trkpt>
      <trkpt lat="46.093436" lon="10.945412">
        <ele>885.803826</ele>
        <time>2020-09-01T13:38:37.441Z</time>
      </trkpt>
      <trkpt lat="46.093335" lon="10.945318">
        <ele>885.928781</ele>
        <time>2020-09-01T13:38:39.438Z</time>
      </trkpt>
      <trkpt lat="46.093241" lon="10.945234">
        <ele>886.043732</ele>
        <time>2020-09-01T13:38:41.443Z</time>
      </trkpt>
      <trkpt lat="46.093157" lon="10.945182">
        <ele>886.138754</ele>
        <time>2020-09-01T13:38:44.471Z</time>
      </trkpt>
      <trkpt lat="46.093076" lon="10.945123">
        <ele>886.233083</ele>
        <time>2020-09-01T13:38:48.461Z</time>
      </trkpt>
      <trkpt lat="46.092970" lon="10.945072">
        <ele>886.349239</ele>
        <time>2020-09-01T13:38:53.467Z</time>
      </trkpt>
      <trkpt lat="46.092874" lon="10.945024">
        <ele>886.454857</ele>
        <time>2020-09-01T13:38:57.458Z</time>
      </trkpt>
      <trkpt lat="46.092783" lon="10.945026">
        <ele>886.549460</ele>
        <time>2020-09-01T13:39:01.464Z</time>
      </trkpt>
      <trkpt lat="46.092691" lon="10.945051">
        <ele>886.646774</ele>
        <time>2020-09-01T13:39:05.504Z</time>
      </trkpt>
      <trkpt lat="46.092584" lon="10.945058">
        <ele>886.758112</ele>
        <time>2020-09-01T13:39:08.473Z</time>
      </trkpt>
      <trkpt lat="46.092485" lon="10.944986">
        <ele>886.873368</ele>
        <time>2020-09-01T13:39:11.475Z</time>
      </trkpt>
      <trkpt lat="46.092426" lon="10.944854">
        <ele>886.986574</ele>
        <time>2020-09-01T13:39:14.463Z</time>
      </trkpt>
      <trkpt lat="46.092351" lon="10.944751">
        <ele>887.094235</ele>
        <time>2020-09-01T13:39:18.463Z</time>
      </trkpt>
      <trkpt lat="46.092277" lon="10.944665">
        <ele>887.193029</ele>
        <time>2020-09-01T13:39:22.475Z</time>
      </trkpt>
      <trkpt lat="46.092193" lon="10.944591">
        <ele>887.295350</ele>
        <time>2020-09-01T13:39:26.460Z</time>
      </trkpt>
      <trkpt lat="46.092093" lon="10.944521">
        <ele>887.696508</ele>
        <time>2020-09-01T13:39:30.464Z</time>
      </trkpt>
      <trkpt lat="46.091997" lon="10.944500">
        <ele>888.155646</ele>
        <time>2020-09-01T13:39:34.463Z</time>
      </trkpt>
      <trkpt lat="46.091902" lon="10.944487">
        <ele>888.606880</ele>
        <time>2020-09-01T13:39:38.504Z</time>
      </trkpt>
      <trkpt lat="46.091800" lon="10.944437">
        <ele>889.116304</ele>
        <time>2020-09-01T13:39:42.463Z</time>
      </trkpt>
      <trkpt lat="46.091702" lon="10.944380">
        <ele>889.615984</ele>
        <time>2020-09-01T13:39:46.453Z</time>
      </trkpt>
      <trkpt lat="46.091613" lon="10.944303">
        <ele>890.106768</ele>
        <time>2020-09-01T13:39:49.481Z</time>
      </trkpt>
      <trkpt lat="46.091506" lon="10.944303">
        <ele>890.612727</ele>
        <time>2020-09-01T13:39:54.433Z</time>
      </trkpt>
      <trkpt lat="46.091377" lon="10.944296">
        <ele>891.223146</ele>
        <time>2020-09-01T13:39:59.444Z</time>
      </trkpt>
      <trkpt lat="46.091261" lon="10.944244">
        <ele>891.797557</ele>
        <time>2020-09-01T13:40:02.438Z</time>
      </trkpt>
      <trkpt lat="46.091171" lon="10.944204">
        <ele>892.242887</ele>
        <time>2020-09-01T13:40:04.455Z</time>
      </trkpt>
      <trkpt lat="46.091058" lon="10.944117">
        <ele>892.848614</ele>
        <time>2020-09-01T13:40:07.460Z</time>
      </trkpt>
      <trkpt lat="46.090969" lon="10.944046">
        <ele>893.329573</ele>
        <time>2020-09-01T13:40:10.463Z</time>
      </trkpt>
      <trkpt lat="46.090870" lon="10.943964">
        <ele>893.869440</ele>
        <time>2020-09-01T13:40:14.471Z</time>
      </trkpt>
      <trkpt lat="46.090776" lon="10.943890">
        <ele>894.375857</ele>
        <time>2020-09-01T13:40:18.479Z</time>
      </trkpt>
      <trkpt lat="46.090702" lon="10.943785">
        <ele>894.866781</ele>
        <time>2020-09-01T13:40:22.509Z</time>
      </trkpt>
      <trkpt lat="46.090603" lon="10.943683">
        <ele>895.442135</ele>
        <time>2020-09-01T13:40:26.464Z</time>
      </trkpt>
      <trkpt lat="46.090513" lon="10.943633">
        <ele>895.794467</ele>
        <time>2020-09-01T13:40:29.461Z</time>
      </trkpt>
      <trkpt lat="46.090415" lon="10.943571">
        <ele>895.463849</ele>
        <time>2020-09-01T13:40:32.471Z</time>
      </trkpt>
      <trkpt lat="46.090317" lon="10.943528">
        <ele>895.147384</ele>
        <time>2020-09-01T13:40:35.441Z</time>
      </trkpt>
      <trkpt lat="46.090200" lon="10.943538">
        <ele>894.785293</ele>
        <time>2020-09-01T13:40:40.443Z</time>
      </trkpt>
      <trkpt lat="46.090098" lon="10.943544">
        <ele>894.469916</ele>
        <time>2020-09-01T13:40:43.459Z</time>
      </trkpt>
      <trkpt lat="46.089970" lon="10.943531">
        <ele>894.073497</ele>
        <time>2020-09-01T13:40:46.457Z</time>
      </trkpt>
      <trkpt lat="46.089851" lon="10.943477">
        <ele>893.688087</ele>
        <time>2020-09-01T13:40:49.439Z</time>
      </trkpt>
      <trkpt lat="46.089756" lon="10.943403">
        <ele>893.354509</ele>
        <time>2020-09-01T13:40:53.441Z</time>
      </trkpt>
      <trkpt lat="46.089641" lon="10.943296">
        <ele>892.931685</ele>
        <time>2020-09-01T13:40:56.438Z</time>
      </trkpt>
      <trkpt lat="46.089569" lon="10.943206">
        <ele>892.637302</ele>
        <time>2020-09-01T13:40:59.438Z</time>
      </trkpt>
      <trkpt lat="46.089476" lon="10.943106">
        <ele>892.278897</ele>
        <time>2020-09-01T13:41:02.439Z</time>
      </trkpt>
      <trkpt lat="46.089398" lon="10.942976">
        <ele>891.910592</ele>
        <time>2020-09-01T13:41:05.449Z</time>
      </trkpt>
      <trkpt lat="46.089303" lon="10.942912">
        <ele>891.586648</ele>
        <time>2020-09-01T13:41:08.441Z</time>
      </trkpt>
      <trkpt lat="46.089200" lon="10.942794">
        <ele>891.180231</ele>
        <time>2020-09-01T13:41:11.460Z</time>
      </trkpt>
      <trkpt lat="46.089086" lon="10.942711">
        <ele>890.785691</ele>
        <time>2020-09-01T13:41:14.443Z</time>
      </trkpt>
      <trkpt lat="46.088979" lon="10.942638">
        <ele>890.419993</ele>
        <time>2020-09-01T13:41:17.450Z</time>
      </trkpt>
      <trkpt lat="46.088852" lon="10.942564">
        <ele>889.756914</ele>
        <time>2020-09-01T13:41:20.451Z</time>
      </trkpt>
      <trkpt lat="46.088725" lon="10.942539">
        <ele>889.024018</ele>
        <time>2020-09-01T13:41:23.490Z</time>
      </trkpt>
      <trkpt lat="46.088638" lon="10.942597">
        <ele>888.475972</ele>
        <time>2020-09-01T13:41:27.445Z</time>
      </trkpt>
      <trkpt lat="46.088574" lon="10.942703">
        <ele>887.918653</ele>
        <time>2020-09-01T13:41:31.464Z</time>
      </trkpt>
      <trkpt lat="46.088455" lon="10.942892">
        <ele>886.906378</ele>
        <time>2020-09-01T13:41:33.462Z</time>
      </trkpt>
      <trkpt lat="46.088340" lon="10.942946">
        <ele>886.214841</ele>
        <time>2020-09-01T13:41:37.452Z</time>
      </trkpt>
      <trkpt lat="46.088233" lon="10.942920">
        <ele>885.594410</ele>
        <time>2020-09-01T13:41:41.446Z</time>
      </trkpt>
      <trkpt lat="46.088107" lon="10.942923">
        <ele>884.873870</ele>
        <time>2020-09-01T13:41:45.491Z</time>
      </trkpt>
      <trkpt lat="46.087991" lon="10.943032">
        <ele>884.082189</ele>
        <time>2020-09-01T13:41:48.437Z</time>
      </trkpt>
      <trkpt lat="46.087889" lon="10.943121">
        <ele>883.400496</ele>
        <time>2020-09-01T13:41:50.443Z</time>
      </trkpt>
      <trkpt lat="46.087786" lon="10.943217">
        <ele>882.699231</ele>
        <time>2020-09-01T13:41:52.440Z</time>
      </trkpt>
      <trkpt lat="46.087704" lon="10.943308">
        <ele>882.107576</ele>
        <time>2020-09-01T13:41:54.444Z</time>
      </trkpt>
      <trkpt lat="46.087644" lon="10.943408">
        <ele>881.583213</ele>
        <time>2020-09-01T13:41:56.479Z</time>
      </trkpt>
      <trkpt lat="46.087575" lon="10.943496">
        <ele>881.056492</ele>
        <time>2020-09-01T13:41:58.439Z</time>
      </trkpt>
      <trkpt lat="46.087501" lon="10.943576">
        <ele>880.527648</ele>
        <time>2020-09-01T13:42:01.466Z</time>
      </trkpt>
      <trkpt lat="46.087397" lon="10.943633">
        <ele>880.068821</ele>
        <time>2020-09-01T13:42:05.465Z</time>
      </trkpt>
      <trkpt lat="46.087280" lon="10.943632">
        <ele>880.551227</ele>
        <time>2020-09-01T13:42:09.446Z</time>
      </trkpt>
      <trkpt lat="46.087175" lon="10.943584">
        <ele>881.005387</ele>
        <time>2020-09-01T13:42:13.453Z</time>
      </trkpt>
      <trkpt lat="46.087084" lon="10.943561">
        <ele>881.386306</ele>
        <time>2020-09-01T13:42:17.462Z</time>
      </trkpt>
      <trkpt lat="46.086982" lon="10.943565">
        <ele>881.807013</ele>
        <time>2020-09-01T13:42:20.458Z</time>
      </trkpt>
      <trkpt lat="46.086884" lon="10.943595">
        <ele>882.220079</ele>
        <time>2020-09-01T13:42:23.468Z</time>
      </trkpt>
      <trkpt lat="46.086797" lon="10.943643">
        <ele>882.604150</ele>
        <time>2020-09-01T13:42:26.459Z</time>
      </trkpt>
      <trkpt lat="46.086696" lon="10.943680">
        <ele>883.033810</ele>
        <time>2020-09-01T13:42:29.506Z</time>
      </trkpt>
      <trkpt lat="46.086603" lon="10.943730">
        <ele>883.443045</ele>
        <time>2020-09-01T13:42:32.492Z</time>
      </trkpt>
      <trkpt lat="46.086518" lon="10.943814">
        <ele>883.867924</ele>
        <time>2020-09-01T13:42:35.463Z</time>
      </trkpt>
      <trkpt lat="46.086439" lon="10.943899">
        <ele>884.274344</ele>
        <time>2020-09-01T13:42:38.452Z</time>
      </trkpt>
      <trkpt lat="46.086366" lon="10.943975">
        <ele>884.645591</ele>
        <time>2020-09-01T13:42:41.448Z</time>
      </trkpt>
      <trkpt lat="46.086291" lon="10.944059">
        <ele>885.037156</ele>
        <time>2020-09-01T13:42:44.467Z</time>
      </trkpt>
      <trkpt lat="46.086185" lon="10.944104">
        <ele>885.492752</ele>
        <time>2020-09-01T13:42:48.458Z</time>
      </trkpt>
      <trkpt lat="46.086075" lon="10.944068">
        <ele>885.957825</ele>
        <time>2020-09-01T13:42:52.462Z</time>
      </trkpt>
      <trkpt lat="46.085960" lon="10.944039">
        <ele>886.439174</ele>
        <time>2020-09-01T13:42:56.458Z</time>
      </trkpt>
      <trkpt lat="46.085883" lon="10.943923">
        <ele>886.898335</ele>
        <time>2020-09-01T13:45:10.464Z</time>
      </trkpt>
      <trkpt lat="46.085809" lon="10.943829">
        <ele>887.304965</ele>
        <time>2020-09-01T13:45:16.467Z</time>
      </trkpt>
      <trkpt lat="46.085722" lon="10.943769">
        <ele>887.628759</ele>
        <time>2020-09-01T13:45:21.460Z</time>
      </trkpt>
      <trkpt lat="46.085614" lon="10.943723">
        <ele>887.975731</ele>
        <time>2020-09-01T13:45:25.501Z</time>
      </trkpt>
      <trkpt lat="46.085509" lon="10.943720">
        <ele>888.299308</ele>
        <time>2020-09-01T13:45:29.465Z</time>
      </trkpt>
      <trkpt lat="46.085413" lon="10.943739">
        <ele>888.597865</ele>
        <time>2020-09-01T13:45:34.432Z</time>
      </trkpt>
      <trkpt lat="46.085300" lon="10.943729">
        <ele>888.946682</ele>
        <time>2020-09-01T13:45:39.444Z</time>
      </trkpt>
      <trkpt lat="46.085185" lon="10.943705">
        <ele>889.304698</ele>
        <time>2020-09-01T13:45:43.449Z</time>
      </trkpt>
      <trkpt lat="46.085092" lon="10.943681">
        <ele>889.595792</ele>
        <time>2020-09-01T13:45:46.446Z</time>
      </trkpt>
      <trkpt lat="46.084989" lon="10.943611">
        <ele>889.946632</ele>
        <time>2020-09-01T13:45:50.468Z</time>
      </trkpt>
      <trkpt lat="46.084904" lon="10.943560">
        <ele>890.230296</ele>
        <time>2020-09-01T13:45:53.477Z</time>
      </trkpt>
      <trkpt lat="46.084816" lon="10.943481">
        <ele>890.549695</ele>
        <time>2020-09-01T13:45:58.442Z</time>
      </trkpt>
      <trkpt lat="46.084719" lon="10.943423">
        <ele>890.873242</ele>
        <time>2020-09-01T13:46:02.458Z</time>
      </trkpt>
      <trkpt lat="46.084628" lon="10.943345">
        <ele>891.199427</ele>
        <time>2020-09-01T13:46:04.461Z</time>
      </trkpt>
      <trkpt lat="46.084535" lon="10.943278">
        <ele>891.519749</ele>
        <time>2020-09-01T13:46:06.463Z</time>
      </trkpt>
      <trkpt lat="46.084426" lon="10.943234">
        <ele>891.868501</ele>
        <time>2020-09-01T13:46:09.488Z</time>
      </trkpt>
      <trkpt lat="46.084345" lon="10.943162">
        <ele>892.161688</ele>
        <time>2020-09-01T13:46:12.460Z</time>
      </trkpt>
      <trkpt lat="46.084273" lon="10.943071">
        <ele>892.456697</ele>
        <time>2020-09-01T13:46:16.458Z</time>
      </trkpt>
      <trkpt lat="46.084191" lon="10.942993">
        <ele>892.759379</ele>
        <time>2020-09-01T13:46:20.463Z</time>
      </trkpt>
      <trkpt lat="46.084094" lon="10.942916">
        <ele>892.661838</ele>
        <time>2020-09-01T13:46:24.461Z</time>
      </trkpt>
      <trkpt lat="46.083992" lon="10.942839">
        <ele>891.967611</ele>
        <time>2020-09-01T13:46:28.449Z</time>
      </trkpt>
      <trkpt lat="46.083914" lon="10.942774">
        <ele>891.424391</ele>
        <time>2020-09-01T13:46:31.459Z</time>
      </trkpt>
      <trkpt lat="46.083813" lon="10.942691">
        <ele>890.723419</ele>
        <time>2020-09-01T13:46:35.485Z</time>
      </trkpt>
      <trkpt lat="46.083716" lon="10.942636">
        <ele>890.094940</ele>
        <time>2020-09-01T13:46:39.456Z</time>
      </trkpt>
      <trkpt lat="46.083616" lon="10.942601">
        <ele>889.474466</ele>
        <time>2020-09-01T13:47:04.441Z</time>
      </trkpt>
      <trkpt lat="46.083501" lon="10.942529">
        <ele>888.718501</ele>
        <time>2020-09-01T13:47:07.448Z</time>
      </trkpt>
      <trkpt lat="46.083420" lon="10.942447">
        <ele>888.121726</ele>
        <time>2020-09-01T13:47:09.440Z</time>
      </trkpt>
      <trkpt lat="46.083314" lon="10.942350">
        <ele>887.364712</ele>
        <time>2020-09-01T13:47:11.480Z</time>
      </trkpt>
      <trkpt lat="46.083211" lon="10.942233">
        <ele>886.574056</ele>
        <time>2020-09-01T13:47:13.461Z</time>
      </trkpt>
      <trkpt lat="46.083162" lon="10.942122">
        <ele>886.023786</ele>
        <time>2020-09-01T13:47:15.462Z</time>
      </trkpt>
      <trkpt lat="46.083139" lon="10.941978">
        <ele>885.405785</ele>
        <time>2020-09-01T13:47:20.440Z</time>
      </trkpt>
      <trkpt lat="46.083074" lon="10.941884">
        <ele>884.850667</ele>
        <time>2020-09-01T13:47:26.453Z</time>
      </trkpt>
      <trkpt lat="46.082996" lon="10.941794">
        <ele>884.248281</ele>
        <time>2020-09-01T13:47:31.463Z</time>
      </trkpt>
      <trkpt lat="46.082919" lon="10.941712">
        <ele>883.671076</ele>
        <time>2020-09-01T13:47:34.445Z</time>
      </trkpt>
      <trkpt lat="46.082851" lon="10.941607">
        <ele>883.070284</ele>
        <time>2020-09-01T13:47:37.441Z</time>
      </trkpt>
      <trkpt lat="46.082774" lon="10.941522">
        <ele>882.485536</ele>
        <time>2020-09-01T13:47:39.458Z</time>
      </trkpt>
      <trkpt lat="46.082645" lon="10.941391">
        <ele>882.354284</ele>
        <time>2020-09-01T13:47:41.459Z</time>
      </trkpt>
      <trkpt lat="46.082514" lon="10.941291">
        <ele>882.739947</ele>
        <time>2020-09-01T13:47:43.440Z</time>
      </trkpt>
      <trkpt lat="46.082415" lon="10.941276">
        <ele>882.998942</ele>
        <time>2020-09-01T13:47:46.427Z</time>
      </trkpt>
      <trkpt lat="46.082310" lon="10.941243">
        <ele>883.278545</ele>
        <time>2020-09-01T13:47:49.439Z</time>
      </trkpt>
      <trkpt lat="46.082203" lon="10.941204">
        <ele>883.565696</ele>
        <time>2020-09-01T13:47:52.452Z</time>
      </trkpt>
      <trkpt lat="46.082095" lon="10.941098">
        <ele>883.905623</ele>
        <time>2020-09-01T13:47:55.436Z</time>
      </trkpt>
      <trkpt lat="46.082011" lon="10.940970">
        <ele>884.223623</ele>
        <time>2020-09-01T13:47:58.447Z</time>
      </trkpt>
      <trkpt lat="46.081993" lon="10.940838">
        <ele>884.466400</ele>
        <time>2020-09-01T13:48:05.440Z</time>
      </trkpt>
      <trkpt lat="46.081956" lon="10.940709">
        <ele>884.718321</ele>
        <time>2020-09-01T13:48:10.447Z</time>
      </trkpt>
      <trkpt lat="46.081874" lon="10.940628">
        <ele>884.976942</ele>
        <time>2020-09-01T13:48:17.458Z</time>
      </trkpt>
      <trkpt lat="46.081790" lon="10.940578">
        <ele>885.213387</ele>
        <time>2020-09-01T13:48:23.458Z</time>
      </trkpt>
      <trkpt lat="46.081693" lon="10.940554">
        <ele>885.469450</ele>
        <time>2020-09-01T13:48:32.457Z</time>
      </trkpt>
      <trkpt lat="46.080067" lon="10.939415">
        <ele>893.991847</ele>
        <time>2020-09-01T13:49:03.651Z</time>
      </trkpt>
      <trkpt lat="46.079975" lon="10.939364">
        <ele>894.537525</ele>
        <time>2020-09-01T13:49:09.464Z</time>
      </trkpt>
      <trkpt lat="46.079894" lon="10.939207">
        <ele>895.288907</ele>
        <time>2020-09-01T13:49:12.459Z</time>
      </trkpt>
      <trkpt lat="46.079836" lon="10.939105">
        <ele>895.795391</ele>
        <time>2020-09-01T13:49:14.497Z</time>
      </trkpt>
      <trkpt lat="46.079967" lon="10.939285">
        <ele>896.743587</ele>
        <time>2020-09-01T13:49:15.457Z</time>
      </trkpt>
      <trkpt lat="46.079846" lon="10.939222">
        <ele>896.735055</ele>
        <time>2020-09-01T13:49:18.448Z</time>
      </trkpt>
      <trkpt lat="46.079754" lon="10.939159">
        <ele>896.728300</ele>
        <time>2020-09-01T13:49:21.452Z</time>
      </trkpt>
      <trkpt lat="46.079671" lon="10.939095">
        <ele>896.722057</ele>
        <time>2020-09-01T13:49:24.446Z</time>
      </trkpt>
      <trkpt lat="46.079594" lon="10.939003">
        <ele>896.715424</ele>
        <time>2020-09-01T13:49:28.449Z</time>
      </trkpt>
      <trkpt lat="46.079473" lon="10.938949">
        <ele>896.707023</ele>
        <time>2020-09-01T13:49:31.457Z</time>
      </trkpt>
      <trkpt lat="46.079380" lon="10.938871">
        <ele>896.699888</ele>
        <time>2020-09-01T13:49:33.445Z</time>
      </trkpt>
      <trkpt lat="46.079283" lon="10.938824">
        <ele>896.693101</ele>
        <time>2020-09-01T13:49:35.446Z</time>
      </trkpt>
      <trkpt lat="46.079166" lon="10.938754">
        <ele>896.684699</ele>
        <time>2020-09-01T13:49:38.452Z</time>
      </trkpt>
      <trkpt lat="46.079082" lon="10.938663">
        <ele>896.677731</ele>
        <time>2020-09-01T13:49:40.443Z</time>
      </trkpt>
      <trkpt lat="46.079025" lon="10.938537">
        <ele>896.670810</ele>
        <time>2020-09-01T13:49:43.460Z</time>
      </trkpt>
      <trkpt lat="46.078949" lon="10.938425">
        <ele>896.663602</ele>
        <time>2020-09-01T13:49:46.439Z</time>
      </trkpt>
      <trkpt lat="46.078857" lon="10.938359">
        <ele>896.656787</ele>
        <time>2020-09-01T13:49:48.455Z</time>
      </trkpt>
      <trkpt lat="46.078747" lon="10.938281">
        <ele>896.648657</ele>
        <time>2020-09-01T13:49:50.447Z</time>
      </trkpt>
      <trkpt lat="46.078649" lon="10.938183">
        <ele>896.640746</ele>
        <time>2020-09-01T13:49:52.449Z</time>
      </trkpt>
      <trkpt lat="46.078580" lon="10.938072">
        <ele>896.633889</ele>
        <time>2020-09-01T13:49:54.460Z</time>
      </trkpt>
      <trkpt lat="46.078521" lon="10.937959">
        <ele>896.627383</ele>
        <time>2020-09-01T13:49:56.448Z</time>
      </trkpt>
      <trkpt lat="46.078451" lon="10.937861">
        <ele>896.184335</ele>
        <time>2020-09-01T13:49:58.491Z</time>
      </trkpt>
      <trkpt lat="46.078364" lon="10.937769">
        <ele>895.400328</ele>
        <time>2020-09-01T13:50:01.455Z</time>
      </trkpt>
      <trkpt lat="46.078268" lon="10.937678">
        <ele>894.565477</ele>
        <time>2020-09-01T13:50:04.452Z</time>
      </trkpt>
      <trkpt lat="46.078183" lon="10.937602">
        <ele>893.838693</ele>
        <time>2020-09-01T13:50:06.453Z</time>
      </trkpt>
      <trkpt lat="46.078075" lon="10.937525">
        <ele>892.963208</ele>
        <time>2020-09-01T13:50:09.491Z</time>
      </trkpt>
      <trkpt lat="46.077982" lon="10.937451">
        <ele>892.191341</ele>
        <time>2020-09-01T13:50:11.446Z</time>
      </trkpt>
      <trkpt lat="46.077882" lon="10.937360">
        <ele>891.332054</ele>
        <time>2020-09-01T13:50:14.446Z</time>
      </trkpt>
      <trkpt lat="46.077797" lon="10.937270">
        <ele>890.565725</ele>
        <time>2020-09-01T13:50:17.448Z</time>
      </trkpt>
      <trkpt lat="46.077724" lon="10.937188">
        <ele>889.893270</ele>
        <time>2020-09-01T13:50:20.483Z</time>
      </trkpt>
      <trkpt lat="46.077679" lon="10.937065">
        <ele>889.192349</ele>
        <time>2020-09-01T13:50:23.478Z</time>
      </trkpt>
      <trkpt lat="46.077635" lon="10.936926">
        <ele>888.422222</ele>
        <time>2020-09-01T13:50:26.471Z</time>
      </trkpt>
      <trkpt lat="46.077546" lon="10.936802">
        <ele>887.522852</ele>
        <time>2020-09-01T13:50:29.462Z</time>
      </trkpt>
      <trkpt lat="46.077439" lon="10.936743">
        <ele>886.690427</ele>
        <time>2020-09-01T13:50:32.468Z</time>
      </trkpt>
      <trkpt lat="46.077341" lon="10.936698">
        <ele>885.943081</ele>
        <time>2020-09-01T13:50:35.487Z</time>
      </trkpt>
      <trkpt lat="46.077252" lon="10.936618">
        <ele>885.180966</ele>
        <time>2020-09-01T13:50:39.466Z</time>
      </trkpt>
      <trkpt lat="46.077181" lon="10.936491">
        <ele>884.358807</ele>
        <time>2020-09-01T13:50:43.463Z</time>
      </trkpt>
      <trkpt lat="46.077107" lon="10.936415">
        <ele>883.698599</ele>
        <time>2020-09-01T13:50:47.463Z</time>
      </trkpt>
      <trkpt lat="46.077026" lon="10.936354">
        <ele>883.249863</ele>
        <time>2020-09-01T13:50:51.460Z</time>
      </trkpt>
      <trkpt lat="46.076935" lon="10.936277">
        <ele>882.800014</ele>
        <time>2020-09-01T13:50:56.458Z</time>
      </trkpt>
      <trkpt lat="46.076856" lon="10.936205">
        <ele>882.401552</ele>
        <time>2020-09-01T13:51:00.482Z</time>
      </trkpt>
      <trkpt lat="46.076770" lon="10.936132">
        <ele>881.976074</ele>
        <time>2020-09-01T13:51:04.511Z</time>
      </trkpt>
      <trkpt lat="46.076670" lon="10.936052">
        <ele>881.488500</ele>
        <time>2020-09-01T13:51:08.459Z</time>
      </trkpt>
      <trkpt lat="46.076604" lon="10.935955">
        <ele>881.086674</ele>
        <time>2020-09-01T13:51:12.464Z</time>
      </trkpt>
      <trkpt lat="46.076532" lon="10.935848">
        <ele>880.645816</ele>
        <time>2020-09-01T13:51:16.461Z</time>
      </trkpt>
      <trkpt lat="46.076446" lon="10.935767">
        <ele>880.207857</ele>
        <time>2020-09-01T13:51:20.461Z</time>
      </trkpt>
      <trkpt lat="46.076375" lon="10.935670">
        <ele>879.790826</ele>
        <time>2020-09-01T13:51:24.461Z</time>
      </trkpt>
      <trkpt lat="46.076316" lon="10.935559">
        <ele>879.377268</ele>
        <time>2020-09-01T13:51:39.463Z</time>
      </trkpt>
      <trkpt lat="46.076224" lon="10.935454">
        <ele>878.877004</ele>
        <time>2020-09-01T13:51:42.465Z</time>
      </trkpt>
      <trkpt lat="46.076138" lon="10.935380">
        <ele>878.450016</ele>
        <time>2020-09-01T13:51:45.466Z</time>
      </trkpt>
      <trkpt lat="46.076041" lon="10.935315">
        <ele>877.993985</ele>
        <time>2020-09-01T13:51:50.464Z</time>
      </trkpt>
      <trkpt lat="46.075980" lon="10.935212">
        <ele>877.593460</ele>
        <time>2020-09-01T13:51:54.461Z</time>
      </trkpt>
      <trkpt lat="46.075944" lon="10.935093">
        <ele>877.209516</ele>
        <time>2020-09-01T13:52:10.448Z</time>
      </trkpt>
      <trkpt lat="46.075842" lon="10.934950">
        <ele>876.602927</ele>
        <time>2020-09-01T13:54:00.485Z</time>
      </trkpt>
      <trkpt lat="46.075765" lon="10.934865">
        <ele>876.189461</ele>
        <time>2020-09-01T13:54:08.461Z</time>
      </trkpt>
      <trkpt lat="46.075688" lon="10.934789">
        <ele>876.180893</ele>
        <time>2020-09-01T13:54:14.462Z</time>
      </trkpt>
      <trkpt lat="46.075589" lon="10.934746">
        <ele>877.530287</ele>
        <time>2020-09-01T13:54:22.510Z</time>
      </trkpt>
      <trkpt lat="46.075503" lon="10.934685">
        <ele>878.781158</ele>
        <time>2020-09-01T13:54:28.458Z</time>
      </trkpt>
      <trkpt lat="46.075431" lon="10.934595">
        <ele>880.024884</ele>
        <time>2020-09-01T13:54:35.463Z</time>
      </trkpt>
      <trkpt lat="46.075377" lon="10.934487">
        <ele>881.230158</ele>
        <time>2020-09-01T13:54:44.502Z</time>
      </trkpt>
      <trkpt lat="46.075311" lon="10.934357">
        <ele>882.688622</ele>
        <time>2020-09-01T13:54:51.469Z</time>
      </trkpt>
      <trkpt lat="46.075243" lon="10.934234">
        <ele>884.112563</ele>
        <time>2020-09-01T13:54:55.511Z</time>
      </trkpt>
      <trkpt lat="46.075165" lon="10.934136">
        <ele>885.462905</ele>
        <time>2020-09-01T13:54:59.457Z</time>
      </trkpt>
      <trkpt lat="46.075096" lon="10.934030">
        <ele>886.778905</ele>
        <time>2020-09-01T13:55:04.464Z</time>
      </trkpt>
      <trkpt lat="46.075027" lon="10.933923">
        <ele>888.101523</ele>
        <time>2020-09-01T13:55:08.476Z</time>
      </trkpt>
      <trkpt lat="46.074945" lon="10.933847">
        <ele>889.373793</ele>
        <time>2020-09-01T13:55:14.459Z</time>
      </trkpt>
      <trkpt lat="46.074860" lon="10.933798">
        <ele>890.568518</ele>
        <time>2020-09-01T13:55:23.462Z</time>
      </trkpt>
      <trkpt lat="46.074777" lon="10.933716">
        <ele>891.881712</ele>
        <time>2020-09-01T13:55:33.459Z</time>
      </trkpt>
      <trkpt lat="46.074710" lon="10.933629">
        <ele>893.058561</ele>
        <time>2020-09-01T13:55:39.487Z</time>
      </trkpt>
      <trkpt lat="46.074629" lon="10.933559">
        <ele>894.291083</ele>
        <time>2020-09-01T13:55:45.496Z</time>
      </trkpt>
      <trkpt lat="46.074545" lon="10.933479">
        <ele>895.604997</ele>
        <time>2020-09-01T13:55:51.463Z</time>
      </trkpt>
      <trkpt lat="46.074462" lon="10.933423">
        <ele>896.800985</ele>
        <time>2020-09-01T13:56:00.462Z</time>
      </trkpt>
      <trkpt lat="46.074357" lon="10.933429">
        <ele>898.172385</ele>
        <time>2020-09-01T13:56:16.476Z</time>
      </trkpt>
      <trkpt lat="46.074260" lon="10.933422">
        <ele>899.380928</ele>
        <time>2020-09-01T13:56:22.462Z</time>
      </trkpt>
      <trkpt lat="46.074049" lon="10.933063">
        <ele>900.456172</ele>
        <time>2020-09-01T13:56:26.473Z</time>
      </trkpt>
      <trkpt lat="46.073991" lon="10.933164">
        <ele>900.755798</ele>
        <time>2020-09-01T13:56:32.469Z</time>
      </trkpt>
      <trkpt lat="46.073983" lon="10.933301">
        <ele>901.069981</ele>
        <time>2020-09-01T13:56:35.469Z</time>
      </trkpt>
      <trkpt lat="46.073915" lon="10.933386">
        <ele>901.366471</ele>
        <time>2020-09-01T13:56:39.460Z</time>
      </trkpt>
      <trkpt lat="46.073776" lon="10.933440">
        <ele>901.840691</ele>
        <time>2020-09-01T13:56:44.458Z</time>
      </trkpt>
      <trkpt lat="46.073667" lon="10.933480">
        <ele>902.211203</ele>
        <time>2020-09-01T13:56:47.467Z</time>
      </trkpt>
      <trkpt lat="46.073425" lon="10.933260">
        <ele>903.153673</ele>
        <time>2020-09-01T13:57:02.468Z</time>
      </trkpt>
      <trkpt lat="46.073339" lon="10.933210">
        <ele>903.459143</ele>
        <time>2020-09-01T13:57:06.457Z</time>
      </trkpt>
      <trkpt lat="46.073244" lon="10.933121">
        <ele>903.832370</ele>
        <time>2020-09-01T13:57:09.468Z</time>
      </trkpt>
      <trkpt lat="46.073164" lon="10.932987">
        <ele>904.236376</ele>
        <time>2020-09-01T13:57:12.460Z</time>
      </trkpt>
      <trkpt lat="46.073102" lon="10.932840">
        <ele>904.629521</ele>
        <time>2020-09-01T13:57:15.464Z</time>
      </trkpt>
      <trkpt lat="46.073057" lon="10.932704">
        <ele>904.973858</ele>
        <time>2020-09-01T13:57:18.467Z</time>
      </trkpt>
      <trkpt lat="46.072965" lon="10.932664">
        <ele>905.294779</ele>
        <time>2020-09-01T13:57:24.465Z</time>
      </trkpt>
      <trkpt lat="46.072878" lon="10.932587">
        <ele>905.962515</ele>
        <time>2020-09-01T13:57:31.458Z</time>
      </trkpt>
      <trkpt lat="46.072787" lon="10.932620">
        <ele>906.576258</ele>
        <time>2020-09-01T13:57:36.462Z</time>
      </trkpt>
      <trkpt lat="46.072693" lon="10.932657">
        <ele>907.213586</ele>
        <time>2020-09-01T13:57:40.459Z</time>
      </trkpt>
      <trkpt lat="46.072601" lon="10.932640">
        <ele>907.820248</ele>
        <time>2020-09-01T13:57:45.494Z</time>
      </trkpt>
      <trkpt lat="46.072509" lon="10.932611">
        <ele>908.436205</ele>
        <time>2020-09-01T13:57:50.462Z</time>
      </trkpt>
      <trkpt lat="46.072419" lon="10.932642">
        <ele>909.041433</ele>
        <time>2020-09-01T13:57:55.452Z</time>
      </trkpt>
      <trkpt lat="46.072318" lon="10.932681">
        <ele>909.725328</ele>
        <time>2020-09-01T13:58:00.478Z</time>
      </trkpt>
      <trkpt lat="46.072207" lon="10.932627">
        <ele>910.491571</ele>
        <time>2020-09-01T13:58:05.469Z</time>
      </trkpt>
      <trkpt lat="46.071128" lon="10.931593">
        <ele>920.751595</ele>
        <time>2020-09-01T13:58:52.522Z</time>
      </trkpt>
      <trkpt lat="46.071044" lon="10.931668">
        <ele>922.000083</ele>
        <time>2020-09-01T13:58:58.459Z</time>
      </trkpt>
      <trkpt lat="46.070960" lon="10.931600">
        <ele>923.217378</ele>
        <time>2020-09-01T13:59:02.497Z</time>
      </trkpt>
      <trkpt lat="46.070901" lon="10.931474">
        <ele>924.549924</ele>
        <time>2020-09-01T13:59:06.464Z</time>
      </trkpt>
      <trkpt lat="46.070811" lon="10.931415">
        <ele>925.799185</ele>
        <time>2020-09-01T13:59:12.467Z</time>
      </trkpt>
      <trkpt lat="46.070708" lon="10.931429">
        <ele>927.106391</ele>
        <time>2020-09-01T13:59:20.454Z</time>
      </trkpt>
      <trkpt lat="46.070778" lon="10.931536">
        <ele>928.395597</ele>
        <time>2020-09-01T13:59:25.466Z</time>
      </trkpt>
      <trkpt lat="46.070858" lon="10.931642">
        <ele>929.768607</ele>
        <time>2020-09-01T13:59:29.461Z</time>
      </trkpt>
      <trkpt lat="46.070070" lon="10.930963">
        <ele>940.169879</ele>
        <time>2020-09-01T14:00:14.462Z</time>
      </trkpt>
      <trkpt lat="46.069981" lon="10.930938">
        <ele>940.452921</ele>
        <time>2020-09-01T14:00:24.477Z</time>
      </trkpt>
      <trkpt lat="46.068396" lon="10.928188">
        <ele>940.046812</ele>
        <time>2020-09-01T14:02:32.464Z</time>
      </trkpt>
      <trkpt lat="46.068406" lon="10.927927">
        <ele>938.968028</ele>
        <time>2020-09-01T14:03:24.466Z</time>
      </trkpt>
      <trkpt lat="46.068337" lon="10.927774">
        <ele>938.214927</ele>
        <time>2020-09-01T14:03:27.464Z</time>
      </trkpt>
      <trkpt lat="46.068260" lon="10.927658">
        <ele>937.552378</ele>
        <time>2020-09-01T14:03:29.457Z</time>
      </trkpt>
      <trkpt lat="46.068179" lon="10.927548">
        <ele>936.890383</ele>
        <time>2020-09-01T14:03:30.458Z</time>
      </trkpt>
      <trkpt lat="46.068077" lon="10.927430">
        <ele>936.112383</ele>
        <time>2020-09-01T14:03:33.445Z</time>
      </trkpt>
      <trkpt lat="46.067992" lon="10.927377">
        <ele>935.561486</ele>
        <time>2020-09-01T14:03:35.452Z</time>
      </trkpt>
      <trkpt lat="46.067912" lon="10.927294">
        <ele>934.975152</ele>
        <time>2020-09-01T14:03:38.467Z</time>
      </trkpt>
      <trkpt lat="46.067900" lon="10.927165">
        <ele>934.278945</ele>
        <time>2020-09-01T14:03:41.460Z</time>
      </trkpt>
      <trkpt lat="46.067933" lon="10.927038">
        <ele>933.368842</ele>
        <time>2020-09-01T14:03:45.457Z</time>
      </trkpt>
      <trkpt lat="46.067954" lon="10.926891">
        <ele>932.361637</ele>
        <time>2020-09-01T14:03:48.459Z</time>
      </trkpt>
      <trkpt lat="46.067887" lon="10.926742">
        <ele>931.170059</ele>
        <time>2020-09-01T14:03:51.463Z</time>
      </trkpt>
      <trkpt lat="46.067822" lon="10.926603">
        <ele>930.045134</ele>
        <time>2020-09-01T14:03:53.462Z</time>
      </trkpt>
      <trkpt lat="46.067804" lon="10.926460">
        <ele>929.069800</ele>
        <time>2020-09-01T14:03:55.447Z</time>
      </trkpt>
      <trkpt lat="46.067769" lon="10.926310">
        <ele>928.007751</ele>
        <time>2020-09-01T14:03:57.457Z</time>
      </trkpt>
      <trkpt lat="46.067674" lon="10.926242">
        <ele>926.981770</ele>
        <time>2020-09-01T14:04:00.468Z</time>
      </trkpt>
      <trkpt lat="46.067557" lon="10.926295">
        <ele>925.795489</ele>
        <time>2020-09-01T14:04:03.460Z</time>
      </trkpt>
      <trkpt lat="46.067470" lon="10.926353">
        <ele>924.868306</ele>
        <time>2020-09-01T14:04:05.458Z</time>
      </trkpt>
      <trkpt lat="46.067344" lon="10.926277">
        <ele>923.547130</ele>
        <time>2020-09-01T14:04:09.491Z</time>
      </trkpt>
      <trkpt lat="46.067193" lon="10.926248">
        <ele>922.073646</ele>
        <time>2020-09-01T14:04:11.452Z</time>
      </trkpt>
      <trkpt lat="46.067052" lon="10.926163">
        <ele>920.595308</ele>
        <time>2020-09-01T14:04:13.446Z</time>
      </trkpt>
      <trkpt lat="46.066895" lon="10.926123">
        <ele>919.053154</ele>
        <time>2020-09-01T14:04:15.452Z</time>
      </trkpt>
      <trkpt lat="46.066770" lon="10.926100">
        <ele>917.834256</ele>
        <time>2020-09-01T14:04:17.450Z</time>
      </trkpt>
      <trkpt lat="46.066654" lon="10.926123">
        <ele>917.027042</ele>
        <time>2020-09-01T14:04:20.487Z</time>
      </trkpt>
      <trkpt lat="46.066560" lon="10.926186">
        <ele>916.574809</ele>
        <time>2020-09-01T14:04:23.465Z</time>
      </trkpt>
      <trkpt lat="46.066437" lon="10.926294">
        <ele>915.946502</ele>
        <time>2020-09-01T14:04:25.467Z</time>
      </trkpt>
      <trkpt lat="46.066324" lon="10.926394">
        <ele>915.368045</ele>
        <time>2020-09-01T14:04:27.436Z</time>
      </trkpt>
      <trkpt lat="46.066201" lon="10.926485">
        <ele>914.764905</ele>
        <time>2020-09-01T14:04:29.458Z</time>
      </trkpt>
      <trkpt lat="46.066092" lon="10.926611">
        <ele>914.155359</ele>
        <time>2020-09-01T14:04:31.492Z</time>
      </trkpt>
      <trkpt lat="46.065993" lon="10.926754">
        <ele>913.543920</ele>
        <time>2020-09-01T14:04:33.455Z</time>
      </trkpt>
      <trkpt lat="46.065900" lon="10.926909">
        <ele>912.923681</ele>
        <time>2020-09-01T14:04:35.458Z</time>
      </trkpt>
      <trkpt lat="46.065825" lon="10.927090">
        <ele>912.285573</ele>
        <time>2020-09-01T14:04:37.456Z</time>
      </trkpt>
      <trkpt lat="46.065739" lon="10.927258">
        <ele>911.653655</ele>
        <time>2020-09-01T14:04:39.457Z</time>
      </trkpt>
      <trkpt lat="46.065643" lon="10.927420">
        <ele>911.008815</ele>
        <time>2020-09-01T14:04:41.448Z</time>
      </trkpt>
      <trkpt lat="46.065526" lon="10.927519">
        <ele>910.416953</ele>
        <time>2020-09-01T14:04:43.454Z</time>
      </trkpt>
      <trkpt lat="46.065380" lon="10.927606">
        <ele>909.727751</ele>
        <time>2020-09-01T14:04:45.448Z</time>
      </trkpt>
      <trkpt lat="46.065272" lon="10.927703">
        <ele>909.230501</ele>
        <time>2020-09-01T14:04:47.464Z</time>
      </trkpt>
      <trkpt lat="46.065145" lon="10.927803">
        <ele>908.731915</ele>
        <time>2020-09-01T14:04:49.452Z</time>
      </trkpt>
      <trkpt lat="46.065031" lon="10.927918">
        <ele>908.252510</ele>
        <time>2020-09-01T14:04:51.452Z</time>
      </trkpt>
      <trkpt lat="46.064914" lon="10.928072">
        <ele>907.706613</ele>
        <time>2020-09-01T14:04:53.489Z</time>
      </trkpt>
      <trkpt lat="46.064825" lon="10.928229">
        <ele>907.221978</ele>
        <time>2020-09-01T14:04:55.463Z</time>
      </trkpt>
      <trkpt lat="46.064770" lon="10.928384">
        <ele>906.805814</ele>
        <time>2020-09-01T14:04:57.450Z</time>
      </trkpt>
      <trkpt lat="46.064734" lon="10.928548">
        <ele>906.394627</ele>
        <time>2020-09-01T14:04:59.465Z</time>
      </trkpt>
      <trkpt lat="46.064700" lon="10.928717">
        <ele>905.973999</ele>
        <time>2020-09-01T14:05:01.445Z</time>
      </trkpt>
      <trkpt lat="46.064693" lon="10.928913">
        <ele>905.504847</ele>
        <time>2020-09-01T14:05:03.453Z</time>
      </trkpt>
      <trkpt lat="46.064705" lon="10.929104">
        <ele>905.046400</ele>
        <time>2020-09-01T14:05:05.453Z</time>
      </trkpt>
      <trkpt lat="46.064698" lon="10.929313">
        <ele>904.546211</ele>
        <time>2020-09-01T14:05:07.452Z</time>
      </trkpt>
      <trkpt lat="46.064666" lon="10.929525">
        <ele>904.027579</ele>
        <time>2020-09-01T14:05:09.445Z</time>
      </trkpt>
      <trkpt lat="46.064592" lon="10.929643">
        <ele>903.647363</ele>
        <time>2020-09-01T14:05:11.450Z</time>
      </trkpt>
      <trkpt lat="46.064491" lon="10.929752">
        <ele>903.210026</ele>
        <time>2020-09-01T14:05:13.456Z</time>
      </trkpt>
      <trkpt lat="46.064369" lon="10.929864">
        <ele>902.677732</ele>
        <time>2020-09-01T14:05:15.476Z</time>
      </trkpt>
      <trkpt lat="46.064233" lon="10.929926">
        <ele>902.152821</ele>
        <time>2020-09-01T14:05:17.440Z</time>
      </trkpt>
      <trkpt lat="46.064123" lon="10.929961">
        <ele>901.738281</ele>
        <time>2020-09-01T14:05:19.448Z</time>
      </trkpt>
      <trkpt lat="46.064031" lon="10.929974">
        <ele>901.398104</ele>
        <time>2020-09-01T14:05:52.427Z</time>
      </trkpt>
      <trkpt lat="46.063956" lon="10.930047">
        <ele>901.065064</ele>
        <time>2020-09-01T14:06:12.460Z</time>
      </trkpt>
      <trkpt lat="46.063870" lon="10.930134">
        <ele>900.678409</ele>
        <time>2020-09-01T14:06:16.467Z</time>
      </trkpt>
      <trkpt lat="46.063804" lon="10.930231">
        <ele>900.331522</ele>
        <time>2020-09-01T14:06:19.442Z</time>
      </trkpt>
      <trkpt lat="46.063741" lon="10.930347">
        <ele>899.955390</ele>
        <time>2020-09-01T14:06:22.465Z</time>
      </trkpt>
      <trkpt lat="46.063681" lon="10.930454">
        <ele>899.604115</ele>
        <time>2020-09-01T14:06:25.451Z</time>
      </trkpt>
      <trkpt lat="46.063620" lon="10.930551">
        <ele>899.269852</ele>
        <time>2020-09-01T14:06:28.451Z</time>
      </trkpt>
      <trkpt lat="46.063543" lon="10.930644">
        <ele>898.900152</ele>
        <time>2020-09-01T14:06:32.440Z</time>
      </trkpt>
      <trkpt lat="46.063482" lon="10.930749">
        <ele>898.550483</ele>
        <time>2020-09-01T14:06:38.456Z</time>
      </trkpt>
      <trkpt lat="46.063420" lon="10.930870">
        <ele>898.166414</ele>
        <time>2020-09-01T14:06:42.448Z</time>
      </trkpt>
      <trkpt lat="46.063359" lon="10.930994">
        <ele>897.778295</ele>
        <time>2020-09-01T14:06:45.456Z</time>
      </trkpt>
      <trkpt lat="46.063298" lon="10.931099">
        <ele>897.428626</ele>
        <time>2020-09-01T14:06:48.455Z</time>
      </trkpt>
      <trkpt lat="46.063258" lon="10.931220">
        <ele>897.086395</ele>
        <time>2020-09-01T14:07:10.460Z</time>
      </trkpt>
      <trkpt lat="46.063229" lon="10.931351">
        <ele>896.735292</ele>
        <time>2020-09-01T14:07:14.443Z</time>
      </trkpt>
      <trkpt lat="46.063210" lon="10.931509">
        <ele>896.608316</ele>
        <time>2020-09-01T14:07:18.490Z</time>
      </trkpt>
      <trkpt lat="46.063175" lon="10.931640">
        <ele>896.580268</ele>
        <time>2020-09-01T14:07:21.434Z</time>
      </trkpt>
      <trkpt lat="46.063159" lon="10.931785">
        <ele>896.550933</ele>
        <time>2020-09-01T14:07:24.443Z</time>
      </trkpt>
      <trkpt lat="46.063152" lon="10.931926">
        <ele>896.522688</ele>
        <time>2020-09-01T14:07:29.456Z</time>
      </trkpt>
      <trkpt lat="46.063150" lon="10.932087">
        <ele>896.490514</ele>
        <time>2020-09-01T14:07:33.468Z</time>
      </trkpt>
      <trkpt lat="46.063143" lon="10.932219">
        <ele>896.464063</ele>
        <time>2020-09-01T14:07:36.457Z</time>
      </trkpt>
      <trkpt lat="46.063123" lon="10.932409">
        <ele>896.425665</ele>
        <time>2020-09-01T14:07:39.451Z</time>
      </trkpt>
      <trkpt lat="46.063096" lon="10.932584">
        <ele>896.389845</ele>
        <time>2020-09-01T14:07:40.454Z</time>
      </trkpt>
      <trkpt lat="46.063058" lon="10.932771">
        <ele>896.350912</ele>
        <time>2020-09-01T14:07:42.451Z</time>
      </trkpt>
      <trkpt lat="46.063016" lon="10.932955">
        <ele>896.312209</ele>
        <time>2020-09-01T14:07:44.467Z</time>
      </trkpt>
      <trkpt lat="46.062952" lon="10.933131">
        <ele>896.272507</ele>
        <time>2020-09-01T14:07:46.472Z</time>
      </trkpt>
      <trkpt lat="46.062902" lon="10.933305">
        <ele>896.234877</ele>
        <time>2020-09-01T14:07:48.450Z</time>
      </trkpt>
      <trkpt lat="46.062863" lon="10.933450">
        <ele>896.203804</ele>
        <time>2020-09-01T14:07:50.452Z</time>
      </trkpt>
      <trkpt lat="46.062795" lon="10.933571">
        <ele>896.172693</ele>
        <time>2020-09-01T14:07:52.449Z</time>
      </trkpt>
      <trkpt lat="46.062791" lon="10.933749">
        <ele>896.137108</ele>
        <time>2020-09-01T14:07:54.449Z</time>
      </trkpt>
      <trkpt lat="46.062772" lon="10.933934">
        <ele>895.537877</ele>
        <time>2020-09-01T14:07:56.495Z</time>
      </trkpt>
      <trkpt lat="46.062777" lon="10.934063">
        <ele>894.519719</ele>
        <time>2020-09-01T14:08:21.461Z</time>
      </trkpt>
      <trkpt lat="46.062735" lon="10.934179">
        <ele>893.488623</ele>
        <time>2020-09-01T14:08:27.487Z</time>
      </trkpt>
      <trkpt lat="46.062681" lon="10.934339">
        <ele>892.086514</ele>
        <time>2020-09-01T14:08:31.449Z</time>
      </trkpt>
      <trkpt lat="46.062612" lon="10.934447">
        <ele>890.929600</ele>
        <time>2020-09-01T14:08:34.468Z</time>
      </trkpt>
      <trkpt lat="46.062530" lon="10.934588">
        <ele>889.479795</ele>
        <time>2020-09-01T14:08:38.498Z</time>
      </trkpt>
      <trkpt lat="46.062431" lon="10.934743">
        <ele>887.819620</ele>
        <time>2020-09-01T14:08:41.442Z</time>
      </trkpt>
      <trkpt lat="46.062351" lon="10.934846">
        <ele>886.601283</ele>
        <time>2020-09-01T14:08:43.463Z</time>
      </trkpt>
      <trkpt lat="46.062296" lon="10.934957">
        <ele>885.526416</ele>
        <time>2020-09-01T14:08:45.442Z</time>
      </trkpt>
      <trkpt lat="46.062315" lon="10.935115">
        <ele>884.262740</ele>
        <time>2020-09-01T14:08:48.458Z</time>
      </trkpt>
      <trkpt lat="46.062372" lon="10.935263">
        <ele>882.928816</ele>
        <time>2020-09-01T14:08:51.458Z</time>
      </trkpt>
      <trkpt lat="46.062442" lon="10.935374">
        <ele>881.746790</ele>
        <time>2020-09-01T14:08:53.458Z</time>
      </trkpt>
      <trkpt lat="46.062544" lon="10.935610">
        <ele>879.555724</ele>
        <time>2020-09-01T14:08:55.461Z</time>
      </trkpt>
      <trkpt lat="46.062589" lon="10.935767">
        <ele>878.217093</ele>
        <time>2020-09-01T14:08:57.452Z</time>
      </trkpt>
      <trkpt lat="46.062628" lon="10.935963">
        <ele>876.610274</ele>
        <time>2020-09-01T14:08:59.462Z</time>
      </trkpt>
      <trkpt lat="46.062665" lon="10.936121">
        <ele>875.315509</ele>
        <time>2020-09-01T14:09:01.460Z</time>
      </trkpt>
      <trkpt lat="46.062706" lon="10.936289">
        <ele>873.981581</ele>
        <time>2020-09-01T14:09:03.458Z</time>
      </trkpt>
      <trkpt lat="46.062744" lon="10.936427">
        <ele>872.869505</ele>
        <time>2020-09-01T14:09:05.456Z</time>
      </trkpt>
      <trkpt lat="46.062788" lon="10.936571">
        <ele>871.690959</ele>
        <time>2020-09-01T14:09:07.457Z</time>
      </trkpt>
      <trkpt lat="46.062827" lon="10.936751">
        <ele>870.278513</ele>
        <time>2020-09-01T14:09:10.465Z</time>
      </trkpt>
      <trkpt lat="46.062874" lon="10.936967">
        <ele>868.582934</ele>
        <time>2020-09-01T14:09:12.463Z</time>
      </trkpt>
      <trkpt lat="46.062885" lon="10.937129">
        <ele>867.363720</ele>
        <time>2020-09-01T14:09:14.452Z</time>
      </trkpt>
      <trkpt lat="46.062872" lon="10.937321">
        <ele>865.918764</ele>
        <time>2020-09-01T14:09:17.478Z</time>
      </trkpt>
      <trkpt lat="46.062908" lon="10.937466">
        <ele>864.765248</ele>
        <time>2020-09-01T14:09:19.460Z</time>
      </trkpt>
      <trkpt lat="46.062964" lon="10.937603">
        <ele>863.574263</ele>
        <time>2020-09-01T14:09:21.457Z</time>
      </trkpt>
      <trkpt lat="46.063020" lon="10.937778">
        <ele>862.130794</ele>
        <time>2020-09-01T14:09:23.455Z</time>
      </trkpt>
      <trkpt lat="46.063091" lon="10.937883">
        <ele>861.032630</ele>
        <time>2020-09-01T14:09:25.447Z</time>
      </trkpt>
      <trkpt lat="46.063183" lon="10.937983">
        <ele>859.788710</ele>
        <time>2020-09-01T14:09:27.463Z</time>
      </trkpt>
      <trkpt lat="46.063261" lon="10.938115">
        <ele>858.490055</ele>
        <time>2020-09-01T14:09:29.457Z</time>
      </trkpt>
      <trkpt lat="46.063331" lon="10.938254">
        <ele>857.203604</ele>
        <time>2020-09-01T14:09:31.455Z</time>
      </trkpt>
      <trkpt lat="46.063405" lon="10.938375">
        <ele>856.078157</ele>
        <time>2020-09-01T14:09:33.492Z</time>
      </trkpt>
      <trkpt lat="46.063471" lon="10.938490">
        <ele>855.296103</ele>
        <time>2020-09-01T14:09:35.461Z</time>
      </trkpt>
      <trkpt lat="46.063518" lon="10.938651">
        <ele>854.380799</ele>
        <time>2020-09-01T14:09:37.450Z</time>
      </trkpt>
      <trkpt lat="46.063566" lon="10.938767">
        <ele>853.673048</ele>
        <time>2020-09-01T14:09:39.463Z</time>
      </trkpt>
      <trkpt lat="46.063628" lon="10.938894">
        <ele>852.859324</ele>
        <time>2020-09-01T14:09:41.454Z</time>
      </trkpt>
      <trkpt lat="46.063661" lon="10.939019">
        <ele>852.158488</ele>
        <time>2020-09-01T14:09:42.451Z</time>
      </trkpt>
      <trkpt lat="46.063748" lon="10.939112">
        <ele>851.340436</ele>
        <time>2020-09-01T14:09:44.494Z</time>
      </trkpt>
      <trkpt lat="46.063853" lon="10.939221">
        <ele>850.363156</ele>
        <time>2020-09-01T14:09:46.468Z</time>
      </trkpt>
      <trkpt lat="46.063937" lon="10.939354">
        <ele>849.420722</ele>
        <time>2020-09-01T14:09:48.461Z</time>
      </trkpt>
      <trkpt lat="46.064010" lon="10.939505">
        <ele>848.456332</ele>
        <time>2020-09-01T14:09:50.457Z</time>
      </trkpt>
      <trkpt lat="46.064090" lon="10.939597">
        <ele>847.683383</ele>
        <time>2020-09-01T14:09:52.457Z</time>
      </trkpt>
      <trkpt lat="46.064208" lon="10.939728">
        <ele>846.558480</ele>
        <time>2020-09-01T14:09:55.494Z</time>
      </trkpt>
      <trkpt lat="46.064296" lon="10.939793">
        <ele>845.811683</ele>
        <time>2020-09-01T14:09:57.449Z</time>
      </trkpt>
      <trkpt lat="46.064394" lon="10.939872">
        <ele>844.963655</ele>
        <time>2020-09-01T14:09:59.460Z</time>
      </trkpt>
      <trkpt lat="46.064503" lon="10.939935">
        <ele>844.076729</ele>
        <time>2020-09-01T14:10:01.454Z</time>
      </trkpt>
      <trkpt lat="46.064621" lon="10.939957">
        <ele>843.178137</ele>
        <time>2020-09-01T14:10:03.453Z</time>
      </trkpt>
      <trkpt lat="46.064728" lon="10.939989">
        <ele>842.518321</ele>
        <time>2020-09-01T14:10:05.459Z</time>
      </trkpt>
      <trkpt lat="46.064828" lon="10.940040">
        <ele>842.114118</ele>
        <time>2020-09-01T14:10:07.449Z</time>
      </trkpt>
      <trkpt lat="46.064935" lon="10.940149">
        <ele>841.614830</ele>
        <time>2020-09-01T14:10:10.449Z</time>
      </trkpt>
      <trkpt lat="46.065031" lon="10.940254">
        <ele>841.155612</ele>
        <time>2020-09-01T14:10:13.457Z</time>
      </trkpt>
      <trkpt lat="46.065095" lon="10.940388">
        <ele>840.725511</ele>
        <time>2020-09-01T14:10:16.463Z</time>
      </trkpt>
      <trkpt lat="46.065142" lon="10.940518">
        <ele>840.337946</ele>
        <time>2020-09-01T14:10:19.457Z</time>
      </trkpt>
      <trkpt lat="46.065202" lon="10.940635">
        <ele>839.953292</ele>
        <time>2020-09-01T14:10:22.450Z</time>
      </trkpt>
      <trkpt lat="46.065271" lon="10.940737">
        <ele>839.576657</ele>
        <time>2020-09-01T14:10:24.464Z</time>
      </trkpt>
      <trkpt lat="46.065350" lon="10.940857">
        <ele>839.139307</ele>
        <time>2020-09-01T14:10:26.455Z</time>
      </trkpt>
      <trkpt lat="46.065463" lon="10.940912">
        <ele>838.684830</ele>
        <time>2020-09-01T14:10:28.491Z</time>
      </trkpt>
      <trkpt lat="46.065576" lon="10.940997">
        <ele>838.199128</ele>
        <time>2020-09-01T14:10:30.456Z</time>
      </trkpt>
      <trkpt lat="46.065710" lon="10.941077">
        <ele>837.646449</ele>
        <time>2020-09-01T14:10:32.451Z</time>
      </trkpt>
      <trkpt lat="46.065808" lon="10.941174">
        <ele>837.193440</ele>
        <time>2020-09-01T14:10:34.456Z</time>
      </trkpt>
      <trkpt lat="46.065859" lon="10.941315">
        <ele>836.773044</ele>
        <time>2020-09-01T14:10:36.451Z</time>
      </trkpt>
      <trkpt lat="46.065832" lon="10.941449">
        <ele>836.404133</ele>
        <time>2020-09-01T14:10:38.453Z</time>
      </trkpt>
      <trkpt lat="46.065758" lon="10.941552">
        <ele>836.012129</ele>
        <time>2020-09-01T14:10:40.457Z</time>
      </trkpt>
      <trkpt lat="46.065642" lon="10.941494">
        <ele>835.646334</ele>
        <time>2020-09-01T14:10:42.450Z</time>
      </trkpt>
      <trkpt lat="46.065531" lon="10.941305">
        <ele>835.222988</ele>
        <time>2020-09-01T14:10:44.454Z</time>
      </trkpt>
      <trkpt lat="46.065431" lon="10.941146">
        <ele>834.856091</ele>
        <time>2020-09-01T14:10:46.466Z</time>
      </trkpt>
      <trkpt lat="46.065333" lon="10.941004">
        <ele>834.513669</ele>
        <time>2020-09-01T14:10:48.446Z</time>
      </trkpt>
      <trkpt lat="46.065247" lon="10.940877">
        <ele>834.210268</ele>
        <time>2020-09-01T14:10:50.492Z</time>
      </trkpt>
      <trkpt lat="46.065141" lon="10.940775">
        <ele>833.896209</ele>
        <time>2020-09-01T14:10:52.445Z</time>
      </trkpt>
      <trkpt lat="46.065054" lon="10.940696">
        <ele>833.642832</ele>
        <time>2020-09-01T14:10:54.447Z</time>
      </trkpt>
      <trkpt lat="46.064943" lon="10.940605">
        <ele>833.328164</ele>
        <time>2020-09-01T14:10:56.439Z</time>
      </trkpt>
      <trkpt lat="46.064816" lon="10.940511">
        <ele>832.976369</ele>
        <time>2020-09-01T14:10:58.428Z</time>
      </trkpt>
      <trkpt lat="46.064668" lon="10.940433">
        <ele>832.588065</ele>
        <time>2020-09-01T14:11:00.442Z</time>
      </trkpt>
      <trkpt lat="46.064542" lon="10.940374">
        <ele>832.261614</ele>
        <time>2020-09-01T14:11:02.446Z</time>
      </trkpt>
      <trkpt lat="46.064379" lon="10.940327">
        <ele>831.852007</ele>
        <time>2020-09-01T14:11:04.443Z</time>
      </trkpt>
      <trkpt lat="46.064218" lon="10.940288">
        <ele>831.449723</ele>
        <time>2020-09-01T14:11:06.447Z</time>
      </trkpt>
      <trkpt lat="46.064044" lon="10.940252">
        <ele>830.319918</ele>
        <time>2020-09-01T14:11:08.444Z</time>
      </trkpt>
      <trkpt lat="46.063884" lon="10.940219">
        <ele>829.200086</ele>
        <time>2020-09-01T14:11:10.440Z</time>
      </trkpt>
      <trkpt lat="46.063713" lon="10.940153">
        <ele>827.973586</ele>
        <time>2020-09-01T14:11:12.484Z</time>
      </trkpt>
      <trkpt lat="46.063610" lon="10.940132">
        <ele>827.252859</ele>
        <time>2020-09-01T14:11:13.441Z</time>
      </trkpt>
      <trkpt lat="46.063433" lon="10.940117">
        <ele>826.024421</ele>
        <time>2020-09-01T14:11:15.452Z</time>
      </trkpt>
      <trkpt lat="46.063328" lon="10.940108">
        <ele>825.295657</ele>
        <time>2020-09-01T14:11:16.458Z</time>
      </trkpt>
      <trkpt lat="46.063230" lon="10.940101">
        <ele>824.615844</ele>
        <time>2020-09-01T14:11:17.446Z</time>
      </trkpt>
      <trkpt lat="46.063133" lon="10.940095">
        <ele>823.943174</ele>
        <time>2020-09-01T14:11:18.450Z</time>
      </trkpt>
      <trkpt lat="46.063037" lon="10.940101">
        <ele>823.277426</ele>
        <time>2020-09-01T14:11:19.452Z</time>
      </trkpt>
      <trkpt lat="46.062937" lon="10.940101">
        <ele>822.584590</ele>
        <time>2020-09-01T14:11:20.446Z</time>
      </trkpt>
      <trkpt lat="46.062838" lon="10.940124">
        <ele>821.889827</ele>
        <time>2020-09-01T14:11:21.458Z</time>
      </trkpt>
      <trkpt lat="46.062684" lon="10.940132">
        <ele>820.822166</ele>
        <time>2020-09-01T14:11:23.492Z</time>
      </trkpt>
      <trkpt lat="46.062527" lon="10.940140">
        <ele>819.733733</ele>
        <time>2020-09-01T14:11:25.450Z</time>
      </trkpt>
      <trkpt lat="46.062385" lon="10.940124">
        <ele>818.694210</ele>
        <time>2020-09-01T14:11:27.457Z</time>
      </trkpt>
      <trkpt lat="46.062224" lon="10.940112">
        <ele>817.271580</ele>
        <time>2020-09-01T14:11:29.453Z</time>
      </trkpt>
      <trkpt lat="46.062125" lon="10.940107">
        <ele>816.397426</ele>
        <time>2020-09-01T14:11:30.456Z</time>
      </trkpt>
      <trkpt lat="46.062034" lon="10.940080">
        <ele>815.577562</ele>
        <time>2020-09-01T14:11:31.449Z</time>
      </trkpt>
      <trkpt lat="46.061871" lon="10.940054">
        <ele>814.130399</ele>
        <time>2020-09-01T14:11:33.469Z</time>
      </trkpt>
      <trkpt lat="46.061771" lon="10.940165">
        <ele>813.016555</ele>
        <time>2020-09-01T14:11:35.461Z</time>
      </trkpt>
      <trkpt lat="46.061779" lon="10.940344">
        <ele>811.918247</ele>
        <time>2020-09-01T14:11:37.447Z</time>
      </trkpt>
      <trkpt lat="46.061828" lon="10.940532">
        <ele>810.688573</ele>
        <time>2020-09-01T14:11:39.441Z</time>
      </trkpt>
      <trkpt lat="46.061940" lon="10.940612">
        <ele>809.585506</ele>
        <time>2020-09-01T14:11:41.468Z</time>
      </trkpt>
      <trkpt lat="46.062051" lon="10.940603">
        <ele>808.604446</ele>
        <time>2020-09-01T14:11:42.452Z</time>
      </trkpt>
      <trkpt lat="46.062145" lon="10.940625">
        <ele>807.764084</ele>
        <time>2020-09-01T14:11:43.444Z</time>
      </trkpt>
      <trkpt lat="46.062301" lon="10.940649">
        <ele>806.379653</ele>
        <time>2020-09-01T14:11:45.488Z</time>
      </trkpt>
      <trkpt lat="46.062440" lon="10.940683">
        <ele>805.135517</ele>
        <time>2020-09-01T14:11:47.448Z</time>
      </trkpt>
      <trkpt lat="46.062581" lon="10.940746">
        <ele>803.832848</ele>
        <time>2020-09-01T14:11:49.438Z</time>
      </trkpt>
      <trkpt lat="46.062743" lon="10.940782">
        <ele>802.315126</ele>
        <time>2020-09-01T14:11:51.464Z</time>
      </trkpt>
      <trkpt lat="46.062828" lon="10.940847">
        <ele>801.377142</ele>
        <time>2020-09-01T14:11:53.447Z</time>
      </trkpt>
      <trkpt lat="46.062926" lon="10.940969">
        <ele>800.114804</ele>
        <time>2020-09-01T14:11:55.467Z</time>
      </trkpt>
      <trkpt lat="46.063022" lon="10.941060">
        <ele>798.994736</ele>
        <time>2020-09-01T14:11:57.441Z</time>
      </trkpt>
      <trkpt lat="46.063104" lon="10.941186">
        <ele>797.826312</ele>
        <time>2020-09-01T14:11:59.452Z</time>
      </trkpt>
      <trkpt lat="46.063184" lon="10.941334">
        <ele>796.557378</ele>
        <time>2020-09-01T14:12:01.452Z</time>
      </trkpt>
      <trkpt lat="46.063277" lon="10.941469">
        <ele>795.270682</ele>
        <time>2020-09-01T14:12:03.440Z</time>
      </trkpt>
      <trkpt lat="46.063368" lon="10.941599">
        <ele>794.021682</ele>
        <time>2020-09-01T14:12:05.448Z</time>
      </trkpt>
      <trkpt lat="46.063444" lon="10.941729">
        <ele>792.871912</ele>
        <time>2020-09-01T14:12:07.486Z</time>
      </trkpt>
      <trkpt lat="46.063516" lon="10.941858">
        <ele>791.752149</ele>
        <time>2020-09-01T14:12:09.438Z</time>
      </trkpt>
      <trkpt lat="46.063586" lon="10.941981">
        <ele>790.676180</ele>
        <time>2020-09-01T14:12:11.460Z</time>
      </trkpt>
      <trkpt lat="46.063672" lon="10.942035">
        <ele>789.761754</ele>
        <time>2020-09-01T14:12:14.444Z</time>
      </trkpt>
      <trkpt lat="46.063746" lon="10.942151">
        <ele>788.695966</ele>
        <time>2020-09-01T14:12:17.469Z</time>
      </trkpt>
      <trkpt lat="46.063828" lon="10.942266">
        <ele>787.580654</ele>
        <time>2020-09-01T14:12:20.443Z</time>
      </trkpt>
      <trkpt lat="46.063903" lon="10.942386">
        <ele>786.488297</ele>
        <time>2020-09-01T14:12:23.445Z</time>
      </trkpt>
      <trkpt lat="46.063977" lon="10.942515">
        <ele>785.574943</ele>
        <time>2020-09-01T14:12:26.452Z</time>
      </trkpt>
      <trkpt lat="46.064062" lon="10.942623">
        <ele>785.825351</ele>
        <time>2020-09-01T14:12:29.486Z</time>
      </trkpt>
      <trkpt lat="46.064163" lon="10.942706">
        <ele>786.082277</ele>
        <time>2020-09-01T14:12:32.461Z</time>
      </trkpt>
      <trkpt lat="46.064252" lon="10.942758">
        <ele>786.294499</ele>
        <time>2020-09-01T14:12:36.446Z</time>
      </trkpt>
      <trkpt lat="46.064347" lon="10.942694">
        <ele>786.526235</ele>
        <time>2020-09-01T14:12:41.445Z</time>
      </trkpt>
      <trkpt lat="46.064419" lon="10.942603">
        <ele>786.737857</ele>
        <time>2020-09-01T14:12:45.446Z</time>
      </trkpt>
      <trkpt lat="46.064500" lon="10.942499">
        <ele>786.977581</ele>
        <time>2020-09-01T14:12:49.449Z</time>
      </trkpt>
      <trkpt lat="46.064592" lon="10.942418">
        <ele>787.215819</ele>
        <time>2020-09-01T14:12:52.448Z</time>
      </trkpt>
      <trkpt lat="46.064688" lon="10.942330">
        <ele>787.467236</ele>
        <time>2020-09-01T14:12:56.451Z</time>
      </trkpt>
      <trkpt lat="46.064784" lon="10.942281">
        <ele>787.692291</ele>
        <time>2020-09-01T14:13:01.446Z</time>
      </trkpt>
      <trkpt lat="46.064872" lon="10.942250">
        <ele>787.892480</ele>
        <time>2020-09-01T14:13:07.450Z</time>
      </trkpt>
      <trkpt lat="46.064880" lon="10.942190">
        <ele>787.986160</ele>
        <time>2020-09-01T14:13:53.915Z</time>
      </trkpt>
      <trkpt lat="46.064965" lon="10.942272">
        <ele>788.212190</ele>
        <time>2020-09-01T15:08:08.508Z</time>
      </trkpt>
      <trkpt lat="46.065053" lon="10.942350">
        <ele>788.440488</ele>
        <time>2020-09-01T15:08:11.481Z</time>
      </trkpt>
      <trkpt lat="46.065142" lon="10.942445">
        <ele>788.685228</ele>
        <time>2020-09-01T15:08:14.490Z</time>
      </trkpt>
      <trkpt lat="46.065217" lon="10.942536">
        <ele>788.901877</ele>
        <time>2020-09-01T15:08:17.460Z</time>
      </trkpt>
      <trkpt lat="46.065323" lon="10.942574">
        <ele>789.143256</ele>
        <time>2020-09-01T15:08:21.461Z</time>
      </trkpt>
      <trkpt lat="46.065433" lon="10.942629">
        <ele>789.400550</ele>
        <time>2020-09-01T15:08:25.464Z</time>
      </trkpt>
      <trkpt lat="46.065588" lon="10.942629">
        <ele>790.091465</ele>
        <time>2020-09-01T15:08:28.467Z</time>
      </trkpt>
      <trkpt lat="46.065716" lon="10.942617">
        <ele>790.797201</ele>
        <time>2020-09-01T15:08:33.467Z</time>
      </trkpt>
      <trkpt lat="46.065816" lon="10.942643">
        <ele>791.356276</ele>
        <time>2020-09-01T15:08:37.478Z</time>
      </trkpt>
      <trkpt lat="46.065953" lon="10.942736">
        <ele>792.189464</ele>
        <time>2020-09-01T15:08:40.470Z</time>
      </trkpt>
      <trkpt lat="46.066043" lon="10.942826">
        <ele>792.792154</ele>
        <time>2020-09-01T15:08:42.468Z</time>
      </trkpt>
      <trkpt lat="46.066098" lon="10.942935">
        <ele>793.306651</ele>
        <time>2020-09-01T15:08:44.479Z</time>
      </trkpt>
      <trkpt lat="46.066122" lon="10.943086">
        <ele>793.898010</ele>
        <time>2020-09-01T15:08:48.486Z</time>
      </trkpt>
      <trkpt lat="46.066123" lon="10.943229">
        <ele>794.443925</ele>
        <time>2020-09-01T15:08:52.518Z</time>
      </trkpt>
      <trkpt lat="46.066130" lon="10.943394">
        <ele>795.074972</ele>
        <time>2020-09-01T15:08:56.479Z</time>
      </trkpt>
      <trkpt lat="46.066173" lon="10.943509">
        <ele>795.573664</ele>
        <time>2020-09-01T15:08:59.482Z</time>
      </trkpt>
      <trkpt lat="46.066253" lon="10.943571">
        <ele>796.073417</ele>
        <time>2020-09-01T15:09:02.483Z</time>
      </trkpt>
      <trkpt lat="46.066306" lon="10.943710">
        <ele>796.678881</ele>
        <time>2020-09-01T15:09:07.476Z</time>
      </trkpt>
      <trkpt lat="46.066336" lon="10.943858">
        <ele>797.267471</ele>
        <time>2020-09-01T15:09:10.473Z</time>
      </trkpt>
      <trkpt lat="46.066367" lon="10.944046">
        <ele>798.005128</ele>
        <time>2020-09-01T15:09:13.479Z</time>
      </trkpt>
      <trkpt lat="46.066383" lon="10.944183">
        <ele>798.535467</ele>
        <time>2020-09-01T15:09:15.479Z</time>
      </trkpt>
      <trkpt lat="46.066397" lon="10.944326">
        <ele>799.086760</ele>
        <time>2020-09-01T15:09:17.477Z</time>
      </trkpt>
      <trkpt lat="46.066404" lon="10.944469">
        <ele>799.532676</ele>
        <time>2020-09-01T15:09:19.487Z</time>
      </trkpt>
      <trkpt lat="46.066418" lon="10.944659">
        <ele>799.938989</ele>
        <time>2020-09-01T15:09:22.474Z</time>
      </trkpt>
      <trkpt lat="46.066461" lon="10.944825">
        <ele>800.315792</ele>
        <time>2020-09-01T15:09:25.477Z</time>
      </trkpt>
      <trkpt lat="46.066571" lon="10.944906">
        <ele>800.694388</ele>
        <time>2020-09-01T15:09:28.479Z</time>
      </trkpt>
      <trkpt lat="46.066666" lon="10.944976">
        <ele>801.021402</ele>
        <time>2020-09-01T15:09:31.480Z</time>
      </trkpt>
      <trkpt lat="46.066738" lon="10.945111">
        <ele>801.383496</ele>
        <time>2020-09-01T15:09:36.481Z</time>
      </trkpt>
      <trkpt lat="46.066788" lon="10.945224">
        <ele>801.668500</ele>
        <time>2020-09-01T15:09:39.478Z</time>
      </trkpt>
      <trkpt lat="46.066850" lon="10.945380">
        <ele>802.050807</ele>
        <time>2020-09-01T15:09:43.479Z</time>
      </trkpt>
      <trkpt lat="46.066929" lon="10.945525">
        <ele>802.442857</ele>
        <time>2020-09-01T15:09:46.497Z</time>
      </trkpt>
      <trkpt lat="46.066990" lon="10.945620">
        <ele>802.718113</ele>
        <time>2020-09-01T15:09:48.491Z</time>
      </trkpt>
      <trkpt lat="46.067085" lon="10.945746">
        <ele>803.113803</ele>
        <time>2020-09-01T15:09:51.478Z</time>
      </trkpt>
      <trkpt lat="46.067165" lon="10.945885">
        <ele>803.497848</ele>
        <time>2020-09-01T15:09:54.479Z</time>
      </trkpt>
      <trkpt lat="46.067229" lon="10.946029">
        <ele>803.861503</ele>
        <time>2020-09-01T15:09:57.479Z</time>
      </trkpt>
      <trkpt lat="46.067288" lon="10.946192">
        <ele>804.252457</ele>
        <time>2020-09-01T15:10:00.477Z</time>
      </trkpt>
      <trkpt lat="46.067343" lon="10.946367">
        <ele>804.660993</ele>
        <time>2020-09-01T15:10:03.515Z</time>
      </trkpt>
      <trkpt lat="46.067379" lon="10.946488">
        <ele>804.897000</ele>
        <time>2020-09-01T15:10:05.472Z</time>
      </trkpt>
      <trkpt lat="46.067468" lon="10.946692">
        <ele>804.429412</ele>
        <time>2020-09-01T15:10:07.473Z</time>
      </trkpt>
      <trkpt lat="46.067488" lon="10.946852">
        <ele>804.113955</ele>
        <time>2020-09-01T15:10:10.462Z</time>
      </trkpt>
      <trkpt lat="46.067500" lon="10.947005">
        <ele>803.815189</ele>
        <time>2020-09-01T15:10:13.451Z</time>
      </trkpt>
      <trkpt lat="46.067519" lon="10.947138">
        <ele>803.551706</ele>
        <time>2020-09-01T15:10:17.480Z</time>
      </trkpt>
      <trkpt lat="46.067524" lon="10.947292">
        <ele>803.252563</ele>
        <time>2020-09-01T15:10:20.480Z</time>
      </trkpt>
      <trkpt lat="46.067533" lon="10.947440">
        <ele>802.964289</ele>
        <time>2020-09-01T15:10:24.479Z</time>
      </trkpt>
      <trkpt lat="46.067544" lon="10.947575">
        <ele>802.700539</ele>
        <time>2020-09-01T15:10:27.486Z</time>
      </trkpt>
      <trkpt lat="46.067565" lon="10.947718">
        <ele>802.416920</ele>
        <time>2020-09-01T15:10:30.476Z</time>
      </trkpt>
      <trkpt lat="46.067590" lon="10.947870">
        <ele>802.113811</ele>
        <time>2020-09-01T15:10:33.478Z</time>
      </trkpt>
      <trkpt lat="46.067617" lon="10.948032">
        <ele>801.790530</ele>
        <time>2020-09-01T15:10:36.511Z</time>
      </trkpt>
      <trkpt lat="46.067644" lon="10.948243">
        <ele>801.374209</ele>
        <time>2020-09-01T15:10:39.478Z</time>
      </trkpt>
      <trkpt lat="46.067637" lon="10.948445">
        <ele>800.981768</ele>
        <time>2020-09-01T15:10:41.461Z</time>
      </trkpt>
      <trkpt lat="46.067661" lon="10.948659">
        <ele>800.561141</ele>
        <time>2020-09-01T15:10:43.457Z</time>
      </trkpt>
      <trkpt lat="46.067670" lon="10.948805">
        <ele>800.276733</ele>
        <time>2020-09-01T15:10:45.462Z</time>
      </trkpt>
      <trkpt lat="46.067704" lon="10.948937">
        <ele>800.003525</ele>
        <time>2020-09-01T15:10:52.477Z</time>
      </trkpt>
      <trkpt lat="46.067751" lon="10.949061">
        <ele>798.527118</ele>
        <time>2020-09-01T15:10:58.524Z</time>
      </trkpt>
      <trkpt lat="46.067818" lon="10.949165">
        <ele>796.161528</ele>
        <time>2020-09-01T15:11:05.486Z</time>
      </trkpt>
      <trkpt lat="46.067888" lon="10.949267">
        <ele>793.770134</ele>
        <time>2020-09-01T15:11:09.461Z</time>
      </trkpt>
      <trkpt lat="46.067938" lon="10.949389">
        <ele>791.408308</ele>
        <time>2020-09-01T15:11:13.500Z</time>
      </trkpt>
      <trkpt lat="46.068012" lon="10.949504">
        <ele>788.793930</ele>
        <time>2020-09-01T15:11:17.483Z</time>
      </trkpt>
      <trkpt lat="46.068131" lon="10.949640">
        <ele>785.145341</ele>
        <time>2020-09-01T15:11:21.460Z</time>
      </trkpt>
      <trkpt lat="46.068121" lon="10.949791">
        <ele>782.616991</ele>
        <time>2020-09-01T15:11:30.498Z</time>
      </trkpt>
      <trkpt lat="46.068065" lon="10.949942">
        <ele>779.763068</ele>
        <time>2020-09-01T15:11:33.478Z</time>
      </trkpt>
      <trkpt lat="46.067992" lon="10.950064">
        <ele>777.077729</ele>
        <time>2020-09-01T15:11:36.510Z</time>
      </trkpt>
      <trkpt lat="46.067928" lon="10.950184">
        <ele>774.554850</ele>
        <time>2020-09-01T15:11:39.482Z</time>
      </trkpt>
      <trkpt lat="46.067868" lon="10.950290">
        <ele>772.274590</ele>
        <time>2020-09-01T15:11:42.477Z</time>
      </trkpt>
      <trkpt lat="46.067794" lon="10.950408">
        <ele>769.623327</ele>
        <time>2020-09-01T15:11:46.475Z</time>
      </trkpt>
      <trkpt lat="46.067729" lon="10.950519">
        <ele>767.202214</ele>
        <time>2020-09-01T15:11:50.478Z</time>
      </trkpt>
      <trkpt lat="46.067662" lon="10.950633">
        <ele>764.711891</ele>
        <time>2020-09-01T15:11:54.476Z</time>
      </trkpt>
      <trkpt lat="46.067595" lon="10.950753">
        <ele>762.144441</ele>
        <time>2020-09-01T15:11:58.508Z</time>
      </trkpt>
      <trkpt lat="46.067544" lon="10.950883">
        <ele>759.655126</ele>
        <time>2020-09-01T15:12:02.478Z</time>
      </trkpt>
      <trkpt lat="46.067517" lon="10.951024">
        <ele>757.217001</ele>
        <time>2020-09-01T15:12:06.491Z</time>
      </trkpt>
      <trkpt lat="46.067518" lon="10.951215">
        <ele>758.463283</ele>
        <time>2020-09-01T15:12:10.479Z</time>
      </trkpt>
      <trkpt lat="46.067489" lon="10.951381">
        <ele>760.392635</ele>
        <time>2020-09-01T15:12:15.464Z</time>
      </trkpt>
      <trkpt lat="46.067439" lon="10.951493">
        <ele>761.893705</ele>
        <time>2020-09-01T15:12:19.459Z</time>
      </trkpt>
      <trkpt lat="46.067199" lon="10.951867">
        <ele>767.635563</ele>
        <time>2020-09-01T15:12:20.461Z</time>
      </trkpt>
      <trkpt lat="46.067118" lon="10.951977">
        <ele>769.443461</ele>
        <time>2020-09-01T15:12:24.477Z</time>
      </trkpt>
      <trkpt lat="46.067036" lon="10.952072">
        <ele>771.152521</ele>
        <time>2020-09-01T15:12:27.489Z</time>
      </trkpt>
      <trkpt lat="46.066934" lon="10.952178">
        <ele>773.195286</ele>
        <time>2020-09-01T15:12:30.483Z</time>
      </trkpt>
      <trkpt lat="46.066396" lon="10.952563">
        <ele>782.952948</ele>
        <time>2020-09-01T15:12:33.469Z</time>
      </trkpt>
      <trkpt lat="46.066332" lon="10.952685">
        <ele>784.676814</ele>
        <time>2020-09-01T15:12:36.452Z</time>
      </trkpt>
      <trkpt lat="46.066253" lon="10.952764">
        <ele>786.102765</ele>
        <time>2020-09-01T15:12:38.444Z</time>
      </trkpt>
      <trkpt lat="46.066168" lon="10.952833">
        <ele>787.060920</ele>
        <time>2020-09-01T15:12:41.459Z</time>
      </trkpt>
      <trkpt lat="46.066067" lon="10.952890">
        <ele>788.126251</ele>
        <time>2020-09-01T15:12:44.500Z</time>
      </trkpt>
      <trkpt lat="46.065978" lon="10.953012">
        <ele>789.332609</ele>
        <time>2020-09-01T15:12:50.479Z</time>
      </trkpt>
      <trkpt lat="46.065916" lon="10.953135">
        <ele>790.368654</ele>
        <time>2020-09-01T15:12:52.479Z</time>
      </trkpt>
      <trkpt lat="46.065850" lon="10.953280">
        <ele>791.550425</ele>
        <time>2020-09-01T15:12:54.483Z</time>
      </trkpt>
      <trkpt lat="46.065797" lon="10.953415">
        <ele>792.607461</ele>
        <time>2020-09-01T15:12:56.478Z</time>
      </trkpt>
      <trkpt lat="46.065755" lon="10.953533">
        <ele>793.511222</ele>
        <time>2020-09-01T15:12:58.471Z</time>
      </trkpt>
      <trkpt lat="46.065714" lon="10.953660">
        <ele>794.465777</ele>
        <time>2020-09-01T15:13:02.497Z</time>
      </trkpt>
      <trkpt lat="46.065705" lon="10.953802">
        <ele>795.437484</ele>
        <time>2020-09-01T15:13:06.514Z</time>
      </trkpt>
      <trkpt lat="46.065702" lon="10.953943">
        <ele>796.398798</ele>
        <time>2020-09-01T15:13:09.481Z</time>
      </trkpt>
      <trkpt lat="46.065653" lon="10.954141">
        <ele>797.831355</ele>
        <time>2020-09-01T15:13:10.502Z</time>
      </trkpt>
      <trkpt lat="46.065628" lon="10.954294">
        <ele>798.902518</ele>
        <time>2020-09-01T15:13:13.464Z</time>
      </trkpt>
      <trkpt lat="46.065614" lon="10.954443">
        <ele>799.927167</ele>
        <time>2020-09-01T15:13:16.458Z</time>
      </trkpt>
      <trkpt lat="46.065624" lon="10.954586">
        <ele>800.906598</ele>
        <time>2020-09-01T15:13:20.466Z</time>
      </trkpt>
      <trkpt lat="46.065636" lon="10.954724">
        <ele>801.854375</ele>
        <time>2020-09-01T15:13:23.467Z</time>
      </trkpt>
      <trkpt lat="46.065631" lon="10.954919">
        <ele>803.184137</ele>
        <time>2020-09-01T15:13:25.477Z</time>
      </trkpt>
      <trkpt lat="46.065611" lon="10.955066">
        <ele>803.676620</ele>
        <time>2020-09-01T15:13:27.490Z</time>
      </trkpt>
      <trkpt lat="46.065586" lon="10.955210">
        <ele>803.858861</ele>
        <time>2020-09-01T15:13:29.479Z</time>
      </trkpt>
      <trkpt lat="46.065556" lon="10.955336">
        <ele>804.022407</ele>
        <time>2020-09-01T15:13:31.481Z</time>
      </trkpt>
      <trkpt lat="46.065489" lon="10.955496">
        <ele>804.251844</ele>
        <time>2020-09-01T15:13:34.481Z</time>
      </trkpt>
      <trkpt lat="46.065438" lon="10.955649">
        <ele>804.460236</ele>
        <time>2020-09-01T15:13:37.476Z</time>
      </trkpt>
      <trkpt lat="46.065414" lon="10.955779">
        <ele>804.625392</ele>
        <time>2020-09-01T15:13:40.463Z</time>
      </trkpt>
      <trkpt lat="46.065412" lon="10.955923">
        <ele>804.802219</ele>
        <time>2020-09-01T15:13:43.484Z</time>
      </trkpt>
      <trkpt lat="46.065422" lon="10.956075">
        <ele>804.989668</ele>
        <time>2020-09-01T15:13:46.482Z</time>
      </trkpt>
      <trkpt lat="46.065481" lon="10.956214">
        <ele>805.189721</ele>
        <time>2020-09-01T15:13:49.481Z</time>
      </trkpt>
      <trkpt lat="46.065565" lon="10.956360">
        <ele>805.422575</ele>
        <time>2020-09-01T15:13:52.485Z</time>
      </trkpt>
      <trkpt lat="46.065595" lon="10.956514">
        <ele>805.618954</ele>
        <time>2020-09-01T15:13:55.476Z</time>
      </trkpt>
      <trkpt lat="46.065563" lon="10.956661">
        <ele>805.808101</ele>
        <time>2020-09-01T15:13:58.477Z</time>
      </trkpt>
      <trkpt lat="46.065493" lon="10.956750">
        <ele>805.973270</ele>
        <time>2020-09-01T15:14:01.512Z</time>
      </trkpt>
      <trkpt lat="46.065258" lon="10.956784">
        <ele>806.391183</ele>
        <time>2020-09-01T15:14:05.475Z</time>
      </trkpt>
      <trkpt lat="46.065151" lon="10.956864">
        <ele>806.604474</ele>
        <time>2020-09-01T15:14:08.461Z</time>
      </trkpt>
      <trkpt lat="46.065055" lon="10.956952">
        <ele>806.777852</ele>
        <time>2020-09-01T15:14:11.473Z</time>
      </trkpt>
      <trkpt lat="46.064979" lon="10.957078">
        <ele>806.891424</ele>
        <time>2020-09-01T15:14:14.464Z</time>
      </trkpt>
      <trkpt lat="46.064920" lon="10.957190">
        <ele>806.987083</ele>
        <time>2020-09-01T15:14:18.468Z</time>
      </trkpt>
      <trkpt lat="46.064911" lon="10.957345">
        <ele>807.092892</ele>
        <time>2020-09-01T15:14:22.477Z</time>
      </trkpt>
      <trkpt lat="46.064899" lon="10.957499">
        <ele>807.198310</ele>
        <time>2020-09-01T15:14:24.480Z</time>
      </trkpt>
      <trkpt lat="46.064880" lon="10.957663">
        <ele>807.311416</ele>
        <time>2020-09-01T15:14:26.482Z</time>
      </trkpt>
      <trkpt lat="46.064843" lon="10.957828">
        <ele>807.429375</ele>
        <time>2020-09-01T15:14:28.485Z</time>
      </trkpt>
      <trkpt lat="46.064794" lon="10.957984">
        <ele>807.545863</ele>
        <time>2020-09-01T15:14:30.480Z</time>
      </trkpt>
      <trkpt lat="46.064754" lon="10.958108">
        <ele>807.638885</ele>
        <time>2020-09-01T15:14:32.477Z</time>
      </trkpt>
      <trkpt lat="46.064710" lon="10.958222">
        <ele>807.727626</ele>
        <time>2020-09-01T15:14:34.510Z</time>
      </trkpt>
      <trkpt lat="46.064590" lon="10.958284">
        <ele>807.852607</ele>
        <time>2020-09-01T15:14:38.482Z</time>
      </trkpt>
      <trkpt lat="46.064492" lon="10.958348">
        <ele>807.958092</ele>
        <time>2020-09-01T15:14:42.459Z</time>
      </trkpt>
      <trkpt lat="46.064393" lon="10.958304">
        <ele>808.059663</ele>
        <time>2020-09-01T15:14:45.503Z</time>
      </trkpt>
      <trkpt lat="46.064287" lon="10.958323">
        <ele>808.164388</ele>
        <time>2020-09-01T15:14:48.456Z</time>
      </trkpt>
      <trkpt lat="46.064232" lon="10.958463">
        <ele>808.273831</ele>
        <time>2020-09-01T15:14:52.451Z</time>
      </trkpt>
      <trkpt lat="46.064217" lon="10.958600">
        <ele>808.368181</ele>
        <time>2020-09-01T15:14:55.483Z</time>
      </trkpt>
      <trkpt lat="46.064230" lon="10.958774">
        <ele>808.487231</ele>
        <time>2020-09-01T15:15:00.473Z</time>
      </trkpt>
      <trkpt lat="46.064255" lon="10.958985">
        <ele>808.601002</ele>
        <time>2020-09-01T15:15:02.462Z</time>
      </trkpt>
      <trkpt lat="46.064280" lon="10.959125">
        <ele>808.674546</ele>
        <time>2020-09-01T15:15:05.467Z</time>
      </trkpt>
      <trkpt lat="46.064329" lon="10.959250">
        <ele>808.747585</ele>
        <time>2020-09-01T15:15:08.463Z</time>
      </trkpt>
      <trkpt lat="46.064363" lon="10.959397">
        <ele>808.826415</ele>
        <time>2020-09-01T15:15:12.461Z</time>
      </trkpt>
      <trkpt lat="46.064461" lon="10.959683">
        <ele>808.988688</ele>
        <time>2020-09-01T15:17:14.469Z</time>
      </trkpt>
      <trkpt lat="46.064530" lon="10.959811">
        <ele>809.071149</ele>
        <time>2020-09-01T15:17:17.488Z</time>
      </trkpt>
      <trkpt lat="46.064603" lon="10.959961">
        <ele>809.164358</ele>
        <time>2020-09-01T15:17:20.463Z</time>
      </trkpt>
      <trkpt lat="46.064644" lon="10.960085">
        <ele>809.234238</ele>
        <time>2020-09-01T15:17:23.469Z</time>
      </trkpt>
      <trkpt lat="46.064719" lon="10.960381">
        <ele>809.394549</ele>
        <time>2020-09-01T15:18:19.480Z</time>
      </trkpt>
      <trkpt lat="46.064767" lon="10.960537">
        <ele>809.481364</ele>
        <time>2020-09-01T15:18:23.478Z</time>
      </trkpt>
      <trkpt lat="46.064844" lon="10.960752">
        <ele>809.604452</ele>
        <time>2020-09-01T15:18:25.495Z</time>
      </trkpt>
      <trkpt lat="46.064875" lon="10.960899">
        <ele>809.682614</ele>
        <time>2020-09-01T15:18:28.477Z</time>
      </trkpt>
      <trkpt lat="46.064856" lon="10.961041">
        <ele>809.756184</ele>
        <time>2020-09-01T15:18:32.471Z</time>
      </trkpt>
      <trkpt lat="46.064795" lon="10.961223">
        <ele>809.931482</ele>
        <time>2020-09-01T15:18:35.489Z</time>
      </trkpt>
      <trkpt lat="46.064750" lon="10.961368">
        <ele>810.186210</ele>
        <time>2020-09-01T15:18:37.505Z</time>
      </trkpt>
      <trkpt lat="46.064728" lon="10.961512">
        <ele>810.422665</ele>
        <time>2020-09-01T15:18:41.478Z</time>
      </trkpt>
      <trkpt lat="46.064695" lon="10.961655">
        <ele>810.664336</ele>
        <time>2020-09-01T15:18:45.459Z</time>
      </trkpt>
      <trkpt lat="46.064643" lon="10.961762">
        <ele>810.873829</ele>
        <time>2020-09-01T15:19:26.459Z</time>
      </trkpt>
      <trkpt lat="46.064625" lon="10.961922">
        <ele>811.133762</ele>
        <time>2020-09-01T15:19:31.463Z</time>
      </trkpt>
      <trkpt lat="46.064602" lon="10.962083">
        <ele>811.397364</ele>
        <time>2020-09-01T15:19:35.483Z</time>
      </trkpt>
      <trkpt lat="46.064573" lon="10.962244">
        <ele>811.664108</ele>
        <time>2020-09-01T15:19:37.459Z</time>
      </trkpt>
      <trkpt lat="46.064551" lon="10.962385">
        <ele>811.895869</ele>
        <time>2020-09-01T15:19:40.468Z</time>
      </trkpt>
      <trkpt lat="46.064551" lon="10.962570">
        <ele>812.192542</ele>
        <time>2020-09-01T15:19:44.480Z</time>
      </trkpt>
      <trkpt lat="46.064548" lon="10.962755">
        <ele>812.489297</ele>
        <time>2020-09-01T15:19:47.478Z</time>
      </trkpt>
      <trkpt lat="46.064569" lon="10.962889">
        <ele>812.709598</ele>
        <time>2020-09-01T15:19:51.477Z</time>
      </trkpt>
      <trkpt lat="46.064591" lon="10.963053">
        <ele>812.977466</ele>
        <time>2020-09-01T15:19:55.480Z</time>
      </trkpt>
      <trkpt lat="46.064605" lon="10.963190">
        <ele>813.199535</ele>
        <time>2020-09-01T15:19:58.501Z</time>
      </trkpt>
      <trkpt lat="46.064625" lon="10.963351">
        <ele>813.461826</ele>
        <time>2020-09-01T15:20:01.473Z</time>
      </trkpt>
      <trkpt lat="46.064670" lon="10.963574">
        <ele>813.834255</ele>
        <time>2020-09-01T15:20:04.480Z</time>
      </trkpt>
      <trkpt lat="46.064612" lon="10.963745">
        <ele>814.272074</ele>
        <time>2020-09-01T15:20:05.459Z</time>
      </trkpt>
      <trkpt lat="46.064685" lon="10.963665">
        <ele>814.662943</ele>
        <time>2020-09-01T15:20:20.445Z</time>
      </trkpt>
      <trkpt lat="46.064820" lon="10.963950">
        <ele>815.683448</ele>
        <time>2020-09-01T15:21:04.469Z</time>
      </trkpt>
      <trkpt lat="46.064872" lon="10.964082">
        <ele>816.132338</ele>
        <time>2020-09-01T15:21:07.468Z</time>
      </trkpt>
      <trkpt lat="46.064921" lon="10.964213">
        <ele>816.572449</ele>
        <time>2020-09-01T15:21:10.472Z</time>
      </trkpt>
      <trkpt lat="46.064970" lon="10.964368">
        <ele>817.076161</ele>
        <time>2020-09-01T15:21:14.483Z</time>
      </trkpt>
      <trkpt lat="46.064942" lon="10.964501">
        <ele>817.487185</ele>
        <time>2020-09-01T15:21:27.493Z</time>
      </trkpt>
      <trkpt lat="46.064974" lon="10.964623">
        <ele>817.872891</ele>
        <time>2020-09-01T15:21:32.482Z</time>
      </trkpt>
      <trkpt lat="46.064994" lon="10.964770">
        <ele>818.315888</ele>
        <time>2020-09-01T15:21:36.481Z</time>
      </trkpt>
      <trkpt lat="46.065046" lon="10.964922">
        <ele>818.817062</ele>
        <time>2020-09-01T15:21:40.490Z</time>
      </trkpt>
      <trkpt lat="46.065105" lon="10.965086">
        <ele>819.363370</ele>
        <time>2020-09-01T15:21:44.491Z</time>
      </trkpt>
      <trkpt lat="46.065151" lon="10.965237">
        <ele>819.851062</ele>
        <time>2020-09-01T15:21:47.504Z</time>
      </trkpt>
      <trkpt lat="46.065191" lon="10.965468">
        <ele>820.555141</ele>
        <time>2020-09-01T15:21:50.482Z</time>
      </trkpt>
      <trkpt lat="46.065235" lon="10.965719">
        <ele>821.320737</ele>
        <time>2020-09-01T15:21:52.485Z</time>
      </trkpt>
      <trkpt lat="46.065263" lon="10.965881">
        <ele>821.801125</ele>
        <time>2020-09-01T15:21:53.483Z</time>
      </trkpt>
      <trkpt lat="46.065297" lon="10.966055">
        <ele>822.292762</ele>
        <time>2020-09-01T15:21:54.482Z</time>
      </trkpt>
      <trkpt lat="46.065304" lon="10.966205">
        <ele>822.701640</ele>
        <time>2020-09-01T15:21:55.487Z</time>
      </trkpt>
      <trkpt lat="46.065295" lon="10.966341">
        <ele>823.073199</ele>
        <time>2020-09-01T15:21:56.483Z</time>
      </trkpt>
      <trkpt lat="46.065346" lon="10.966545">
        <ele>823.662935</ele>
        <time>2020-09-01T15:21:58.489Z</time>
      </trkpt>
      <trkpt lat="46.065350" lon="10.966759">
        <ele>824.245163</ele>
        <time>2020-09-01T15:22:00.483Z</time>
      </trkpt>
      <trkpt lat="46.065332" lon="10.967016">
        <ele>824.947679</ele>
        <time>2020-09-01T15:22:02.529Z</time>
      </trkpt>
      <trkpt lat="46.065333" lon="10.967198">
        <ele>825.442681</ele>
        <time>2020-09-01T15:22:03.494Z</time>
      </trkpt>
      <trkpt lat="46.065315" lon="10.967375">
        <ele>825.929212</ele>
        <time>2020-09-01T15:22:04.480Z</time>
      </trkpt>
      <trkpt lat="46.065290" lon="10.967610">
        <ele>826.575812</ele>
        <time>2020-09-01T15:22:06.490Z</time>
      </trkpt>
      <trkpt lat="46.065304" lon="10.967747">
        <ele>826.952432</ele>
        <time>2020-09-01T15:22:07.480Z</time>
      </trkpt>
      <trkpt lat="46.065314" lon="10.967949">
        <ele>827.503209</ele>
        <time>2020-09-01T15:22:09.480Z</time>
      </trkpt>
      <trkpt lat="46.065423" lon="10.968133">
        <ele>828.161218</ele>
        <time>2020-09-01T15:22:12.480Z</time>
      </trkpt>
      <trkpt lat="46.065512" lon="10.968187">
        <ele>828.539733</ele>
        <time>2020-09-01T15:22:14.511Z</time>
      </trkpt>
      <trkpt lat="46.065596" lon="10.968237">
        <ele>828.529688</ele>
        <time>2020-09-01T15:22:16.506Z</time>
      </trkpt>
      <trkpt lat="46.065700" lon="10.968205">
        <ele>828.171957</ele>
        <time>2020-09-01T15:22:21.498Z</time>
      </trkpt>
      <trkpt lat="46.065773" lon="10.968302">
        <ele>827.837952</ele>
        <time>2020-09-01T15:22:25.481Z</time>
      </trkpt>
      <trkpt lat="46.065817" lon="10.968440">
        <ele>827.483479</ele>
        <time>2020-09-01T15:22:28.494Z</time>
      </trkpt>
      <trkpt lat="46.065826" lon="10.968578">
        <ele>827.159968</ele>
        <time>2020-09-01T15:22:30.497Z</time>
      </trkpt>
      <trkpt lat="46.065829" lon="10.968710">
        <ele>826.851715</ele>
        <time>2020-09-01T15:22:32.467Z</time>
      </trkpt>
      <trkpt lat="46.065820" lon="10.968842">
        <ele>826.542144</ele>
        <time>2020-09-01T15:22:34.483Z</time>
      </trkpt>
      <trkpt lat="46.065788" lon="10.969002">
        <ele>826.153499</ele>
        <time>2020-09-01T15:22:37.481Z</time>
      </trkpt>
      <trkpt lat="46.065702" lon="10.969111">
        <ele>825.768252</ele>
        <time>2020-09-01T15:22:40.485Z</time>
      </trkpt>
      <trkpt lat="46.065583" lon="10.969167">
        <ele>825.347147</ele>
        <time>2020-09-01T15:22:43.484Z</time>
      </trkpt>
      <trkpt lat="46.065473" lon="10.969209">
        <ele>824.964350</ele>
        <time>2020-09-01T15:22:46.527Z</time>
      </trkpt>
      <trkpt lat="46.065368" lon="10.969281">
        <ele>824.573199</ele>
        <time>2020-09-01T15:22:49.479Z</time>
      </trkpt>
      <trkpt lat="46.065287" lon="10.969389">
        <ele>824.202004</ele>
        <time>2020-09-01T15:22:52.500Z</time>
      </trkpt>
      <trkpt lat="46.065216" lon="10.969489">
        <ele>823.868058</ele>
        <time>2020-09-01T15:22:55.482Z</time>
      </trkpt>
      <trkpt lat="46.065310" lon="10.969933">
        <ele>822.784583</ele>
        <time>2020-09-01T15:24:49.481Z</time>
      </trkpt>
      <trkpt lat="46.065241" lon="10.969829">
        <ele>822.408946</ele>
        <time>2020-09-01T15:24:56.462Z</time>
      </trkpt>
      <trkpt lat="46.065470" lon="10.970671">
        <ele>819.877436</ele>
        <time>2020-09-01T15:24:59.475Z</time>
      </trkpt>
      <trkpt lat="46.065506" lon="10.970833">
        <ele>819.401280</ele>
        <time>2020-09-01T15:25:02.460Z</time>
      </trkpt>
      <trkpt lat="46.065529" lon="10.970982">
        <ele>818.974006</ele>
        <time>2020-09-01T15:25:04.464Z</time>
      </trkpt>
      <trkpt lat="46.065594" lon="10.971105">
        <ele>818.541217</ele>
        <time>2020-09-01T15:25:07.508Z</time>
      </trkpt>
      <trkpt lat="46.065667" lon="10.971232">
        <ele>818.079578</ele>
        <time>2020-09-01T15:25:10.468Z</time>
      </trkpt>
      <trkpt lat="46.065732" lon="10.971328">
        <ele>817.704110</ele>
        <time>2020-09-01T15:25:13.504Z</time>
      </trkpt>
      <trkpt lat="46.065767" lon="10.971479">
        <ele>817.258475</ele>
        <time>2020-09-01T15:25:16.484Z</time>
      </trkpt>
      <trkpt lat="46.065804" lon="10.971604">
        <ele>816.878070</ele>
        <time>2020-09-01T15:25:18.513Z</time>
      </trkpt>
      <trkpt lat="46.065807" lon="10.971786">
        <ele>816.368480</ele>
        <time>2020-09-01T15:25:25.488Z</time>
      </trkpt>
      <trkpt lat="46.065855" lon="10.971896">
        <ele>816.004741</ele>
        <time>2020-09-01T15:25:27.481Z</time>
      </trkpt>
      <trkpt lat="46.065916" lon="10.972014">
        <ele>815.592842</ele>
        <time>2020-09-01T15:25:30.481Z</time>
      </trkpt>
      <trkpt lat="46.065977" lon="10.972150">
        <ele>815.465993</ele>
        <time>2020-09-01T15:25:33.485Z</time>
      </trkpt>
      <trkpt lat="46.066045" lon="10.972293">
        <ele>815.608201</ele>
        <time>2020-09-01T15:25:36.494Z</time>
      </trkpt>
      <trkpt lat="46.066096" lon="10.972415">
        <ele>815.725037</ele>
        <time>2020-09-01T15:25:38.494Z</time>
      </trkpt>
      <trkpt lat="46.066159" lon="10.972550">
        <ele>815.858495</ele>
        <time>2020-09-01T15:25:40.530Z</time>
      </trkpt>
      <trkpt lat="46.066236" lon="10.972683">
        <ele>816.000586</ele>
        <time>2020-09-01T15:25:42.481Z</time>
      </trkpt>
      <trkpt lat="46.066309" lon="10.972814">
        <ele>816.138412</ele>
        <time>2020-09-01T15:25:44.483Z</time>
      </trkpt>
      <trkpt lat="46.066370" lon="10.972923">
        <ele>816.253283</ele>
        <time>2020-09-01T15:25:51.512Z</time>
      </trkpt>
      <trkpt lat="46.066488" lon="10.973096">
        <ele>816.452283</ele>
        <time>2020-09-01T15:25:54.460Z</time>
      </trkpt>
      <trkpt lat="46.066661" lon="10.973528">
        <ele>816.861437</ele>
        <time>2020-09-01T15:25:55.470Z</time>
      </trkpt>
      <trkpt lat="46.066734" lon="10.973623">
        <ele>816.977718</ele>
        <time>2020-09-01T15:25:58.457Z</time>
      </trkpt>
      <trkpt lat="46.066819" lon="10.973730">
        <ele>817.111144</ele>
        <time>2020-09-01T15:26:02.482Z</time>
      </trkpt>
      <trkpt lat="46.066901" lon="10.973789">
        <ele>817.219499</ele>
        <time>2020-09-01T15:26:05.465Z</time>
      </trkpt>
      <trkpt lat="46.067006" lon="10.973839">
        <ele>817.350237</ele>
        <time>2020-09-01T15:26:09.486Z</time>
      </trkpt>
      <trkpt lat="46.067101" lon="10.973870">
        <ele>817.465395</ele>
        <time>2020-09-01T15:26:12.464Z</time>
      </trkpt>
      <trkpt lat="46.067190" lon="10.973900">
        <ele>817.136276</ele>
        <time>2020-09-01T15:26:17.468Z</time>
      </trkpt>
      <trkpt lat="46.067534" lon="10.973858">
        <ele>814.298123</ele>
        <time>2020-09-01T15:28:22.462Z</time>
      </trkpt>
      <trkpt lat="46.067680" lon="10.973859">
        <ele>813.097843</ele>
        <time>2020-09-01T15:28:24.459Z</time>
      </trkpt>
      <trkpt lat="46.067841" lon="10.973855">
        <ele>811.774065</ele>
        <time>2020-09-01T15:28:26.462Z</time>
      </trkpt>
      <trkpt lat="46.068019" lon="10.973807">
        <ele>810.285335</ele>
        <time>2020-09-01T15:28:28.464Z</time>
      </trkpt>
      <trkpt lat="46.068203" lon="10.973799">
        <ele>808.771982</ele>
        <time>2020-09-01T15:28:30.461Z</time>
      </trkpt>
      <trkpt lat="46.068355" lon="10.973774">
        <ele>807.514280</ele>
        <time>2020-09-01T15:28:32.460Z</time>
      </trkpt>
      <trkpt lat="46.068505" lon="10.973850">
        <ele>806.207159</ele>
        <time>2020-09-01T15:28:34.460Z</time>
      </trkpt>
      <trkpt lat="46.068667" lon="10.973942">
        <ele>804.775708</ele>
        <time>2020-09-01T15:28:36.480Z</time>
      </trkpt>
      <trkpt lat="46.068753" lon="10.973989">
        <ele>804.019585</ele>
        <time>2020-09-01T15:28:37.459Z</time>
      </trkpt>
      <trkpt lat="46.068899" lon="10.974026">
        <ele>802.800908</ele>
        <time>2020-09-01T15:28:38.495Z</time>
      </trkpt>
      <trkpt lat="46.069076" lon="10.974032">
        <ele>802.004326</ele>
        <time>2020-09-01T15:28:40.462Z</time>
      </trkpt>
      <trkpt lat="46.069262" lon="10.973979">
        <ele>801.186430</ele>
        <time>2020-09-01T15:28:42.462Z</time>
      </trkpt>
      <trkpt lat="46.069461" lon="10.973945">
        <ele>800.321972</ele>
        <time>2020-09-01T15:28:44.487Z</time>
      </trkpt>
      <trkpt lat="46.069587" lon="10.973922">
        <ele>799.774091</ele>
        <time>2020-09-01T15:28:45.472Z</time>
      </trkpt>
      <trkpt lat="46.069724" lon="10.973901">
        <ele>799.179767</ele>
        <time>2020-09-01T15:28:46.462Z</time>
      </trkpt>
      <trkpt lat="46.069834" lon="10.973882">
        <ele>798.701854</ele>
        <time>2020-09-01T15:28:47.462Z</time>
      </trkpt>
      <trkpt lat="46.069943" lon="10.973837">
        <ele>798.212742</ele>
        <time>2020-09-01T15:28:48.458Z</time>
      </trkpt>
      <trkpt lat="46.070042" lon="10.973822">
        <ele>797.783322</ele>
        <time>2020-09-01T15:28:49.504Z</time>
      </trkpt>
      <trkpt lat="46.070159" lon="10.973763">
        <ele>797.248610</ele>
        <time>2020-09-01T15:28:50.460Z</time>
      </trkpt>
      <trkpt lat="46.070278" lon="10.973725">
        <ele>796.722820</ele>
        <time>2020-09-01T15:28:51.459Z</time>
      </trkpt>
      <trkpt lat="46.070415" lon="10.973741">
        <ele>796.129892</ele>
        <time>2020-09-01T15:28:52.464Z</time>
      </trkpt>
      <trkpt lat="46.070506" lon="10.973741">
        <ele>795.737336</ele>
        <time>2020-09-01T15:28:53.461Z</time>
      </trkpt>
      <trkpt lat="46.070675" lon="10.973762">
        <ele>795.005599</ele>
        <time>2020-09-01T15:28:54.466Z</time>
      </trkpt>
      <trkpt lat="46.070791" lon="10.973768">
        <ele>793.981364</ele>
        <time>2020-09-01T15:28:55.468Z</time>
      </trkpt>
      <trkpt lat="46.070895" lon="10.973744">
        <ele>793.018738</ele>
        <time>2020-09-01T15:28:56.468Z</time>
      </trkpt>
      <trkpt lat="46.070985" lon="10.973750">
        <ele>792.195292</ele>
        <time>2020-09-01T15:28:57.458Z</time>
      </trkpt>
      <trkpt lat="46.071094" lon="10.973761">
        <ele>791.196633</ele>
        <time>2020-09-01T15:28:58.460Z</time>
      </trkpt>
      <trkpt lat="46.071264" lon="10.974018">
        <ele>788.945055</ele>
        <time>2020-09-01T15:29:00.508Z</time>
      </trkpt>
      <trkpt lat="46.071389" lon="10.974126">
        <ele>787.613082</ele>
        <time>2020-09-01T15:29:02.464Z</time>
      </trkpt>
      <trkpt lat="46.071485" lon="10.974202">
        <ele>786.612052</ele>
        <time>2020-09-01T15:29:03.461Z</time>
      </trkpt>
      <trkpt lat="46.071589" lon="10.974247">
        <ele>785.619628</ele>
        <time>2020-09-01T15:29:04.472Z</time>
      </trkpt>
      <trkpt lat="46.071719" lon="10.974221">
        <ele>784.420093</ele>
        <time>2020-09-01T15:29:05.470Z</time>
      </trkpt>
      <trkpt lat="46.071864" lon="10.974230">
        <ele>783.093619</ele>
        <time>2020-09-01T15:29:06.463Z</time>
      </trkpt>
      <trkpt lat="46.072000" lon="10.974159">
        <ele>781.771616</ele>
        <time>2020-09-01T15:29:07.468Z</time>
      </trkpt>
      <trkpt lat="46.072117" lon="10.974130">
        <ele>780.686585</ele>
        <time>2020-09-01T15:29:08.469Z</time>
      </trkpt>
      <trkpt lat="46.072252" lon="10.974101">
        <ele>779.439108</ele>
        <time>2020-09-01T15:29:09.460Z</time>
      </trkpt>
      <trkpt lat="46.072378" lon="10.974073">
        <ele>778.365339</ele>
        <time>2020-09-01T15:29:10.472Z</time>
      </trkpt>
      <trkpt lat="46.072498" lon="10.974015">
        <ele>777.615357</ele>
        <time>2020-09-01T15:29:11.495Z</time>
      </trkpt>
      <trkpt lat="46.072596" lon="10.973995">
        <ele>777.028856</ele>
        <time>2020-09-01T15:29:12.469Z</time>
      </trkpt>
      <trkpt lat="46.072705" lon="10.973980">
        <ele>776.380028</ele>
        <time>2020-09-01T15:29:13.462Z</time>
      </trkpt>
      <trkpt lat="46.072802" lon="10.974103">
        <ele>775.614493</ele>
        <time>2020-09-01T15:29:14.474Z</time>
      </trkpt>
      <trkpt lat="46.072863" lon="10.974210">
        <ele>775.045166</ele>
        <time>2020-09-01T15:29:15.460Z</time>
      </trkpt>
      <trkpt lat="46.072934" lon="10.974342">
        <ele>774.358542</ele>
        <time>2020-09-01T15:29:16.480Z</time>
      </trkpt>
      <trkpt lat="46.073002" lon="10.974447">
        <ele>773.768056</ele>
        <time>2020-09-01T15:29:17.517Z</time>
      </trkpt>
      <trkpt lat="46.073085" lon="10.974702">
        <ele>772.610149</ele>
        <time>2020-09-01T15:29:19.465Z</time>
      </trkpt>
      <trkpt lat="46.073139" lon="10.974825">
        <ele>772.011774</ele>
        <time>2020-09-01T15:29:20.460Z</time>
      </trkpt>
      <trkpt lat="46.073166" lon="10.974995">
        <ele>771.294853</ele>
        <time>2020-09-01T15:29:21.467Z</time>
      </trkpt>
      <trkpt lat="46.073214" lon="10.975202">
        <ele>770.397635</ele>
        <time>2020-09-01T15:29:22.480Z</time>
      </trkpt>
      <trkpt lat="46.073294" lon="10.975377">
        <ele>769.536096</ele>
        <time>2020-09-01T15:29:23.462Z</time>
      </trkpt>
      <trkpt lat="46.073379" lon="10.975565">
        <ele>768.613620</ele>
        <time>2020-09-01T15:29:24.467Z</time>
      </trkpt>
      <trkpt lat="46.073434" lon="10.975719">
        <ele>767.901590</ele>
        <time>2020-09-01T15:29:25.472Z</time>
      </trkpt>
      <trkpt lat="46.073486" lon="10.975898">
        <ele>767.244123</ele>
        <time>2020-09-01T15:29:26.460Z</time>
      </trkpt>
      <trkpt lat="46.073509" lon="10.976046">
        <ele>766.733935</ele>
        <time>2020-09-01T15:29:27.465Z</time>
      </trkpt>
      <trkpt lat="46.073530" lon="10.976236">
        <ele>766.086744</ele>
        <time>2020-09-01T15:29:28.513Z</time>
      </trkpt>
      <trkpt lat="46.073547" lon="10.976405">
        <ele>765.512309</ele>
        <time>2020-09-01T15:29:29.465Z</time>
      </trkpt>
      <trkpt lat="46.073566" lon="10.976575">
        <ele>764.933082</ele>
        <time>2020-09-01T15:29:30.466Z</time>
      </trkpt>
      <trkpt lat="46.073647" lon="10.976756">
        <ele>764.208537</ele>
        <time>2020-09-01T15:29:31.462Z</time>
      </trkpt>
      <trkpt lat="46.073733" lon="10.976837">
        <ele>763.710407</ele>
        <time>2020-09-01T15:29:32.471Z</time>
      </trkpt>
      <trkpt lat="46.073824" lon="10.976845">
        <ele>763.268338</ele>
        <time>2020-09-01T15:29:33.468Z</time>
      </trkpt>
      <trkpt lat="46.073917" lon="10.976878">
        <ele>762.803929</ele>
        <time>2020-09-01T15:29:34.466Z</time>
      </trkpt>
      <trkpt lat="46.074018" lon="10.976922">
        <ele>762.292314</ele>
        <time>2020-09-01T15:29:35.473Z</time>
      </trkpt>
      <trkpt lat="46.074122" lon="10.976973">
        <ele>761.759647</ele>
        <time>2020-09-01T15:29:36.472Z</time>
      </trkpt>
      <trkpt lat="46.074218" lon="10.976999">
        <ele>761.286009</ele>
        <time>2020-09-01T15:29:37.461Z</time>
      </trkpt>
      <trkpt lat="46.074309" lon="10.977060">
        <ele>760.799383</ele>
        <time>2020-09-01T15:29:38.466Z</time>
      </trkpt>
      <trkpt lat="46.074411" lon="10.977092">
        <ele>760.293218</ele>
        <time>2020-09-01T15:29:39.499Z</time>
      </trkpt>
      <trkpt lat="46.074522" lon="10.977130">
        <ele>759.740021</ele>
        <time>2020-09-01T15:29:40.461Z</time>
      </trkpt>
      <trkpt lat="46.074638" lon="10.977179">
        <ele>759.153585</ele>
        <time>2020-09-01T15:29:41.461Z</time>
      </trkpt>
      <trkpt lat="46.074740" lon="10.977227">
        <ele>758.325309</ele>
        <time>2020-09-01T15:29:42.469Z</time>
      </trkpt>
      <trkpt lat="46.074834" lon="10.977282">
        <ele>757.542186</ele>
        <time>2020-09-01T15:29:43.461Z</time>
      </trkpt>
      <trkpt lat="46.074930" lon="10.977341">
        <ele>756.736579</ele>
        <time>2020-09-01T15:29:44.461Z</time>
      </trkpt>
      <trkpt lat="46.075019" lon="10.977426">
        <ele>755.912443</ele>
        <time>2020-09-01T15:29:45.462Z</time>
      </trkpt>
      <trkpt lat="46.075103" lon="10.977510">
        <ele>755.123262</ele>
        <time>2020-09-01T15:29:46.460Z</time>
      </trkpt>
      <trkpt lat="46.075201" lon="10.977608">
        <ele>754.202550</ele>
        <time>2020-09-01T15:29:47.461Z</time>
      </trkpt>
      <trkpt lat="46.075272" lon="10.977698">
        <ele>753.472706</ele>
        <time>2020-09-01T15:29:48.465Z</time>
      </trkpt>
      <trkpt lat="46.075360" lon="10.977788">
        <ele>752.639794</ele>
        <time>2020-09-01T15:29:49.459Z</time>
      </trkpt>
      <trkpt lat="46.075439" lon="10.977865">
        <ele>751.903641</ele>
        <time>2020-09-01T15:29:50.509Z</time>
      </trkpt>
      <trkpt lat="46.075541" lon="10.977907">
        <ele>751.084767</ele>
        <time>2020-09-01T15:29:51.462Z</time>
      </trkpt>
      <trkpt lat="46.075633" lon="10.977940">
        <ele>750.352924</ele>
        <time>2020-09-01T15:29:52.465Z</time>
      </trkpt>
      <trkpt lat="46.075722" lon="10.977970">
        <ele>749.647363</ele>
        <time>2020-09-01T15:29:53.463Z</time>
      </trkpt>
      <trkpt lat="46.075826" lon="10.977984">
        <ele>748.841050</ele>
        <time>2020-09-01T15:29:54.474Z</time>
      </trkpt>
      <trkpt lat="46.075938" lon="10.978003">
        <ele>747.970508</ele>
        <time>2020-09-01T15:29:55.461Z</time>
      </trkpt>
      <trkpt lat="46.076049" lon="10.978022">
        <ele>747.107632</ele>
        <time>2020-09-01T15:29:56.471Z</time>
      </trkpt>
      <trkpt lat="46.076148" lon="10.978049">
        <ele>746.329852</ele>
        <time>2020-09-01T15:29:57.464Z</time>
      </trkpt>
      <trkpt lat="46.076251" lon="10.978082">
        <ele>745.515351</ele>
        <time>2020-09-01T15:29:58.477Z</time>
      </trkpt>
      <trkpt lat="46.076345" lon="10.978133">
        <ele>744.634856</ele>
        <time>2020-09-01T15:29:59.468Z</time>
      </trkpt>
      <trkpt lat="46.076458" lon="10.978171">
        <ele>743.561356</ele>
        <time>2020-09-01T15:30:00.474Z</time>
      </trkpt>
      <trkpt lat="46.076560" lon="10.978216">
        <ele>742.574488</ele>
        <time>2020-09-01T15:30:01.493Z</time>
      </trkpt>
      <trkpt lat="46.076676" lon="10.978274">
        <ele>741.438581</ele>
        <time>2020-09-01T15:30:02.464Z</time>
      </trkpt>
      <trkpt lat="46.076765" lon="10.978337">
        <ele>740.521275</ele>
        <time>2020-09-01T15:30:03.467Z</time>
      </trkpt>
      <trkpt lat="46.076841" lon="10.978423">
        <ele>739.627403</ele>
        <time>2020-09-01T15:30:04.469Z</time>
      </trkpt>
      <trkpt lat="46.076989" lon="10.978494">
        <ele>738.184338</ele>
        <time>2020-09-01T15:30:06.464Z</time>
      </trkpt>
      <trkpt lat="46.077057" lon="10.978724">
        <ele>736.579782</ele>
        <time>2020-09-01T15:30:08.459Z</time>
      </trkpt>
      <trkpt lat="46.077111" lon="10.978847">
        <ele>735.645591</ele>
        <time>2020-09-01T15:30:09.461Z</time>
      </trkpt>
      <trkpt lat="46.077124" lon="10.979080">
        <ele>734.145429</ele>
        <time>2020-09-01T15:30:10.464Z</time>
      </trkpt>
      <trkpt lat="46.077193" lon="10.979234">
        <ele>732.968864</ele>
        <time>2020-09-01T15:30:11.459Z</time>
      </trkpt>
      <trkpt lat="46.077265" lon="10.979356">
        <ele>731.940885</ele>
        <time>2020-09-01T15:30:12.506Z</time>
      </trkpt>
      <trkpt lat="46.077345" lon="10.979499">
        <ele>730.761892</ele>
        <time>2020-09-01T15:30:13.463Z</time>
      </trkpt>
      <trkpt lat="46.077517" lon="10.979626">
        <ele>728.974026</ele>
        <time>2020-09-01T15:30:15.468Z</time>
      </trkpt>
      <trkpt lat="46.077663" lon="10.979764">
        <ele>727.660683</ele>
        <time>2020-09-01T15:30:17.471Z</time>
      </trkpt>
      <trkpt lat="46.077759" lon="10.979828">
        <ele>726.914587</ele>
        <time>2020-09-01T15:30:18.491Z</time>
      </trkpt>
      <trkpt lat="46.077845" lon="10.979902">
        <ele>726.208089</ele>
        <time>2020-09-01T15:30:19.473Z</time>
      </trkpt>
      <trkpt lat="46.077946" lon="10.979967">
        <ele>725.427859</ele>
        <time>2020-09-01T15:30:20.480Z</time>
      </trkpt>
      <trkpt lat="46.078046" lon="10.980058">
        <ele>724.593668</ele>
        <time>2020-09-01T15:30:21.471Z</time>
      </trkpt>
      <trkpt lat="46.078144" lon="10.980163">
        <ele>723.732349</ele>
        <time>2020-09-01T15:30:22.465Z</time>
      </trkpt>
      <trkpt lat="46.078251" lon="10.980249">
        <ele>722.868182</ele>
        <time>2020-09-01T15:30:23.508Z</time>
      </trkpt>
      <trkpt lat="46.078280" lon="10.980395">
        <ele>722.125061</ele>
        <time>2020-09-01T15:30:24.459Z</time>
      </trkpt>
      <trkpt lat="46.078362" lon="10.980528">
        <ele>721.254360</ele>
        <time>2020-09-01T15:30:25.460Z</time>
      </trkpt>
      <trkpt lat="46.078458" lon="10.980599">
        <ele>720.493254</ele>
        <time>2020-09-01T15:30:26.455Z</time>
      </trkpt>
      <trkpt lat="46.078528" lon="10.980716">
        <ele>719.737223</ele>
        <time>2020-09-01T15:30:27.461Z</time>
      </trkpt>
      <trkpt lat="46.078614" lon="10.980770">
        <ele>719.075528</ele>
        <time>2020-09-01T15:30:28.467Z</time>
      </trkpt>
      <trkpt lat="46.078711" lon="10.980844">
        <ele>718.301383</ele>
        <time>2020-09-01T15:30:29.465Z</time>
      </trkpt>
      <trkpt lat="46.078808" lon="10.980905">
        <ele>717.554871</ele>
        <time>2020-09-01T15:30:30.462Z</time>
      </trkpt>
      <trkpt lat="46.078909" lon="10.980990">
        <ele>716.729895</ele>
        <time>2020-09-01T15:30:31.460Z</time>
      </trkpt>
      <trkpt lat="46.079008" lon="10.981067">
        <ele>715.936076</ele>
        <time>2020-09-01T15:30:32.463Z</time>
      </trkpt>
      <trkpt lat="46.079106" lon="10.981155">
        <ele>715.075304</ele>
        <time>2020-09-01T15:30:33.460Z</time>
      </trkpt>
      <trkpt lat="46.079188" lon="10.981228">
        <ele>714.356791</ele>
        <time>2020-09-01T15:30:34.499Z</time>
      </trkpt>
      <trkpt lat="46.079308" lon="10.981317">
        <ele>713.350692</ele>
        <time>2020-09-01T15:30:35.464Z</time>
      </trkpt>
      <trkpt lat="46.079444" lon="10.981383">
        <ele>712.280853</ele>
        <time>2020-09-01T15:30:36.465Z</time>
      </trkpt>
      <trkpt lat="46.079543" lon="10.981437">
        <ele>711.491706</ele>
        <time>2020-09-01T15:30:37.461Z</time>
      </trkpt>
      <trkpt lat="46.079675" lon="10.981510">
        <ele>710.437669</ele>
        <time>2020-09-01T15:30:38.455Z</time>
      </trkpt>
      <trkpt lat="46.079787" lon="10.981608">
        <ele>709.460899</ele>
        <time>2020-09-01T15:30:39.462Z</time>
      </trkpt>
      <trkpt lat="46.079920" lon="10.981688">
        <ele>708.386485</ele>
        <time>2020-09-01T15:30:40.463Z</time>
      </trkpt>
      <trkpt lat="46.080039" lon="10.981795">
        <ele>707.340876</ele>
        <time>2020-09-01T15:30:41.462Z</time>
      </trkpt>
      <trkpt lat="46.080161" lon="10.981853">
        <ele>706.383140</ele>
        <time>2020-09-01T15:30:42.462Z</time>
      </trkpt>
      <trkpt lat="46.080268" lon="10.981925">
        <ele>705.502795</ele>
        <time>2020-09-01T15:30:43.463Z</time>
      </trkpt>
      <trkpt lat="46.080361" lon="10.982015">
        <ele>704.667716</ele>
        <time>2020-09-01T15:30:44.480Z</time>
      </trkpt>
      <trkpt lat="46.080478" lon="10.982055">
        <ele>703.771244</ele>
        <time>2020-09-01T15:30:45.499Z</time>
      </trkpt>
      <trkpt lat="46.080603" lon="10.982105">
        <ele>702.804115</ele>
        <time>2020-09-01T15:30:46.473Z</time>
      </trkpt>
      <trkpt lat="46.080727" lon="10.982162">
        <ele>701.742948</ele>
        <time>2020-09-01T15:30:47.459Z</time>
      </trkpt>
      <trkpt lat="46.080842" lon="10.982137">
        <ele>700.763125</ele>
        <time>2020-09-01T15:30:48.463Z</time>
      </trkpt>
      <trkpt lat="46.080948" lon="10.982169">
        <ele>699.850710</ele>
        <time>2020-09-01T15:30:49.462Z</time>
      </trkpt>
      <trkpt lat="46.081048" lon="10.982177">
        <ele>699.006918</ele>
        <time>2020-09-01T15:30:50.462Z</time>
      </trkpt>
      <trkpt lat="46.081142" lon="10.982187">
        <ele>698.212818</ele>
        <time>2020-09-01T15:30:51.467Z</time>
      </trkpt>
      <trkpt lat="46.081282" lon="10.982208">
        <ele>697.026957</ele>
        <time>2020-09-01T15:30:52.456Z</time>
      </trkpt>
      <trkpt lat="46.081393" lon="10.982211">
        <ele>696.091623</ele>
        <time>2020-09-01T15:30:53.461Z</time>
      </trkpt>
      <trkpt lat="46.081547" lon="10.982233">
        <ele>694.787825</ele>
        <time>2020-09-01T15:30:54.466Z</time>
      </trkpt>
      <trkpt lat="46.081702" lon="10.982260">
        <ele>693.472459</ele>
        <time>2020-09-01T15:30:55.471Z</time>
      </trkpt>
      <trkpt lat="46.081839" lon="10.982294">
        <ele>692.301263</ele>
        <time>2020-09-01T15:30:56.501Z</time>
      </trkpt>
      <trkpt lat="46.081924" lon="10.982359">
        <ele>691.490637</ele>
        <time>2020-09-01T15:30:57.465Z</time>
      </trkpt>
      <trkpt lat="46.082039" lon="10.982405">
        <ele>690.485167</ele>
        <time>2020-09-01T15:30:58.466Z</time>
      </trkpt>
      <trkpt lat="46.082147" lon="10.982468">
        <ele>689.503612</ele>
        <time>2020-09-01T15:30:59.462Z</time>
      </trkpt>
      <trkpt lat="46.082260" lon="10.982552">
        <ele>688.432490</ele>
        <time>2020-09-01T15:31:00.461Z</time>
      </trkpt>
      <trkpt lat="46.082370" lon="10.982504">
        <ele>687.464225</ele>
        <time>2020-09-01T15:31:02.485Z</time>
      </trkpt>
      <trkpt lat="46.082427" lon="10.982629">
        <ele>686.606083</ele>
        <time>2020-09-01T15:31:03.460Z</time>
      </trkpt>
      <trkpt lat="46.082513" lon="10.982734">
        <ele>685.675938</ele>
        <time>2020-09-01T15:31:05.459Z</time>
      </trkpt>
      <trkpt lat="46.082655" lon="10.982768">
        <ele>684.487871</ele>
        <time>2020-09-01T15:31:07.509Z</time>
      </trkpt>
      <trkpt lat="46.082802" lon="10.982738">
        <ele>683.262493</ele>
        <time>2020-09-01T15:31:08.483Z</time>
      </trkpt>
      <trkpt lat="46.082905" lon="10.982740">
        <ele>682.412293</ele>
        <time>2020-09-01T15:31:09.483Z</time>
      </trkpt>
      <trkpt lat="46.083000" lon="10.982733">
        <ele>681.627176</ele>
        <time>2020-09-01T15:31:10.461Z</time>
      </trkpt>
      <trkpt lat="46.083090" lon="10.982810">
        <ele>680.763402</ele>
        <time>2020-09-01T15:31:11.465Z</time>
      </trkpt>
      <trkpt lat="46.083211" lon="10.982848">
        <ele>679.741295</ele>
        <time>2020-09-01T15:31:13.460Z</time>
      </trkpt>
      <trkpt lat="46.083317" lon="10.982905">
        <ele>678.807538</ele>
        <time>2020-09-01T15:31:15.461Z</time>
      </trkpt>
      <trkpt lat="46.083377" lon="10.983015">
        <ele>678.006415</ele>
        <time>2020-09-01T15:31:17.467Z</time>
      </trkpt>
      <trkpt lat="46.083435" lon="10.983128">
        <ele>677.201651</ele>
        <time>2020-09-01T15:31:19.474Z</time>
      </trkpt>
      <trkpt lat="46.083518" lon="10.983223">
        <ele>676.326967</ele>
        <time>2020-09-01T15:31:27.465Z</time>
      </trkpt>
      <trkpt lat="46.083622" lon="10.983283">
        <ele>675.402417</ele>
        <time>2020-09-01T15:31:31.461Z</time>
      </trkpt>
      <trkpt lat="46.083705" lon="10.983345">
        <ele>674.630877</ele>
        <time>2020-09-01T15:31:33.459Z</time>
      </trkpt>
      <trkpt lat="46.083785" lon="10.983405">
        <ele>673.886589</ele>
        <time>2020-09-01T15:31:35.461Z</time>
      </trkpt>
      <trkpt lat="46.083869" lon="10.983459">
        <ele>673.127487</ele>
        <time>2020-09-01T15:31:37.462Z</time>
      </trkpt>
      <trkpt lat="46.083968" lon="10.983530">
        <ele>672.436299</ele>
        <time>2020-09-01T15:31:39.464Z</time>
      </trkpt>
      <trkpt lat="46.084074" lon="10.983650">
        <ele>672.096950</ele>
        <time>2020-09-01T15:31:41.458Z</time>
      </trkpt>
      <trkpt lat="46.084157" lon="10.983804">
        <ele>671.756344</ele>
        <time>2020-09-01T15:31:43.466Z</time>
      </trkpt>
      <trkpt lat="46.084229" lon="10.983969">
        <ele>671.415896</ele>
        <time>2020-09-01T15:31:45.467Z</time>
      </trkpt>
      <trkpt lat="46.084287" lon="10.984194">
        <ele>670.996686</ele>
        <time>2020-09-01T15:31:47.462Z</time>
      </trkpt>
      <trkpt lat="46.084313" lon="10.984338">
        <ele>670.736817</ele>
        <time>2020-09-01T15:31:48.459Z</time>
      </trkpt>
      <trkpt lat="46.084346" lon="10.984474">
        <ele>670.485186</ele>
        <time>2020-09-01T15:31:49.461Z</time>
      </trkpt>
      <trkpt lat="46.084384" lon="10.984644">
        <ele>670.173254</ele>
        <time>2020-09-01T15:31:50.463Z</time>
      </trkpt>
      <trkpt lat="46.084424" lon="10.984828">
        <ele>669.836495</ele>
        <time>2020-09-01T15:31:51.517Z</time>
      </trkpt>
      <trkpt lat="46.084463" lon="10.984967">
        <ele>669.574631</ele>
        <time>2020-09-01T15:31:52.472Z</time>
      </trkpt>
      <trkpt lat="46.084482" lon="10.985148">
        <ele>669.254926</ele>
        <time>2020-09-01T15:31:53.464Z</time>
      </trkpt>
      <trkpt lat="46.084513" lon="10.985335">
        <ele>668.919144</ele>
        <time>2020-09-01T15:31:54.461Z</time>
      </trkpt>
      <trkpt lat="46.084529" lon="10.985519">
        <ele>668.595284</ele>
        <time>2020-09-01T15:31:55.463Z</time>
      </trkpt>
      <trkpt lat="46.084549" lon="10.985666">
        <ele>668.333666</ele>
        <time>2020-09-01T15:31:56.463Z</time>
      </trkpt>
      <trkpt lat="46.084556" lon="10.985842">
        <ele>668.025789</ele>
        <time>2020-09-01T15:31:57.458Z</time>
      </trkpt>
      <trkpt lat="46.084554" lon="10.985978">
        <ele>667.493117</ele>
        <time>2020-09-01T15:31:58.460Z</time>
      </trkpt>
      <trkpt lat="46.084515" lon="10.986167">
        <ele>666.679140</ele>
        <time>2020-09-01T15:31:59.463Z</time>
      </trkpt>
      <trkpt lat="46.084461" lon="10.986375">
        <ele>665.762351</ele>
        <time>2020-09-01T15:32:00.465Z</time>
      </trkpt>
      <trkpt lat="46.084420" lon="10.986578">
        <ele>664.889572</ele>
        <time>2020-09-01T15:32:01.460Z</time>
      </trkpt>
      <trkpt lat="46.084370" lon="10.986730">
        <ele>664.195134</ele>
        <time>2020-09-01T15:32:02.518Z</time>
      </trkpt>
      <trkpt lat="46.084284" lon="10.986918">
        <ele>663.265492</ele>
        <time>2020-09-01T15:32:04.460Z</time>
      </trkpt>
      <trkpt lat="46.084200" lon="10.987039">
        <ele>662.558802</ele>
        <time>2020-09-01T15:32:06.475Z</time>
      </trkpt>
      <trkpt lat="46.084100" lon="10.987158">
        <ele>661.787109</ele>
        <time>2020-09-01T15:32:08.498Z</time>
      </trkpt>
      <trkpt lat="46.084049" lon="10.987279">
        <ele>661.202631</ele>
        <time>2020-09-01T15:32:09.464Z</time>
      </trkpt>
      <trkpt lat="46.083965" lon="10.987476">
        <ele>660.248040</ele>
        <time>2020-09-01T15:32:11.458Z</time>
      </trkpt>
      <trkpt lat="46.084022" lon="10.987675">
        <ele>659.359281</ele>
        <time>2020-09-01T15:32:13.507Z</time>
      </trkpt>
      <trkpt lat="46.084058" lon="10.987813">
        <ele>658.750661</ele>
        <time>2020-09-01T15:32:14.467Z</time>
      </trkpt>
      <trkpt lat="46.084104" lon="10.987939">
        <ele>658.162885</ele>
        <time>2020-09-01T15:32:15.461Z</time>
      </trkpt>
      <trkpt lat="46.084166" lon="10.988073">
        <ele>657.497956</ele>
        <time>2020-09-01T15:32:16.485Z</time>
      </trkpt>
      <trkpt lat="46.084204" lon="10.988218">
        <ele>656.869808</ele>
        <time>2020-09-01T15:32:17.463Z</time>
      </trkpt>
      <trkpt lat="46.084262" lon="10.988360">
        <ele>656.207572</ele>
        <time>2020-09-01T15:32:18.463Z</time>
      </trkpt>
      <trkpt lat="46.084298" lon="10.988543">
        <ele>655.443163</ele>
        <time>2020-09-01T15:32:19.461Z</time>
      </trkpt>
      <trkpt lat="46.084357" lon="10.988713">
        <ele>654.679252</ele>
        <time>2020-09-01T15:32:20.464Z</time>
      </trkpt>
      <trkpt lat="46.084331" lon="10.988903">
        <ele>653.901001</ele>
        <time>2020-09-01T15:32:21.464Z</time>
      </trkpt>
      <trkpt lat="46.084290" lon="10.989062">
        <ele>653.219317</ele>
        <time>2020-09-01T15:32:22.462Z</time>
      </trkpt>
      <trkpt lat="46.084229" lon="10.989209">
        <ele>652.530931</ele>
        <time>2020-09-01T15:32:23.461Z</time>
      </trkpt>
      <trkpt lat="46.084171" lon="10.989352">
        <ele>651.865230</ele>
        <time>2020-09-01T15:32:24.499Z</time>
      </trkpt>
      <trkpt lat="46.084067" lon="10.989494">
        <ele>651.035345</ele>
        <time>2020-09-01T15:32:25.485Z</time>
      </trkpt>
      <trkpt lat="46.083887" lon="10.989670">
        <ele>649.775243</ele>
        <time>2020-09-01T15:32:27.470Z</time>
      </trkpt>
      <trkpt lat="46.083787" lon="10.989779">
        <ele>649.048913</ele>
        <time>2020-09-01T15:32:28.465Z</time>
      </trkpt>
      <trkpt lat="46.083648" lon="10.989880">
        <ele>648.147073</ele>
        <time>2020-09-01T15:32:29.469Z</time>
      </trkpt>
      <trkpt lat="46.083557" lon="10.989877">
        <ele>647.619697</ele>
        <time>2020-09-01T15:32:30.462Z</time>
      </trkpt>
      <trkpt lat="46.083449" lon="10.989844">
        <ele>646.980065</ele>
        <time>2020-09-01T15:32:31.467Z</time>
      </trkpt>
      <trkpt lat="46.083343" lon="10.989939">
        <ele>645.331784</ele>
        <time>2020-09-01T15:32:32.470Z</time>
      </trkpt>
      <trkpt lat="46.083212" lon="10.990015">
        <ele>643.296828</ele>
        <time>2020-09-01T15:32:34.466Z</time>
      </trkpt>
      <trkpt lat="46.083202" lon="10.990221">
        <ele>641.232684</ele>
        <time>2020-09-01T15:32:36.482Z</time>
      </trkpt>
      <trkpt lat="46.083213" lon="10.990452">
        <ele>638.918250</ele>
        <time>2020-09-01T15:32:38.477Z</time>
      </trkpt>
      <trkpt lat="46.083277" lon="10.990565">
        <ele>637.460019</ele>
        <time>2020-09-01T15:32:39.473Z</time>
      </trkpt>
      <trkpt lat="46.083357" lon="10.990700">
        <ele>635.685182</ele>
        <time>2020-09-01T15:32:41.472Z</time>
      </trkpt>
      <trkpt lat="46.083506" lon="10.990593">
        <ele>633.286319</ele>
        <time>2020-09-01T15:32:43.470Z</time>
      </trkpt>
      <trkpt lat="46.083663" lon="10.990592">
        <ele>631.023769</ele>
        <time>2020-09-01T15:32:44.471Z</time>
      </trkpt>
      <trkpt lat="46.083799" lon="10.990588">
        <ele>629.063463</ele>
        <time>2020-09-01T15:32:45.480Z</time>
      </trkpt>
      <trkpt lat="46.083904" lon="10.990569">
        <ele>627.538435</ele>
        <time>2020-09-01T15:32:46.510Z</time>
      </trkpt>
      <trkpt lat="46.084016" lon="10.990525">
        <ele>625.865554</ele>
        <time>2020-09-01T15:32:47.473Z</time>
      </trkpt>
      <trkpt lat="46.084125" lon="10.990553">
        <ele>624.270016</ele>
        <time>2020-09-01T15:32:48.473Z</time>
      </trkpt>
      <trkpt lat="46.084260" lon="10.990588">
        <ele>622.293325</ele>
        <time>2020-09-01T15:32:50.468Z</time>
      </trkpt>
      <trkpt lat="46.084364" lon="10.990652">
        <ele>620.717538</ele>
        <time>2020-09-01T15:32:52.473Z</time>
      </trkpt>
      <trkpt lat="46.084464" lon="10.990687">
        <ele>619.504965</ele>
        <time>2020-09-01T15:32:55.461Z</time>
      </trkpt>
      <trkpt lat="46.084553" lon="10.990720">
        <ele>618.422108</ele>
        <time>2020-09-01T15:33:09.460Z</time>
      </trkpt>
      <trkpt lat="46.084878" lon="10.991312">
        <ele>612.251525</ele>
        <time>2020-09-01T15:33:44.465Z</time>
      </trkpt>
      <trkpt lat="46.084863" lon="10.991450">
        <ele>611.109894</ele>
        <time>2020-09-01T15:33:48.463Z</time>
      </trkpt>
      <trkpt lat="46.084791" lon="10.991577">
        <ele>609.769309</ele>
        <time>2020-09-01T15:33:51.464Z</time>
      </trkpt>
      <trkpt lat="46.084697" lon="10.991655">
        <ele>608.491311</ele>
        <time>2020-09-01T15:33:54.476Z</time>
      </trkpt>
      <trkpt lat="46.084609" lon="10.991691">
        <ele>607.413430</ele>
        <time>2020-09-01T15:33:58.461Z</time>
      </trkpt>
      <trkpt lat="46.084524" lon="10.991770">
        <ele>606.221760</ele>
        <time>2020-09-01T15:34:01.461Z</time>
      </trkpt>
      <trkpt lat="46.084419" lon="10.991889">
        <ele>604.647990</ele>
        <time>2020-09-01T15:34:03.507Z</time>
      </trkpt>
      <trkpt lat="46.084351" lon="10.992051">
        <ele>603.100381</ele>
        <time>2020-09-01T15:34:06.461Z</time>
      </trkpt>
      <trkpt lat="46.084279" lon="10.992274">
        <ele>601.090006</ele>
        <time>2020-09-01T15:34:08.462Z</time>
      </trkpt>
      <trkpt lat="46.084274" lon="10.992415">
        <ele>599.936105</ele>
        <time>2020-09-01T15:34:10.461Z</time>
      </trkpt>
      <trkpt lat="46.084209" lon="10.992567">
        <ele>598.888168</ele>
        <time>2020-09-01T15:34:14.514Z</time>
      </trkpt>
      <trkpt lat="46.084143" lon="10.992655">
        <ele>598.167370</ele>
        <time>2020-09-01T15:34:17.475Z</time>
      </trkpt>
      <trkpt lat="46.084035" lon="10.992730">
        <ele>597.206205</ele>
        <time>2020-09-01T15:34:22.483Z</time>
      </trkpt>
      <trkpt lat="46.083941" lon="10.992792">
        <ele>596.377383</ele>
        <time>2020-09-01T15:34:24.482Z</time>
      </trkpt>
      <trkpt lat="46.083853" lon="10.992881">
        <ele>595.515502</ele>
        <time>2020-09-01T15:34:28.481Z</time>
      </trkpt>
      <trkpt lat="46.083802" lon="10.993012">
        <ele>594.680049</ele>
        <time>2020-09-01T15:34:32.481Z</time>
      </trkpt>
      <trkpt lat="46.083741" lon="10.993129">
        <ele>593.866046</ele>
        <time>2020-09-01T15:34:35.489Z</time>
      </trkpt>
      <trkpt lat="46.083693" lon="10.993296">
        <ele>592.860713</ele>
        <time>2020-09-01T15:34:38.501Z</time>
      </trkpt>
      <trkpt lat="46.083731" lon="10.993465">
        <ele>591.872690</ele>
        <time>2020-09-01T15:34:41.478Z</time>
      </trkpt>
      <trkpt lat="46.083785" lon="10.993609">
        <ele>590.962303</ele>
        <time>2020-09-01T15:34:44.482Z</time>
      </trkpt>
      <trkpt lat="46.083835" lon="10.993761">
        <ele>590.026730</ele>
        <time>2020-09-01T15:34:47.515Z</time>
      </trkpt>
      <trkpt lat="46.083916" lon="10.993878">
        <ele>589.107393</ele>
        <time>2020-09-01T15:34:50.489Z</time>
      </trkpt>
      <trkpt lat="46.084012" lon="10.993946">
        <ele>588.249780</ele>
        <time>2020-09-01T15:34:53.486Z</time>
      </trkpt>
      <trkpt lat="46.084088" lon="10.994039">
        <ele>587.450510</ele>
        <time>2020-09-01T15:34:56.487Z</time>
      </trkpt>
      <trkpt lat="46.084151" lon="10.994169">
        <ele>586.568552</ele>
        <time>2020-09-01T15:34:59.481Z</time>
      </trkpt>
      <trkpt lat="46.084180" lon="10.994322">
        <ele>585.686471</ele>
        <time>2020-09-01T15:35:01.488Z</time>
      </trkpt>
      <trkpt lat="46.084177" lon="10.994515">
        <ele>585.246476</ele>
        <time>2020-09-01T15:35:03.485Z</time>
      </trkpt>
      <trkpt lat="46.084165" lon="10.994702">
        <ele>585.108633</ele>
        <time>2020-09-01T15:35:05.490Z</time>
      </trkpt>
      <trkpt lat="46.084165" lon="10.994889">
        <ele>584.971377</ele>
        <time>2020-09-01T15:35:07.495Z</time>
      </trkpt>
      <trkpt lat="46.084189" lon="10.995092">
        <ele>584.820228</ele>
        <time>2020-09-01T15:35:09.517Z</time>
      </trkpt>
      <trkpt lat="46.084226" lon="10.995277">
        <ele>584.678907</ele>
        <time>2020-09-01T15:35:11.491Z</time>
      </trkpt>
      <trkpt lat="46.084298" lon="10.995499">
        <ele>584.499028</ele>
        <time>2020-09-01T15:35:13.502Z</time>
      </trkpt>
      <trkpt lat="46.084337" lon="10.995646">
        <ele>584.383507</ele>
        <time>2020-09-01T15:35:14.475Z</time>
      </trkpt>
      <trkpt lat="46.084428" lon="10.995724">
        <ele>584.271475</ele>
        <time>2020-09-01T15:35:16.478Z</time>
      </trkpt>
      <trkpt lat="46.084544" lon="10.995800">
        <ele>584.136640</ele>
        <time>2020-09-01T15:35:18.481Z</time>
      </trkpt>
      <trkpt lat="46.084673" lon="10.995880">
        <ele>583.988035</ele>
        <time>2020-09-01T15:35:20.495Z</time>
      </trkpt>
      <trkpt lat="46.084751" lon="10.995982">
        <ele>583.876599</ele>
        <time>2020-09-01T15:35:22.464Z</time>
      </trkpt>
      <trkpt lat="46.084856" lon="10.996078">
        <ele>583.745026</ele>
        <time>2020-09-01T15:35:24.461Z</time>
      </trkpt>
      <trkpt lat="46.084971" lon="10.996175">
        <ele>583.604033</ele>
        <time>2020-09-01T15:35:26.511Z</time>
      </trkpt>
      <trkpt lat="46.085065" lon="10.996241">
        <ele>583.493391</ele>
        <time>2020-09-01T15:35:28.474Z</time>
      </trkpt>
      <trkpt lat="46.085168" lon="10.996315">
        <ele>583.878893</ele>
        <time>2020-09-01T15:35:30.471Z</time>
      </trkpt>
      <trkpt lat="46.085273" lon="10.996460">
        <ele>584.875829</ele>
        <time>2020-09-01T15:35:32.476Z</time>
      </trkpt>
      <trkpt lat="46.085375" lon="10.996604">
        <ele>585.854677</ele>
        <time>2020-09-01T15:35:34.473Z</time>
      </trkpt>
      <trkpt lat="46.085447" lon="10.996760">
        <ele>586.745825</ele>
        <time>2020-09-01T15:35:36.472Z</time>
      </trkpt>
      <trkpt lat="46.085484" lon="10.996936">
        <ele>587.620444</ele>
        <time>2020-09-01T15:35:38.470Z</time>
      </trkpt>
      <trkpt lat="46.085537" lon="10.997074">
        <ele>588.370637</ele>
        <time>2020-09-01T15:35:40.476Z</time>
      </trkpt>
      <trkpt lat="46.085505" lon="10.997521">
        <ele>590.507756</ele>
        <time>2020-09-01T15:35:43.548Z</time>
      </trkpt>
      <trkpt lat="46.085471" lon="10.997721">
        <ele>591.487062</ele>
        <time>2020-09-01T15:35:45.457Z</time>
      </trkpt>
      <trkpt lat="46.085478" lon="10.997566">
        <ele>592.225767</ele>
        <time>2020-09-01T15:35:46.482Z</time>
      </trkpt>
      <trkpt lat="46.085474" lon="10.997721">
        <ele>592.963420</ele>
        <time>2020-09-01T15:35:47.484Z</time>
      </trkpt>
      <trkpt lat="46.085466" lon="10.997895">
        <ele>593.792740</ele>
        <time>2020-09-01T15:35:49.461Z</time>
      </trkpt>
      <trkpt lat="46.085453" lon="10.998061">
        <ele>594.587213</ele>
        <time>2020-09-01T15:35:51.479Z</time>
      </trkpt>
      <trkpt lat="46.085446" lon="10.998203">
        <ele>595.264236</ele>
        <time>2020-09-01T15:35:53.471Z</time>
      </trkpt>
      <trkpt lat="46.085510" lon="10.998333">
        <ele>595.619539</ele>
        <time>2020-09-01T15:35:56.466Z</time>
      </trkpt>
      <trkpt lat="46.085529" lon="10.998464">
        <ele>595.230543</ele>
        <time>2020-09-01T15:35:58.478Z</time>
      </trkpt>
      <trkpt lat="46.085551" lon="10.998623">
        <ele>594.759293</ele>
        <time>2020-09-01T15:36:01.475Z</time>
      </trkpt>
      <trkpt lat="46.085579" lon="10.998747">
        <ele>594.380260</ele>
        <time>2020-09-01T15:36:06.508Z</time>
      </trkpt>
      <trkpt lat="46.085605" lon="10.998900">
        <ele>593.922404</ele>
        <time>2020-09-01T15:36:10.499Z</time>
      </trkpt>
      <trkpt lat="46.085689" lon="10.998982">
        <ele>593.497293</ele>
        <time>2020-09-01T15:36:14.482Z</time>
      </trkpt>
      <trkpt lat="46.085784" lon="10.999056">
        <ele>593.044796</ele>
        <time>2020-09-01T15:36:19.487Z</time>
      </trkpt>
      <trkpt lat="46.085871" lon="10.999110">
        <ele>592.647861</ele>
        <time>2020-09-01T15:36:22.511Z</time>
      </trkpt>
      <trkpt lat="46.085971" lon="10.999152">
        <ele>592.211379</ele>
        <time>2020-09-01T15:36:27.514Z</time>
      </trkpt>
      <trkpt lat="46.086063" lon="10.999201">
        <ele>591.800375</ele>
        <time>2020-09-01T15:36:32.482Z</time>
      </trkpt>
      <trkpt lat="46.086298" lon="10.999414">
        <ele>590.637144</ele>
        <time>2020-09-01T15:36:34.499Z</time>
      </trkpt>
      <trkpt lat="46.086398" lon="10.999491">
        <ele>590.162063</ele>
        <time>2020-09-01T15:36:36.494Z</time>
      </trkpt>
      <trkpt lat="46.086507" lon="10.999600">
        <ele>589.606170</ele>
        <time>2020-09-01T15:36:38.515Z</time>
      </trkpt>
      <trkpt lat="46.086600" lon="10.999725">
        <ele>589.073361</ele>
        <time>2020-09-01T15:36:40.479Z</time>
      </trkpt>
      <trkpt lat="46.086690" lon="10.999860">
        <ele>588.529110</ele>
        <time>2020-09-01T15:36:42.482Z</time>
      </trkpt>
      <trkpt lat="46.086789" lon="11.000021">
        <ele>588.350436</ele>
        <time>2020-09-01T15:36:44.491Z</time>
      </trkpt>
      <trkpt lat="46.086862" lon="11.000192">
        <ele>588.554085</ele>
        <time>2020-09-01T15:36:46.489Z</time>
      </trkpt>
      <trkpt lat="46.086939" lon="11.000366">
        <ele>588.763418</ele>
        <time>2020-09-01T15:36:48.488Z</time>
      </trkpt>
      <trkpt lat="46.087005" lon="11.000519">
        <ele>588.946156</ele>
        <time>2020-09-01T15:36:50.482Z</time>
      </trkpt>
      <trkpt lat="46.087052" lon="11.000665">
        <ele>589.109403</ele>
        <time>2020-09-01T15:36:52.485Z</time>
      </trkpt>
      <trkpt lat="46.087094" lon="11.000820">
        <ele>589.278175</ele>
        <time>2020-09-01T15:36:54.491Z</time>
      </trkpt>
      <trkpt lat="46.087126" lon="11.000984">
        <ele>589.450961</ele>
        <time>2020-09-01T15:36:56.487Z</time>
      </trkpt>
      <trkpt lat="46.087167" lon="11.001127">
        <ele>589.607895</ele>
        <time>2020-09-01T15:36:58.483Z</time>
      </trkpt>
      <trkpt lat="46.087210" lon="11.001280">
        <ele>589.775324</ele>
        <time>2020-09-01T15:37:00.529Z</time>
      </trkpt>
      <trkpt lat="46.087237" lon="11.001434">
        <ele>589.936423</ele>
        <time>2020-09-01T15:37:02.486Z</time>
      </trkpt>
      <trkpt lat="46.087295" lon="11.001567">
        <ele>590.095760</ele>
        <time>2020-09-01T15:37:04.493Z</time>
      </trkpt>
      <trkpt lat="46.087349" lon="11.001701">
        <ele>590.252937</ele>
        <time>2020-09-01T15:37:06.503Z</time>
      </trkpt>
      <trkpt lat="46.087371" lon="11.001892">
        <ele>590.449302</ele>
        <time>2020-09-01T15:37:09.513Z</time>
      </trkpt>
      <trkpt lat="46.087386" lon="11.002040">
        <ele>590.600997</ele>
        <time>2020-09-01T15:37:11.490Z</time>
      </trkpt>
      <trkpt lat="46.087415" lon="11.002175">
        <ele>590.744330</ele>
        <time>2020-09-01T15:37:13.490Z</time>
      </trkpt>
      <trkpt lat="46.087441" lon="11.002309">
        <ele>590.820686</ele>
        <time>2020-09-01T15:37:15.486Z</time>
      </trkpt>
      <trkpt lat="46.087464" lon="11.002435">
        <ele>590.533450</ele>
        <time>2020-09-01T15:37:17.486Z</time>
      </trkpt>
      <trkpt lat="46.087492" lon="11.002559">
        <ele>590.245959</ele>
        <time>2020-09-01T15:37:19.489Z</time>
      </trkpt>
      <trkpt lat="46.087550" lon="11.002665">
        <ele>589.948306</ele>
        <time>2020-09-01T15:37:21.478Z</time>
      </trkpt>
      <trkpt lat="46.087603" lon="11.002789">
        <ele>589.627197</ele>
        <time>2020-09-01T15:37:23.494Z</time>
      </trkpt>
      <trkpt lat="46.087656" lon="11.002896">
        <ele>589.337326</ele>
        <time>2020-09-01T15:37:26.480Z</time>
      </trkpt>
      <trkpt lat="46.087781" lon="11.002997">
        <ele>588.881861</ele>
        <time>2020-09-01T15:37:30.455Z</time>
      </trkpt>
      <trkpt lat="46.087886" lon="11.002992">
        <ele>588.547922</ele>
        <time>2020-09-01T15:37:33.458Z</time>
      </trkpt>
      <trkpt lat="46.088014" lon="11.002944">
        <ele>588.127520</ele>
        <time>2020-09-01T15:37:36.456Z</time>
      </trkpt>
      <trkpt lat="46.088145" lon="11.002917">
        <ele>587.706886</ele>
        <time>2020-09-01T15:37:38.455Z</time>
      </trkpt>
      <trkpt lat="46.088246" lon="11.002859">
        <ele>587.361317</ele>
        <time>2020-09-01T15:37:40.468Z</time>
      </trkpt>
      <trkpt lat="46.088356" lon="11.002818">
        <ele>587.000173</ele>
        <time>2020-09-01T15:37:42.584Z</time>
      </trkpt>
      <trkpt lat="46.088475" lon="11.002824">
        <ele>586.621684</ele>
        <time>2020-09-01T15:37:45.481Z</time>
      </trkpt>
      <trkpt lat="46.088571" lon="11.002927">
        <ele>586.241322</ele>
        <time>2020-09-01T15:37:47.461Z</time>
      </trkpt>
      <trkpt lat="46.088681" lon="11.003082">
        <ele>585.752430</ele>
        <time>2020-09-01T15:37:49.448Z</time>
      </trkpt>
      <trkpt lat="46.088728" lon="11.003266">
        <ele>585.320160</ele>
        <time>2020-09-01T15:37:51.442Z</time>
      </trkpt>
      <trkpt lat="46.088766" lon="11.003435">
        <ele>585.123605</ele>
        <time>2020-09-01T15:37:53.469Z</time>
      </trkpt>
      <trkpt lat="46.088778" lon="11.003611">
        <ele>585.080581</ele>
        <time>2020-09-01T15:37:55.456Z</time>
      </trkpt>
      <trkpt lat="46.088792" lon="11.003761">
        <ele>585.043759</ele>
        <time>2020-09-01T15:37:57.471Z</time>
      </trkpt>
      <trkpt lat="46.088779" lon="11.003910">
        <ele>585.007225</ele>
        <time>2020-09-01T15:37:59.445Z</time>
      </trkpt>
      <trkpt lat="46.088823" lon="11.004064">
        <ele>584.966704</ele>
        <time>2020-09-01T15:38:02.456Z</time>
      </trkpt>
      <trkpt lat="46.088852" lon="11.004193">
        <ele>584.933714</ele>
        <time>2020-09-01T15:38:06.585Z</time>
      </trkpt>
      <trkpt lat="46.088887" lon="11.004348">
        <ele>584.894057</ele>
        <time>2020-09-01T15:38:09.454Z</time>
      </trkpt>
      <trkpt lat="46.088899" lon="11.004490">
        <ele>584.859255</ele>
        <time>2020-09-01T15:38:13.537Z</time>
      </trkpt>
      <trkpt lat="46.088918" lon="11.004637">
        <ele>584.822877</ele>
        <time>2020-09-01T15:38:19.476Z</time>
      </trkpt>
      <trkpt lat="46.088984" lon="11.004768">
        <ele>584.783485</ele>
        <time>2020-09-01T15:38:23.478Z</time>
      </trkpt>
      <trkpt lat="46.089090" lon="11.004866">
        <ele>584.739315</ele>
        <time>2020-09-01T15:38:26.464Z</time>
      </trkpt>
      <trkpt lat="46.089198" lon="11.004921">
        <ele>584.699137</ele>
        <time>2020-09-01T15:38:28.477Z</time>
      </trkpt>
      <trkpt lat="46.089294" lon="11.004978">
        <ele>584.662719</ele>
        <time>2020-09-01T15:38:30.470Z</time>
      </trkpt>
      <trkpt lat="46.089387" lon="11.005101">
        <ele>584.618451</ele>
        <time>2020-09-01T15:38:34.482Z</time>
      </trkpt>
      <trkpt lat="46.089467" lon="11.005240">
        <ele>584.574508</ele>
        <time>2020-09-01T15:38:37.479Z</time>
      </trkpt>
      <trkpt lat="46.089530" lon="11.005401">
        <ele>584.529535</ele>
        <time>2020-09-01T15:38:39.486Z</time>
      </trkpt>
      <trkpt lat="46.089589" lon="11.005603">
        <ele>584.455654</ele>
        <time>2020-09-01T15:38:41.514Z</time>
      </trkpt>
      <trkpt lat="46.089623" lon="11.005781">
        <ele>584.388028</ele>
        <time>2020-09-01T15:38:43.471Z</time>
      </trkpt>
      <trkpt lat="46.089643" lon="11.005931">
        <ele>584.332079</ele>
        <time>2020-09-01T15:38:45.499Z</time>
      </trkpt>
      <trkpt lat="46.089572" lon="11.006357">
        <ele>584.171600</ele>
        <time>2020-09-01T15:38:48.491Z</time>
      </trkpt>
      <trkpt lat="46.089545" lon="11.006490">
        <ele>584.120840</ele>
        <time>2020-09-01T15:38:49.463Z</time>
      </trkpt>
      <trkpt lat="46.089475" lon="11.006671">
        <ele>584.044931</ele>
        <time>2020-09-01T15:38:52.515Z</time>
      </trkpt>
      <trkpt lat="46.089440" lon="11.006809">
        <ele>583.991110</ele>
        <time>2020-09-01T15:38:54.475Z</time>
      </trkpt>
      <trkpt lat="46.089379" lon="11.006966">
        <ele>583.925194</ele>
        <time>2020-09-01T15:38:57.475Z</time>
      </trkpt>
      <trkpt lat="46.089350" lon="11.007103">
        <ele>583.872727</ele>
        <time>2020-09-01T15:39:00.468Z</time>
      </trkpt>
      <trkpt lat="46.089320" lon="11.007263">
        <ele>583.812018</ele>
        <time>2020-09-01T15:39:05.491Z</time>
      </trkpt>
      <trkpt lat="46.089284" lon="11.007384">
        <ele>583.763791</ele>
        <time>2020-09-01T15:39:08.493Z</time>
      </trkpt>
      <trkpt lat="46.089232" lon="11.007538">
        <ele>583.701053</ele>
        <time>2020-09-01T15:39:12.497Z</time>
      </trkpt>
      <trkpt lat="46.089191" lon="11.007679">
        <ele>583.645051</ele>
        <time>2020-09-01T15:39:15.503Z</time>
      </trkpt>
      <trkpt lat="46.089086" lon="11.007661">
        <ele>583.589205</ele>
        <time>2020-09-01T15:39:21.481Z</time>
      </trkpt>
      <trkpt lat="46.088983" lon="11.007685">
        <ele>583.765275</ele>
        <time>2020-09-01T15:39:24.500Z</time>
      </trkpt>
      <trkpt lat="46.088881" lon="11.007728">
        <ele>584.104302</ele>
        <time>2020-09-01T15:39:27.497Z</time>
      </trkpt>
      <trkpt lat="46.088772" lon="11.008231">
        <ele>585.270283</ele>
        <time>2020-09-01T15:39:32.483Z</time>
      </trkpt>
      <trkpt lat="46.088681" lon="11.008322">
        <ele>585.623582</ele>
        <time>2020-09-01T15:39:35.491Z</time>
      </trkpt>
      <trkpt lat="46.088631" lon="11.008454">
        <ele>585.956362</ele>
        <time>2020-09-01T15:39:38.471Z</time>
      </trkpt>
      <trkpt lat="46.088631" lon="11.008588">
        <ele>586.252847</ele>
        <time>2020-09-01T15:39:41.521Z</time>
      </trkpt>
      <trkpt lat="46.088638" lon="11.008753">
        <ele>586.618604</ele>
        <time>2020-09-01T15:39:45.482Z</time>
      </trkpt>
      <trkpt lat="46.088654" lon="11.008888">
        <ele>586.921631</ele>
        <time>2020-09-01T15:39:48.484Z</time>
      </trkpt>
      <trkpt lat="46.088700" lon="11.009041">
        <ele>587.290594</ele>
        <time>2020-09-01T15:39:53.493Z</time>
      </trkpt>
      <trkpt lat="46.088762" lon="11.009150">
        <ele>587.602501</ele>
        <time>2020-09-01T15:39:56.490Z</time>
      </trkpt>
      <trkpt lat="46.088820" lon="11.009284">
        <ele>587.951986</ele>
        <time>2020-09-01T15:40:00.516Z</time>
      </trkpt>
      <trkpt lat="46.088814" lon="11.009441">
        <ele>588.299886</ele>
        <time>2020-09-01T15:40:05.481Z</time>
      </trkpt>
      <trkpt lat="46.088878" lon="11.009537">
        <ele>588.594511</ele>
        <time>2020-09-01T15:40:08.480Z</time>
      </trkpt>
      <trkpt lat="46.088935" lon="11.009645">
        <ele>588.894789</ele>
        <time>2020-09-01T15:40:13.487Z</time>
      </trkpt>
      <trkpt lat="46.088997" lon="11.009759">
        <ele>589.215326</ele>
        <time>2020-09-01T15:40:16.487Z</time>
      </trkpt>
      <trkpt lat="46.089065" lon="11.009874">
        <ele>590.079863</ele>
        <time>2020-09-01T15:40:19.518Z</time>
      </trkpt>
      <trkpt lat="46.089044" lon="11.010007">
        <ele>591.035647</ele>
        <time>2020-09-01T15:40:26.493Z</time>
      </trkpt>
      <trkpt lat="46.089394" lon="11.011615">
        <ele>602.844815</ele>
        <time>2020-09-01T15:40:49.532Z</time>
      </trkpt>
      <trkpt lat="46.089476" lon="11.011715">
        <ele>603.929871</ele>
        <time>2020-09-01T15:40:51.487Z</time>
      </trkpt>
      <trkpt lat="46.089573" lon="11.011748">
        <ele>604.936802</ele>
        <time>2020-09-01T15:40:55.482Z</time>
      </trkpt>
      <trkpt lat="46.089584" lon="11.011881">
        <ele>605.875334</ele>
        <time>2020-09-01T15:40:59.501Z</time>
      </trkpt>
      <trkpt lat="46.089624" lon="11.012062">
        <ele>607.206429</ele>
        <time>2020-09-01T15:41:02.484Z</time>
      </trkpt>
      <trkpt lat="46.089658" lon="11.012190">
        <ele>607.583173</ele>
        <time>2020-09-01T15:41:04.495Z</time>
      </trkpt>
      <trkpt lat="46.089715" lon="11.012332">
        <ele>607.759697</ele>
        <time>2020-09-01T15:41:06.483Z</time>
      </trkpt>
      <trkpt lat="46.089780" lon="11.012474">
        <ele>607.942752</ele>
        <time>2020-09-01T15:41:08.533Z</time>
      </trkpt>
      <trkpt lat="46.089859" lon="11.012592">
        <ele>608.119212</ele>
        <time>2020-09-01T15:41:10.481Z</time>
      </trkpt>
      <trkpt lat="46.089923" lon="11.012711">
        <ele>608.281230</ele>
        <time>2020-09-01T15:41:13.489Z</time>
      </trkpt>
      <trkpt lat="46.090002" lon="11.012816">
        <ele>608.447910</ele>
        <time>2020-09-01T15:41:17.493Z</time>
      </trkpt>
      <trkpt lat="46.090105" lon="11.012881">
        <ele>608.622331</ele>
        <time>2020-09-01T15:41:21.493Z</time>
      </trkpt>
      <trkpt lat="46.090177" lon="11.012968">
        <ele>608.768063</ele>
        <time>2020-09-01T15:41:27.486Z</time>
      </trkpt>
      <trkpt lat="46.090252" lon="11.013104">
        <ele>608.955005</ele>
        <time>2020-09-01T15:41:30.477Z</time>
      </trkpt>
      <trkpt lat="46.090365" lon="11.013229">
        <ele>609.175952</ele>
        <time>2020-09-01T15:41:32.494Z</time>
      </trkpt>
      <trkpt lat="46.090428" lon="11.013321">
        <ele>609.315054</ele>
        <time>2020-09-01T15:41:34.504Z</time>
      </trkpt>
      <trkpt lat="46.090506" lon="11.013430">
        <ele>609.483562</ele>
        <time>2020-09-01T15:41:36.490Z</time>
      </trkpt>
      <trkpt lat="46.090618" lon="11.013554">
        <ele>609.702622</ele>
        <time>2020-09-01T15:41:40.473Z</time>
      </trkpt>
      <trkpt lat="46.090682" lon="11.013780">
        <ele>609.965262</ele>
        <time>2020-09-01T15:41:43.487Z</time>
      </trkpt>
      <trkpt lat="46.091017" lon="11.015009">
        <ele>614.061218</ele>
        <time>2020-09-01T15:41:45.472Z</time>
      </trkpt>
      <trkpt lat="46.091076" lon="11.015189">
        <ele>614.787792</ele>
        <time>2020-09-01T15:41:47.479Z</time>
      </trkpt>
      <trkpt lat="46.091108" lon="11.015424">
        <ele>615.661784</ele>
        <time>2020-09-01T15:41:49.477Z</time>
      </trkpt>
      <trkpt lat="46.091193" lon="11.015622">
        <ele>616.511608</ele>
        <time>2020-09-01T15:41:51.470Z</time>
      </trkpt>
      <trkpt lat="46.091267" lon="11.015797">
        <ele>617.259612</ele>
        <time>2020-09-01T15:41:53.477Z</time>
      </trkpt>
      <trkpt lat="46.091367" lon="11.015969">
        <ele>618.078709</ele>
        <time>2020-09-01T15:41:55.469Z</time>
      </trkpt>
      <trkpt lat="46.091483" lon="11.016101">
        <ele>618.856313</ele>
        <time>2020-09-01T15:41:57.477Z</time>
      </trkpt>
      <trkpt lat="46.091600" lon="11.016212">
        <ele>619.593305</ele>
        <time>2020-09-01T15:41:59.480Z</time>
      </trkpt>
      <trkpt lat="46.091688" lon="11.016280">
        <ele>619.985873</ele>
        <time>2020-09-01T15:42:00.473Z</time>
      </trkpt>
      <trkpt lat="46.091792" lon="11.016409">
        <ele>620.459508</ele>
        <time>2020-09-01T15:42:02.480Z</time>
      </trkpt>
      <trkpt lat="46.091914" lon="11.016471">
        <ele>620.906113</ele>
        <time>2020-09-01T15:42:04.477Z</time>
      </trkpt>
      <trkpt lat="46.092020" lon="11.016563">
        <ele>621.333263</ele>
        <time>2020-09-01T15:42:06.477Z</time>
      </trkpt>
      <trkpt lat="46.092119" lon="11.016667">
        <ele>621.756153</ele>
        <time>2020-09-01T15:42:08.484Z</time>
      </trkpt>
      <trkpt lat="46.092235" lon="11.016730">
        <ele>622.184114</ele>
        <time>2020-09-01T15:42:10.481Z</time>
      </trkpt>
      <trkpt lat="46.092329" lon="11.016789">
        <ele>622.538066</ele>
        <time>2020-09-01T15:42:12.471Z</time>
      </trkpt>
      <trkpt lat="46.092458" lon="11.016860">
        <ele>623.014786</ele>
        <time>2020-09-01T15:42:14.499Z</time>
      </trkpt>
      <trkpt lat="46.092601" lon="11.016911">
        <ele>623.523377</ele>
        <time>2020-09-01T15:42:16.486Z</time>
      </trkpt>
      <trkpt lat="46.092713" lon="11.016967">
        <ele>623.932649</ele>
        <time>2020-09-01T15:42:18.464Z</time>
      </trkpt>
      <trkpt lat="46.092805" lon="11.016996">
        <ele>624.257784</ele>
        <time>2020-09-01T15:42:20.474Z</time>
      </trkpt>
      <trkpt lat="46.092895" lon="11.017074">
        <ele>624.620318</ele>
        <time>2020-09-01T15:42:22.464Z</time>
      </trkpt>
      <trkpt lat="46.092994" lon="11.017103">
        <ele>624.969102</ele>
        <time>2020-09-01T15:42:24.464Z</time>
      </trkpt>
      <trkpt lat="46.093130" lon="11.017181">
        <ele>625.474425</ele>
        <time>2020-09-01T15:42:26.458Z</time>
      </trkpt>
      <trkpt lat="46.093222" lon="11.017312">
        <ele>625.920822</ele>
        <time>2020-09-01T15:42:28.469Z</time>
      </trkpt>
      <trkpt lat="46.093267" lon="11.017493">
        <ele>625.543967</ele>
        <time>2020-09-01T15:42:30.468Z</time>
      </trkpt>
      <trkpt lat="46.093381" lon="11.017670">
        <ele>625.018810</ele>
        <time>2020-09-01T15:42:32.470Z</time>
      </trkpt>
      <trkpt lat="46.093499" lon="11.017837">
        <ele>624.500495</ele>
        <time>2020-09-01T15:42:34.481Z</time>
      </trkpt>
      <trkpt lat="46.093645" lon="11.017982">
        <ele>623.944748</ele>
        <time>2020-09-01T15:42:36.507Z</time>
      </trkpt>
      <trkpt lat="46.093747" lon="11.018031">
        <ele>623.607711</ele>
        <time>2020-09-01T15:42:37.472Z</time>
      </trkpt>
      <trkpt lat="46.093906" lon="11.018167">
        <ele>623.028171</ele>
        <time>2020-09-01T15:42:39.483Z</time>
      </trkpt>
      <trkpt lat="46.094050" lon="11.018289">
        <ele>622.504597</ele>
        <time>2020-09-01T15:42:41.467Z</time>
      </trkpt>
      <trkpt lat="46.094148" lon="11.018384">
        <ele>622.134411</ele>
        <time>2020-09-01T15:42:43.461Z</time>
      </trkpt>
      <trkpt lat="46.094327" lon="11.018436">
        <ele>621.561990</ele>
        <time>2020-09-01T15:42:45.480Z</time>
      </trkpt>
      <trkpt lat="46.094435" lon="11.018461">
        <ele>621.219087</ele>
        <time>2020-09-01T15:42:46.483Z</time>
      </trkpt>
      <trkpt lat="46.094536" lon="11.018520">
        <ele>620.877469</ele>
        <time>2020-09-01T15:42:47.509Z</time>
      </trkpt>
      <trkpt lat="46.094625" lon="11.018578">
        <ele>620.571295</ele>
        <time>2020-09-01T15:42:48.469Z</time>
      </trkpt>
      <trkpt lat="46.094717" lon="11.018654">
        <ele>620.203020</ele>
        <time>2020-09-01T15:42:49.481Z</time>
      </trkpt>
      <trkpt lat="46.094802" lon="11.018702">
        <ele>619.758646</ele>
        <time>2020-09-01T15:42:50.469Z</time>
      </trkpt>
      <trkpt lat="46.094889" lon="11.018827">
        <ele>619.160795</ele>
        <time>2020-09-01T15:42:51.472Z</time>
      </trkpt>
      <trkpt lat="46.094959" lon="11.018943">
        <ele>618.641701</ele>
        <time>2020-09-01T15:42:52.473Z</time>
      </trkpt>
      <trkpt lat="46.095011" lon="11.019084">
        <ele>618.102593</ele>
        <time>2020-09-01T15:42:53.470Z</time>
      </trkpt>
      <trkpt lat="46.095040" lon="11.019235">
        <ele>617.573664</ele>
        <time>2020-09-01T15:42:54.462Z</time>
      </trkpt>
      <trkpt lat="46.095076" lon="11.019376">
        <ele>617.066444</ele>
        <time>2020-09-01T15:42:55.467Z</time>
      </trkpt>
      <trkpt lat="46.095118" lon="11.019527">
        <ele>616.517229</ele>
        <time>2020-09-01T15:42:56.468Z</time>
      </trkpt>
      <trkpt lat="46.095195" lon="11.019658">
        <ele>615.937519</ele>
        <time>2020-09-01T15:42:57.471Z</time>
      </trkpt>
      <trkpt lat="46.095261" lon="11.019777">
        <ele>615.423126</ele>
        <time>2020-09-01T15:42:58.509Z</time>
      </trkpt>
      <trkpt lat="46.095358" lon="11.019884">
        <ele>614.828621</ele>
        <time>2020-09-01T15:42:59.474Z</time>
      </trkpt>
      <trkpt lat="46.095432" lon="11.019996">
        <ele>614.306402</ele>
        <time>2020-09-01T15:43:00.474Z</time>
      </trkpt>
      <trkpt lat="46.095553" lon="11.020051">
        <ele>613.688807</ele>
        <time>2020-09-01T15:43:01.466Z</time>
      </trkpt>
      <trkpt lat="46.095636" lon="11.020113">
        <ele>613.233775</ele>
        <time>2020-09-01T15:43:02.478Z</time>
      </trkpt>
      <trkpt lat="46.095808" lon="11.020151">
        <ele>612.386713</ele>
        <time>2020-09-01T15:43:04.467Z</time>
      </trkpt>
      <trkpt lat="46.095948" lon="11.020197">
        <ele>611.687729</ele>
        <time>2020-09-01T15:43:06.466Z</time>
      </trkpt>
      <trkpt lat="46.096100" lon="11.020245">
        <ele>610.194285</ele>
        <time>2020-09-01T15:43:08.465Z</time>
      </trkpt>
      <trkpt lat="46.096296" lon="11.020303">
        <ele>608.059987</ele>
        <time>2020-09-01T15:43:10.472Z</time>
      </trkpt>
      <trkpt lat="46.096397" lon="11.020342">
        <ele>606.944665</ele>
        <time>2020-09-01T15:43:11.466Z</time>
      </trkpt>
      <trkpt lat="46.096466" lon="11.020425">
        <ele>605.986195</ele>
        <time>2020-09-01T15:43:13.467Z</time>
      </trkpt>
      <trkpt lat="46.096555" lon="11.020514">
        <ele>604.830906</ele>
        <time>2020-09-01T15:43:15.466Z</time>
      </trkpt>
      <trkpt lat="46.096672" lon="11.020622">
        <ele>603.349083</ele>
        <time>2020-09-01T15:43:19.482Z</time>
      </trkpt>
      <trkpt lat="46.096820" lon="11.020665">
        <ele>601.738644</ele>
        <time>2020-09-01T15:43:21.471Z</time>
      </trkpt>
      <trkpt lat="46.096941" lon="11.020759">
        <ele>600.272566</ele>
        <time>2020-09-01T15:43:24.472Z</time>
      </trkpt>
      <trkpt lat="46.097009" lon="11.020855">
        <ele>599.257485</ele>
        <time>2020-09-01T15:43:26.481Z</time>
      </trkpt>
      <trkpt lat="46.097079" lon="11.020939">
        <ele>598.286088</ele>
        <time>2020-09-01T15:43:29.489Z</time>
      </trkpt>
      <trkpt lat="46.097217" lon="11.021068">
        <ele>596.531831</ele>
        <time>2020-09-01T15:43:30.498Z</time>
      </trkpt>
      <trkpt lat="46.097272" lon="11.021172">
        <ele>595.564367</ele>
        <time>2020-09-01T15:43:35.491Z</time>
      </trkpt>
      <trkpt lat="46.097349" lon="11.021300">
        <ele>594.310947</ele>
        <time>2020-09-01T15:43:38.490Z</time>
      </trkpt>
      <trkpt lat="46.097435" lon="11.021433">
        <ele>592.965814</ele>
        <time>2020-09-01T15:43:41.493Z</time>
      </trkpt>
      <trkpt lat="46.097524" lon="11.021568">
        <ele>592.477738</ele>
        <time>2020-09-01T15:43:44.482Z</time>
      </trkpt>
      <trkpt lat="46.097603" lon="11.021672">
        <ele>592.648441</ele>
        <time>2020-09-01T15:43:47.466Z</time>
      </trkpt>
      <trkpt lat="46.097665" lon="11.021826">
        <ele>592.845500</ele>
        <time>2020-09-01T15:43:51.453Z</time>
      </trkpt>
      <trkpt lat="46.097755" lon="11.021936">
        <ele>593.033772</ele>
        <time>2020-09-01T15:43:54.460Z</time>
      </trkpt>
      <trkpt lat="46.098011" lon="11.022327">
        <ele>593.628853</ele>
        <time>2020-09-01T15:43:55.450Z</time>
      </trkpt>
      <trkpt lat="46.098144" lon="11.022448">
        <ele>593.879808</ele>
        <time>2020-09-01T15:43:57.451Z</time>
      </trkpt>
      <trkpt lat="46.098237" lon="11.022611">
        <ele>594.113395</ele>
        <time>2020-09-01T15:43:59.481Z</time>
      </trkpt>
      <trkpt lat="46.098367" lon="11.022790">
        <ele>594.400234</ele>
        <time>2020-09-01T15:44:01.450Z</time>
      </trkpt>
      <trkpt lat="46.098448" lon="11.022992">
        <ele>594.658452</ele>
        <time>2020-09-01T15:44:03.474Z</time>
      </trkpt>
      <trkpt lat="46.098490" lon="11.023116">
        <ele>594.811165</ele>
        <time>2020-09-01T15:44:04.474Z</time>
      </trkpt>
      <trkpt lat="46.098579" lon="11.023336">
        <ele>595.093019</ele>
        <time>2020-09-01T15:44:06.462Z</time>
      </trkpt>
      <trkpt lat="46.098595" lon="11.023463">
        <ele>595.231440</ele>
        <time>2020-09-01T15:44:07.475Z</time>
      </trkpt>
      <trkpt lat="46.098633" lon="11.023591">
        <ele>595.193002</ele>
        <time>2020-09-01T15:44:08.464Z</time>
      </trkpt>
      <trkpt lat="46.098660" lon="11.023805">
        <ele>595.132956</ele>
        <time>2020-09-01T15:44:10.473Z</time>
      </trkpt>
      <trkpt lat="46.098648" lon="11.024021">
        <ele>595.073137</ele>
        <time>2020-09-01T15:44:12.472Z</time>
      </trkpt>
      <trkpt lat="46.098657" lon="11.024298">
        <ele>594.996585</ele>
        <time>2020-09-01T15:44:14.462Z</time>
      </trkpt>
      <trkpt lat="46.098644" lon="11.024562">
        <ele>594.923522</ele>
        <time>2020-09-01T15:44:16.464Z</time>
      </trkpt>
      <trkpt lat="46.098634" lon="11.024785">
        <ele>594.861833</ele>
        <time>2020-09-01T15:44:18.471Z</time>
      </trkpt>
      <trkpt lat="46.098645" lon="11.024936">
        <ele>594.819919</ele>
        <time>2020-09-01T15:44:20.504Z</time>
      </trkpt>
      <trkpt lat="46.098667" lon="11.025156">
        <ele>594.758558</ele>
        <time>2020-09-01T15:44:22.462Z</time>
      </trkpt>
      <trkpt lat="46.098661" lon="11.025412">
        <ele>594.687847</ele>
        <time>2020-09-01T15:44:24.467Z</time>
      </trkpt>
      <trkpt lat="46.098699" lon="11.025563">
        <ele>594.643502</ele>
        <time>2020-09-01T15:44:26.468Z</time>
      </trkpt>
      <trkpt lat="46.098750" lon="11.025744">
        <ele>594.589568</ele>
        <time>2020-09-01T15:44:29.467Z</time>
      </trkpt>
      <trkpt lat="46.098796" lon="11.025894">
        <ele>594.544291</ele>
        <time>2020-09-01T15:44:31.513Z</time>
      </trkpt>
      <trkpt lat="46.098822" lon="11.026107">
        <ele>593.900453</ele>
        <time>2020-09-01T15:44:33.476Z</time>
      </trkpt>
      <trkpt lat="46.098895" lon="11.026313">
        <ele>592.658918</ele>
        <time>2020-09-01T15:44:35.473Z</time>
      </trkpt>
      <trkpt lat="46.098945" lon="11.026524">
        <ele>591.462255</ele>
        <time>2020-09-01T15:44:37.488Z</time>
      </trkpt>
      <trkpt lat="46.098969" lon="11.026661">
        <ele>590.703922</ele>
        <time>2020-09-01T15:44:38.463Z</time>
      </trkpt>
      <trkpt lat="46.099059" lon="11.026804">
        <ele>589.667516</ele>
        <time>2020-09-01T15:44:40.480Z</time>
      </trkpt>
      <trkpt lat="46.099089" lon="11.026928">
        <ele>588.962709</ele>
        <time>2020-09-01T15:44:41.473Z</time>
      </trkpt>
      <trkpt lat="46.099118" lon="11.027092">
        <ele>588.054412</ele>
        <time>2020-09-01T15:44:42.513Z</time>
      </trkpt>
      <trkpt lat="46.099103" lon="11.027224">
        <ele>587.336565</ele>
        <time>2020-09-01T15:44:43.475Z</time>
      </trkpt>
      <trkpt lat="46.099099" lon="11.027371">
        <ele>586.547060</ele>
        <time>2020-09-01T15:44:44.476Z</time>
      </trkpt>
      <trkpt lat="46.099078" lon="11.027536">
        <ele>585.646771</ele>
        <time>2020-09-01T15:44:45.468Z</time>
      </trkpt>
      <trkpt lat="46.099074" lon="11.027714">
        <ele>584.691006</ele>
        <time>2020-09-01T15:44:46.486Z</time>
      </trkpt>
      <trkpt lat="46.099055" lon="11.027902">
        <ele>583.671415</ele>
        <time>2020-09-01T15:44:47.467Z</time>
      </trkpt>
      <trkpt lat="46.099079" lon="11.028169">
        <ele>582.226530</ele>
        <time>2020-09-01T15:44:49.470Z</time>
      </trkpt>
      <trkpt lat="46.099075" lon="11.028357">
        <ele>581.217125</ele>
        <time>2020-09-01T15:44:50.469Z</time>
      </trkpt>
      <trkpt lat="46.099100" lon="11.028518">
        <ele>580.400478</ele>
        <time>2020-09-01T15:44:51.464Z</time>
      </trkpt>
      <trkpt lat="46.099149" lon="11.028659">
        <ele>579.774566</ele>
        <time>2020-09-01T15:44:52.469Z</time>
      </trkpt>
      <trkpt lat="46.099201" lon="11.028798">
        <ele>579.147774</ele>
        <time>2020-09-01T15:44:53.508Z</time>
      </trkpt>
      <trkpt lat="46.099215" lon="11.028972">
        <ele>578.452608</ele>
        <time>2020-09-01T15:44:54.467Z</time>
      </trkpt>
      <trkpt lat="46.099242" lon="11.029141">
        <ele>577.764348</ele>
        <time>2020-09-01T15:44:55.472Z</time>
      </trkpt>
      <trkpt lat="46.099295" lon="11.029327">
        <ele>576.966299</ele>
        <time>2020-09-01T15:44:56.464Z</time>
      </trkpt>
      <trkpt lat="46.099316" lon="11.029497">
        <ele>576.281021</ele>
        <time>2020-09-01T15:44:57.474Z</time>
      </trkpt>
      <trkpt lat="46.099342" lon="11.029687">
        <ele>575.512451</ele>
        <time>2020-09-01T15:44:58.478Z</time>
      </trkpt>
      <trkpt lat="46.099380" lon="11.029848">
        <ele>574.837512</ele>
        <time>2020-09-01T15:44:59.464Z</time>
      </trkpt>
      <trkpt lat="46.099406" lon="11.029994">
        <ele>574.239299</ele>
        <time>2020-09-01T15:45:00.474Z</time>
      </trkpt>
      <trkpt lat="46.099420" lon="11.030160">
        <ele>573.575664</ele>
        <time>2020-09-01T15:45:01.464Z</time>
      </trkpt>
      <trkpt lat="46.099433" lon="11.030329">
        <ele>572.900863</ele>
        <time>2020-09-01T15:45:02.466Z</time>
      </trkpt>
      <trkpt lat="46.099455" lon="11.030497">
        <ele>572.222360</ele>
        <time>2020-09-01T15:45:03.471Z</time>
      </trkpt>
      <trkpt lat="46.099465" lon="11.030660">
        <ele>571.572959</ele>
        <time>2020-09-01T15:45:04.516Z</time>
      </trkpt>
      <trkpt lat="46.099452" lon="11.030818">
        <ele>570.941528</ele>
        <time>2020-09-01T15:45:05.477Z</time>
      </trkpt>
      <trkpt lat="46.099447" lon="11.030989">
        <ele>570.270776</ele>
        <time>2020-09-01T15:45:06.482Z</time>
      </trkpt>
      <trkpt lat="46.099437" lon="11.031136">
        <ele>569.810916</ele>
        <time>2020-09-01T15:45:07.465Z</time>
      </trkpt>
      <trkpt lat="46.099434" lon="11.031278">
        <ele>569.368615</ele>
        <time>2020-09-01T15:45:08.462Z</time>
      </trkpt>
      <trkpt lat="46.099425" lon="11.031471">
        <ele>568.766381</ele>
        <time>2020-09-01T15:45:09.469Z</time>
      </trkpt>
      <trkpt lat="46.099414" lon="11.031653">
        <ele>568.197603</ele>
        <time>2020-09-01T15:45:10.478Z</time>
      </trkpt>
      <trkpt lat="46.099416" lon="11.031944">
        <ele>567.291573</ele>
        <time>2020-09-01T15:45:12.471Z</time>
      </trkpt>
      <trkpt lat="46.099401" lon="11.032131">
        <ele>566.705494</ele>
        <time>2020-09-01T15:45:13.484Z</time>
      </trkpt>
      <trkpt lat="46.099379" lon="11.032276">
        <ele>566.243377</ele>
        <time>2020-09-01T15:45:14.482Z</time>
      </trkpt>
      <trkpt lat="46.099356" lon="11.032555">
        <ele>565.368634</ele>
        <time>2020-09-01T15:45:16.487Z</time>
      </trkpt>
      <trkpt lat="46.099358" lon="11.032799">
        <ele>564.608922</ele>
        <time>2020-09-01T15:45:18.473Z</time>
      </trkpt>
      <trkpt lat="46.099376" lon="11.033066">
        <ele>563.773737</ele>
        <time>2020-09-01T15:45:20.459Z</time>
      </trkpt>
      <trkpt lat="46.099382" lon="11.033208">
        <ele>563.330820</ele>
        <time>2020-09-01T15:45:21.446Z</time>
      </trkpt>
      <trkpt lat="46.099419" lon="11.033431">
        <ele>562.616944</ele>
        <time>2020-09-01T15:45:23.459Z</time>
      </trkpt>
      <trkpt lat="46.099438" lon="11.033560">
        <ele>562.222152</ele>
        <time>2020-09-01T15:45:24.466Z</time>
      </trkpt>
      <trkpt lat="46.099507" lon="11.033766">
        <ele>562.086688</ele>
        <time>2020-09-01T15:45:26.499Z</time>
      </trkpt>
      <trkpt lat="46.099537" lon="11.033902">
        <ele>562.002181</ele>
        <time>2020-09-01T15:45:27.444Z</time>
      </trkpt>
      <trkpt lat="46.099578" lon="11.034031">
        <ele>561.918155</ele>
        <time>2020-09-01T15:45:28.477Z</time>
      </trkpt>
      <trkpt lat="46.099631" lon="11.034166">
        <ele>561.826294</ele>
        <time>2020-09-01T15:45:29.476Z</time>
      </trkpt>
      <trkpt lat="46.099685" lon="11.034369">
        <ele>561.697551</ele>
        <time>2020-09-01T15:45:31.483Z</time>
      </trkpt>
      <trkpt lat="46.099743" lon="11.034602">
        <ele>561.550964</ele>
        <time>2020-09-01T15:45:33.473Z</time>
      </trkpt>
      <trkpt lat="46.099788" lon="11.034729">
        <ele>561.466514</ele>
        <time>2020-09-01T15:45:34.477Z</time>
      </trkpt>
      <trkpt lat="46.099776" lon="11.034982">
        <ele>561.316356</ele>
        <time>2020-09-01T15:45:36.471Z</time>
      </trkpt>
      <trkpt lat="46.099771" lon="11.035113">
        <ele>561.238670</ele>
        <time>2020-09-01T15:45:37.476Z</time>
      </trkpt>
      <trkpt lat="46.099749" lon="11.035360">
        <ele>561.091213</ele>
        <time>2020-09-01T15:45:39.474Z</time>
      </trkpt>
      <trkpt lat="46.099796" lon="11.035579">
        <ele>560.955468</ele>
        <time>2020-09-01T15:45:41.466Z</time>
      </trkpt>
      <trkpt lat="46.099850" lon="11.035775">
        <ele>560.830585</ele>
        <time>2020-09-01T15:45:43.519Z</time>
      </trkpt>
      <trkpt lat="46.099897" lon="11.035935">
        <ele>560.727694</ele>
        <time>2020-09-01T15:45:45.473Z</time>
      </trkpt>
      <trkpt lat="46.099951" lon="11.036116">
        <ele>560.969002</ele>
        <time>2020-09-01T15:45:47.456Z</time>
      </trkpt>
      <trkpt lat="46.100001" lon="11.036307">
        <ele>561.396577</ele>
        <time>2020-09-01T15:45:49.482Z</time>
      </trkpt>
      <trkpt lat="46.100076" lon="11.036505">
        <ele>561.869092</ele>
        <time>2020-09-01T15:45:51.474Z</time>
      </trkpt>
      <trkpt lat="46.100133" lon="11.036628">
        <ele>562.178928</ele>
        <time>2020-09-01T15:45:52.483Z</time>
      </trkpt>
      <trkpt lat="46.100199" lon="11.036783">
        <ele>562.559869</ele>
        <time>2020-09-01T15:45:54.510Z</time>
      </trkpt>
      <trkpt lat="46.100250" lon="11.036897">
        <ele>562.844000</ele>
        <time>2020-09-01T15:45:55.469Z</time>
      </trkpt>
      <trkpt lat="46.100237" lon="11.037105">
        <ele>563.281384</ele>
        <time>2020-09-01T15:45:57.458Z</time>
      </trkpt>
      <trkpt lat="46.100215" lon="11.037324">
        <ele>563.744828</ele>
        <time>2020-09-01T15:45:59.477Z</time>
      </trkpt>
      <trkpt lat="46.100196" lon="11.037465">
        <ele>564.045652</ele>
        <time>2020-09-01T15:46:00.470Z</time>
      </trkpt>
      <trkpt lat="46.100127" lon="11.037757">
        <ele>564.691729</ele>
        <time>2020-09-01T15:46:02.479Z</time>
      </trkpt>
      <trkpt lat="46.100121" lon="11.037886">
        <ele>564.962504</ele>
        <time>2020-09-01T15:46:03.471Z</time>
      </trkpt>
      <trkpt lat="46.100104" lon="11.038027">
        <ele>565.262234</ele>
        <time>2020-09-01T15:46:04.473Z</time>
      </trkpt>
      <trkpt lat="46.100103" lon="11.038176">
        <ele>565.574303</ele>
        <time>2020-09-01T15:46:05.513Z</time>
      </trkpt>
      <trkpt lat="46.100069" lon="11.038406">
        <ele>566.066822</ele>
        <time>2020-09-01T15:46:07.478Z</time>
      </trkpt>
      <trkpt lat="46.100022" lon="11.038697">
        <ele>566.406660</ele>
        <time>2020-09-01T15:46:09.475Z</time>
      </trkpt>
      <trkpt lat="46.099979" lon="11.038919">
        <ele>566.647289</ele>
        <time>2020-09-01T15:46:11.463Z</time>
      </trkpt>
      <trkpt lat="46.099953" lon="11.039134">
        <ele>566.875126</ele>
        <time>2020-09-01T15:46:13.467Z</time>
      </trkpt>
      <trkpt lat="46.099894" lon="11.039253">
        <ele>567.027847</ele>
        <time>2020-09-01T15:46:14.471Z</time>
      </trkpt>
      <trkpt lat="46.099841" lon="11.039367">
        <ele>567.171132</ele>
        <time>2020-09-01T15:46:15.466Z</time>
      </trkpt>
      <trkpt lat="46.099790" lon="11.039488">
        <ele>567.318956</ele>
        <time>2020-09-01T15:46:16.512Z</time>
      </trkpt>
      <trkpt lat="46.099738" lon="11.039595">
        <ele>567.455362</ele>
        <time>2020-09-01T15:46:17.466Z</time>
      </trkpt>
      <trkpt lat="46.099682" lon="11.039705">
        <ele>567.597824</ele>
        <time>2020-09-01T15:46:18.473Z</time>
      </trkpt>
      <trkpt lat="46.099616" lon="11.039827">
        <ele>567.759363</ele>
        <time>2020-09-01T15:46:19.479Z</time>
      </trkpt>
      <trkpt lat="46.099510" lon="11.040065">
        <ele>568.054663</ele>
        <time>2020-09-01T15:46:21.443Z</time>
      </trkpt>
      <trkpt lat="46.099482" lon="11.040204">
        <ele>568.205773</ele>
        <time>2020-09-01T15:46:22.452Z</time>
      </trkpt>
      <trkpt lat="46.099507" lon="11.040436">
        <ele>568.450878</ele>
        <time>2020-09-01T15:46:24.465Z</time>
      </trkpt>
      <trkpt lat="46.099510" lon="11.040583">
        <ele>568.604407</ele>
        <time>2020-09-01T15:46:25.463Z</time>
      </trkpt>
      <trkpt lat="46.099536" lon="11.040844">
        <ele>568.689471</ele>
        <time>2020-09-01T15:46:27.513Z</time>
      </trkpt>
      <trkpt lat="46.099558" lon="11.040977">
        <ele>568.280918</ele>
        <time>2020-09-01T15:46:28.464Z</time>
      </trkpt>
      <trkpt lat="46.099536" lon="11.041210">
        <ele>567.578292</ele>
        <time>2020-09-01T15:46:30.471Z</time>
      </trkpt>
      <trkpt lat="46.099511" lon="11.041335">
        <ele>567.189567</ele>
        <time>2020-09-01T15:46:31.474Z</time>
      </trkpt>
      <trkpt lat="46.099449" lon="11.041514">
        <ele>566.591702</ele>
        <time>2020-09-01T15:46:33.482Z</time>
      </trkpt>
      <trkpt lat="46.099421" lon="11.041638">
        <ele>566.202040</ele>
        <time>2020-09-01T15:46:34.476Z</time>
      </trkpt>
      <trkpt lat="46.099339" lon="11.041859">
        <ele>565.453098</ele>
        <time>2020-09-01T15:46:36.449Z</time>
      </trkpt>
      <trkpt lat="46.099262" lon="11.042089">
        <ele>564.689951</ele>
        <time>2020-09-01T15:46:38.523Z</time>
      </trkpt>
      <trkpt lat="46.099179" lon="11.042267">
        <ele>564.049014</ele>
        <time>2020-09-01T15:46:40.482Z</time>
      </trkpt>
      <trkpt lat="46.099103" lon="11.042447">
        <ele>563.419311</ele>
        <time>2020-09-01T15:46:42.490Z</time>
      </trkpt>
      <trkpt lat="46.099037" lon="11.042566">
        <ele>562.963989</ele>
        <time>2020-09-01T15:46:44.473Z</time>
      </trkpt>
      <trkpt lat="46.098950" lon="11.042730">
        <ele>562.346996</ele>
        <time>2020-09-01T15:46:46.483Z</time>
      </trkpt>
      <trkpt lat="46.098837" lon="11.042809">
        <ele>561.805863</ele>
        <time>2020-09-01T15:46:48.470Z</time>
      </trkpt>
      <trkpt lat="46.098755" lon="11.042866">
        <ele>561.413609</ele>
        <time>2020-09-01T15:46:49.512Z</time>
      </trkpt>
      <trkpt lat="46.098594" lon="11.042986">
        <ele>560.897460</ele>
        <time>2020-09-01T15:46:51.482Z</time>
      </trkpt>
      <trkpt lat="46.098516" lon="11.043054">
        <ele>560.737284</ele>
        <time>2020-09-01T15:46:52.469Z</time>
      </trkpt>
      <trkpt lat="46.098436" lon="11.043127">
        <ele>560.570913</ele>
        <time>2020-09-01T15:46:53.474Z</time>
      </trkpt>
      <trkpt lat="46.098356" lon="11.043220">
        <ele>560.390331</ele>
        <time>2020-09-01T15:46:54.470Z</time>
      </trkpt>
      <trkpt lat="46.098229" lon="11.043346">
        <ele>560.119428</ele>
        <time>2020-09-01T15:46:56.473Z</time>
      </trkpt>
      <trkpt lat="46.098156" lon="11.043464">
        <ele>559.926722</ele>
        <time>2020-09-01T15:46:57.472Z</time>
      </trkpt>
      <trkpt lat="46.098054" lon="11.043675">
        <ele>559.613279</ele>
        <time>2020-09-01T15:46:59.477Z</time>
      </trkpt>
      <trkpt lat="46.098034" lon="11.043866">
        <ele>559.377885</ele>
        <time>2020-09-01T15:47:02.471Z</time>
      </trkpt>
      <trkpt lat="46.098020" lon="11.044049">
        <ele>559.153525</ele>
        <time>2020-09-01T15:47:04.475Z</time>
      </trkpt>
      <trkpt lat="46.097992" lon="11.044213">
        <ele>558.947703</ele>
        <time>2020-09-01T15:47:06.470Z</time>
      </trkpt>
      <trkpt lat="46.097908" lon="11.044367">
        <ele>558.708934</ele>
        <time>2020-09-01T15:47:08.478Z</time>
      </trkpt>
      <trkpt lat="46.097823" lon="11.044536">
        <ele>558.454517</ele>
        <time>2020-09-01T15:47:10.470Z</time>
      </trkpt>
      <trkpt lat="46.097721" lon="11.044618">
        <ele>558.249293</ele>
        <time>2020-09-01T15:47:12.476Z</time>
      </trkpt>
      <trkpt lat="46.097610" lon="11.044727">
        <ele>558.013293</ele>
        <time>2020-09-01T15:47:14.471Z</time>
      </trkpt>
      <trkpt lat="46.097488" lon="11.044899">
        <ele>557.918923</ele>
        <time>2020-09-01T15:47:16.474Z</time>
      </trkpt>
      <trkpt lat="46.097394" lon="11.045035">
        <ele>557.918923</ele>
        <time>2020-09-01T15:47:19.468Z</time>
      </trkpt>
      <trkpt lat="46.097317" lon="11.045156">
        <ele>557.918923</ele>
        <time>2020-09-01T15:47:21.478Z</time>
      </trkpt>
      <trkpt lat="46.097255" lon="11.045372">
        <ele>557.918923</ele>
        <time>2020-09-01T15:47:23.469Z</time>
      </trkpt>
      <trkpt lat="46.097127" lon="11.045494">
        <ele>557.918923</ele>
        <time>2020-09-01T15:47:25.474Z</time>
      </trkpt>
      <trkpt lat="46.097101" lon="11.045683">
        <ele>557.918923</ele>
        <time>2020-09-01T15:47:27.469Z</time>
      </trkpt>
      <trkpt lat="46.097051" lon="11.045797">
        <ele>557.918923</ele>
        <time>2020-09-01T15:47:29.475Z</time>
      </trkpt>
      <trkpt lat="46.096990" lon="11.045932">
        <ele>557.918923</ele>
        <time>2020-09-01T15:47:31.468Z</time>
      </trkpt>
      <trkpt lat="46.096940" lon="11.046076">
        <ele>557.918923</ele>
        <time>2020-09-01T15:47:33.516Z</time>
      </trkpt>
      <trkpt lat="46.096924" lon="11.046208">
        <ele>557.918923</ele>
        <time>2020-09-01T15:47:36.451Z</time>
      </trkpt>
      <trkpt lat="46.096834" lon="11.046221">
        <ele>557.918923</ele>
        <time>2020-09-01T15:47:38.486Z</time>
      </trkpt>
      <trkpt lat="46.096751" lon="11.045997">
        <ele>557.918923</ele>
        <time>2020-09-01T15:47:40.479Z</time>
      </trkpt>
      <trkpt lat="46.096618" lon="11.045842">
        <ele>557.918923</ele>
        <time>2020-09-01T15:47:42.474Z</time>
      </trkpt>
      <trkpt lat="46.096495" lon="11.045779">
        <ele>557.918923</ele>
        <time>2020-09-01T15:47:44.510Z</time>
      </trkpt>
      <trkpt lat="46.096413" lon="11.045882">
        <ele>557.918923</ele>
        <time>2020-09-01T15:47:46.479Z</time>
      </trkpt>
      <trkpt lat="46.096288" lon="11.045899">
        <ele>557.918923</ele>
        <time>2020-09-01T15:47:49.461Z</time>
      </trkpt>
      <trkpt lat="46.096197" lon="11.045862">
        <ele>557.918923</ele>
        <time>2020-09-01T15:47:51.472Z</time>
      </trkpt>
      <trkpt lat="46.096118" lon="11.045719">
        <ele>557.918923</ele>
        <time>2020-09-01T15:47:55.519Z</time>
      </trkpt>
      <trkpt lat="46.096113" lon="11.045589">
        <ele>557.918923</ele>
        <time>2020-09-01T15:48:08.483Z</time>
      </trkpt>
      <trkpt lat="46.096266" lon="11.045549">
        <ele>557.918923</ele>
        <time>2020-09-01T15:54:28.492Z</time>
      </trkpt>
      <trkpt lat="46.096250" lon="11.045536">
        <ele>557.918923</ele>
        <time>2020-09-01T16:03:32.936Z</time>
      </trkpt>
    </trkseg>
  </trk>
</gpx>
